<?xml version="1.0" encoding="UTF-8" standalone="no" ?>
<gpx xmlns="http://www.topografix.com/GPX/1/1" xmlns:xsi="http://www.w3.org/2001/XMLSchema-instance" xsi:schemaLocation="http://www.topografix.com/GPX/1/1 http://www.topografix.com/GPX/1/1/gpx.xsd" version="1.1" creator="VisuGPX - https://www.visugpx.com">
  <metadata>
    <name>2017-06-10 Bike ride-Amberieux-Rance O 35km</name>
    <desc><![CDATA[2017-06-10 Bike ride-Amberieux-Rance O 35km]]></desc>
  </metadata>
  <wpt lat="45.9246" lon="4.73711">
    <ele>174</ele>
    <name><![CDATA[2017-06-10 10:00 (Start)]]></name>
  </wpt>
  <wpt lat="45.9246" lon="4.73712">
    <ele>174</ele>
    <name><![CDATA[2017-06-10 10:00 (End)]]></name>
    <desc><![CDATA[Created by Google My Tracks on Android  Name: 2017-06-10 10:00 Activity type: biking Description: - Total distance: 35.21 km (21.9 mi) Total time: 1:50:54 Moving time: 1:49:33 Average speed: 19.05 km/h (11.8 mi/h) Average moving speed: 19.28 km/h (12.0 mi/h) Max speed: 47.55 km/h (29.5 mi/h) Average pace: 3:09 min/km (5:04 min/mi) Average moving pace: 3:07 min/km (5:00 min/mi) Fastest pace: 1:16 min/km (2:02 min/mi) Max elevation: 297 m (975 ft) Min elevation: 162 m (531 ft) Elevation gain: 539 m (1770 ft) Max grade: 13 % Min grade: -9 % Recorded: 10/06/2017 10:00]]></desc>
  </wpt>
  <trk>
    <name><![CDATA[2017-06-10 10:00]]></name>
    <trkseg>
      <trkpt lat="45.9246" lon="4.73711">
        <ele>174</ele>
        <time>2017-06-10T08:00:11.738Z</time>
      </trkpt>
      <trkpt lat="45.92462" lon="4.73709">
        <ele>174</ele>
        <time>2017-06-10T08:00:24Z</time>
      </trkpt>
      <trkpt lat="45.92463" lon="4.73709">
        <ele>174</ele>
        <time>2017-06-10T08:00:25Z</time>
      </trkpt>
      <trkpt lat="45.92462" lon="4.73709">
        <ele>174</ele>
        <time>2017-06-10T08:00:26Z</time>
      </trkpt>
      <trkpt lat="45.92464" lon="4.73698">
        <ele>174</ele>
        <time>2017-06-10T08:01:36Z</time>
      </trkpt>
      <trkpt lat="45.92464" lon="4.73695">
        <ele>174</ele>
        <time>2017-06-10T08:01:37Z</time>
      </trkpt>
      <trkpt lat="45.92466" lon="4.73684">
        <ele>174</ele>
        <time>2017-06-10T08:01:40Z</time>
      </trkpt>
      <trkpt lat="45.92467" lon="4.7368">
        <ele>174</ele>
        <time>2017-06-10T08:01:41Z</time>
      </trkpt>
      <trkpt lat="45.9247" lon="4.73671">
        <ele>174</ele>
        <time>2017-06-10T08:01:43Z</time>
      </trkpt>
      <trkpt lat="45.9247" lon="4.73667">
        <ele>174</ele>
        <time>2017-06-10T08:01:44Z</time>
      </trkpt>
      <trkpt lat="45.92472" lon="4.73657">
        <ele>174</ele>
        <time>2017-06-10T08:01:46Z</time>
      </trkpt>
      <trkpt lat="45.92473" lon="4.73652">
        <ele>174</ele>
        <time>2017-06-10T08:01:47Z</time>
      </trkpt>
      <trkpt lat="45.92479" lon="4.73644">
        <ele>174</ele>
        <time>2017-06-10T08:01:50Z</time>
      </trkpt>
      <trkpt lat="45.92482" lon="4.73645">
        <ele>174</ele>
        <time>2017-06-10T08:01:51Z</time>
      </trkpt>
      <trkpt lat="45.92488" lon="4.73645">
        <ele>174</ele>
        <time>2017-06-10T08:01:53Z</time>
      </trkpt>
      <trkpt lat="45.92492" lon="4.73646">
        <ele>174</ele>
        <time>2017-06-10T08:01:54Z</time>
      </trkpt>
      <trkpt lat="45.92499" lon="4.73645">
        <ele>174</ele>
        <time>2017-06-10T08:01:56Z</time>
      </trkpt>
      <trkpt lat="45.92503" lon="4.73644">
        <ele>174</ele>
        <time>2017-06-10T08:01:57Z</time>
      </trkpt>
      <trkpt lat="45.9251" lon="4.73644">
        <ele>174</ele>
        <time>2017-06-10T08:01:59Z</time>
      </trkpt>
      <trkpt lat="45.92515" lon="4.73643">
        <ele>174</ele>
        <time>2017-06-10T08:02:00Z</time>
      </trkpt>
      <trkpt lat="45.92523" lon="4.73643">
        <ele>173</ele>
        <time>2017-06-10T08:02:02Z</time>
      </trkpt>
      <trkpt lat="45.92528" lon="4.73643">
        <ele>173</ele>
        <time>2017-06-10T08:02:03Z</time>
      </trkpt>
      <trkpt lat="45.92533" lon="4.73642">
        <ele>173</ele>
        <time>2017-06-10T08:02:04Z</time>
      </trkpt>
      <trkpt lat="45.92538" lon="4.73642">
        <ele>173</ele>
        <time>2017-06-10T08:02:05Z</time>
      </trkpt>
      <trkpt lat="45.92547" lon="4.73641">
        <ele>173</ele>
        <time>2017-06-10T08:02:07Z</time>
      </trkpt>
      <trkpt lat="45.92551" lon="4.7364">
        <ele>173</ele>
        <time>2017-06-10T08:02:08Z</time>
      </trkpt>
      <trkpt lat="45.92559" lon="4.73639">
        <ele>173</ele>
        <time>2017-06-10T08:02:10Z</time>
      </trkpt>
      <trkpt lat="45.92564" lon="4.73637">
        <ele>173</ele>
        <time>2017-06-10T08:02:11Z</time>
      </trkpt>
      <trkpt lat="45.92568" lon="4.73636">
        <ele>173</ele>
        <time>2017-06-10T08:02:12Z</time>
      </trkpt>
      <trkpt lat="45.92572" lon="4.73634">
        <ele>173</ele>
        <time>2017-06-10T08:02:13Z</time>
      </trkpt>
      <trkpt lat="45.92577" lon="4.73633">
        <ele>173</ele>
        <time>2017-06-10T08:02:14Z</time>
      </trkpt>
      <trkpt lat="45.92582" lon="4.73632">
        <ele>173</ele>
        <time>2017-06-10T08:02:15Z</time>
      </trkpt>
      <trkpt lat="45.92587" lon="4.7363">
        <ele>172</ele>
        <time>2017-06-10T08:02:16Z</time>
      </trkpt>
      <trkpt lat="45.92592" lon="4.73629">
        <ele>172</ele>
        <time>2017-06-10T08:02:17Z</time>
      </trkpt>
      <trkpt lat="45.92601" lon="4.73627">
        <ele>173</ele>
        <time>2017-06-10T08:02:19Z</time>
      </trkpt>
      <trkpt lat="45.92605" lon="4.73626">
        <ele>173</ele>
        <time>2017-06-10T08:02:20Z</time>
      </trkpt>
      <trkpt lat="45.9261" lon="4.73629">
        <ele>173</ele>
        <time>2017-06-10T08:02:21Z</time>
      </trkpt>
      <trkpt lat="45.92615" lon="4.73635">
        <ele>173</ele>
        <time>2017-06-10T08:02:22Z</time>
      </trkpt>
      <trkpt lat="45.92618" lon="4.7364">
        <ele>173</ele>
        <time>2017-06-10T08:02:23Z</time>
      </trkpt>
      <trkpt lat="45.92622" lon="4.73646">
        <ele>173</ele>
        <time>2017-06-10T08:02:24Z</time>
      </trkpt>
      <trkpt lat="45.92624" lon="4.73652">
        <ele>173</ele>
        <time>2017-06-10T08:02:25Z</time>
      </trkpt>
      <trkpt lat="45.92627" lon="4.7366">
        <ele>173</ele>
        <time>2017-06-10T08:02:26Z</time>
      </trkpt>
      <trkpt lat="45.9263" lon="4.73667">
        <ele>173</ele>
        <time>2017-06-10T08:02:27Z</time>
      </trkpt>
      <trkpt lat="45.92633" lon="4.73673">
        <ele>173</ele>
        <time>2017-06-10T08:02:28Z</time>
      </trkpt>
      <trkpt lat="45.92636" lon="4.73679">
        <ele>173</ele>
        <time>2017-06-10T08:02:29Z</time>
      </trkpt>
      <trkpt lat="45.92639" lon="4.73684">
        <ele>173</ele>
        <time>2017-06-10T08:02:30Z</time>
      </trkpt>
      <trkpt lat="45.92643" lon="4.73689">
        <ele>173</ele>
        <time>2017-06-10T08:02:31Z</time>
      </trkpt>
      <trkpt lat="45.92646" lon="4.73694">
        <ele>173</ele>
        <time>2017-06-10T08:02:32Z</time>
      </trkpt>
      <trkpt lat="45.92651" lon="4.73698">
        <ele>173</ele>
        <time>2017-06-10T08:02:33Z</time>
      </trkpt>
      <trkpt lat="45.92655" lon="4.73702">
        <ele>173</ele>
        <time>2017-06-10T08:02:34Z</time>
      </trkpt>
      <trkpt lat="45.9266" lon="4.73705">
        <ele>173</ele>
        <time>2017-06-10T08:02:35Z</time>
      </trkpt>
      <trkpt lat="45.92665" lon="4.73707">
        <ele>173</ele>
        <time>2017-06-10T08:02:36Z</time>
      </trkpt>
      <trkpt lat="45.92671" lon="4.7371">
        <ele>174</ele>
        <time>2017-06-10T08:02:37Z</time>
      </trkpt>
      <trkpt lat="45.92677" lon="4.73712">
        <ele>173</ele>
        <time>2017-06-10T08:02:38Z</time>
      </trkpt>
      <trkpt lat="45.92683" lon="4.73715">
        <ele>173</ele>
        <time>2017-06-10T08:02:39Z</time>
      </trkpt>
      <trkpt lat="45.92688" lon="4.73716">
        <ele>173</ele>
        <time>2017-06-10T08:02:40Z</time>
      </trkpt>
      <trkpt lat="45.92694" lon="4.73717">
        <ele>173</ele>
        <time>2017-06-10T08:02:41Z</time>
      </trkpt>
      <trkpt lat="45.927" lon="4.73719">
        <ele>173</ele>
        <time>2017-06-10T08:02:42Z</time>
      </trkpt>
      <trkpt lat="45.92706" lon="4.7372">
        <ele>173</ele>
        <time>2017-06-10T08:02:43Z</time>
      </trkpt>
      <trkpt lat="45.92712" lon="4.73722">
        <ele>173</ele>
        <time>2017-06-10T08:02:44Z</time>
      </trkpt>
      <trkpt lat="45.92717" lon="4.73723">
        <ele>173</ele>
        <time>2017-06-10T08:02:45Z</time>
      </trkpt>
      <trkpt lat="45.92723" lon="4.73724">
        <ele>173</ele>
        <time>2017-06-10T08:02:46Z</time>
      </trkpt>
      <trkpt lat="45.92729" lon="4.73725">
        <ele>173</ele>
        <time>2017-06-10T08:02:47Z</time>
      </trkpt>
      <trkpt lat="45.92734" lon="4.73725">
        <ele>173</ele>
        <time>2017-06-10T08:02:48Z</time>
      </trkpt>
      <trkpt lat="45.92739" lon="4.73726">
        <ele>173</ele>
        <time>2017-06-10T08:02:49Z</time>
      </trkpt>
      <trkpt lat="45.92744" lon="4.73727">
        <ele>173</ele>
        <time>2017-06-10T08:02:50Z</time>
      </trkpt>
      <trkpt lat="45.92748" lon="4.73727">
        <ele>173</ele>
        <time>2017-06-10T08:02:51Z</time>
      </trkpt>
      <trkpt lat="45.92753" lon="4.73728">
        <ele>172</ele>
        <time>2017-06-10T08:02:52Z</time>
      </trkpt>
      <trkpt lat="45.92759" lon="4.73729">
        <ele>172</ele>
        <time>2017-06-10T08:02:54Z</time>
      </trkpt>
      <trkpt lat="45.92762" lon="4.7373">
        <ele>172</ele>
        <time>2017-06-10T08:02:55Z</time>
      </trkpt>
      <trkpt lat="45.92769" lon="4.73731">
        <ele>172</ele>
        <time>2017-06-10T08:02:57Z</time>
      </trkpt>
      <trkpt lat="45.92771" lon="4.73733">
        <ele>172</ele>
        <time>2017-06-10T08:02:58Z</time>
      </trkpt>
      <trkpt lat="45.92771" lon="4.73744">
        <ele>172</ele>
        <time>2017-06-10T08:03:00Z</time>
      </trkpt>
      <trkpt lat="45.92774" lon="4.7375">
        <ele>172</ele>
        <time>2017-06-10T08:03:01Z</time>
      </trkpt>
      <trkpt lat="45.92779" lon="4.73754">
        <ele>173</ele>
        <time>2017-06-10T08:03:02Z</time>
      </trkpt>
      <trkpt lat="45.92784" lon="4.73757">
        <ele>173</ele>
        <time>2017-06-10T08:03:03Z</time>
      </trkpt>
      <trkpt lat="45.92789" lon="4.7376">
        <ele>173</ele>
        <time>2017-06-10T08:03:04Z</time>
      </trkpt>
      <trkpt lat="45.92794" lon="4.73763">
        <ele>173</ele>
        <time>2017-06-10T08:03:05Z</time>
      </trkpt>
      <trkpt lat="45.92799" lon="4.73767">
        <ele>173</ele>
        <time>2017-06-10T08:03:06Z</time>
      </trkpt>
      <trkpt lat="45.92805" lon="4.7377">
        <ele>173</ele>
        <time>2017-06-10T08:03:07Z</time>
      </trkpt>
      <trkpt lat="45.9281" lon="4.73773">
        <ele>173</ele>
        <time>2017-06-10T08:03:08Z</time>
      </trkpt>
      <trkpt lat="45.92816" lon="4.73777">
        <ele>173</ele>
        <time>2017-06-10T08:03:09Z</time>
      </trkpt>
      <trkpt lat="45.92822" lon="4.73781">
        <ele>173</ele>
        <time>2017-06-10T08:03:10Z</time>
      </trkpt>
      <trkpt lat="45.92827" lon="4.73785">
        <ele>173</ele>
        <time>2017-06-10T08:03:11Z</time>
      </trkpt>
      <trkpt lat="45.92833" lon="4.73788">
        <ele>173</ele>
        <time>2017-06-10T08:03:12Z</time>
      </trkpt>
      <trkpt lat="45.92838" lon="4.73791">
        <ele>173</ele>
        <time>2017-06-10T08:03:13Z</time>
      </trkpt>
      <trkpt lat="45.92844" lon="4.73795">
        <ele>173</ele>
        <time>2017-06-10T08:03:14Z</time>
      </trkpt>
      <trkpt lat="45.92849" lon="4.73798">
        <ele>173</ele>
        <time>2017-06-10T08:03:15Z</time>
      </trkpt>
      <trkpt lat="45.92854" lon="4.73803">
        <ele>173</ele>
        <time>2017-06-10T08:03:16Z</time>
      </trkpt>
      <trkpt lat="45.92858" lon="4.73809">
        <ele>173</ele>
        <time>2017-06-10T08:03:17Z</time>
      </trkpt>
      <trkpt lat="45.9286" lon="4.73817">
        <ele>173</ele>
        <time>2017-06-10T08:03:18Z</time>
      </trkpt>
      <trkpt lat="45.92862" lon="4.73824">
        <ele>173</ele>
        <time>2017-06-10T08:03:19Z</time>
      </trkpt>
      <trkpt lat="45.92864" lon="4.73831">
        <ele>173</ele>
        <time>2017-06-10T08:03:20Z</time>
      </trkpt>
      <trkpt lat="45.92866" lon="4.73839">
        <ele>173</ele>
        <time>2017-06-10T08:03:21Z</time>
      </trkpt>
      <trkpt lat="45.92868" lon="4.73846">
        <ele>173</ele>
        <time>2017-06-10T08:03:22Z</time>
      </trkpt>
      <trkpt lat="45.9287" lon="4.73854">
        <ele>173</ele>
        <time>2017-06-10T08:03:23Z</time>
      </trkpt>
      <trkpt lat="45.92873" lon="4.73861">
        <ele>173</ele>
        <time>2017-06-10T08:03:24Z</time>
      </trkpt>
      <trkpt lat="45.92875" lon="4.73869">
        <ele>173</ele>
        <time>2017-06-10T08:03:25Z</time>
      </trkpt>
      <trkpt lat="45.92877" lon="4.73877">
        <ele>173</ele>
        <time>2017-06-10T08:03:26Z</time>
      </trkpt>
      <trkpt lat="45.92879" lon="4.73885">
        <ele>173</ele>
        <time>2017-06-10T08:03:27Z</time>
      </trkpt>
      <trkpt lat="45.92879" lon="4.73895">
        <ele>173</ele>
        <time>2017-06-10T08:03:28Z</time>
      </trkpt>
      <trkpt lat="45.9288" lon="4.73903">
        <ele>173</ele>
        <time>2017-06-10T08:03:29Z</time>
      </trkpt>
      <trkpt lat="45.9288" lon="4.73912">
        <ele>173</ele>
        <time>2017-06-10T08:03:30Z</time>
      </trkpt>
      <trkpt lat="45.92881" lon="4.7392">
        <ele>172</ele>
        <time>2017-06-10T08:03:31Z</time>
      </trkpt>
      <trkpt lat="45.92881" lon="4.73928">
        <ele>172</ele>
        <time>2017-06-10T08:03:32Z</time>
      </trkpt>
      <trkpt lat="45.92881" lon="4.73937">
        <ele>172</ele>
        <time>2017-06-10T08:03:33Z</time>
      </trkpt>
      <trkpt lat="45.92881" lon="4.73945">
        <ele>172</ele>
        <time>2017-06-10T08:03:34Z</time>
      </trkpt>
      <trkpt lat="45.92881" lon="4.73952">
        <ele>172</ele>
        <time>2017-06-10T08:03:35Z</time>
      </trkpt>
      <trkpt lat="45.92881" lon="4.7396">
        <ele>172</ele>
        <time>2017-06-10T08:03:36Z</time>
      </trkpt>
      <trkpt lat="45.9288" lon="4.73969">
        <ele>172</ele>
        <time>2017-06-10T08:03:37Z</time>
      </trkpt>
      <trkpt lat="45.92879" lon="4.73976">
        <ele>172</ele>
        <time>2017-06-10T08:03:38Z</time>
      </trkpt>
      <trkpt lat="45.92878" lon="4.73984">
        <ele>172</ele>
        <time>2017-06-10T08:03:39Z</time>
      </trkpt>
      <trkpt lat="45.92877" lon="4.73991">
        <ele>172</ele>
        <time>2017-06-10T08:03:40Z</time>
      </trkpt>
      <trkpt lat="45.92875" lon="4.73998">
        <ele>172</ele>
        <time>2017-06-10T08:03:41Z</time>
      </trkpt>
      <trkpt lat="45.92874" lon="4.74005">
        <ele>172</ele>
        <time>2017-06-10T08:03:42Z</time>
      </trkpt>
      <trkpt lat="45.92872" lon="4.74013">
        <ele>172</ele>
        <time>2017-06-10T08:03:43Z</time>
      </trkpt>
      <trkpt lat="45.92871" lon="4.74021">
        <ele>172</ele>
        <time>2017-06-10T08:03:44Z</time>
      </trkpt>
      <trkpt lat="45.92869" lon="4.74028">
        <ele>172</ele>
        <time>2017-06-10T08:03:45Z</time>
      </trkpt>
      <trkpt lat="45.92866" lon="4.74035">
        <ele>172</ele>
        <time>2017-06-10T08:03:46Z</time>
      </trkpt>
      <trkpt lat="45.92863" lon="4.74042">
        <ele>172</ele>
        <time>2017-06-10T08:03:47Z</time>
      </trkpt>
      <trkpt lat="45.92858" lon="4.74048">
        <ele>172</ele>
        <time>2017-06-10T08:03:48Z</time>
      </trkpt>
      <trkpt lat="45.92854" lon="4.74054">
        <ele>172</ele>
        <time>2017-06-10T08:03:49Z</time>
      </trkpt>
      <trkpt lat="45.92849" lon="4.74059">
        <ele>172</ele>
        <time>2017-06-10T08:03:50Z</time>
      </trkpt>
      <trkpt lat="45.92845" lon="4.74064">
        <ele>172</ele>
        <time>2017-06-10T08:03:51Z</time>
      </trkpt>
      <trkpt lat="45.92841" lon="4.74069">
        <ele>172</ele>
        <time>2017-06-10T08:03:52Z</time>
      </trkpt>
      <trkpt lat="45.92837" lon="4.74074">
        <ele>171</ele>
        <time>2017-06-10T08:03:53Z</time>
      </trkpt>
      <trkpt lat="45.92833" lon="4.74079">
        <ele>171</ele>
        <time>2017-06-10T08:03:54Z</time>
      </trkpt>
      <trkpt lat="45.92829" lon="4.74085">
        <ele>171</ele>
        <time>2017-06-10T08:03:55Z</time>
      </trkpt>
      <trkpt lat="45.92825" lon="4.7409">
        <ele>171</ele>
        <time>2017-06-10T08:03:56Z</time>
      </trkpt>
      <trkpt lat="45.9282" lon="4.74096">
        <ele>171</ele>
        <time>2017-06-10T08:03:57Z</time>
      </trkpt>
      <trkpt lat="45.92815" lon="4.74101">
        <ele>172</ele>
        <time>2017-06-10T08:03:58Z</time>
      </trkpt>
      <trkpt lat="45.9281" lon="4.74106">
        <ele>172</ele>
        <time>2017-06-10T08:03:59Z</time>
      </trkpt>
      <trkpt lat="45.92806" lon="4.74111">
        <ele>172</ele>
        <time>2017-06-10T08:04:00Z</time>
      </trkpt>
      <trkpt lat="45.92801" lon="4.74117">
        <ele>172</ele>
        <time>2017-06-10T08:04:01Z</time>
      </trkpt>
      <trkpt lat="45.92797" lon="4.74122">
        <ele>172</ele>
        <time>2017-06-10T08:04:02Z</time>
      </trkpt>
      <trkpt lat="45.92793" lon="4.74126">
        <ele>172</ele>
        <time>2017-06-10T08:04:03Z</time>
      </trkpt>
      <trkpt lat="45.92789" lon="4.74131">
        <ele>172</ele>
        <time>2017-06-10T08:04:04Z</time>
      </trkpt>
      <trkpt lat="45.92785" lon="4.74135">
        <ele>172</ele>
        <time>2017-06-10T08:04:05Z</time>
      </trkpt>
      <trkpt lat="45.9278" lon="4.7414">
        <ele>172</ele>
        <time>2017-06-10T08:04:06Z</time>
      </trkpt>
      <trkpt lat="45.92776" lon="4.74144">
        <ele>172</ele>
        <time>2017-06-10T08:04:07Z</time>
      </trkpt>
      <trkpt lat="45.92771" lon="4.74148">
        <ele>172</ele>
        <time>2017-06-10T08:04:08Z</time>
      </trkpt>
      <trkpt lat="45.92767" lon="4.74152">
        <ele>172</ele>
        <time>2017-06-10T08:04:09Z</time>
      </trkpt>
      <trkpt lat="45.92762" lon="4.74157">
        <ele>172</ele>
        <time>2017-06-10T08:04:10Z</time>
      </trkpt>
      <trkpt lat="45.92757" lon="4.74162">
        <ele>172</ele>
        <time>2017-06-10T08:04:11Z</time>
      </trkpt>
      <trkpt lat="45.92753" lon="4.74167">
        <ele>172</ele>
        <time>2017-06-10T08:04:12Z</time>
      </trkpt>
      <trkpt lat="45.92748" lon="4.74172">
        <ele>172</ele>
        <time>2017-06-10T08:04:13Z</time>
      </trkpt>
      <trkpt lat="45.92744" lon="4.74177">
        <ele>172</ele>
        <time>2017-06-10T08:04:14Z</time>
      </trkpt>
      <trkpt lat="45.9274" lon="4.74183">
        <ele>172</ele>
        <time>2017-06-10T08:04:15Z</time>
      </trkpt>
      <trkpt lat="45.92735" lon="4.74189">
        <ele>171</ele>
        <time>2017-06-10T08:04:16Z</time>
      </trkpt>
      <trkpt lat="45.92731" lon="4.74195">
        <ele>171</ele>
        <time>2017-06-10T08:04:17Z</time>
      </trkpt>
      <trkpt lat="45.92727" lon="4.74201">
        <ele>171</ele>
        <time>2017-06-10T08:04:18Z</time>
      </trkpt>
      <trkpt lat="45.92723" lon="4.74207">
        <ele>171</ele>
        <time>2017-06-10T08:04:19Z</time>
      </trkpt>
      <trkpt lat="45.92719" lon="4.74212">
        <ele>171</ele>
        <time>2017-06-10T08:04:20Z</time>
      </trkpt>
      <trkpt lat="45.92715" lon="4.74218">
        <ele>171</ele>
        <time>2017-06-10T08:04:21Z</time>
      </trkpt>
      <trkpt lat="45.92711" lon="4.74224">
        <ele>171</ele>
        <time>2017-06-10T08:04:22Z</time>
      </trkpt>
      <trkpt lat="45.92707" lon="4.74229">
        <ele>171</ele>
        <time>2017-06-10T08:04:23Z</time>
      </trkpt>
      <trkpt lat="45.92704" lon="4.74234">
        <ele>171</ele>
        <time>2017-06-10T08:04:24Z</time>
      </trkpt>
      <trkpt lat="45.92701" lon="4.7424">
        <ele>171</ele>
        <time>2017-06-10T08:04:25Z</time>
      </trkpt>
      <trkpt lat="45.92698" lon="4.74246">
        <ele>171</ele>
        <time>2017-06-10T08:04:26Z</time>
      </trkpt>
      <trkpt lat="45.92694" lon="4.74251">
        <ele>171</ele>
        <time>2017-06-10T08:04:27Z</time>
      </trkpt>
      <trkpt lat="45.92691" lon="4.74257">
        <ele>171</ele>
        <time>2017-06-10T08:04:28Z</time>
      </trkpt>
      <trkpt lat="45.92687" lon="4.74263">
        <ele>171</ele>
        <time>2017-06-10T08:04:29Z</time>
      </trkpt>
      <trkpt lat="45.92683" lon="4.7427">
        <ele>171</ele>
        <time>2017-06-10T08:04:30Z</time>
      </trkpt>
      <trkpt lat="45.9268" lon="4.74276">
        <ele>171</ele>
        <time>2017-06-10T08:04:31Z</time>
      </trkpt>
      <trkpt lat="45.92676" lon="4.74283">
        <ele>171</ele>
        <time>2017-06-10T08:04:32Z</time>
      </trkpt>
      <trkpt lat="45.92672" lon="4.7429">
        <ele>171</ele>
        <time>2017-06-10T08:04:33Z</time>
      </trkpt>
      <trkpt lat="45.92669" lon="4.74297">
        <ele>171</ele>
        <time>2017-06-10T08:04:34Z</time>
      </trkpt>
      <trkpt lat="45.92664" lon="4.74303">
        <ele>171</ele>
        <time>2017-06-10T08:04:35Z</time>
      </trkpt>
      <trkpt lat="45.9266" lon="4.74309">
        <ele>171</ele>
        <time>2017-06-10T08:04:36Z</time>
      </trkpt>
      <trkpt lat="45.92657" lon="4.74316">
        <ele>171</ele>
        <time>2017-06-10T08:04:37Z</time>
      </trkpt>
      <trkpt lat="45.92653" lon="4.74323">
        <ele>171</ele>
        <time>2017-06-10T08:04:38Z</time>
      </trkpt>
      <trkpt lat="45.9265" lon="4.74329">
        <ele>171</ele>
        <time>2017-06-10T08:04:39Z</time>
      </trkpt>
      <trkpt lat="45.92647" lon="4.74335">
        <ele>171</ele>
        <time>2017-06-10T08:04:40Z</time>
      </trkpt>
      <trkpt lat="45.92643" lon="4.74342">
        <ele>171</ele>
        <time>2017-06-10T08:04:41Z</time>
      </trkpt>
      <trkpt lat="45.9264" lon="4.74349">
        <ele>171</ele>
        <time>2017-06-10T08:04:42Z</time>
      </trkpt>
      <trkpt lat="45.92636" lon="4.74357">
        <ele>171</ele>
        <time>2017-06-10T08:04:43Z</time>
      </trkpt>
      <trkpt lat="45.92632" lon="4.74363">
        <ele>171</ele>
        <time>2017-06-10T08:04:44Z</time>
      </trkpt>
      <trkpt lat="45.92628" lon="4.7437">
        <ele>171</ele>
        <time>2017-06-10T08:04:45Z</time>
      </trkpt>
      <trkpt lat="45.92624" lon="4.74377">
        <ele>170</ele>
        <time>2017-06-10T08:04:46Z</time>
      </trkpt>
      <trkpt lat="45.9262" lon="4.74384">
        <ele>170</ele>
        <time>2017-06-10T08:04:47Z</time>
      </trkpt>
      <trkpt lat="45.92617" lon="4.74392">
        <ele>170</ele>
        <time>2017-06-10T08:04:48Z</time>
      </trkpt>
      <trkpt lat="45.92613" lon="4.744">
        <ele>170</ele>
        <time>2017-06-10T08:04:49Z</time>
      </trkpt>
      <trkpt lat="45.92609" lon="4.74407">
        <ele>170</ele>
        <time>2017-06-10T08:04:50Z</time>
      </trkpt>
      <trkpt lat="45.92605" lon="4.74415">
        <ele>170</ele>
        <time>2017-06-10T08:04:51Z</time>
      </trkpt>
      <trkpt lat="45.92602" lon="4.74422">
        <ele>170</ele>
        <time>2017-06-10T08:04:52Z</time>
      </trkpt>
      <trkpt lat="45.92598" lon="4.74429">
        <ele>170</ele>
        <time>2017-06-10T08:04:53Z</time>
      </trkpt>
      <trkpt lat="45.92594" lon="4.74436">
        <ele>170</ele>
        <time>2017-06-10T08:04:54Z</time>
      </trkpt>
      <trkpt lat="45.9259" lon="4.74443">
        <ele>170</ele>
        <time>2017-06-10T08:04:55Z</time>
      </trkpt>
      <trkpt lat="45.92586" lon="4.7445">
        <ele>170</ele>
        <time>2017-06-10T08:04:56Z</time>
      </trkpt>
      <trkpt lat="45.92582" lon="4.74457">
        <ele>170</ele>
        <time>2017-06-10T08:04:57Z</time>
      </trkpt>
      <trkpt lat="45.92578" lon="4.74465">
        <ele>170</ele>
        <time>2017-06-10T08:04:58Z</time>
      </trkpt>
      <trkpt lat="45.92574" lon="4.74472">
        <ele>170</ele>
        <time>2017-06-10T08:04:59Z</time>
      </trkpt>
      <trkpt lat="45.9257" lon="4.7448">
        <ele>170</ele>
        <time>2017-06-10T08:05:00Z</time>
      </trkpt>
      <trkpt lat="45.92566" lon="4.74487">
        <ele>170</ele>
        <time>2017-06-10T08:05:01Z</time>
      </trkpt>
      <trkpt lat="45.92562" lon="4.74496">
        <ele>170</ele>
        <time>2017-06-10T08:05:02Z</time>
      </trkpt>
      <trkpt lat="45.92558" lon="4.74504">
        <ele>170</ele>
        <time>2017-06-10T08:05:03Z</time>
      </trkpt>
      <trkpt lat="45.92554" lon="4.74511">
        <ele>170</ele>
        <time>2017-06-10T08:05:04Z</time>
      </trkpt>
      <trkpt lat="45.9255" lon="4.74519">
        <ele>170</ele>
        <time>2017-06-10T08:05:05Z</time>
      </trkpt>
      <trkpt lat="45.92546" lon="4.74526">
        <ele>170</ele>
        <time>2017-06-10T08:05:06Z</time>
      </trkpt>
      <trkpt lat="45.92542" lon="4.74534">
        <ele>170</ele>
        <time>2017-06-10T08:05:07Z</time>
      </trkpt>
      <trkpt lat="45.92538" lon="4.74541">
        <ele>171</ele>
        <time>2017-06-10T08:05:08Z</time>
      </trkpt>
      <trkpt lat="45.92534" lon="4.74548">
        <ele>171</ele>
        <time>2017-06-10T08:05:09Z</time>
      </trkpt>
      <trkpt lat="45.92528" lon="4.74556">
        <ele>171</ele>
        <time>2017-06-10T08:05:10Z</time>
      </trkpt>
      <trkpt lat="45.92523" lon="4.74562">
        <ele>171</ele>
        <time>2017-06-10T08:05:11Z</time>
      </trkpt>
      <trkpt lat="45.92518" lon="4.74569">
        <ele>171</ele>
        <time>2017-06-10T08:05:12Z</time>
      </trkpt>
      <trkpt lat="45.92513" lon="4.74575">
        <ele>171</ele>
        <time>2017-06-10T08:05:13Z</time>
      </trkpt>
      <trkpt lat="45.92508" lon="4.74581">
        <ele>171</ele>
        <time>2017-06-10T08:05:14Z</time>
      </trkpt>
      <trkpt lat="45.92503" lon="4.74587">
        <ele>171</ele>
        <time>2017-06-10T08:05:15Z</time>
      </trkpt>
      <trkpt lat="45.92498" lon="4.74593">
        <ele>171</ele>
        <time>2017-06-10T08:05:16Z</time>
      </trkpt>
      <trkpt lat="45.92493" lon="4.74599">
        <ele>171</ele>
        <time>2017-06-10T08:05:17Z</time>
      </trkpt>
      <trkpt lat="45.92488" lon="4.74605">
        <ele>171</ele>
        <time>2017-06-10T08:05:18Z</time>
      </trkpt>
      <trkpt lat="45.92484" lon="4.74611">
        <ele>171</ele>
        <time>2017-06-10T08:05:19Z</time>
      </trkpt>
      <trkpt lat="45.92479" lon="4.74617">
        <ele>171</ele>
        <time>2017-06-10T08:05:20Z</time>
      </trkpt>
      <trkpt lat="45.92475" lon="4.74623">
        <ele>171</ele>
        <time>2017-06-10T08:05:21Z</time>
      </trkpt>
      <trkpt lat="45.92471" lon="4.74629">
        <ele>171</ele>
        <time>2017-06-10T08:05:22Z</time>
      </trkpt>
      <trkpt lat="45.92467" lon="4.74635">
        <ele>171</ele>
        <time>2017-06-10T08:05:23Z</time>
      </trkpt>
      <trkpt lat="45.92463" lon="4.7464">
        <ele>171</ele>
        <time>2017-06-10T08:05:24Z</time>
      </trkpt>
      <trkpt lat="45.92459" lon="4.74645">
        <ele>171</ele>
        <time>2017-06-10T08:05:25Z</time>
      </trkpt>
      <trkpt lat="45.92456" lon="4.74651">
        <ele>171</ele>
        <time>2017-06-10T08:05:26Z</time>
      </trkpt>
      <trkpt lat="45.92453" lon="4.74657">
        <ele>171</ele>
        <time>2017-06-10T08:05:27Z</time>
      </trkpt>
      <trkpt lat="45.92449" lon="4.74663">
        <ele>171</ele>
        <time>2017-06-10T08:05:28Z</time>
      </trkpt>
      <trkpt lat="45.92446" lon="4.74669">
        <ele>171</ele>
        <time>2017-06-10T08:05:29Z</time>
      </trkpt>
      <trkpt lat="45.92444" lon="4.74677">
        <ele>171</ele>
        <time>2017-06-10T08:05:30Z</time>
      </trkpt>
      <trkpt lat="45.92441" lon="4.74684">
        <ele>171</ele>
        <time>2017-06-10T08:05:31Z</time>
      </trkpt>
      <trkpt lat="45.92438" lon="4.74692">
        <ele>171</ele>
        <time>2017-06-10T08:05:32Z</time>
      </trkpt>
      <trkpt lat="45.92434" lon="4.74699">
        <ele>171</ele>
        <time>2017-06-10T08:05:33Z</time>
      </trkpt>
      <trkpt lat="45.92431" lon="4.74706">
        <ele>171</ele>
        <time>2017-06-10T08:05:34Z</time>
      </trkpt>
      <trkpt lat="45.92427" lon="4.74714">
        <ele>171</ele>
        <time>2017-06-10T08:05:35Z</time>
      </trkpt>
      <trkpt lat="45.92424" lon="4.74722">
        <ele>171</ele>
        <time>2017-06-10T08:05:36Z</time>
      </trkpt>
      <trkpt lat="45.92421" lon="4.7473">
        <ele>171</ele>
        <time>2017-06-10T08:05:37Z</time>
      </trkpt>
      <trkpt lat="45.92418" lon="4.74738">
        <ele>172</ele>
        <time>2017-06-10T08:05:38Z</time>
      </trkpt>
      <trkpt lat="45.92416" lon="4.74746">
        <ele>172</ele>
        <time>2017-06-10T08:05:39Z</time>
      </trkpt>
      <trkpt lat="45.92413" lon="4.74754">
        <ele>172</ele>
        <time>2017-06-10T08:05:40Z</time>
      </trkpt>
      <trkpt lat="45.92411" lon="4.74762">
        <ele>172</ele>
        <time>2017-06-10T08:05:41Z</time>
      </trkpt>
      <trkpt lat="45.92409" lon="4.74771">
        <ele>172</ele>
        <time>2017-06-10T08:05:42Z</time>
      </trkpt>
      <trkpt lat="45.92408" lon="4.7478">
        <ele>171</ele>
        <time>2017-06-10T08:05:43Z</time>
      </trkpt>
      <trkpt lat="45.92406" lon="4.74789">
        <ele>171</ele>
        <time>2017-06-10T08:05:44Z</time>
      </trkpt>
      <trkpt lat="45.92404" lon="4.74799">
        <ele>171</ele>
        <time>2017-06-10T08:05:45Z</time>
      </trkpt>
      <trkpt lat="45.92403" lon="4.74808">
        <ele>171</ele>
        <time>2017-06-10T08:05:46Z</time>
      </trkpt>
      <trkpt lat="45.92401" lon="4.74817">
        <ele>171</ele>
        <time>2017-06-10T08:05:47Z</time>
      </trkpt>
      <trkpt lat="45.92399" lon="4.74827">
        <ele>171</ele>
        <time>2017-06-10T08:05:48Z</time>
      </trkpt>
      <trkpt lat="45.92397" lon="4.74836">
        <ele>171</ele>
        <time>2017-06-10T08:05:49Z</time>
      </trkpt>
      <trkpt lat="45.92395" lon="4.74845">
        <ele>171</ele>
        <time>2017-06-10T08:05:50Z</time>
      </trkpt>
      <trkpt lat="45.92392" lon="4.74854">
        <ele>171</ele>
        <time>2017-06-10T08:05:51Z</time>
      </trkpt>
      <trkpt lat="45.92389" lon="4.74862">
        <ele>171</ele>
        <time>2017-06-10T08:05:52Z</time>
      </trkpt>
      <trkpt lat="45.92386" lon="4.7487">
        <ele>171</ele>
        <time>2017-06-10T08:05:53Z</time>
      </trkpt>
      <trkpt lat="45.92383" lon="4.74878">
        <ele>171</ele>
        <time>2017-06-10T08:05:54Z</time>
      </trkpt>
      <trkpt lat="45.9238" lon="4.74886">
        <ele>171</ele>
        <time>2017-06-10T08:05:55Z</time>
      </trkpt>
      <trkpt lat="45.92377" lon="4.74894">
        <ele>171</ele>
        <time>2017-06-10T08:05:56Z</time>
      </trkpt>
      <trkpt lat="45.92374" lon="4.74901">
        <ele>171</ele>
        <time>2017-06-10T08:05:57Z</time>
      </trkpt>
      <trkpt lat="45.9237" lon="4.74908">
        <ele>171</ele>
        <time>2017-06-10T08:05:58Z</time>
      </trkpt>
      <trkpt lat="45.92368" lon="4.74916">
        <ele>171</ele>
        <time>2017-06-10T08:05:59Z</time>
      </trkpt>
      <trkpt lat="45.92365" lon="4.74923">
        <ele>170</ele>
        <time>2017-06-10T08:06:00Z</time>
      </trkpt>
      <trkpt lat="45.92362" lon="4.7493">
        <ele>170</ele>
        <time>2017-06-10T08:06:01Z</time>
      </trkpt>
      <trkpt lat="45.92359" lon="4.74937">
        <ele>170</ele>
        <time>2017-06-10T08:06:02Z</time>
      </trkpt>
      <trkpt lat="45.92356" lon="4.74945">
        <ele>170</ele>
        <time>2017-06-10T08:06:03Z</time>
      </trkpt>
      <trkpt lat="45.92353" lon="4.74952">
        <ele>170</ele>
        <time>2017-06-10T08:06:04Z</time>
      </trkpt>
      <trkpt lat="45.9235" lon="4.74959">
        <ele>170</ele>
        <time>2017-06-10T08:06:05Z</time>
      </trkpt>
      <trkpt lat="45.92347" lon="4.74966">
        <ele>170</ele>
        <time>2017-06-10T08:06:06Z</time>
      </trkpt>
      <trkpt lat="45.92343" lon="4.74974">
        <ele>170</ele>
        <time>2017-06-10T08:06:07Z</time>
      </trkpt>
      <trkpt lat="45.9234" lon="4.74981">
        <ele>170</ele>
        <time>2017-06-10T08:06:08Z</time>
      </trkpt>
      <trkpt lat="45.92337" lon="4.74989">
        <ele>170</ele>
        <time>2017-06-10T08:06:09Z</time>
      </trkpt>
      <trkpt lat="45.92334" lon="4.74997">
        <ele>170</ele>
        <time>2017-06-10T08:06:10Z</time>
      </trkpt>
      <trkpt lat="45.9233" lon="4.75004">
        <ele>170</ele>
        <time>2017-06-10T08:06:11Z</time>
      </trkpt>
      <trkpt lat="45.92326" lon="4.75012">
        <ele>171</ele>
        <time>2017-06-10T08:06:12Z</time>
      </trkpt>
      <trkpt lat="45.92322" lon="4.75019">
        <ele>171</ele>
        <time>2017-06-10T08:06:13Z</time>
      </trkpt>
      <trkpt lat="45.92318" lon="4.75026">
        <ele>171</ele>
        <time>2017-06-10T08:06:14Z</time>
      </trkpt>
      <trkpt lat="45.92314" lon="4.75033">
        <ele>171</ele>
        <time>2017-06-10T08:06:15Z</time>
      </trkpt>
      <trkpt lat="45.92311" lon="4.7504">
        <ele>172</ele>
        <time>2017-06-10T08:06:16Z</time>
      </trkpt>
      <trkpt lat="45.92307" lon="4.75046">
        <ele>172</ele>
        <time>2017-06-10T08:06:17Z</time>
      </trkpt>
      <trkpt lat="45.92303" lon="4.75052">
        <ele>172</ele>
        <time>2017-06-10T08:06:18Z</time>
      </trkpt>
      <trkpt lat="45.92299" lon="4.75057">
        <ele>172</ele>
        <time>2017-06-10T08:06:19Z</time>
      </trkpt>
      <trkpt lat="45.92295" lon="4.75062">
        <ele>172</ele>
        <time>2017-06-10T08:06:20Z</time>
      </trkpt>
      <trkpt lat="45.92291" lon="4.75067">
        <ele>172</ele>
        <time>2017-06-10T08:06:21Z</time>
      </trkpt>
      <trkpt lat="45.92286" lon="4.75073">
        <ele>172</ele>
        <time>2017-06-10T08:06:22Z</time>
      </trkpt>
      <trkpt lat="45.92281" lon="4.75078">
        <ele>172</ele>
        <time>2017-06-10T08:06:23Z</time>
      </trkpt>
      <trkpt lat="45.92277" lon="4.75082">
        <ele>172</ele>
        <time>2017-06-10T08:06:24Z</time>
      </trkpt>
      <trkpt lat="45.92272" lon="4.75087">
        <ele>173</ele>
        <time>2017-06-10T08:06:25Z</time>
      </trkpt>
      <trkpt lat="45.92267" lon="4.75092">
        <ele>173</ele>
        <time>2017-06-10T08:06:26Z</time>
      </trkpt>
      <trkpt lat="45.92262" lon="4.75097">
        <ele>173</ele>
        <time>2017-06-10T08:06:27Z</time>
      </trkpt>
      <trkpt lat="45.92257" lon="4.75102">
        <ele>173</ele>
        <time>2017-06-10T08:06:28Z</time>
      </trkpt>
      <trkpt lat="45.92252" lon="4.75108">
        <ele>174</ele>
        <time>2017-06-10T08:06:29Z</time>
      </trkpt>
      <trkpt lat="45.92248" lon="4.75113">
        <ele>174</ele>
        <time>2017-06-10T08:06:30Z</time>
      </trkpt>
      <trkpt lat="45.92243" lon="4.75118">
        <ele>174</ele>
        <time>2017-06-10T08:06:31Z</time>
      </trkpt>
      <trkpt lat="45.92239" lon="4.75124">
        <ele>174</ele>
        <time>2017-06-10T08:06:32Z</time>
      </trkpt>
      <trkpt lat="45.92234" lon="4.75129">
        <ele>174</ele>
        <time>2017-06-10T08:06:33Z</time>
      </trkpt>
      <trkpt lat="45.9223" lon="4.75135">
        <ele>174</ele>
        <time>2017-06-10T08:06:34Z</time>
      </trkpt>
      <trkpt lat="45.92227" lon="4.75141">
        <ele>174</ele>
        <time>2017-06-10T08:06:35Z</time>
      </trkpt>
      <trkpt lat="45.92223" lon="4.75147">
        <ele>174</ele>
        <time>2017-06-10T08:06:36Z</time>
      </trkpt>
      <trkpt lat="45.9222" lon="4.75154">
        <ele>174</ele>
        <time>2017-06-10T08:06:37Z</time>
      </trkpt>
      <trkpt lat="45.92217" lon="4.75161">
        <ele>174</ele>
        <time>2017-06-10T08:06:38Z</time>
      </trkpt>
      <trkpt lat="45.92214" lon="4.75169">
        <ele>175</ele>
        <time>2017-06-10T08:06:39Z</time>
      </trkpt>
      <trkpt lat="45.92211" lon="4.75177">
        <ele>175</ele>
        <time>2017-06-10T08:06:40Z</time>
      </trkpt>
      <trkpt lat="45.92209" lon="4.75185">
        <ele>175</ele>
        <time>2017-06-10T08:06:41Z</time>
      </trkpt>
      <trkpt lat="45.92207" lon="4.75193">
        <ele>175</ele>
        <time>2017-06-10T08:06:42Z</time>
      </trkpt>
      <trkpt lat="45.92205" lon="4.75201">
        <ele>175</ele>
        <time>2017-06-10T08:06:43Z</time>
      </trkpt>
      <trkpt lat="45.92204" lon="4.75208">
        <ele>175</ele>
        <time>2017-06-10T08:06:44Z</time>
      </trkpt>
      <trkpt lat="45.92204" lon="4.75217">
        <ele>175</ele>
        <time>2017-06-10T08:06:45Z</time>
      </trkpt>
      <trkpt lat="45.92203" lon="4.75224">
        <ele>175</ele>
        <time>2017-06-10T08:06:46Z</time>
      </trkpt>
      <trkpt lat="45.92203" lon="4.75232">
        <ele>175</ele>
        <time>2017-06-10T08:06:47Z</time>
      </trkpt>
      <trkpt lat="45.92203" lon="4.7524">
        <ele>175</ele>
        <time>2017-06-10T08:06:48Z</time>
      </trkpt>
      <trkpt lat="45.92203" lon="4.75247">
        <ele>175</ele>
        <time>2017-06-10T08:06:49Z</time>
      </trkpt>
      <trkpt lat="45.92203" lon="4.75254">
        <ele>175</ele>
        <time>2017-06-10T08:06:50Z</time>
      </trkpt>
      <trkpt lat="45.92202" lon="4.75262">
        <ele>176</ele>
        <time>2017-06-10T08:06:51Z</time>
      </trkpt>
      <trkpt lat="45.92203" lon="4.75269">
        <ele>176</ele>
        <time>2017-06-10T08:06:52Z</time>
      </trkpt>
      <trkpt lat="45.92203" lon="4.75277">
        <ele>176</ele>
        <time>2017-06-10T08:06:53Z</time>
      </trkpt>
      <trkpt lat="45.92203" lon="4.75285">
        <ele>176</ele>
        <time>2017-06-10T08:06:54Z</time>
      </trkpt>
      <trkpt lat="45.92204" lon="4.75294">
        <ele>176</ele>
        <time>2017-06-10T08:06:55Z</time>
      </trkpt>
      <trkpt lat="45.92205" lon="4.75302">
        <ele>176</ele>
        <time>2017-06-10T08:06:56Z</time>
      </trkpt>
      <trkpt lat="45.92205" lon="4.75312">
        <ele>176</ele>
        <time>2017-06-10T08:06:57Z</time>
      </trkpt>
      <trkpt lat="45.92204" lon="4.7532">
        <ele>176</ele>
        <time>2017-06-10T08:06:58Z</time>
      </trkpt>
      <trkpt lat="45.92202" lon="4.75329">
        <ele>176</ele>
        <time>2017-06-10T08:06:59Z</time>
      </trkpt>
      <trkpt lat="45.92201" lon="4.75337">
        <ele>177</ele>
        <time>2017-06-10T08:07:00Z</time>
      </trkpt>
      <trkpt lat="45.92199" lon="4.75345">
        <ele>177</ele>
        <time>2017-06-10T08:07:01Z</time>
      </trkpt>
      <trkpt lat="45.92197" lon="4.75353">
        <ele>177</ele>
        <time>2017-06-10T08:07:02Z</time>
      </trkpt>
      <trkpt lat="45.92195" lon="4.7536">
        <ele>177</ele>
        <time>2017-06-10T08:07:03Z</time>
      </trkpt>
      <trkpt lat="45.92192" lon="4.75367">
        <ele>177</ele>
        <time>2017-06-10T08:07:04Z</time>
      </trkpt>
      <trkpt lat="45.92189" lon="4.75373">
        <ele>177</ele>
        <time>2017-06-10T08:07:05Z</time>
      </trkpt>
      <trkpt lat="45.92186" lon="4.7538">
        <ele>177</ele>
        <time>2017-06-10T08:07:06Z</time>
      </trkpt>
      <trkpt lat="45.92183" lon="4.75386">
        <ele>177</ele>
        <time>2017-06-10T08:07:07Z</time>
      </trkpt>
      <trkpt lat="45.92181" lon="4.75393">
        <ele>177</ele>
        <time>2017-06-10T08:07:08Z</time>
      </trkpt>
      <trkpt lat="45.92178" lon="4.754">
        <ele>177</ele>
        <time>2017-06-10T08:07:09Z</time>
      </trkpt>
      <trkpt lat="45.92175" lon="4.75407">
        <ele>177</ele>
        <time>2017-06-10T08:07:10Z</time>
      </trkpt>
      <trkpt lat="45.92172" lon="4.75413">
        <ele>178</ele>
        <time>2017-06-10T08:07:11Z</time>
      </trkpt>
      <trkpt lat="45.92169" lon="4.7542">
        <ele>178</ele>
        <time>2017-06-10T08:07:12Z</time>
      </trkpt>
      <trkpt lat="45.92166" lon="4.75428">
        <ele>177</ele>
        <time>2017-06-10T08:07:13Z</time>
      </trkpt>
      <trkpt lat="45.92163" lon="4.75436">
        <ele>177</ele>
        <time>2017-06-10T08:07:14Z</time>
      </trkpt>
      <trkpt lat="45.92158" lon="4.75444">
        <ele>177</ele>
        <time>2017-06-10T08:07:15Z</time>
      </trkpt>
      <trkpt lat="45.92154" lon="4.75452">
        <ele>176</ele>
        <time>2017-06-10T08:07:16Z</time>
      </trkpt>
      <trkpt lat="45.92152" lon="4.75458">
        <ele>176</ele>
        <time>2017-06-10T08:07:17Z</time>
      </trkpt>
      <trkpt lat="45.9215" lon="4.75466">
        <ele>176</ele>
        <time>2017-06-10T08:07:18Z</time>
      </trkpt>
      <trkpt lat="45.92147" lon="4.75473">
        <ele>176</ele>
        <time>2017-06-10T08:07:19Z</time>
      </trkpt>
      <trkpt lat="45.92144" lon="4.7548">
        <ele>176</ele>
        <time>2017-06-10T08:07:20Z</time>
      </trkpt>
      <trkpt lat="45.92141" lon="4.75488">
        <ele>176</ele>
        <time>2017-06-10T08:07:21Z</time>
      </trkpt>
      <trkpt lat="45.92138" lon="4.75495">
        <ele>176</ele>
        <time>2017-06-10T08:07:22Z</time>
      </trkpt>
      <trkpt lat="45.92134" lon="4.75503">
        <ele>174</ele>
        <time>2017-06-10T08:07:23Z</time>
      </trkpt>
      <trkpt lat="45.92131" lon="4.7551">
        <ele>174</ele>
        <time>2017-06-10T08:07:24Z</time>
      </trkpt>
      <trkpt lat="45.92127" lon="4.75516">
        <ele>174</ele>
        <time>2017-06-10T08:07:25Z</time>
      </trkpt>
      <trkpt lat="45.92124" lon="4.75523">
        <ele>174</ele>
        <time>2017-06-10T08:07:26Z</time>
      </trkpt>
      <trkpt lat="45.9212" lon="4.7553">
        <ele>174</ele>
        <time>2017-06-10T08:07:27Z</time>
      </trkpt>
      <trkpt lat="45.92116" lon="4.75537">
        <ele>174</ele>
        <time>2017-06-10T08:07:28Z</time>
      </trkpt>
      <trkpt lat="45.92113" lon="4.75543">
        <ele>174</ele>
        <time>2017-06-10T08:07:29Z</time>
      </trkpt>
      <trkpt lat="45.92109" lon="4.7555">
        <ele>174</ele>
        <time>2017-06-10T08:07:30Z</time>
      </trkpt>
      <trkpt lat="45.92107" lon="4.75556">
        <ele>174</ele>
        <time>2017-06-10T08:07:31Z</time>
      </trkpt>
      <trkpt lat="45.92104" lon="4.75562">
        <ele>174</ele>
        <time>2017-06-10T08:07:32Z</time>
      </trkpt>
      <trkpt lat="45.92103" lon="4.75569">
        <ele>174</ele>
        <time>2017-06-10T08:07:33Z</time>
      </trkpt>
      <trkpt lat="45.92104" lon="4.75576">
        <ele>174</ele>
        <time>2017-06-10T08:07:34Z</time>
      </trkpt>
      <trkpt lat="45.92106" lon="4.75582">
        <ele>174</ele>
        <time>2017-06-10T08:07:35Z</time>
      </trkpt>
      <trkpt lat="45.9211" lon="4.75589">
        <ele>174</ele>
        <time>2017-06-10T08:07:36Z</time>
      </trkpt>
      <trkpt lat="45.92115" lon="4.75594">
        <ele>174</ele>
        <time>2017-06-10T08:07:37Z</time>
      </trkpt>
      <trkpt lat="45.9212" lon="4.75598">
        <ele>174</ele>
        <time>2017-06-10T08:07:38Z</time>
      </trkpt>
      <trkpt lat="45.92125" lon="4.75603">
        <ele>174</ele>
        <time>2017-06-10T08:07:39Z</time>
      </trkpt>
      <trkpt lat="45.9213" lon="4.75608">
        <ele>174</ele>
        <time>2017-06-10T08:07:40Z</time>
      </trkpt>
      <trkpt lat="45.92135" lon="4.75613">
        <ele>174</ele>
        <time>2017-06-10T08:07:41Z</time>
      </trkpt>
      <trkpt lat="45.9214" lon="4.75619">
        <ele>174</ele>
        <time>2017-06-10T08:07:42Z</time>
      </trkpt>
      <trkpt lat="45.92145" lon="4.75624">
        <ele>174</ele>
        <time>2017-06-10T08:07:43Z</time>
      </trkpt>
      <trkpt lat="45.9215" lon="4.75628">
        <ele>174</ele>
        <time>2017-06-10T08:07:44Z</time>
      </trkpt>
      <trkpt lat="45.92155" lon="4.75634">
        <ele>174</ele>
        <time>2017-06-10T08:07:45Z</time>
      </trkpt>
      <trkpt lat="45.92159" lon="4.75638">
        <ele>174</ele>
        <time>2017-06-10T08:07:46Z</time>
      </trkpt>
      <trkpt lat="45.92163" lon="4.75642">
        <ele>174</ele>
        <time>2017-06-10T08:07:47Z</time>
      </trkpt>
      <trkpt lat="45.92168" lon="4.75646">
        <ele>174</ele>
        <time>2017-06-10T08:07:48Z</time>
      </trkpt>
      <trkpt lat="45.92172" lon="4.7565">
        <ele>174</ele>
        <time>2017-06-10T08:07:49Z</time>
      </trkpt>
      <trkpt lat="45.92177" lon="4.75654">
        <ele>174</ele>
        <time>2017-06-10T08:07:50Z</time>
      </trkpt>
      <trkpt lat="45.92181" lon="4.75659">
        <ele>174</ele>
        <time>2017-06-10T08:07:51Z</time>
      </trkpt>
      <trkpt lat="45.92184" lon="4.75662">
        <ele>174</ele>
        <time>2017-06-10T08:07:52Z</time>
      </trkpt>
      <trkpt lat="45.92188" lon="4.75666">
        <ele>174</ele>
        <time>2017-06-10T08:07:53Z</time>
      </trkpt>
      <trkpt lat="45.92193" lon="4.75671">
        <ele>174</ele>
        <time>2017-06-10T08:07:54Z</time>
      </trkpt>
      <trkpt lat="45.92198" lon="4.75676">
        <ele>174</ele>
        <time>2017-06-10T08:07:55Z</time>
      </trkpt>
      <trkpt lat="45.92202" lon="4.75681">
        <ele>174</ele>
        <time>2017-06-10T08:07:56Z</time>
      </trkpt>
      <trkpt lat="45.92207" lon="4.75685">
        <ele>174</ele>
        <time>2017-06-10T08:07:57Z</time>
      </trkpt>
      <trkpt lat="45.92211" lon="4.75689">
        <ele>174</ele>
        <time>2017-06-10T08:07:58Z</time>
      </trkpt>
      <trkpt lat="45.92215" lon="4.75694">
        <ele>174</ele>
        <time>2017-06-10T08:07:59Z</time>
      </trkpt>
      <trkpt lat="45.92219" lon="4.75698">
        <ele>174</ele>
        <time>2017-06-10T08:08:00Z</time>
      </trkpt>
      <trkpt lat="45.92223" lon="4.75704">
        <ele>174</ele>
        <time>2017-06-10T08:08:01Z</time>
      </trkpt>
      <trkpt lat="45.92227" lon="4.75709">
        <ele>174</ele>
        <time>2017-06-10T08:08:02Z</time>
      </trkpt>
      <trkpt lat="45.92231" lon="4.75714">
        <ele>174</ele>
        <time>2017-06-10T08:08:03Z</time>
      </trkpt>
      <trkpt lat="45.92234" lon="4.7572">
        <ele>174</ele>
        <time>2017-06-10T08:08:04Z</time>
      </trkpt>
      <trkpt lat="45.92237" lon="4.75726">
        <ele>174</ele>
        <time>2017-06-10T08:08:05Z</time>
      </trkpt>
      <trkpt lat="45.92239" lon="4.75732">
        <ele>174</ele>
        <time>2017-06-10T08:08:06Z</time>
      </trkpt>
      <trkpt lat="45.92242" lon="4.75739">
        <ele>174</ele>
        <time>2017-06-10T08:08:07Z</time>
      </trkpt>
      <trkpt lat="45.92244" lon="4.75747">
        <ele>174</ele>
        <time>2017-06-10T08:08:08Z</time>
      </trkpt>
      <trkpt lat="45.92246" lon="4.75754">
        <ele>174</ele>
        <time>2017-06-10T08:08:09Z</time>
      </trkpt>
      <trkpt lat="45.92248" lon="4.75761">
        <ele>174</ele>
        <time>2017-06-10T08:08:10Z</time>
      </trkpt>
      <trkpt lat="45.92249" lon="4.75768">
        <ele>174</ele>
        <time>2017-06-10T08:08:11Z</time>
      </trkpt>
      <trkpt lat="45.9225" lon="4.75775">
        <ele>174</ele>
        <time>2017-06-10T08:08:12Z</time>
      </trkpt>
      <trkpt lat="45.92252" lon="4.75782">
        <ele>174</ele>
        <time>2017-06-10T08:08:13Z</time>
      </trkpt>
      <trkpt lat="45.92253" lon="4.75789">
        <ele>174</ele>
        <time>2017-06-10T08:08:14Z</time>
      </trkpt>
      <trkpt lat="45.92255" lon="4.75796">
        <ele>174</ele>
        <time>2017-06-10T08:08:15Z</time>
      </trkpt>
      <trkpt lat="45.92257" lon="4.75803">
        <ele>174</ele>
        <time>2017-06-10T08:08:16Z</time>
      </trkpt>
      <trkpt lat="45.92259" lon="4.7581">
        <ele>174</ele>
        <time>2017-06-10T08:08:17Z</time>
      </trkpt>
      <trkpt lat="45.92262" lon="4.75817">
        <ele>174</ele>
        <time>2017-06-10T08:08:18Z</time>
      </trkpt>
      <trkpt lat="45.92265" lon="4.75823">
        <ele>174</ele>
        <time>2017-06-10T08:08:19Z</time>
      </trkpt>
      <trkpt lat="45.92269" lon="4.75829">
        <ele>174</ele>
        <time>2017-06-10T08:08:20Z</time>
      </trkpt>
      <trkpt lat="45.92274" lon="4.75834">
        <ele>173</ele>
        <time>2017-06-10T08:08:21Z</time>
      </trkpt>
      <trkpt lat="45.92279" lon="4.75839">
        <ele>173</ele>
        <time>2017-06-10T08:08:22Z</time>
      </trkpt>
      <trkpt lat="45.92285" lon="4.75842">
        <ele>173</ele>
        <time>2017-06-10T08:08:23Z</time>
      </trkpt>
      <trkpt lat="45.92291" lon="4.75846">
        <ele>173</ele>
        <time>2017-06-10T08:08:24Z</time>
      </trkpt>
      <trkpt lat="45.92296" lon="4.75849">
        <ele>173</ele>
        <time>2017-06-10T08:08:25Z</time>
      </trkpt>
      <trkpt lat="45.92302" lon="4.75853">
        <ele>173</ele>
        <time>2017-06-10T08:08:26Z</time>
      </trkpt>
      <trkpt lat="45.92307" lon="4.75856">
        <ele>173</ele>
        <time>2017-06-10T08:08:27Z</time>
      </trkpt>
      <trkpt lat="45.92313" lon="4.7586">
        <ele>173</ele>
        <time>2017-06-10T08:08:28Z</time>
      </trkpt>
      <trkpt lat="45.92318" lon="4.75864">
        <ele>173</ele>
        <time>2017-06-10T08:08:29Z</time>
      </trkpt>
      <trkpt lat="45.92324" lon="4.75868">
        <ele>173</ele>
        <time>2017-06-10T08:08:30Z</time>
      </trkpt>
      <trkpt lat="45.92329" lon="4.75871">
        <ele>173</ele>
        <time>2017-06-10T08:08:31Z</time>
      </trkpt>
      <trkpt lat="45.92335" lon="4.75876">
        <ele>173</ele>
        <time>2017-06-10T08:08:32Z</time>
      </trkpt>
      <trkpt lat="45.92341" lon="4.75879">
        <ele>173</ele>
        <time>2017-06-10T08:08:33Z</time>
      </trkpt>
      <trkpt lat="45.92346" lon="4.75883">
        <ele>173</ele>
        <time>2017-06-10T08:08:34Z</time>
      </trkpt>
      <trkpt lat="45.92352" lon="4.75887">
        <ele>173</ele>
        <time>2017-06-10T08:08:35Z</time>
      </trkpt>
      <trkpt lat="45.92358" lon="4.75891">
        <ele>173</ele>
        <time>2017-06-10T08:08:36Z</time>
      </trkpt>
      <trkpt lat="45.92363" lon="4.75895">
        <ele>173</ele>
        <time>2017-06-10T08:08:37Z</time>
      </trkpt>
      <trkpt lat="45.92368" lon="4.75898">
        <ele>173</ele>
        <time>2017-06-10T08:08:38Z</time>
      </trkpt>
      <trkpt lat="45.92373" lon="4.75902">
        <ele>173</ele>
        <time>2017-06-10T08:08:39Z</time>
      </trkpt>
      <trkpt lat="45.92379" lon="4.75905">
        <ele>173</ele>
        <time>2017-06-10T08:08:40Z</time>
      </trkpt>
      <trkpt lat="45.92384" lon="4.75908">
        <ele>173</ele>
        <time>2017-06-10T08:08:41Z</time>
      </trkpt>
      <trkpt lat="45.92389" lon="4.75911">
        <ele>173</ele>
        <time>2017-06-10T08:08:42Z</time>
      </trkpt>
      <trkpt lat="45.92394" lon="4.75914">
        <ele>173</ele>
        <time>2017-06-10T08:08:43Z</time>
      </trkpt>
      <trkpt lat="45.924" lon="4.75918">
        <ele>172</ele>
        <time>2017-06-10T08:08:44Z</time>
      </trkpt>
      <trkpt lat="45.92405" lon="4.75922">
        <ele>172</ele>
        <time>2017-06-10T08:08:45Z</time>
      </trkpt>
      <trkpt lat="45.92411" lon="4.75926">
        <ele>172</ele>
        <time>2017-06-10T08:08:46Z</time>
      </trkpt>
      <trkpt lat="45.92417" lon="4.75929">
        <ele>172</ele>
        <time>2017-06-10T08:08:47Z</time>
      </trkpt>
      <trkpt lat="45.92423" lon="4.75933">
        <ele>172</ele>
        <time>2017-06-10T08:08:48Z</time>
      </trkpt>
      <trkpt lat="45.92429" lon="4.75938">
        <ele>172</ele>
        <time>2017-06-10T08:08:49Z</time>
      </trkpt>
      <trkpt lat="45.92434" lon="4.75942">
        <ele>172</ele>
        <time>2017-06-10T08:08:50Z</time>
      </trkpt>
      <trkpt lat="45.9244" lon="4.75946">
        <ele>172</ele>
        <time>2017-06-10T08:08:51Z</time>
      </trkpt>
      <trkpt lat="45.92445" lon="4.75951">
        <ele>172</ele>
        <time>2017-06-10T08:08:52Z</time>
      </trkpt>
      <trkpt lat="45.92451" lon="4.75955">
        <ele>172</ele>
        <time>2017-06-10T08:08:53Z</time>
      </trkpt>
      <trkpt lat="45.92456" lon="4.7596">
        <ele>172</ele>
        <time>2017-06-10T08:08:54Z</time>
      </trkpt>
      <trkpt lat="45.92462" lon="4.75964">
        <ele>172</ele>
        <time>2017-06-10T08:08:55Z</time>
      </trkpt>
      <trkpt lat="45.92468" lon="4.75969">
        <ele>172</ele>
        <time>2017-06-10T08:08:56Z</time>
      </trkpt>
      <trkpt lat="45.92473" lon="4.75973">
        <ele>172</ele>
        <time>2017-06-10T08:08:57Z</time>
      </trkpt>
      <trkpt lat="45.92479" lon="4.75978">
        <ele>172</ele>
        <time>2017-06-10T08:08:58Z</time>
      </trkpt>
      <trkpt lat="45.92485" lon="4.75982">
        <ele>172</ele>
        <time>2017-06-10T08:08:59Z</time>
      </trkpt>
      <trkpt lat="45.9249" lon="4.75986">
        <ele>172</ele>
        <time>2017-06-10T08:09:00Z</time>
      </trkpt>
      <trkpt lat="45.92495" lon="4.75991">
        <ele>172</ele>
        <time>2017-06-10T08:09:01Z</time>
      </trkpt>
      <trkpt lat="45.92501" lon="4.75995">
        <ele>172</ele>
        <time>2017-06-10T08:09:02Z</time>
      </trkpt>
      <trkpt lat="45.92506" lon="4.75999">
        <ele>172</ele>
        <time>2017-06-10T08:09:03Z</time>
      </trkpt>
      <trkpt lat="45.92511" lon="4.76003">
        <ele>172</ele>
        <time>2017-06-10T08:09:04Z</time>
      </trkpt>
      <trkpt lat="45.92515" lon="4.76006">
        <ele>172</ele>
        <time>2017-06-10T08:09:05Z</time>
      </trkpt>
      <trkpt lat="45.9252" lon="4.7601">
        <ele>172</ele>
        <time>2017-06-10T08:09:06Z</time>
      </trkpt>
      <trkpt lat="45.92525" lon="4.76013">
        <ele>172</ele>
        <time>2017-06-10T08:09:07Z</time>
      </trkpt>
      <trkpt lat="45.92529" lon="4.76016">
        <ele>172</ele>
        <time>2017-06-10T08:09:08Z</time>
      </trkpt>
      <trkpt lat="45.92534" lon="4.76019">
        <ele>172</ele>
        <time>2017-06-10T08:09:09Z</time>
      </trkpt>
      <trkpt lat="45.92538" lon="4.76023">
        <ele>172</ele>
        <time>2017-06-10T08:09:10Z</time>
      </trkpt>
      <trkpt lat="45.92542" lon="4.76027">
        <ele>172</ele>
        <time>2017-06-10T08:09:11Z</time>
      </trkpt>
      <trkpt lat="45.92546" lon="4.7603">
        <ele>172</ele>
        <time>2017-06-10T08:09:12Z</time>
      </trkpt>
      <trkpt lat="45.9255" lon="4.76034">
        <ele>172</ele>
        <time>2017-06-10T08:09:13Z</time>
      </trkpt>
      <trkpt lat="45.92554" lon="4.76037">
        <ele>172</ele>
        <time>2017-06-10T08:09:14Z</time>
      </trkpt>
      <trkpt lat="45.92559" lon="4.7604">
        <ele>172</ele>
        <time>2017-06-10T08:09:15Z</time>
      </trkpt>
      <trkpt lat="45.92564" lon="4.76043">
        <ele>171</ele>
        <time>2017-06-10T08:09:16Z</time>
      </trkpt>
      <trkpt lat="45.92569" lon="4.76046">
        <ele>171</ele>
        <time>2017-06-10T08:09:17Z</time>
      </trkpt>
      <trkpt lat="45.92574" lon="4.7605">
        <ele>171</ele>
        <time>2017-06-10T08:09:18Z</time>
      </trkpt>
      <trkpt lat="45.92579" lon="4.76053">
        <ele>171</ele>
        <time>2017-06-10T08:09:19Z</time>
      </trkpt>
      <trkpt lat="45.92584" lon="4.76056">
        <ele>171</ele>
        <time>2017-06-10T08:09:20Z</time>
      </trkpt>
      <trkpt lat="45.92589" lon="4.7606">
        <ele>171</ele>
        <time>2017-06-10T08:09:21Z</time>
      </trkpt>
      <trkpt lat="45.92594" lon="4.76064">
        <ele>171</ele>
        <time>2017-06-10T08:09:22Z</time>
      </trkpt>
      <trkpt lat="45.926" lon="4.76068">
        <ele>171</ele>
        <time>2017-06-10T08:09:23Z</time>
      </trkpt>
      <trkpt lat="45.92605" lon="4.76071">
        <ele>171</ele>
        <time>2017-06-10T08:09:24Z</time>
      </trkpt>
      <trkpt lat="45.92611" lon="4.76075">
        <ele>171</ele>
        <time>2017-06-10T08:09:25Z</time>
      </trkpt>
      <trkpt lat="45.92617" lon="4.76079">
        <ele>171</ele>
        <time>2017-06-10T08:09:26Z</time>
      </trkpt>
      <trkpt lat="45.92623" lon="4.76083">
        <ele>171</ele>
        <time>2017-06-10T08:09:27Z</time>
      </trkpt>
      <trkpt lat="45.92629" lon="4.76088">
        <ele>170</ele>
        <time>2017-06-10T08:09:28Z</time>
      </trkpt>
      <trkpt lat="45.92635" lon="4.76092">
        <ele>170</ele>
        <time>2017-06-10T08:09:29Z</time>
      </trkpt>
      <trkpt lat="45.92642" lon="4.76096">
        <ele>170</ele>
        <time>2017-06-10T08:09:30Z</time>
      </trkpt>
      <trkpt lat="45.92649" lon="4.761">
        <ele>170</ele>
        <time>2017-06-10T08:09:31Z</time>
      </trkpt>
      <trkpt lat="45.92656" lon="4.76105">
        <ele>170</ele>
        <time>2017-06-10T08:09:32Z</time>
      </trkpt>
      <trkpt lat="45.92663" lon="4.76109">
        <ele>170</ele>
        <time>2017-06-10T08:09:33Z</time>
      </trkpt>
      <trkpt lat="45.9267" lon="4.76114">
        <ele>169</ele>
        <time>2017-06-10T08:09:34Z</time>
      </trkpt>
      <trkpt lat="45.92677" lon="4.76118">
        <ele>169</ele>
        <time>2017-06-10T08:09:35Z</time>
      </trkpt>
      <trkpt lat="45.92684" lon="4.76123">
        <ele>169</ele>
        <time>2017-06-10T08:09:36Z</time>
      </trkpt>
      <trkpt lat="45.92691" lon="4.76128">
        <ele>169</ele>
        <time>2017-06-10T08:09:37Z</time>
      </trkpt>
      <trkpt lat="45.92698" lon="4.76133">
        <ele>169</ele>
        <time>2017-06-10T08:09:38Z</time>
      </trkpt>
      <trkpt lat="45.92705" lon="4.76138">
        <ele>169</ele>
        <time>2017-06-10T08:09:39Z</time>
      </trkpt>
      <trkpt lat="45.92713" lon="4.76143">
        <ele>168</ele>
        <time>2017-06-10T08:09:40Z</time>
      </trkpt>
      <trkpt lat="45.9272" lon="4.76149">
        <ele>168</ele>
        <time>2017-06-10T08:09:41Z</time>
      </trkpt>
      <trkpt lat="45.92727" lon="4.76154">
        <ele>168</ele>
        <time>2017-06-10T08:09:42Z</time>
      </trkpt>
      <trkpt lat="45.92733" lon="4.76159">
        <ele>168</ele>
        <time>2017-06-10T08:09:43Z</time>
      </trkpt>
      <trkpt lat="45.9274" lon="4.76165">
        <ele>168</ele>
        <time>2017-06-10T08:09:44Z</time>
      </trkpt>
      <trkpt lat="45.92746" lon="4.7617">
        <ele>167</ele>
        <time>2017-06-10T08:09:45Z</time>
      </trkpt>
      <trkpt lat="45.92753" lon="4.76175">
        <ele>167</ele>
        <time>2017-06-10T08:09:46Z</time>
      </trkpt>
      <trkpt lat="45.92759" lon="4.7618">
        <ele>167</ele>
        <time>2017-06-10T08:09:47Z</time>
      </trkpt>
      <trkpt lat="45.92765" lon="4.76186">
        <ele>167</ele>
        <time>2017-06-10T08:09:48Z</time>
      </trkpt>
      <trkpt lat="45.92771" lon="4.7619">
        <ele>168</ele>
        <time>2017-06-10T08:09:49Z</time>
      </trkpt>
      <trkpt lat="45.92776" lon="4.76194">
        <ele>168</ele>
        <time>2017-06-10T08:09:50Z</time>
      </trkpt>
      <trkpt lat="45.92782" lon="4.76199">
        <ele>168</ele>
        <time>2017-06-10T08:09:51Z</time>
      </trkpt>
      <trkpt lat="45.92786" lon="4.76203">
        <ele>168</ele>
        <time>2017-06-10T08:09:52Z</time>
      </trkpt>
      <trkpt lat="45.92791" lon="4.76207">
        <ele>168</ele>
        <time>2017-06-10T08:09:53Z</time>
      </trkpt>
      <trkpt lat="45.92795" lon="4.76212">
        <ele>168</ele>
        <time>2017-06-10T08:09:54Z</time>
      </trkpt>
      <trkpt lat="45.928" lon="4.76217">
        <ele>168</ele>
        <time>2017-06-10T08:09:55Z</time>
      </trkpt>
      <trkpt lat="45.92805" lon="4.76222">
        <ele>168</ele>
        <time>2017-06-10T08:09:56Z</time>
      </trkpt>
      <trkpt lat="45.9281" lon="4.76227">
        <ele>168</ele>
        <time>2017-06-10T08:09:57Z</time>
      </trkpt>
      <trkpt lat="45.92815" lon="4.76232">
        <ele>168</ele>
        <time>2017-06-10T08:09:58Z</time>
      </trkpt>
      <trkpt lat="45.92819" lon="4.76237">
        <ele>168</ele>
        <time>2017-06-10T08:09:59Z</time>
      </trkpt>
      <trkpt lat="45.92823" lon="4.76242">
        <ele>168</ele>
        <time>2017-06-10T08:10:00Z</time>
      </trkpt>
      <trkpt lat="45.92828" lon="4.76247">
        <ele>169</ele>
        <time>2017-06-10T08:10:01Z</time>
      </trkpt>
      <trkpt lat="45.92833" lon="4.76251">
        <ele>169</ele>
        <time>2017-06-10T08:10:02Z</time>
      </trkpt>
      <trkpt lat="45.92838" lon="4.76257">
        <ele>169</ele>
        <time>2017-06-10T08:10:03Z</time>
      </trkpt>
      <trkpt lat="45.92842" lon="4.76262">
        <ele>169</ele>
        <time>2017-06-10T08:10:04Z</time>
      </trkpt>
      <trkpt lat="45.92846" lon="4.76266">
        <ele>169</ele>
        <time>2017-06-10T08:10:05Z</time>
      </trkpt>
      <trkpt lat="45.9285" lon="4.7627">
        <ele>169</ele>
        <time>2017-06-10T08:10:06Z</time>
      </trkpt>
      <trkpt lat="45.92854" lon="4.76275">
        <ele>169</ele>
        <time>2017-06-10T08:10:07Z</time>
      </trkpt>
      <trkpt lat="45.92858" lon="4.76279">
        <ele>169</ele>
        <time>2017-06-10T08:10:08Z</time>
      </trkpt>
      <trkpt lat="45.92863" lon="4.76284">
        <ele>169</ele>
        <time>2017-06-10T08:10:09Z</time>
      </trkpt>
      <trkpt lat="45.92868" lon="4.76289">
        <ele>169</ele>
        <time>2017-06-10T08:10:10Z</time>
      </trkpt>
      <trkpt lat="45.92872" lon="4.76293">
        <ele>169</ele>
        <time>2017-06-10T08:10:11Z</time>
      </trkpt>
      <trkpt lat="45.92876" lon="4.76297">
        <ele>169</ele>
        <time>2017-06-10T08:10:12Z</time>
      </trkpt>
      <trkpt lat="45.92881" lon="4.76301">
        <ele>169</ele>
        <time>2017-06-10T08:10:13Z</time>
      </trkpt>
      <trkpt lat="45.92885" lon="4.76305">
        <ele>169</ele>
        <time>2017-06-10T08:10:14Z</time>
      </trkpt>
      <trkpt lat="45.9289" lon="4.7631">
        <ele>169</ele>
        <time>2017-06-10T08:10:15Z</time>
      </trkpt>
      <trkpt lat="45.92894" lon="4.76314">
        <ele>169</ele>
        <time>2017-06-10T08:10:16Z</time>
      </trkpt>
      <trkpt lat="45.92899" lon="4.76318">
        <ele>169</ele>
        <time>2017-06-10T08:10:17Z</time>
      </trkpt>
      <trkpt lat="45.92903" lon="4.76323">
        <ele>169</ele>
        <time>2017-06-10T08:10:18Z</time>
      </trkpt>
      <trkpt lat="45.92908" lon="4.76328">
        <ele>169</ele>
        <time>2017-06-10T08:10:19Z</time>
      </trkpt>
      <trkpt lat="45.92913" lon="4.76334">
        <ele>169</ele>
        <time>2017-06-10T08:10:20Z</time>
      </trkpt>
      <trkpt lat="45.92918" lon="4.7634">
        <ele>169</ele>
        <time>2017-06-10T08:10:21Z</time>
      </trkpt>
      <trkpt lat="45.92924" lon="4.76345">
        <ele>169</ele>
        <time>2017-06-10T08:10:22Z</time>
      </trkpt>
      <trkpt lat="45.92929" lon="4.7635">
        <ele>169</ele>
        <time>2017-06-10T08:10:23Z</time>
      </trkpt>
      <trkpt lat="45.92934" lon="4.76355">
        <ele>169</ele>
        <time>2017-06-10T08:10:24Z</time>
      </trkpt>
      <trkpt lat="45.9294" lon="4.7636">
        <ele>169</ele>
        <time>2017-06-10T08:10:25Z</time>
      </trkpt>
      <trkpt lat="45.92946" lon="4.76366">
        <ele>169</ele>
        <time>2017-06-10T08:10:26Z</time>
      </trkpt>
      <trkpt lat="45.92951" lon="4.76372">
        <ele>169</ele>
        <time>2017-06-10T08:10:27Z</time>
      </trkpt>
      <trkpt lat="45.92956" lon="4.76376">
        <ele>169</ele>
        <time>2017-06-10T08:10:28Z</time>
      </trkpt>
      <trkpt lat="45.92961" lon="4.76381">
        <ele>169</ele>
        <time>2017-06-10T08:10:29Z</time>
      </trkpt>
      <trkpt lat="45.92966" lon="4.76386">
        <ele>169</ele>
        <time>2017-06-10T08:10:30Z</time>
      </trkpt>
      <trkpt lat="45.92971" lon="4.76391">
        <ele>169</ele>
        <time>2017-06-10T08:10:31Z</time>
      </trkpt>
      <trkpt lat="45.92975" lon="4.76395">
        <ele>169</ele>
        <time>2017-06-10T08:10:32Z</time>
      </trkpt>
      <trkpt lat="45.92979" lon="4.764">
        <ele>169</ele>
        <time>2017-06-10T08:10:33Z</time>
      </trkpt>
      <trkpt lat="45.92983" lon="4.76404">
        <ele>169</ele>
        <time>2017-06-10T08:10:34Z</time>
      </trkpt>
      <trkpt lat="45.92988" lon="4.76409">
        <ele>169</ele>
        <time>2017-06-10T08:10:35Z</time>
      </trkpt>
      <trkpt lat="45.92992" lon="4.76413">
        <ele>169</ele>
        <time>2017-06-10T08:10:36Z</time>
      </trkpt>
      <trkpt lat="45.92997" lon="4.76417">
        <ele>169</ele>
        <time>2017-06-10T08:10:37Z</time>
      </trkpt>
      <trkpt lat="45.93001" lon="4.76421">
        <ele>169</ele>
        <time>2017-06-10T08:10:38Z</time>
      </trkpt>
      <trkpt lat="45.93005" lon="4.76425">
        <ele>169</ele>
        <time>2017-06-10T08:10:39Z</time>
      </trkpt>
      <trkpt lat="45.93009" lon="4.7643">
        <ele>169</ele>
        <time>2017-06-10T08:10:40Z</time>
      </trkpt>
      <trkpt lat="45.93013" lon="4.76434">
        <ele>169</ele>
        <time>2017-06-10T08:10:41Z</time>
      </trkpt>
      <trkpt lat="45.93017" lon="4.76438">
        <ele>169</ele>
        <time>2017-06-10T08:10:42Z</time>
      </trkpt>
      <trkpt lat="45.93022" lon="4.76442">
        <ele>169</ele>
        <time>2017-06-10T08:10:43Z</time>
      </trkpt>
      <trkpt lat="45.93026" lon="4.76446">
        <ele>169</ele>
        <time>2017-06-10T08:10:44Z</time>
      </trkpt>
      <trkpt lat="45.93031" lon="4.76451">
        <ele>169</ele>
        <time>2017-06-10T08:10:45Z</time>
      </trkpt>
      <trkpt lat="45.93035" lon="4.76455">
        <ele>169</ele>
        <time>2017-06-10T08:10:46Z</time>
      </trkpt>
      <trkpt lat="45.9304" lon="4.7646">
        <ele>169</ele>
        <time>2017-06-10T08:10:47Z</time>
      </trkpt>
      <trkpt lat="45.93045" lon="4.76464">
        <ele>169</ele>
        <time>2017-06-10T08:10:48Z</time>
      </trkpt>
      <trkpt lat="45.93049" lon="4.76469">
        <ele>169</ele>
        <time>2017-06-10T08:10:49Z</time>
      </trkpt>
      <trkpt lat="45.93053" lon="4.76472">
        <ele>169</ele>
        <time>2017-06-10T08:10:50Z</time>
      </trkpt>
      <trkpt lat="45.93057" lon="4.76476">
        <ele>169</ele>
        <time>2017-06-10T08:10:51Z</time>
      </trkpt>
      <trkpt lat="45.93061" lon="4.7648">
        <ele>169</ele>
        <time>2017-06-10T08:10:52Z</time>
      </trkpt>
      <trkpt lat="45.93065" lon="4.76484">
        <ele>169</ele>
        <time>2017-06-10T08:10:53Z</time>
      </trkpt>
      <trkpt lat="45.93069" lon="4.76489">
        <ele>169</ele>
        <time>2017-06-10T08:10:54Z</time>
      </trkpt>
      <trkpt lat="45.93074" lon="4.76492">
        <ele>170</ele>
        <time>2017-06-10T08:10:55Z</time>
      </trkpt>
      <trkpt lat="45.93078" lon="4.76496">
        <ele>170</ele>
        <time>2017-06-10T08:10:56Z</time>
      </trkpt>
      <trkpt lat="45.93082" lon="4.765">
        <ele>170</ele>
        <time>2017-06-10T08:10:57Z</time>
      </trkpt>
      <trkpt lat="45.93087" lon="4.76505">
        <ele>170</ele>
        <time>2017-06-10T08:10:58Z</time>
      </trkpt>
      <trkpt lat="45.93092" lon="4.76511">
        <ele>170</ele>
        <time>2017-06-10T08:10:59Z</time>
      </trkpt>
      <trkpt lat="45.93096" lon="4.76515">
        <ele>170</ele>
        <time>2017-06-10T08:11:00Z</time>
      </trkpt>
      <trkpt lat="45.93101" lon="4.76519">
        <ele>170</ele>
        <time>2017-06-10T08:11:01Z</time>
      </trkpt>
      <trkpt lat="45.93105" lon="4.76524">
        <ele>170</ele>
        <time>2017-06-10T08:11:02Z</time>
      </trkpt>
      <trkpt lat="45.9311" lon="4.76528">
        <ele>170</ele>
        <time>2017-06-10T08:11:03Z</time>
      </trkpt>
      <trkpt lat="45.93115" lon="4.76533">
        <ele>170</ele>
        <time>2017-06-10T08:11:04Z</time>
      </trkpt>
      <trkpt lat="45.93119" lon="4.76537">
        <ele>170</ele>
        <time>2017-06-10T08:11:05Z</time>
      </trkpt>
      <trkpt lat="45.93124" lon="4.76541">
        <ele>170</ele>
        <time>2017-06-10T08:11:06Z</time>
      </trkpt>
      <trkpt lat="45.93129" lon="4.76545">
        <ele>170</ele>
        <time>2017-06-10T08:11:07Z</time>
      </trkpt>
      <trkpt lat="45.93133" lon="4.76549">
        <ele>170</ele>
        <time>2017-06-10T08:11:08Z</time>
      </trkpt>
      <trkpt lat="45.93137" lon="4.76553">
        <ele>170</ele>
        <time>2017-06-10T08:11:09Z</time>
      </trkpt>
      <trkpt lat="45.93142" lon="4.76558">
        <ele>170</ele>
        <time>2017-06-10T08:11:10Z</time>
      </trkpt>
      <trkpt lat="45.93147" lon="4.76563">
        <ele>170</ele>
        <time>2017-06-10T08:11:11Z</time>
      </trkpt>
      <trkpt lat="45.93152" lon="4.76569">
        <ele>170</ele>
        <time>2017-06-10T08:11:12Z</time>
      </trkpt>
      <trkpt lat="45.93156" lon="4.76574">
        <ele>170</ele>
        <time>2017-06-10T08:11:13Z</time>
      </trkpt>
      <trkpt lat="45.93161" lon="4.76578">
        <ele>171</ele>
        <time>2017-06-10T08:11:14Z</time>
      </trkpt>
      <trkpt lat="45.93165" lon="4.76582">
        <ele>171</ele>
        <time>2017-06-10T08:11:15Z</time>
      </trkpt>
      <trkpt lat="45.9317" lon="4.76586">
        <ele>171</ele>
        <time>2017-06-10T08:11:16Z</time>
      </trkpt>
      <trkpt lat="45.93174" lon="4.7659">
        <ele>171</ele>
        <time>2017-06-10T08:11:17Z</time>
      </trkpt>
      <trkpt lat="45.93178" lon="4.76594">
        <ele>171</ele>
        <time>2017-06-10T08:11:18Z</time>
      </trkpt>
      <trkpt lat="45.93182" lon="4.76598">
        <ele>171</ele>
        <time>2017-06-10T08:11:19Z</time>
      </trkpt>
      <trkpt lat="45.93187" lon="4.76602">
        <ele>171</ele>
        <time>2017-06-10T08:11:20Z</time>
      </trkpt>
      <trkpt lat="45.93191" lon="4.76607">
        <ele>171</ele>
        <time>2017-06-10T08:11:21Z</time>
      </trkpt>
      <trkpt lat="45.93197" lon="4.76612">
        <ele>170</ele>
        <time>2017-06-10T08:11:22Z</time>
      </trkpt>
      <trkpt lat="45.93201" lon="4.76617">
        <ele>170</ele>
        <time>2017-06-10T08:11:23Z</time>
      </trkpt>
      <trkpt lat="45.93206" lon="4.76621">
        <ele>170</ele>
        <time>2017-06-10T08:11:24Z</time>
      </trkpt>
      <trkpt lat="45.9321" lon="4.76625">
        <ele>170</ele>
        <time>2017-06-10T08:11:25Z</time>
      </trkpt>
      <trkpt lat="45.93214" lon="4.7663">
        <ele>171</ele>
        <time>2017-06-10T08:11:26Z</time>
      </trkpt>
      <trkpt lat="45.93218" lon="4.76635">
        <ele>171</ele>
        <time>2017-06-10T08:11:27Z</time>
      </trkpt>
      <trkpt lat="45.93222" lon="4.7664">
        <ele>171</ele>
        <time>2017-06-10T08:11:28Z</time>
      </trkpt>
      <trkpt lat="45.93227" lon="4.76645">
        <ele>171</ele>
        <time>2017-06-10T08:11:29Z</time>
      </trkpt>
      <trkpt lat="45.93232" lon="4.76651">
        <ele>171</ele>
        <time>2017-06-10T08:11:30Z</time>
      </trkpt>
      <trkpt lat="45.93237" lon="4.76655">
        <ele>171</ele>
        <time>2017-06-10T08:11:31Z</time>
      </trkpt>
      <trkpt lat="45.93241" lon="4.7666">
        <ele>171</ele>
        <time>2017-06-10T08:11:32Z</time>
      </trkpt>
      <trkpt lat="45.93245" lon="4.76664">
        <ele>172</ele>
        <time>2017-06-10T08:11:33Z</time>
      </trkpt>
      <trkpt lat="45.93249" lon="4.76669">
        <ele>172</ele>
        <time>2017-06-10T08:11:34Z</time>
      </trkpt>
      <trkpt lat="45.93253" lon="4.76673">
        <ele>172</ele>
        <time>2017-06-10T08:11:35Z</time>
      </trkpt>
      <trkpt lat="45.93256" lon="4.76677">
        <ele>172</ele>
        <time>2017-06-10T08:11:36Z</time>
      </trkpt>
      <trkpt lat="45.9326" lon="4.76681">
        <ele>172</ele>
        <time>2017-06-10T08:11:37Z</time>
      </trkpt>
      <trkpt lat="45.93265" lon="4.76685">
        <ele>172</ele>
        <time>2017-06-10T08:11:38Z</time>
      </trkpt>
      <trkpt lat="45.93269" lon="4.7669">
        <ele>172</ele>
        <time>2017-06-10T08:11:39Z</time>
      </trkpt>
      <trkpt lat="45.93273" lon="4.76694">
        <ele>172</ele>
        <time>2017-06-10T08:11:40Z</time>
      </trkpt>
      <trkpt lat="45.93277" lon="4.767">
        <ele>172</ele>
        <time>2017-06-10T08:11:41Z</time>
      </trkpt>
      <trkpt lat="45.93282" lon="4.76704">
        <ele>172</ele>
        <time>2017-06-10T08:11:42Z</time>
      </trkpt>
      <trkpt lat="45.93286" lon="4.76709">
        <ele>172</ele>
        <time>2017-06-10T08:11:43Z</time>
      </trkpt>
      <trkpt lat="45.93291" lon="4.76714">
        <ele>172</ele>
        <time>2017-06-10T08:11:44Z</time>
      </trkpt>
      <trkpt lat="45.93295" lon="4.76719">
        <ele>172</ele>
        <time>2017-06-10T08:11:45Z</time>
      </trkpt>
      <trkpt lat="45.933" lon="4.76723">
        <ele>172</ele>
        <time>2017-06-10T08:11:46Z</time>
      </trkpt>
      <trkpt lat="45.93304" lon="4.76726">
        <ele>172</ele>
        <time>2017-06-10T08:11:47Z</time>
      </trkpt>
      <trkpt lat="45.93309" lon="4.7673">
        <ele>172</ele>
        <time>2017-06-10T08:11:48Z</time>
      </trkpt>
      <trkpt lat="45.93313" lon="4.76734">
        <ele>172</ele>
        <time>2017-06-10T08:11:49Z</time>
      </trkpt>
      <trkpt lat="45.93318" lon="4.76739">
        <ele>172</ele>
        <time>2017-06-10T08:11:50Z</time>
      </trkpt>
      <trkpt lat="45.93322" lon="4.76744">
        <ele>172</ele>
        <time>2017-06-10T08:11:51Z</time>
      </trkpt>
      <trkpt lat="45.93327" lon="4.76749">
        <ele>173</ele>
        <time>2017-06-10T08:11:52Z</time>
      </trkpt>
      <trkpt lat="45.93332" lon="4.76755">
        <ele>173</ele>
        <time>2017-06-10T08:11:53Z</time>
      </trkpt>
      <trkpt lat="45.93337" lon="4.76759">
        <ele>173</ele>
        <time>2017-06-10T08:11:54Z</time>
      </trkpt>
      <trkpt lat="45.93341" lon="4.76763">
        <ele>172</ele>
        <time>2017-06-10T08:11:55Z</time>
      </trkpt>
      <trkpt lat="45.93345" lon="4.76768">
        <ele>172</ele>
        <time>2017-06-10T08:11:56Z</time>
      </trkpt>
      <trkpt lat="45.9335" lon="4.76771">
        <ele>172</ele>
        <time>2017-06-10T08:11:57Z</time>
      </trkpt>
      <trkpt lat="45.93354" lon="4.76775">
        <ele>172</ele>
        <time>2017-06-10T08:11:58Z</time>
      </trkpt>
      <trkpt lat="45.93358" lon="4.76779">
        <ele>172</ele>
        <time>2017-06-10T08:11:59Z</time>
      </trkpt>
      <trkpt lat="45.93363" lon="4.76783">
        <ele>172</ele>
        <time>2017-06-10T08:12:00Z</time>
      </trkpt>
      <trkpt lat="45.93367" lon="4.76787">
        <ele>172</ele>
        <time>2017-06-10T08:12:01Z</time>
      </trkpt>
      <trkpt lat="45.93372" lon="4.76791">
        <ele>172</ele>
        <time>2017-06-10T08:12:02Z</time>
      </trkpt>
      <trkpt lat="45.93376" lon="4.76796">
        <ele>172</ele>
        <time>2017-06-10T08:12:03Z</time>
      </trkpt>
      <trkpt lat="45.93381" lon="4.768">
        <ele>172</ele>
        <time>2017-06-10T08:12:04Z</time>
      </trkpt>
      <trkpt lat="45.93385" lon="4.76805">
        <ele>172</ele>
        <time>2017-06-10T08:12:05Z</time>
      </trkpt>
      <trkpt lat="45.93389" lon="4.7681">
        <ele>172</ele>
        <time>2017-06-10T08:12:06Z</time>
      </trkpt>
      <trkpt lat="45.93393" lon="4.76814">
        <ele>172</ele>
        <time>2017-06-10T08:12:07Z</time>
      </trkpt>
      <trkpt lat="45.93397" lon="4.76819">
        <ele>172</ele>
        <time>2017-06-10T08:12:08Z</time>
      </trkpt>
      <trkpt lat="45.93401" lon="4.76825">
        <ele>172</ele>
        <time>2017-06-10T08:12:09Z</time>
      </trkpt>
      <trkpt lat="45.93405" lon="4.7683">
        <ele>172</ele>
        <time>2017-06-10T08:12:10Z</time>
      </trkpt>
      <trkpt lat="45.93409" lon="4.76836">
        <ele>172</ele>
        <time>2017-06-10T08:12:11Z</time>
      </trkpt>
      <trkpt lat="45.93412" lon="4.76842">
        <ele>172</ele>
        <time>2017-06-10T08:12:12Z</time>
      </trkpt>
      <trkpt lat="45.93416" lon="4.76849">
        <ele>172</ele>
        <time>2017-06-10T08:12:13Z</time>
      </trkpt>
      <trkpt lat="45.93419" lon="4.76855">
        <ele>171</ele>
        <time>2017-06-10T08:12:14Z</time>
      </trkpt>
      <trkpt lat="45.93422" lon="4.76862">
        <ele>171</ele>
        <time>2017-06-10T08:12:15Z</time>
      </trkpt>
      <trkpt lat="45.93425" lon="4.76868">
        <ele>171</ele>
        <time>2017-06-10T08:12:16Z</time>
      </trkpt>
      <trkpt lat="45.93428" lon="4.76874">
        <ele>171</ele>
        <time>2017-06-10T08:12:17Z</time>
      </trkpt>
      <trkpt lat="45.93431" lon="4.76881">
        <ele>171</ele>
        <time>2017-06-10T08:12:18Z</time>
      </trkpt>
      <trkpt lat="45.93434" lon="4.76889">
        <ele>171</ele>
        <time>2017-06-10T08:12:19Z</time>
      </trkpt>
      <trkpt lat="45.93436" lon="4.76897">
        <ele>171</ele>
        <time>2017-06-10T08:12:20Z</time>
      </trkpt>
      <trkpt lat="45.93439" lon="4.76905">
        <ele>171</ele>
        <time>2017-06-10T08:12:21Z</time>
      </trkpt>
      <trkpt lat="45.93441" lon="4.76914">
        <ele>170</ele>
        <time>2017-06-10T08:12:22Z</time>
      </trkpt>
      <trkpt lat="45.93443" lon="4.76921">
        <ele>170</ele>
        <time>2017-06-10T08:12:23Z</time>
      </trkpt>
      <trkpt lat="45.93445" lon="4.76928">
        <ele>170</ele>
        <time>2017-06-10T08:12:24Z</time>
      </trkpt>
      <trkpt lat="45.93447" lon="4.76936">
        <ele>170</ele>
        <time>2017-06-10T08:12:25Z</time>
      </trkpt>
      <trkpt lat="45.93449" lon="4.76943">
        <ele>170</ele>
        <time>2017-06-10T08:12:26Z</time>
      </trkpt>
      <trkpt lat="45.9345" lon="4.7695">
        <ele>170</ele>
        <time>2017-06-10T08:12:27Z</time>
      </trkpt>
      <trkpt lat="45.93452" lon="4.76957">
        <ele>170</ele>
        <time>2017-06-10T08:12:28Z</time>
      </trkpt>
      <trkpt lat="45.93453" lon="4.76965">
        <ele>170</ele>
        <time>2017-06-10T08:12:29Z</time>
      </trkpt>
      <trkpt lat="45.93454" lon="4.76972">
        <ele>170</ele>
        <time>2017-06-10T08:12:30Z</time>
      </trkpt>
      <trkpt lat="45.93455" lon="4.76979">
        <ele>170</ele>
        <time>2017-06-10T08:12:31Z</time>
      </trkpt>
      <trkpt lat="45.93456" lon="4.76986">
        <ele>170</ele>
        <time>2017-06-10T08:12:32Z</time>
      </trkpt>
      <trkpt lat="45.93457" lon="4.76994">
        <ele>170</ele>
        <time>2017-06-10T08:12:33Z</time>
      </trkpt>
      <trkpt lat="45.93458" lon="4.77001">
        <ele>170</ele>
        <time>2017-06-10T08:12:34Z</time>
      </trkpt>
      <trkpt lat="45.9346" lon="4.77009">
        <ele>170</ele>
        <time>2017-06-10T08:12:35Z</time>
      </trkpt>
      <trkpt lat="45.93461" lon="4.77017">
        <ele>170</ele>
        <time>2017-06-10T08:12:36Z</time>
      </trkpt>
      <trkpt lat="45.93462" lon="4.77024">
        <ele>170</ele>
        <time>2017-06-10T08:12:37Z</time>
      </trkpt>
      <trkpt lat="45.93464" lon="4.77032">
        <ele>170</ele>
        <time>2017-06-10T08:12:38Z</time>
      </trkpt>
      <trkpt lat="45.93465" lon="4.77039">
        <ele>170</ele>
        <time>2017-06-10T08:12:39Z</time>
      </trkpt>
      <trkpt lat="45.93466" lon="4.77047">
        <ele>170</ele>
        <time>2017-06-10T08:12:40Z</time>
      </trkpt>
      <trkpt lat="45.93467" lon="4.77054">
        <ele>170</ele>
        <time>2017-06-10T08:12:41Z</time>
      </trkpt>
      <trkpt lat="45.93469" lon="4.77062">
        <ele>170</ele>
        <time>2017-06-10T08:12:42Z</time>
      </trkpt>
      <trkpt lat="45.9347" lon="4.7707">
        <ele>170</ele>
        <time>2017-06-10T08:12:43Z</time>
      </trkpt>
      <trkpt lat="45.93471" lon="4.77077">
        <ele>170</ele>
        <time>2017-06-10T08:12:44Z</time>
      </trkpt>
      <trkpt lat="45.93472" lon="4.77084">
        <ele>169</ele>
        <time>2017-06-10T08:12:45Z</time>
      </trkpt>
      <trkpt lat="45.93473" lon="4.77091">
        <ele>169</ele>
        <time>2017-06-10T08:12:46Z</time>
      </trkpt>
      <trkpt lat="45.93474" lon="4.77098">
        <ele>169</ele>
        <time>2017-06-10T08:12:47Z</time>
      </trkpt>
      <trkpt lat="45.93475" lon="4.77104">
        <ele>169</ele>
        <time>2017-06-10T08:12:48Z</time>
      </trkpt>
      <trkpt lat="45.93477" lon="4.77111">
        <ele>169</ele>
        <time>2017-06-10T08:12:49Z</time>
      </trkpt>
      <trkpt lat="45.93478" lon="4.77118">
        <ele>169</ele>
        <time>2017-06-10T08:12:50Z</time>
      </trkpt>
      <trkpt lat="45.9348" lon="4.77125">
        <ele>169</ele>
        <time>2017-06-10T08:12:51Z</time>
      </trkpt>
      <trkpt lat="45.93481" lon="4.77132">
        <ele>169</ele>
        <time>2017-06-10T08:12:52Z</time>
      </trkpt>
      <trkpt lat="45.93482" lon="4.7714">
        <ele>169</ele>
        <time>2017-06-10T08:12:53Z</time>
      </trkpt>
      <trkpt lat="45.93484" lon="4.77147">
        <ele>169</ele>
        <time>2017-06-10T08:12:54Z</time>
      </trkpt>
      <trkpt lat="45.93485" lon="4.77154">
        <ele>169</ele>
        <time>2017-06-10T08:12:55Z</time>
      </trkpt>
      <trkpt lat="45.93487" lon="4.77162">
        <ele>169</ele>
        <time>2017-06-10T08:12:56Z</time>
      </trkpt>
      <trkpt lat="45.93488" lon="4.7717">
        <ele>169</ele>
        <time>2017-06-10T08:12:57Z</time>
      </trkpt>
      <trkpt lat="45.9349" lon="4.77178">
        <ele>169</ele>
        <time>2017-06-10T08:12:58Z</time>
      </trkpt>
      <trkpt lat="45.93491" lon="4.77185">
        <ele>169</ele>
        <time>2017-06-10T08:12:59Z</time>
      </trkpt>
      <trkpt lat="45.93493" lon="4.77192">
        <ele>169</ele>
        <time>2017-06-10T08:13:00Z</time>
      </trkpt>
      <trkpt lat="45.93495" lon="4.772">
        <ele>169</ele>
        <time>2017-06-10T08:13:01Z</time>
      </trkpt>
      <trkpt lat="45.93496" lon="4.77207">
        <ele>169</ele>
        <time>2017-06-10T08:13:02Z</time>
      </trkpt>
      <trkpt lat="45.93497" lon="4.77214">
        <ele>169</ele>
        <time>2017-06-10T08:13:03Z</time>
      </trkpt>
      <trkpt lat="45.93499" lon="4.77221">
        <ele>169</ele>
        <time>2017-06-10T08:13:04Z</time>
      </trkpt>
      <trkpt lat="45.935" lon="4.77228">
        <ele>169</ele>
        <time>2017-06-10T08:13:05Z</time>
      </trkpt>
      <trkpt lat="45.93502" lon="4.77235">
        <ele>169</ele>
        <time>2017-06-10T08:13:06Z</time>
      </trkpt>
      <trkpt lat="45.93504" lon="4.77242">
        <ele>170</ele>
        <time>2017-06-10T08:13:07Z</time>
      </trkpt>
      <trkpt lat="45.93506" lon="4.77249">
        <ele>170</ele>
        <time>2017-06-10T08:13:08Z</time>
      </trkpt>
      <trkpt lat="45.93507" lon="4.77256">
        <ele>170</ele>
        <time>2017-06-10T08:13:09Z</time>
      </trkpt>
      <trkpt lat="45.93509" lon="4.77263">
        <ele>170</ele>
        <time>2017-06-10T08:13:10Z</time>
      </trkpt>
      <trkpt lat="45.93511" lon="4.7727">
        <ele>170</ele>
        <time>2017-06-10T08:13:11Z</time>
      </trkpt>
      <trkpt lat="45.93512" lon="4.77278">
        <ele>170</ele>
        <time>2017-06-10T08:13:12Z</time>
      </trkpt>
      <trkpt lat="45.93514" lon="4.77285">
        <ele>170</ele>
        <time>2017-06-10T08:13:13Z</time>
      </trkpt>
      <trkpt lat="45.93516" lon="4.77292">
        <ele>170</ele>
        <time>2017-06-10T08:13:14Z</time>
      </trkpt>
      <trkpt lat="45.93518" lon="4.77299">
        <ele>170</ele>
        <time>2017-06-10T08:13:15Z</time>
      </trkpt>
      <trkpt lat="45.93519" lon="4.77305">
        <ele>170</ele>
        <time>2017-06-10T08:13:16Z</time>
      </trkpt>
      <trkpt lat="45.93521" lon="4.77312">
        <ele>170</ele>
        <time>2017-06-10T08:13:17Z</time>
      </trkpt>
      <trkpt lat="45.93522" lon="4.77319">
        <ele>170</ele>
        <time>2017-06-10T08:13:18Z</time>
      </trkpt>
      <trkpt lat="45.93523" lon="4.77325">
        <ele>170</ele>
        <time>2017-06-10T08:13:19Z</time>
      </trkpt>
      <trkpt lat="45.93525" lon="4.77332">
        <ele>170</ele>
        <time>2017-06-10T08:13:20Z</time>
      </trkpt>
      <trkpt lat="45.93526" lon="4.77339">
        <ele>170</ele>
        <time>2017-06-10T08:13:21Z</time>
      </trkpt>
      <trkpt lat="45.93528" lon="4.77346">
        <ele>170</ele>
        <time>2017-06-10T08:13:22Z</time>
      </trkpt>
      <trkpt lat="45.93529" lon="4.77353">
        <ele>170</ele>
        <time>2017-06-10T08:13:23Z</time>
      </trkpt>
      <trkpt lat="45.93531" lon="4.77361">
        <ele>170</ele>
        <time>2017-06-10T08:13:24Z</time>
      </trkpt>
      <trkpt lat="45.93532" lon="4.77368">
        <ele>170</ele>
        <time>2017-06-10T08:13:25Z</time>
      </trkpt>
      <trkpt lat="45.93533" lon="4.77376">
        <ele>170</ele>
        <time>2017-06-10T08:13:26Z</time>
      </trkpt>
      <trkpt lat="45.93534" lon="4.77384">
        <ele>170</ele>
        <time>2017-06-10T08:13:27Z</time>
      </trkpt>
      <trkpt lat="45.93536" lon="4.77391">
        <ele>170</ele>
        <time>2017-06-10T08:13:28Z</time>
      </trkpt>
      <trkpt lat="45.93538" lon="4.77399">
        <ele>170</ele>
        <time>2017-06-10T08:13:29Z</time>
      </trkpt>
      <trkpt lat="45.93539" lon="4.77408">
        <ele>170</ele>
        <time>2017-06-10T08:13:30Z</time>
      </trkpt>
      <trkpt lat="45.93541" lon="4.77416">
        <ele>170</ele>
        <time>2017-06-10T08:13:31Z</time>
      </trkpt>
      <trkpt lat="45.93543" lon="4.77424">
        <ele>170</ele>
        <time>2017-06-10T08:13:32Z</time>
      </trkpt>
      <trkpt lat="45.93544" lon="4.77432">
        <ele>169</ele>
        <time>2017-06-10T08:13:33Z</time>
      </trkpt>
      <trkpt lat="45.93546" lon="4.77439">
        <ele>169</ele>
        <time>2017-06-10T08:13:34Z</time>
      </trkpt>
      <trkpt lat="45.93548" lon="4.77447">
        <ele>169</ele>
        <time>2017-06-10T08:13:35Z</time>
      </trkpt>
      <trkpt lat="45.93549" lon="4.77454">
        <ele>169</ele>
        <time>2017-06-10T08:13:36Z</time>
      </trkpt>
      <trkpt lat="45.93551" lon="4.77461">
        <ele>169</ele>
        <time>2017-06-10T08:13:37Z</time>
      </trkpt>
      <trkpt lat="45.93553" lon="4.77468">
        <ele>169</ele>
        <time>2017-06-10T08:13:38Z</time>
      </trkpt>
      <trkpt lat="45.93555" lon="4.77475">
        <ele>169</ele>
        <time>2017-06-10T08:13:39Z</time>
      </trkpt>
      <trkpt lat="45.93556" lon="4.77482">
        <ele>169</ele>
        <time>2017-06-10T08:13:40Z</time>
      </trkpt>
      <trkpt lat="45.93558" lon="4.77489">
        <ele>169</ele>
        <time>2017-06-10T08:13:41Z</time>
      </trkpt>
      <trkpt lat="45.9356" lon="4.77497">
        <ele>169</ele>
        <time>2017-06-10T08:13:42Z</time>
      </trkpt>
      <trkpt lat="45.93562" lon="4.77505">
        <ele>169</ele>
        <time>2017-06-10T08:13:43Z</time>
      </trkpt>
      <trkpt lat="45.93564" lon="4.77513">
        <ele>169</ele>
        <time>2017-06-10T08:13:44Z</time>
      </trkpt>
      <trkpt lat="45.93565" lon="4.7752">
        <ele>169</ele>
        <time>2017-06-10T08:13:45Z</time>
      </trkpt>
      <trkpt lat="45.93567" lon="4.77527">
        <ele>169</ele>
        <time>2017-06-10T08:13:46Z</time>
      </trkpt>
      <trkpt lat="45.93569" lon="4.77534">
        <ele>169</ele>
        <time>2017-06-10T08:13:47Z</time>
      </trkpt>
      <trkpt lat="45.9357" lon="4.7754">
        <ele>169</ele>
        <time>2017-06-10T08:13:48Z</time>
      </trkpt>
      <trkpt lat="45.93572" lon="4.77547">
        <ele>169</ele>
        <time>2017-06-10T08:13:49Z</time>
      </trkpt>
      <trkpt lat="45.93574" lon="4.77554">
        <ele>169</ele>
        <time>2017-06-10T08:13:50Z</time>
      </trkpt>
      <trkpt lat="45.93576" lon="4.77561">
        <ele>169</ele>
        <time>2017-06-10T08:13:51Z</time>
      </trkpt>
      <trkpt lat="45.93577" lon="4.77569">
        <ele>170</ele>
        <time>2017-06-10T08:13:52Z</time>
      </trkpt>
      <trkpt lat="45.93579" lon="4.77576">
        <ele>170</ele>
        <time>2017-06-10T08:13:53Z</time>
      </trkpt>
      <trkpt lat="45.93581" lon="4.77583">
        <ele>170</ele>
        <time>2017-06-10T08:13:54Z</time>
      </trkpt>
      <trkpt lat="45.93584" lon="4.77591">
        <ele>170</ele>
        <time>2017-06-10T08:13:55Z</time>
      </trkpt>
      <trkpt lat="45.93586" lon="4.77598">
        <ele>170</ele>
        <time>2017-06-10T08:13:56Z</time>
      </trkpt>
      <trkpt lat="45.93588" lon="4.77606">
        <ele>170</ele>
        <time>2017-06-10T08:13:57Z</time>
      </trkpt>
      <trkpt lat="45.9359" lon="4.77613">
        <ele>170</ele>
        <time>2017-06-10T08:13:58Z</time>
      </trkpt>
      <trkpt lat="45.93593" lon="4.7762">
        <ele>170</ele>
        <time>2017-06-10T08:13:59Z</time>
      </trkpt>
      <trkpt lat="45.93595" lon="4.77627">
        <ele>169</ele>
        <time>2017-06-10T08:14:00Z</time>
      </trkpt>
      <trkpt lat="45.93597" lon="4.77633">
        <ele>169</ele>
        <time>2017-06-10T08:14:01Z</time>
      </trkpt>
      <trkpt lat="45.93599" lon="4.7764">
        <ele>169</ele>
        <time>2017-06-10T08:14:02Z</time>
      </trkpt>
      <trkpt lat="45.93602" lon="4.77646">
        <ele>169</ele>
        <time>2017-06-10T08:14:03Z</time>
      </trkpt>
      <trkpt lat="45.93604" lon="4.77652">
        <ele>169</ele>
        <time>2017-06-10T08:14:04Z</time>
      </trkpt>
      <trkpt lat="45.93607" lon="4.77657">
        <ele>169</ele>
        <time>2017-06-10T08:14:05Z</time>
      </trkpt>
      <trkpt lat="45.93609" lon="4.77663">
        <ele>169</ele>
        <time>2017-06-10T08:14:06Z</time>
      </trkpt>
      <trkpt lat="45.93612" lon="4.7767">
        <ele>169</ele>
        <time>2017-06-10T08:14:07Z</time>
      </trkpt>
      <trkpt lat="45.93615" lon="4.77677">
        <ele>169</ele>
        <time>2017-06-10T08:14:08Z</time>
      </trkpt>
      <trkpt lat="45.93618" lon="4.77683">
        <ele>169</ele>
        <time>2017-06-10T08:14:09Z</time>
      </trkpt>
      <trkpt lat="45.93621" lon="4.7769">
        <ele>169</ele>
        <time>2017-06-10T08:14:10Z</time>
      </trkpt>
      <trkpt lat="45.93625" lon="4.77697">
        <ele>169</ele>
        <time>2017-06-10T08:14:11Z</time>
      </trkpt>
      <trkpt lat="45.93628" lon="4.77703">
        <ele>169</ele>
        <time>2017-06-10T08:14:12Z</time>
      </trkpt>
      <trkpt lat="45.93632" lon="4.7771">
        <ele>170</ele>
        <time>2017-06-10T08:14:13Z</time>
      </trkpt>
      <trkpt lat="45.93635" lon="4.77717">
        <ele>170</ele>
        <time>2017-06-10T08:14:14Z</time>
      </trkpt>
      <trkpt lat="45.93639" lon="4.77724">
        <ele>170</ele>
        <time>2017-06-10T08:14:15Z</time>
      </trkpt>
      <trkpt lat="45.93643" lon="4.7773">
        <ele>170</ele>
        <time>2017-06-10T08:14:16Z</time>
      </trkpt>
      <trkpt lat="45.93647" lon="4.77737">
        <ele>170</ele>
        <time>2017-06-10T08:14:17Z</time>
      </trkpt>
      <trkpt lat="45.93651" lon="4.77743">
        <ele>170</ele>
        <time>2017-06-10T08:14:18Z</time>
      </trkpt>
      <trkpt lat="45.93655" lon="4.77749">
        <ele>170</ele>
        <time>2017-06-10T08:14:19Z</time>
      </trkpt>
      <trkpt lat="45.93659" lon="4.77755">
        <ele>171</ele>
        <time>2017-06-10T08:14:20Z</time>
      </trkpt>
      <trkpt lat="45.93663" lon="4.7776">
        <ele>171</ele>
        <time>2017-06-10T08:14:21Z</time>
      </trkpt>
      <trkpt lat="45.93667" lon="4.77766">
        <ele>170</ele>
        <time>2017-06-10T08:14:22Z</time>
      </trkpt>
      <trkpt lat="45.9367" lon="4.77771">
        <ele>170</ele>
        <time>2017-06-10T08:14:23Z</time>
      </trkpt>
      <trkpt lat="45.93674" lon="4.77777">
        <ele>170</ele>
        <time>2017-06-10T08:14:24Z</time>
      </trkpt>
      <trkpt lat="45.93678" lon="4.77782">
        <ele>170</ele>
        <time>2017-06-10T08:14:25Z</time>
      </trkpt>
      <trkpt lat="45.93682" lon="4.77787">
        <ele>170</ele>
        <time>2017-06-10T08:14:26Z</time>
      </trkpt>
      <trkpt lat="45.93685" lon="4.77792">
        <ele>170</ele>
        <time>2017-06-10T08:14:27Z</time>
      </trkpt>
      <trkpt lat="45.93691" lon="4.77801">
        <ele>169</ele>
        <time>2017-06-10T08:14:29Z</time>
      </trkpt>
      <trkpt lat="45.93693" lon="4.77805">
        <ele>169</ele>
        <time>2017-06-10T08:14:30Z</time>
      </trkpt>
      <trkpt lat="45.93699" lon="4.77812">
        <ele>169</ele>
        <time>2017-06-10T08:14:32Z</time>
      </trkpt>
      <trkpt lat="45.93702" lon="4.77815">
        <ele>169</ele>
        <time>2017-06-10T08:14:33Z</time>
      </trkpt>
      <trkpt lat="45.93709" lon="4.77823">
        <ele>169</ele>
        <time>2017-06-10T08:14:35Z</time>
      </trkpt>
      <trkpt lat="45.93713" lon="4.77828">
        <ele>169</ele>
        <time>2017-06-10T08:14:36Z</time>
      </trkpt>
      <trkpt lat="45.93716" lon="4.77832">
        <ele>169</ele>
        <time>2017-06-10T08:14:37Z</time>
      </trkpt>
      <trkpt lat="45.93719" lon="4.77837">
        <ele>167</ele>
        <time>2017-06-10T08:14:38Z</time>
      </trkpt>
      <trkpt lat="45.93725" lon="4.77846">
        <ele>167</ele>
        <time>2017-06-10T08:14:40Z</time>
      </trkpt>
      <trkpt lat="45.93728" lon="4.7785">
        <ele>167</ele>
        <time>2017-06-10T08:14:41Z</time>
      </trkpt>
      <trkpt lat="45.93734" lon="4.77858">
        <ele>167</ele>
        <time>2017-06-10T08:14:43Z</time>
      </trkpt>
      <trkpt lat="45.93737" lon="4.77862">
        <ele>167</ele>
        <time>2017-06-10T08:14:44Z</time>
      </trkpt>
      <trkpt lat="45.93741" lon="4.77867">
        <ele>167</ele>
        <time>2017-06-10T08:14:45Z</time>
      </trkpt>
      <trkpt lat="45.93744" lon="4.77871">
        <ele>167</ele>
        <time>2017-06-10T08:14:46Z</time>
      </trkpt>
      <trkpt lat="45.9375" lon="4.77879">
        <ele>167</ele>
        <time>2017-06-10T08:14:48Z</time>
      </trkpt>
      <trkpt lat="45.93753" lon="4.77883">
        <ele>166</ele>
        <time>2017-06-10T08:14:49Z</time>
      </trkpt>
      <trkpt lat="45.93759" lon="4.7789">
        <ele>166</ele>
        <time>2017-06-10T08:14:51Z</time>
      </trkpt>
      <trkpt lat="45.93762" lon="4.77895">
        <ele>166</ele>
        <time>2017-06-10T08:14:52Z</time>
      </trkpt>
      <trkpt lat="45.93769" lon="4.77903">
        <ele>166</ele>
        <time>2017-06-10T08:14:54Z</time>
      </trkpt>
      <trkpt lat="45.93772" lon="4.77907">
        <ele>166</ele>
        <time>2017-06-10T08:14:55Z</time>
      </trkpt>
      <trkpt lat="45.93779" lon="4.77916">
        <ele>166</ele>
        <time>2017-06-10T08:14:57Z</time>
      </trkpt>
      <trkpt lat="45.93782" lon="4.7792">
        <ele>168</ele>
        <time>2017-06-10T08:14:58Z</time>
      </trkpt>
      <trkpt lat="45.93789" lon="4.77928">
        <ele>168</ele>
        <time>2017-06-10T08:15:00Z</time>
      </trkpt>
      <trkpt lat="45.93792" lon="4.77932">
        <ele>168</ele>
        <time>2017-06-10T08:15:01Z</time>
      </trkpt>
      <trkpt lat="45.93795" lon="4.77937">
        <ele>169</ele>
        <time>2017-06-10T08:15:02Z</time>
      </trkpt>
      <trkpt lat="45.93799" lon="4.77941">
        <ele>169</ele>
        <time>2017-06-10T08:15:03Z</time>
      </trkpt>
      <trkpt lat="45.93802" lon="4.77946">
        <ele>169</ele>
        <time>2017-06-10T08:15:04Z</time>
      </trkpt>
      <trkpt lat="45.93806" lon="4.7795">
        <ele>169</ele>
        <time>2017-06-10T08:15:05Z</time>
      </trkpt>
      <trkpt lat="45.9381" lon="4.77955">
        <ele>170</ele>
        <time>2017-06-10T08:15:06Z</time>
      </trkpt>
      <trkpt lat="45.93813" lon="4.7796">
        <ele>170</ele>
        <time>2017-06-10T08:15:07Z</time>
      </trkpt>
      <trkpt lat="45.93817" lon="4.77965">
        <ele>171</ele>
        <time>2017-06-10T08:15:08Z</time>
      </trkpt>
      <trkpt lat="45.93822" lon="4.7797">
        <ele>172</ele>
        <time>2017-06-10T08:15:09Z</time>
      </trkpt>
      <trkpt lat="45.93826" lon="4.77975">
        <ele>172</ele>
        <time>2017-06-10T08:15:10Z</time>
      </trkpt>
      <trkpt lat="45.9383" lon="4.77981">
        <ele>173</ele>
        <time>2017-06-10T08:15:11Z</time>
      </trkpt>
      <trkpt lat="45.93833" lon="4.77987">
        <ele>175</ele>
        <time>2017-06-10T08:15:12Z</time>
      </trkpt>
      <trkpt lat="45.93836" lon="4.77993">
        <ele>179</ele>
        <time>2017-06-10T08:15:13Z</time>
      </trkpt>
      <trkpt lat="45.93838" lon="4.78001">
        <ele>180</ele>
        <time>2017-06-10T08:15:14Z</time>
      </trkpt>
      <trkpt lat="45.9384" lon="4.78009">
        <ele>181</ele>
        <time>2017-06-10T08:15:15Z</time>
      </trkpt>
      <trkpt lat="45.93841" lon="4.78018">
        <ele>181</ele>
        <time>2017-06-10T08:15:16Z</time>
      </trkpt>
      <trkpt lat="45.93843" lon="4.78026">
        <ele>182</ele>
        <time>2017-06-10T08:15:17Z</time>
      </trkpt>
      <trkpt lat="45.93844" lon="4.78034">
        <ele>182</ele>
        <time>2017-06-10T08:15:18Z</time>
      </trkpt>
      <trkpt lat="45.93845" lon="4.78041">
        <ele>182</ele>
        <time>2017-06-10T08:15:19Z</time>
      </trkpt>
      <trkpt lat="45.93846" lon="4.78048">
        <ele>182</ele>
        <time>2017-06-10T08:15:20Z</time>
      </trkpt>
      <trkpt lat="45.93845" lon="4.78054">
        <ele>182</ele>
        <time>2017-06-10T08:15:21Z</time>
      </trkpt>
      <trkpt lat="45.93843" lon="4.78065">
        <ele>182</ele>
        <time>2017-06-10T08:15:23Z</time>
      </trkpt>
      <trkpt lat="45.93841" lon="4.78071">
        <ele>182</ele>
        <time>2017-06-10T08:15:24Z</time>
      </trkpt>
      <trkpt lat="45.9384" lon="4.78077">
        <ele>181</ele>
        <time>2017-06-10T08:15:25Z</time>
      </trkpt>
      <trkpt lat="45.93838" lon="4.78083">
        <ele>181</ele>
        <time>2017-06-10T08:15:26Z</time>
      </trkpt>
      <trkpt lat="45.93837" lon="4.7809">
        <ele>182</ele>
        <time>2017-06-10T08:15:27Z</time>
      </trkpt>
      <trkpt lat="45.93835" lon="4.78097">
        <ele>182</ele>
        <time>2017-06-10T08:15:28Z</time>
      </trkpt>
      <trkpt lat="45.93833" lon="4.78105">
        <ele>179</ele>
        <time>2017-06-10T08:15:29Z</time>
      </trkpt>
      <trkpt lat="45.93831" lon="4.78113">
        <ele>179</ele>
        <time>2017-06-10T08:15:30Z</time>
      </trkpt>
      <trkpt lat="45.93829" lon="4.78122">
        <ele>180</ele>
        <time>2017-06-10T08:15:31Z</time>
      </trkpt>
      <trkpt lat="45.93827" lon="4.7813">
        <ele>180</ele>
        <time>2017-06-10T08:15:32Z</time>
      </trkpt>
      <trkpt lat="45.93824" lon="4.78139">
        <ele>180</ele>
        <time>2017-06-10T08:15:33Z</time>
      </trkpt>
      <trkpt lat="45.93821" lon="4.78148">
        <ele>180</ele>
        <time>2017-06-10T08:15:34Z</time>
      </trkpt>
      <trkpt lat="45.93819" lon="4.78156">
        <ele>180</ele>
        <time>2017-06-10T08:15:35Z</time>
      </trkpt>
      <trkpt lat="45.93817" lon="4.78164">
        <ele>180</ele>
        <time>2017-06-10T08:15:36Z</time>
      </trkpt>
      <trkpt lat="45.93816" lon="4.78172">
        <ele>182</ele>
        <time>2017-06-10T08:15:37Z</time>
      </trkpt>
      <trkpt lat="45.93814" lon="4.7818">
        <ele>182</ele>
        <time>2017-06-10T08:15:38Z</time>
      </trkpt>
      <trkpt lat="45.93812" lon="4.78186">
        <ele>182</ele>
        <time>2017-06-10T08:15:39Z</time>
      </trkpt>
      <trkpt lat="45.9381" lon="4.78193">
        <ele>182</ele>
        <time>2017-06-10T08:15:40Z</time>
      </trkpt>
      <trkpt lat="45.93809" lon="4.78201">
        <ele>182</ele>
        <time>2017-06-10T08:15:41Z</time>
      </trkpt>
      <trkpt lat="45.93807" lon="4.78208">
        <ele>182</ele>
        <time>2017-06-10T08:15:42Z</time>
      </trkpt>
      <trkpt lat="45.93805" lon="4.78215">
        <ele>182</ele>
        <time>2017-06-10T08:15:43Z</time>
      </trkpt>
      <trkpt lat="45.93804" lon="4.78222">
        <ele>182</ele>
        <time>2017-06-10T08:15:44Z</time>
      </trkpt>
      <trkpt lat="45.93801" lon="4.78228">
        <ele>182</ele>
        <time>2017-06-10T08:15:45Z</time>
      </trkpt>
      <trkpt lat="45.93798" lon="4.78234">
        <ele>182</ele>
        <time>2017-06-10T08:15:46Z</time>
      </trkpt>
      <trkpt lat="45.93794" lon="4.78239">
        <ele>182</ele>
        <time>2017-06-10T08:15:47Z</time>
      </trkpt>
      <trkpt lat="45.93791" lon="4.78246">
        <ele>182</ele>
        <time>2017-06-10T08:15:48Z</time>
      </trkpt>
      <trkpt lat="45.93789" lon="4.78253">
        <ele>183</ele>
        <time>2017-06-10T08:15:49Z</time>
      </trkpt>
      <trkpt lat="45.93788" lon="4.78261">
        <ele>183</ele>
        <time>2017-06-10T08:15:50Z</time>
      </trkpt>
      <trkpt lat="45.93787" lon="4.78268">
        <ele>183</ele>
        <time>2017-06-10T08:15:51Z</time>
      </trkpt>
      <trkpt lat="45.93786" lon="4.78276">
        <ele>183</ele>
        <time>2017-06-10T08:15:52Z</time>
      </trkpt>
      <trkpt lat="45.93783" lon="4.78283">
        <ele>183</ele>
        <time>2017-06-10T08:15:53Z</time>
      </trkpt>
      <trkpt lat="45.93781" lon="4.7829">
        <ele>183</ele>
        <time>2017-06-10T08:15:54Z</time>
      </trkpt>
      <trkpt lat="45.93779" lon="4.78298">
        <ele>183</ele>
        <time>2017-06-10T08:15:55Z</time>
      </trkpt>
      <trkpt lat="45.93777" lon="4.78305">
        <ele>183</ele>
        <time>2017-06-10T08:15:56Z</time>
      </trkpt>
      <trkpt lat="45.93775" lon="4.78313">
        <ele>183</ele>
        <time>2017-06-10T08:15:57Z</time>
      </trkpt>
      <trkpt lat="45.93773" lon="4.7832">
        <ele>183</ele>
        <time>2017-06-10T08:15:58Z</time>
      </trkpt>
      <trkpt lat="45.93771" lon="4.78327">
        <ele>183</ele>
        <time>2017-06-10T08:15:59Z</time>
      </trkpt>
      <trkpt lat="45.93769" lon="4.78334">
        <ele>183</ele>
        <time>2017-06-10T08:16:00Z</time>
      </trkpt>
      <trkpt lat="45.93766" lon="4.7834">
        <ele>183</ele>
        <time>2017-06-10T08:16:01Z</time>
      </trkpt>
      <trkpt lat="45.93765" lon="4.78346">
        <ele>183</ele>
        <time>2017-06-10T08:16:02Z</time>
      </trkpt>
      <trkpt lat="45.93764" lon="4.78353">
        <ele>183</ele>
        <time>2017-06-10T08:16:03Z</time>
      </trkpt>
      <trkpt lat="45.93762" lon="4.78361">
        <ele>183</ele>
        <time>2017-06-10T08:16:04Z</time>
      </trkpt>
      <trkpt lat="45.93758" lon="4.78367">
        <ele>183</ele>
        <time>2017-06-10T08:16:05Z</time>
      </trkpt>
      <trkpt lat="45.93756" lon="4.78375">
        <ele>183</ele>
        <time>2017-06-10T08:16:06Z</time>
      </trkpt>
      <trkpt lat="45.93753" lon="4.78383">
        <ele>183</ele>
        <time>2017-06-10T08:16:07Z</time>
      </trkpt>
      <trkpt lat="45.9375" lon="4.78391">
        <ele>183</ele>
        <time>2017-06-10T08:16:08Z</time>
      </trkpt>
      <trkpt lat="45.93748" lon="4.784">
        <ele>181</ele>
        <time>2017-06-10T08:16:09Z</time>
      </trkpt>
      <trkpt lat="45.93745" lon="4.78408">
        <ele>181</ele>
        <time>2017-06-10T08:16:10Z</time>
      </trkpt>
      <trkpt lat="45.93743" lon="4.78417">
        <ele>181</ele>
        <time>2017-06-10T08:16:11Z</time>
      </trkpt>
      <trkpt lat="45.93741" lon="4.78426">
        <ele>180</ele>
        <time>2017-06-10T08:16:12Z</time>
      </trkpt>
      <trkpt lat="45.9374" lon="4.78435">
        <ele>180</ele>
        <time>2017-06-10T08:16:13Z</time>
      </trkpt>
      <trkpt lat="45.93737" lon="4.78444">
        <ele>180</ele>
        <time>2017-06-10T08:16:14Z</time>
      </trkpt>
      <trkpt lat="45.93735" lon="4.78453">
        <ele>180</ele>
        <time>2017-06-10T08:16:15Z</time>
      </trkpt>
      <trkpt lat="45.93733" lon="4.78461">
        <ele>180</ele>
        <time>2017-06-10T08:16:16Z</time>
      </trkpt>
      <trkpt lat="45.9373" lon="4.7847">
        <ele>180</ele>
        <time>2017-06-10T08:16:17Z</time>
      </trkpt>
      <trkpt lat="45.93727" lon="4.78479">
        <ele>180</ele>
        <time>2017-06-10T08:16:18Z</time>
      </trkpt>
      <trkpt lat="45.93724" lon="4.78488">
        <ele>180</ele>
        <time>2017-06-10T08:16:19Z</time>
      </trkpt>
      <trkpt lat="45.93722" lon="4.78498">
        <ele>180</ele>
        <time>2017-06-10T08:16:20Z</time>
      </trkpt>
      <trkpt lat="45.9372" lon="4.78508">
        <ele>179</ele>
        <time>2017-06-10T08:16:21Z</time>
      </trkpt>
      <trkpt lat="45.93717" lon="4.78518">
        <ele>178</ele>
        <time>2017-06-10T08:16:22Z</time>
      </trkpt>
      <trkpt lat="45.93715" lon="4.78528">
        <ele>178</ele>
        <time>2017-06-10T08:16:23Z</time>
      </trkpt>
      <trkpt lat="45.93713" lon="4.78538">
        <ele>178</ele>
        <time>2017-06-10T08:16:24Z</time>
      </trkpt>
      <trkpt lat="45.93711" lon="4.78548">
        <ele>178</ele>
        <time>2017-06-10T08:16:25Z</time>
      </trkpt>
      <trkpt lat="45.93709" lon="4.78559">
        <ele>178</ele>
        <time>2017-06-10T08:16:26Z</time>
      </trkpt>
      <trkpt lat="45.93707" lon="4.78569">
        <ele>177</ele>
        <time>2017-06-10T08:16:27Z</time>
      </trkpt>
      <trkpt lat="45.93705" lon="4.78579">
        <ele>177</ele>
        <time>2017-06-10T08:16:28Z</time>
      </trkpt>
      <trkpt lat="45.93704" lon="4.78587">
        <ele>176</ele>
        <time>2017-06-10T08:16:29Z</time>
      </trkpt>
      <trkpt lat="45.93703" lon="4.78595">
        <ele>176</ele>
        <time>2017-06-10T08:16:30Z</time>
      </trkpt>
      <trkpt lat="45.93701" lon="4.78607">
        <ele>176</ele>
        <time>2017-06-10T08:16:33Z</time>
      </trkpt>
      <trkpt lat="45.937" lon="4.7861">
        <ele>176</ele>
        <time>2017-06-10T08:16:34Z</time>
      </trkpt>
      <trkpt lat="45.93699" lon="4.7862">
        <ele>176</ele>
        <time>2017-06-10T08:16:36Z</time>
      </trkpt>
      <trkpt lat="45.93699" lon="4.78626">
        <ele>176</ele>
        <time>2017-06-10T08:16:37Z</time>
      </trkpt>
      <trkpt lat="45.93704" lon="4.78634">
        <ele>176</ele>
        <time>2017-06-10T08:16:39Z</time>
      </trkpt>
      <trkpt lat="45.93708" lon="4.78635">
        <ele>176</ele>
        <time>2017-06-10T08:16:40Z</time>
      </trkpt>
      <trkpt lat="45.93715" lon="4.78633">
        <ele>176</ele>
        <time>2017-06-10T08:16:42Z</time>
      </trkpt>
      <trkpt lat="45.93719" lon="4.78632">
        <ele>177</ele>
        <time>2017-06-10T08:16:43Z</time>
      </trkpt>
      <trkpt lat="45.93726" lon="4.7863">
        <ele>177</ele>
        <time>2017-06-10T08:16:45Z</time>
      </trkpt>
      <trkpt lat="45.9373" lon="4.78629">
        <ele>177</ele>
        <time>2017-06-10T08:16:46Z</time>
      </trkpt>
      <trkpt lat="45.93737" lon="4.78629">
        <ele>177</ele>
        <time>2017-06-10T08:16:48Z</time>
      </trkpt>
      <trkpt lat="45.9374" lon="4.78628">
        <ele>177</ele>
        <time>2017-06-10T08:16:49Z</time>
      </trkpt>
      <trkpt lat="45.93749" lon="4.78626">
        <ele>177</ele>
        <time>2017-06-10T08:16:51Z</time>
      </trkpt>
      <trkpt lat="45.93753" lon="4.78625">
        <ele>181</ele>
        <time>2017-06-10T08:16:52Z</time>
      </trkpt>
      <trkpt lat="45.93761" lon="4.78624">
        <ele>181</ele>
        <time>2017-06-10T08:16:54Z</time>
      </trkpt>
      <trkpt lat="45.93765" lon="4.78623">
        <ele>181</ele>
        <time>2017-06-10T08:16:55Z</time>
      </trkpt>
      <trkpt lat="45.93773" lon="4.78621">
        <ele>181</ele>
        <time>2017-06-10T08:16:57Z</time>
      </trkpt>
      <trkpt lat="45.93777" lon="4.7862">
        <ele>181</ele>
        <time>2017-06-10T08:16:58Z</time>
      </trkpt>
      <trkpt lat="45.93784" lon="4.78619">
        <ele>182</ele>
        <time>2017-06-10T08:17:00Z</time>
      </trkpt>
      <trkpt lat="45.93787" lon="4.78618">
        <ele>182</ele>
        <time>2017-06-10T08:17:01Z</time>
      </trkpt>
      <trkpt lat="45.93795" lon="4.78616">
        <ele>182</ele>
        <time>2017-06-10T08:17:03Z</time>
      </trkpt>
      <trkpt lat="45.938" lon="4.78615">
        <ele>182</ele>
        <time>2017-06-10T08:17:04Z</time>
      </trkpt>
      <trkpt lat="45.93808" lon="4.78612">
        <ele>183</ele>
        <time>2017-06-10T08:17:06Z</time>
      </trkpt>
      <trkpt lat="45.93812" lon="4.78611">
        <ele>183</ele>
        <time>2017-06-10T08:17:07Z</time>
      </trkpt>
      <trkpt lat="45.93819" lon="4.7861">
        <ele>183</ele>
        <time>2017-06-10T08:17:09Z</time>
      </trkpt>
      <trkpt lat="45.93822" lon="4.78609">
        <ele>183</ele>
        <time>2017-06-10T08:17:10Z</time>
      </trkpt>
      <trkpt lat="45.93828" lon="4.78607">
        <ele>184</ele>
        <time>2017-06-10T08:17:12Z</time>
      </trkpt>
      <trkpt lat="45.93831" lon="4.78606">
        <ele>184</ele>
        <time>2017-06-10T08:17:13Z</time>
      </trkpt>
      <trkpt lat="45.93837" lon="4.78604">
        <ele>187</ele>
        <time>2017-06-10T08:17:15Z</time>
      </trkpt>
      <trkpt lat="45.93841" lon="4.78604">
        <ele>188</ele>
        <time>2017-06-10T08:17:16Z</time>
      </trkpt>
      <trkpt lat="45.93847" lon="4.78602">
        <ele>188</ele>
        <time>2017-06-10T08:17:18Z</time>
      </trkpt>
      <trkpt lat="45.9385" lon="4.78602">
        <ele>188</ele>
        <time>2017-06-10T08:17:19Z</time>
      </trkpt>
      <trkpt lat="45.93857" lon="4.78601">
        <ele>188</ele>
        <time>2017-06-10T08:17:21Z</time>
      </trkpt>
      <trkpt lat="45.9386" lon="4.78601">
        <ele>188</ele>
        <time>2017-06-10T08:17:22Z</time>
      </trkpt>
      <trkpt lat="45.93869" lon="4.78601">
        <ele>188</ele>
        <time>2017-06-10T08:17:25Z</time>
      </trkpt>
      <trkpt lat="45.93871" lon="4.78601">
        <ele>189</ele>
        <time>2017-06-10T08:17:26Z</time>
      </trkpt>
      <trkpt lat="45.93878" lon="4.78599">
        <ele>189</ele>
        <time>2017-06-10T08:17:28Z</time>
      </trkpt>
      <trkpt lat="45.93881" lon="4.78599">
        <ele>189</ele>
        <time>2017-06-10T08:17:29Z</time>
      </trkpt>
      <trkpt lat="45.93887" lon="4.78597">
        <ele>189</ele>
        <time>2017-06-10T08:17:31Z</time>
      </trkpt>
      <trkpt lat="45.93891" lon="4.78595">
        <ele>190</ele>
        <time>2017-06-10T08:17:32Z</time>
      </trkpt>
      <trkpt lat="45.939" lon="4.78593">
        <ele>190</ele>
        <time>2017-06-10T08:17:35Z</time>
      </trkpt>
      <trkpt lat="45.93902" lon="4.78592">
        <ele>191</ele>
        <time>2017-06-10T08:17:36Z</time>
      </trkpt>
      <trkpt lat="45.93908" lon="4.78592">
        <ele>191</ele>
        <time>2017-06-10T08:17:38Z</time>
      </trkpt>
      <trkpt lat="45.93912" lon="4.78589">
        <ele>192</ele>
        <time>2017-06-10T08:17:39Z</time>
      </trkpt>
      <trkpt lat="45.93918" lon="4.78582">
        <ele>193</ele>
        <time>2017-06-10T08:17:41Z</time>
      </trkpt>
      <trkpt lat="45.93921" lon="4.78579">
        <ele>194</ele>
        <time>2017-06-10T08:17:42Z</time>
      </trkpt>
      <trkpt lat="45.93929" lon="4.7858">
        <ele>195</ele>
        <time>2017-06-10T08:17:45Z</time>
      </trkpt>
      <trkpt lat="45.9393" lon="4.78582">
        <ele>195</ele>
        <time>2017-06-10T08:17:46Z</time>
      </trkpt>
      <trkpt lat="45.93931" lon="4.78593">
        <ele>195</ele>
        <time>2017-06-10T08:17:49Z</time>
      </trkpt>
      <trkpt lat="45.93931" lon="4.78597">
        <ele>195</ele>
        <time>2017-06-10T08:17:50Z</time>
      </trkpt>
      <trkpt lat="45.93932" lon="4.78607">
        <ele>195</ele>
        <time>2017-06-10T08:17:52Z</time>
      </trkpt>
      <trkpt lat="45.93932" lon="4.78612">
        <ele>195</ele>
        <time>2017-06-10T08:17:53Z</time>
      </trkpt>
      <trkpt lat="45.93933" lon="4.78622">
        <ele>195</ele>
        <time>2017-06-10T08:17:55Z</time>
      </trkpt>
      <trkpt lat="45.93933" lon="4.78627">
        <ele>195</ele>
        <time>2017-06-10T08:17:56Z</time>
      </trkpt>
      <trkpt lat="45.93934" lon="4.78636">
        <ele>195</ele>
        <time>2017-06-10T08:17:58Z</time>
      </trkpt>
      <trkpt lat="45.93934" lon="4.78642">
        <ele>195</ele>
        <time>2017-06-10T08:17:59Z</time>
      </trkpt>
      <trkpt lat="45.93934" lon="4.78653">
        <ele>194</ele>
        <time>2017-06-10T08:18:01Z</time>
      </trkpt>
      <trkpt lat="45.93934" lon="4.78659">
        <ele>194</ele>
        <time>2017-06-10T08:18:02Z</time>
      </trkpt>
      <trkpt lat="45.93935" lon="4.78671">
        <ele>193</ele>
        <time>2017-06-10T08:18:04Z</time>
      </trkpt>
      <trkpt lat="45.93935" lon="4.78677">
        <ele>193</ele>
        <time>2017-06-10T08:18:05Z</time>
      </trkpt>
      <trkpt lat="45.93937" lon="4.78687">
        <ele>194</ele>
        <time>2017-06-10T08:18:07Z</time>
      </trkpt>
      <trkpt lat="45.93937" lon="4.78693">
        <ele>194</ele>
        <time>2017-06-10T08:18:08Z</time>
      </trkpt>
      <trkpt lat="45.93937" lon="4.78703">
        <ele>194</ele>
        <time>2017-06-10T08:18:10Z</time>
      </trkpt>
      <trkpt lat="45.93936" lon="4.78709">
        <ele>194</ele>
        <time>2017-06-10T08:18:11Z</time>
      </trkpt>
      <trkpt lat="45.93936" lon="4.78716">
        <ele>194</ele>
        <time>2017-06-10T08:18:12Z</time>
      </trkpt>
      <trkpt lat="45.93936" lon="4.78723">
        <ele>194</ele>
        <time>2017-06-10T08:18:13Z</time>
      </trkpt>
      <trkpt lat="45.93935" lon="4.78731">
        <ele>193</ele>
        <time>2017-06-10T08:18:14Z</time>
      </trkpt>
      <trkpt lat="45.93935" lon="4.78738">
        <ele>193</ele>
        <time>2017-06-10T08:18:15Z</time>
      </trkpt>
      <trkpt lat="45.93935" lon="4.78745">
        <ele>193</ele>
        <time>2017-06-10T08:18:16Z</time>
      </trkpt>
      <trkpt lat="45.93935" lon="4.78752">
        <ele>193</ele>
        <time>2017-06-10T08:18:17Z</time>
      </trkpt>
      <trkpt lat="45.93935" lon="4.78759">
        <ele>193</ele>
        <time>2017-06-10T08:18:18Z</time>
      </trkpt>
      <trkpt lat="45.93935" lon="4.78766">
        <ele>193</ele>
        <time>2017-06-10T08:18:19Z</time>
      </trkpt>
      <trkpt lat="45.93935" lon="4.78773">
        <ele>193</ele>
        <time>2017-06-10T08:18:20Z</time>
      </trkpt>
      <trkpt lat="45.93934" lon="4.7878">
        <ele>194</ele>
        <time>2017-06-10T08:18:21Z</time>
      </trkpt>
      <trkpt lat="45.93934" lon="4.78786">
        <ele>194</ele>
        <time>2017-06-10T08:18:22Z</time>
      </trkpt>
      <trkpt lat="45.93934" lon="4.78793">
        <ele>194</ele>
        <time>2017-06-10T08:18:23Z</time>
      </trkpt>
      <trkpt lat="45.93934" lon="4.788">
        <ele>194</ele>
        <time>2017-06-10T08:18:24Z</time>
      </trkpt>
      <trkpt lat="45.93934" lon="4.78807">
        <ele>194</ele>
        <time>2017-06-10T08:18:25Z</time>
      </trkpt>
      <trkpt lat="45.93933" lon="4.78814">
        <ele>193</ele>
        <time>2017-06-10T08:18:26Z</time>
      </trkpt>
      <trkpt lat="45.93933" lon="4.7882">
        <ele>193</ele>
        <time>2017-06-10T08:18:27Z</time>
      </trkpt>
      <trkpt lat="45.93934" lon="4.78833">
        <ele>193</ele>
        <time>2017-06-10T08:18:29Z</time>
      </trkpt>
      <trkpt lat="45.93934" lon="4.78839">
        <ele>193</ele>
        <time>2017-06-10T08:18:30Z</time>
      </trkpt>
      <trkpt lat="45.93934" lon="4.78851">
        <ele>193</ele>
        <time>2017-06-10T08:18:32Z</time>
      </trkpt>
      <trkpt lat="45.93934" lon="4.78858">
        <ele>193</ele>
        <time>2017-06-10T08:18:33Z</time>
      </trkpt>
      <trkpt lat="45.93935" lon="4.78865">
        <ele>193</ele>
        <time>2017-06-10T08:18:34Z</time>
      </trkpt>
      <trkpt lat="45.93935" lon="4.78871">
        <ele>193</ele>
        <time>2017-06-10T08:18:35Z</time>
      </trkpt>
      <trkpt lat="45.93936" lon="4.78879">
        <ele>193</ele>
        <time>2017-06-10T08:18:36Z</time>
      </trkpt>
      <trkpt lat="45.93937" lon="4.78888">
        <ele>193</ele>
        <time>2017-06-10T08:18:37Z</time>
      </trkpt>
      <trkpt lat="45.93937" lon="4.78895">
        <ele>193</ele>
        <time>2017-06-10T08:18:38Z</time>
      </trkpt>
      <trkpt lat="45.93936" lon="4.78903">
        <ele>193</ele>
        <time>2017-06-10T08:18:39Z</time>
      </trkpt>
      <trkpt lat="45.93936" lon="4.78915">
        <ele>193</ele>
        <time>2017-06-10T08:18:41Z</time>
      </trkpt>
      <trkpt lat="45.93937" lon="4.7892">
        <ele>193</ele>
        <time>2017-06-10T08:18:42Z</time>
      </trkpt>
      <trkpt lat="45.93937" lon="4.78931">
        <ele>193</ele>
        <time>2017-06-10T08:18:44Z</time>
      </trkpt>
      <trkpt lat="45.93936" lon="4.78937">
        <ele>193</ele>
        <time>2017-06-10T08:18:45Z</time>
      </trkpt>
      <trkpt lat="45.93936" lon="4.78949">
        <ele>193</ele>
        <time>2017-06-10T08:18:47Z</time>
      </trkpt>
      <trkpt lat="45.93936" lon="4.78955">
        <ele>194</ele>
        <time>2017-06-10T08:18:48Z</time>
      </trkpt>
      <trkpt lat="45.93936" lon="4.78966">
        <ele>194</ele>
        <time>2017-06-10T08:18:50Z</time>
      </trkpt>
      <trkpt lat="45.93937" lon="4.78972">
        <ele>194</ele>
        <time>2017-06-10T08:18:51Z</time>
      </trkpt>
      <trkpt lat="45.93937" lon="4.78984">
        <ele>193</ele>
        <time>2017-06-10T08:18:53Z</time>
      </trkpt>
      <trkpt lat="45.93938" lon="4.7899">
        <ele>193</ele>
        <time>2017-06-10T08:18:54Z</time>
      </trkpt>
      <trkpt lat="45.93939" lon="4.79002">
        <ele>194</ele>
        <time>2017-06-10T08:18:56Z</time>
      </trkpt>
      <trkpt lat="45.9394" lon="4.79008">
        <ele>194</ele>
        <time>2017-06-10T08:18:57Z</time>
      </trkpt>
      <trkpt lat="45.93942" lon="4.79019">
        <ele>195</ele>
        <time>2017-06-10T08:18:59Z</time>
      </trkpt>
      <trkpt lat="45.93943" lon="4.79025">
        <ele>195</ele>
        <time>2017-06-10T08:19:00Z</time>
      </trkpt>
      <trkpt lat="45.93944" lon="4.79037">
        <ele>195</ele>
        <time>2017-06-10T08:19:02Z</time>
      </trkpt>
      <trkpt lat="45.93944" lon="4.79044">
        <ele>195</ele>
        <time>2017-06-10T08:19:03Z</time>
      </trkpt>
      <trkpt lat="45.93946" lon="4.79056">
        <ele>196</ele>
        <time>2017-06-10T08:19:05Z</time>
      </trkpt>
      <trkpt lat="45.93946" lon="4.79061">
        <ele>195</ele>
        <time>2017-06-10T08:19:06Z</time>
      </trkpt>
      <trkpt lat="45.93946" lon="4.79072">
        <ele>195</ele>
        <time>2017-06-10T08:19:08Z</time>
      </trkpt>
      <trkpt lat="45.93947" lon="4.79077">
        <ele>195</ele>
        <time>2017-06-10T08:19:09Z</time>
      </trkpt>
      <trkpt lat="45.93948" lon="4.79086">
        <ele>196</ele>
        <time>2017-06-10T08:19:11Z</time>
      </trkpt>
      <trkpt lat="45.93948" lon="4.79092">
        <ele>196</ele>
        <time>2017-06-10T08:19:12Z</time>
      </trkpt>
      <trkpt lat="45.93949" lon="4.79103">
        <ele>196</ele>
        <time>2017-06-10T08:19:14Z</time>
      </trkpt>
      <trkpt lat="45.93949" lon="4.79108">
        <ele>197</ele>
        <time>2017-06-10T08:19:15Z</time>
      </trkpt>
      <trkpt lat="45.9395" lon="4.79118">
        <ele>197</ele>
        <time>2017-06-10T08:19:17Z</time>
      </trkpt>
      <trkpt lat="45.93948" lon="4.79124">
        <ele>197</ele>
        <time>2017-06-10T08:19:18Z</time>
      </trkpt>
      <trkpt lat="45.93947" lon="4.79135">
        <ele>196</ele>
        <time>2017-06-10T08:19:20Z</time>
      </trkpt>
      <trkpt lat="45.93946" lon="4.7914">
        <ele>196</ele>
        <time>2017-06-10T08:19:21Z</time>
      </trkpt>
      <trkpt lat="45.93946" lon="4.7915">
        <ele>196</ele>
        <time>2017-06-10T08:19:23Z</time>
      </trkpt>
      <trkpt lat="45.93946" lon="4.79155">
        <ele>196</ele>
        <time>2017-06-10T08:19:24Z</time>
      </trkpt>
      <trkpt lat="45.93946" lon="4.79166">
        <ele>196</ele>
        <time>2017-06-10T08:19:26Z</time>
      </trkpt>
      <trkpt lat="45.93947" lon="4.79172">
        <ele>196</ele>
        <time>2017-06-10T08:19:27Z</time>
      </trkpt>
      <trkpt lat="45.93947" lon="4.79184">
        <ele>197</ele>
        <time>2017-06-10T08:19:29Z</time>
      </trkpt>
      <trkpt lat="45.93947" lon="4.7919">
        <ele>197</ele>
        <time>2017-06-10T08:19:30Z</time>
      </trkpt>
      <trkpt lat="45.93947" lon="4.79202">
        <ele>197</ele>
        <time>2017-06-10T08:19:32Z</time>
      </trkpt>
      <trkpt lat="45.93947" lon="4.79208">
        <ele>197</ele>
        <time>2017-06-10T08:19:33Z</time>
      </trkpt>
      <trkpt lat="45.93947" lon="4.79218">
        <ele>197</ele>
        <time>2017-06-10T08:19:35Z</time>
      </trkpt>
      <trkpt lat="45.93947" lon="4.79224">
        <ele>197</ele>
        <time>2017-06-10T08:19:36Z</time>
      </trkpt>
      <trkpt lat="45.93947" lon="4.79236">
        <ele>197</ele>
        <time>2017-06-10T08:19:38Z</time>
      </trkpt>
      <trkpt lat="45.93948" lon="4.79242">
        <ele>196</ele>
        <time>2017-06-10T08:19:39Z</time>
      </trkpt>
      <trkpt lat="45.93949" lon="4.79252">
        <ele>197</ele>
        <time>2017-06-10T08:19:41Z</time>
      </trkpt>
      <trkpt lat="45.93949" lon="4.79257">
        <ele>197</ele>
        <time>2017-06-10T08:19:42Z</time>
      </trkpt>
      <trkpt lat="45.9395" lon="4.79267">
        <ele>198</ele>
        <time>2017-06-10T08:19:44Z</time>
      </trkpt>
      <trkpt lat="45.9395" lon="4.79272">
        <ele>198</ele>
        <time>2017-06-10T08:19:45Z</time>
      </trkpt>
      <trkpt lat="45.9395" lon="4.79283">
        <ele>198</ele>
        <time>2017-06-10T08:19:47Z</time>
      </trkpt>
      <trkpt lat="45.9395" lon="4.79289">
        <ele>198</ele>
        <time>2017-06-10T08:19:48Z</time>
      </trkpt>
      <trkpt lat="45.9395" lon="4.793">
        <ele>198</ele>
        <time>2017-06-10T08:19:50Z</time>
      </trkpt>
      <trkpt lat="45.9395" lon="4.79305">
        <ele>198</ele>
        <time>2017-06-10T08:19:51Z</time>
      </trkpt>
      <trkpt lat="45.9395" lon="4.79315">
        <ele>198</ele>
        <time>2017-06-10T08:19:53Z</time>
      </trkpt>
      <trkpt lat="45.9395" lon="4.7932">
        <ele>198</ele>
        <time>2017-06-10T08:19:54Z</time>
      </trkpt>
      <trkpt lat="45.93949" lon="4.7933">
        <ele>198</ele>
        <time>2017-06-10T08:19:56Z</time>
      </trkpt>
      <trkpt lat="45.93949" lon="4.79335">
        <ele>200</ele>
        <time>2017-06-10T08:19:57Z</time>
      </trkpt>
      <trkpt lat="45.93949" lon="4.79346">
        <ele>200</ele>
        <time>2017-06-10T08:19:59Z</time>
      </trkpt>
      <trkpt lat="45.93948" lon="4.79351">
        <ele>200</ele>
        <time>2017-06-10T08:20:00Z</time>
      </trkpt>
      <trkpt lat="45.93947" lon="4.79361">
        <ele>200</ele>
        <time>2017-06-10T08:20:02Z</time>
      </trkpt>
      <trkpt lat="45.93946" lon="4.79366">
        <ele>200</ele>
        <time>2017-06-10T08:20:03Z</time>
      </trkpt>
      <trkpt lat="45.93946" lon="4.79377">
        <ele>200</ele>
        <time>2017-06-10T08:20:05Z</time>
      </trkpt>
      <trkpt lat="45.93946" lon="4.79383">
        <ele>200</ele>
        <time>2017-06-10T08:20:06Z</time>
      </trkpt>
      <trkpt lat="45.93947" lon="4.79392">
        <ele>200</ele>
        <time>2017-06-10T08:20:08Z</time>
      </trkpt>
      <trkpt lat="45.93947" lon="4.79397">
        <ele>200</ele>
        <time>2017-06-10T08:20:09Z</time>
      </trkpt>
      <trkpt lat="45.93947" lon="4.79408">
        <ele>200</ele>
        <time>2017-06-10T08:20:11Z</time>
      </trkpt>
      <trkpt lat="45.93947" lon="4.79412">
        <ele>200</ele>
        <time>2017-06-10T08:20:12Z</time>
      </trkpt>
      <trkpt lat="45.93946" lon="4.79422">
        <ele>201</ele>
        <time>2017-06-10T08:20:14Z</time>
      </trkpt>
      <trkpt lat="45.93945" lon="4.79425">
        <ele>201</ele>
        <time>2017-06-10T08:20:15Z</time>
      </trkpt>
      <trkpt lat="45.93944" lon="4.79438">
        <ele>202</ele>
        <time>2017-06-10T08:20:18Z</time>
      </trkpt>
      <trkpt lat="45.93944" lon="4.79443">
        <ele>202</ele>
        <time>2017-06-10T08:20:19Z</time>
      </trkpt>
      <trkpt lat="45.93943" lon="4.79453">
        <ele>202</ele>
        <time>2017-06-10T08:20:21Z</time>
      </trkpt>
      <trkpt lat="45.93942" lon="4.79458">
        <ele>202</ele>
        <time>2017-06-10T08:20:22Z</time>
      </trkpt>
      <trkpt lat="45.93942" lon="4.7947">
        <ele>202</ele>
        <time>2017-06-10T08:20:24Z</time>
      </trkpt>
      <trkpt lat="45.93942" lon="4.79476">
        <ele>202</ele>
        <time>2017-06-10T08:20:25Z</time>
      </trkpt>
      <trkpt lat="45.93943" lon="4.79486">
        <ele>202</ele>
        <time>2017-06-10T08:20:27Z</time>
      </trkpt>
      <trkpt lat="45.93944" lon="4.79492">
        <ele>202</ele>
        <time>2017-06-10T08:20:28Z</time>
      </trkpt>
      <trkpt lat="45.93945" lon="4.79502">
        <ele>203</ele>
        <time>2017-06-10T08:20:30Z</time>
      </trkpt>
      <trkpt lat="45.93945" lon="4.79507">
        <ele>203</ele>
        <time>2017-06-10T08:20:31Z</time>
      </trkpt>
      <trkpt lat="45.93946" lon="4.79518">
        <ele>203</ele>
        <time>2017-06-10T08:20:33Z</time>
      </trkpt>
      <trkpt lat="45.93947" lon="4.79523">
        <ele>204</ele>
        <time>2017-06-10T08:20:34Z</time>
      </trkpt>
      <trkpt lat="45.93947" lon="4.79532">
        <ele>204</ele>
        <time>2017-06-10T08:20:36Z</time>
      </trkpt>
      <trkpt lat="45.93948" lon="4.79537">
        <ele>204</ele>
        <time>2017-06-10T08:20:37Z</time>
      </trkpt>
      <trkpt lat="45.93949" lon="4.79547">
        <ele>204</ele>
        <time>2017-06-10T08:20:39Z</time>
      </trkpt>
      <trkpt lat="45.9395" lon="4.79553">
        <ele>205</ele>
        <time>2017-06-10T08:20:40Z</time>
      </trkpt>
      <trkpt lat="45.93952" lon="4.79563">
        <ele>205</ele>
        <time>2017-06-10T08:20:42Z</time>
      </trkpt>
      <trkpt lat="45.93954" lon="4.79569">
        <ele>205</ele>
        <time>2017-06-10T08:20:43Z</time>
      </trkpt>
      <trkpt lat="45.93955" lon="4.79578">
        <ele>205</ele>
        <time>2017-06-10T08:20:45Z</time>
      </trkpt>
      <trkpt lat="45.93956" lon="4.79583">
        <ele>205</ele>
        <time>2017-06-10T08:20:46Z</time>
      </trkpt>
      <trkpt lat="45.93958" lon="4.79592">
        <ele>207</ele>
        <time>2017-06-10T08:20:48Z</time>
      </trkpt>
      <trkpt lat="45.93959" lon="4.79597">
        <ele>207</ele>
        <time>2017-06-10T08:20:49Z</time>
      </trkpt>
      <trkpt lat="45.9396" lon="4.79605">
        <ele>207</ele>
        <time>2017-06-10T08:20:51Z</time>
      </trkpt>
      <trkpt lat="45.93961" lon="4.7961">
        <ele>207</ele>
        <time>2017-06-10T08:20:52Z</time>
      </trkpt>
      <trkpt lat="45.93961" lon="4.79622">
        <ele>207</ele>
        <time>2017-06-10T08:20:55Z</time>
      </trkpt>
      <trkpt lat="45.93962" lon="4.79627">
        <ele>207</ele>
        <time>2017-06-10T08:20:56Z</time>
      </trkpt>
      <trkpt lat="45.93962" lon="4.79636">
        <ele>207</ele>
        <time>2017-06-10T08:20:58Z</time>
      </trkpt>
      <trkpt lat="45.93962" lon="4.79641">
        <ele>207</ele>
        <time>2017-06-10T08:20:59Z</time>
      </trkpt>
      <trkpt lat="45.93963" lon="4.7965">
        <ele>207</ele>
        <time>2017-06-10T08:21:01Z</time>
      </trkpt>
      <trkpt lat="45.93963" lon="4.79655">
        <ele>207</ele>
        <time>2017-06-10T08:21:02Z</time>
      </trkpt>
      <trkpt lat="45.93963" lon="4.79665">
        <ele>207</ele>
        <time>2017-06-10T08:21:04Z</time>
      </trkpt>
      <trkpt lat="45.93963" lon="4.7967">
        <ele>207</ele>
        <time>2017-06-10T08:21:05Z</time>
      </trkpt>
      <trkpt lat="45.93963" lon="4.79681">
        <ele>207</ele>
        <time>2017-06-10T08:21:07Z</time>
      </trkpt>
      <trkpt lat="45.93964" lon="4.79687">
        <ele>207</ele>
        <time>2017-06-10T08:21:08Z</time>
      </trkpt>
      <trkpt lat="45.93965" lon="4.79698">
        <ele>207</ele>
        <time>2017-06-10T08:21:10Z</time>
      </trkpt>
      <trkpt lat="45.93965" lon="4.79704">
        <ele>207</ele>
        <time>2017-06-10T08:21:11Z</time>
      </trkpt>
      <trkpt lat="45.93966" lon="4.79715">
        <ele>206</ele>
        <time>2017-06-10T08:21:13Z</time>
      </trkpt>
      <trkpt lat="45.93965" lon="4.7972">
        <ele>206</ele>
        <time>2017-06-10T08:21:14Z</time>
      </trkpt>
      <trkpt lat="45.93966" lon="4.7973">
        <ele>206</ele>
        <time>2017-06-10T08:21:16Z</time>
      </trkpt>
      <trkpt lat="45.93966" lon="4.79735">
        <ele>206</ele>
        <time>2017-06-10T08:21:17Z</time>
      </trkpt>
      <trkpt lat="45.93967" lon="4.79746">
        <ele>206</ele>
        <time>2017-06-10T08:21:19Z</time>
      </trkpt>
      <trkpt lat="45.93967" lon="4.79753">
        <ele>206</ele>
        <time>2017-06-10T08:21:20Z</time>
      </trkpt>
      <trkpt lat="45.93967" lon="4.79765">
        <ele>206</ele>
        <time>2017-06-10T08:21:22Z</time>
      </trkpt>
      <trkpt lat="45.93967" lon="4.79772">
        <ele>206</ele>
        <time>2017-06-10T08:21:23Z</time>
      </trkpt>
      <trkpt lat="45.93967" lon="4.79784">
        <ele>206</ele>
        <time>2017-06-10T08:21:25Z</time>
      </trkpt>
      <trkpt lat="45.93967" lon="4.7979">
        <ele>206</ele>
        <time>2017-06-10T08:21:26Z</time>
      </trkpt>
      <trkpt lat="45.93966" lon="4.79801">
        <ele>206</ele>
        <time>2017-06-10T08:21:28Z</time>
      </trkpt>
      <trkpt lat="45.93965" lon="4.79807">
        <ele>206</ele>
        <time>2017-06-10T08:21:29Z</time>
      </trkpt>
      <trkpt lat="45.93964" lon="4.79818">
        <ele>206</ele>
        <time>2017-06-10T08:21:31Z</time>
      </trkpt>
      <trkpt lat="45.93964" lon="4.79823">
        <ele>206</ele>
        <time>2017-06-10T08:21:32Z</time>
      </trkpt>
      <trkpt lat="45.93963" lon="4.79836">
        <ele>206</ele>
        <time>2017-06-10T08:21:34Z</time>
      </trkpt>
      <trkpt lat="45.93962" lon="4.79842">
        <ele>206</ele>
        <time>2017-06-10T08:21:35Z</time>
      </trkpt>
      <trkpt lat="45.93961" lon="4.79849">
        <ele>206</ele>
        <time>2017-06-10T08:21:36Z</time>
      </trkpt>
      <trkpt lat="45.9396" lon="4.79857">
        <ele>206</ele>
        <time>2017-06-10T08:21:37Z</time>
      </trkpt>
      <trkpt lat="45.93958" lon="4.79864">
        <ele>206</ele>
        <time>2017-06-10T08:21:38Z</time>
      </trkpt>
      <trkpt lat="45.93957" lon="4.79871">
        <ele>206</ele>
        <time>2017-06-10T08:21:39Z</time>
      </trkpt>
      <trkpt lat="45.93956" lon="4.79877">
        <ele>206</ele>
        <time>2017-06-10T08:21:40Z</time>
      </trkpt>
      <trkpt lat="45.93955" lon="4.79884">
        <ele>206</ele>
        <time>2017-06-10T08:21:41Z</time>
      </trkpt>
      <trkpt lat="45.93953" lon="4.79891">
        <ele>205</ele>
        <time>2017-06-10T08:21:42Z</time>
      </trkpt>
      <trkpt lat="45.93952" lon="4.79896">
        <ele>205</ele>
        <time>2017-06-10T08:21:43Z</time>
      </trkpt>
      <trkpt lat="45.93949" lon="4.79908">
        <ele>205</ele>
        <time>2017-06-10T08:21:45Z</time>
      </trkpt>
      <trkpt lat="45.93947" lon="4.79914">
        <ele>205</ele>
        <time>2017-06-10T08:21:46Z</time>
      </trkpt>
      <trkpt lat="45.93946" lon="4.79921">
        <ele>205</ele>
        <time>2017-06-10T08:21:47Z</time>
      </trkpt>
      <trkpt lat="45.93944" lon="4.79927">
        <ele>205</ele>
        <time>2017-06-10T08:21:48Z</time>
      </trkpt>
      <trkpt lat="45.93943" lon="4.79934">
        <ele>205</ele>
        <time>2017-06-10T08:21:49Z</time>
      </trkpt>
      <trkpt lat="45.93942" lon="4.7994">
        <ele>205</ele>
        <time>2017-06-10T08:21:50Z</time>
      </trkpt>
      <trkpt lat="45.93941" lon="4.79948">
        <ele>205</ele>
        <time>2017-06-10T08:21:51Z</time>
      </trkpt>
      <trkpt lat="45.93941" lon="4.79955">
        <ele>205</ele>
        <time>2017-06-10T08:21:52Z</time>
      </trkpt>
      <trkpt lat="45.9394" lon="4.79962">
        <ele>205</ele>
        <time>2017-06-10T08:21:53Z</time>
      </trkpt>
      <trkpt lat="45.93939" lon="4.79968">
        <ele>205</ele>
        <time>2017-06-10T08:21:54Z</time>
      </trkpt>
      <trkpt lat="45.93938" lon="4.79981">
        <ele>204</ele>
        <time>2017-06-10T08:21:56Z</time>
      </trkpt>
      <trkpt lat="45.93937" lon="4.79987">
        <ele>204</ele>
        <time>2017-06-10T08:21:57Z</time>
      </trkpt>
      <trkpt lat="45.93935" lon="4.79998">
        <ele>204</ele>
        <time>2017-06-10T08:21:59Z</time>
      </trkpt>
      <trkpt lat="45.93934" lon="4.80003">
        <ele>205</ele>
        <time>2017-06-10T08:22:00Z</time>
      </trkpt>
      <trkpt lat="45.93932" lon="4.80016">
        <ele>205</ele>
        <time>2017-06-10T08:22:02Z</time>
      </trkpt>
      <trkpt lat="45.93932" lon="4.80022">
        <ele>206</ele>
        <time>2017-06-10T08:22:03Z</time>
      </trkpt>
      <trkpt lat="45.93931" lon="4.80029">
        <ele>206</ele>
        <time>2017-06-10T08:22:04Z</time>
      </trkpt>
      <trkpt lat="45.93931" lon="4.80035">
        <ele>206</ele>
        <time>2017-06-10T08:22:05Z</time>
      </trkpt>
      <trkpt lat="45.9393" lon="4.80042">
        <ele>207</ele>
        <time>2017-06-10T08:22:06Z</time>
      </trkpt>
      <trkpt lat="45.9393" lon="4.80049">
        <ele>207</ele>
        <time>2017-06-10T08:22:07Z</time>
      </trkpt>
      <trkpt lat="45.9393" lon="4.80056">
        <ele>207</ele>
        <time>2017-06-10T08:22:08Z</time>
      </trkpt>
      <trkpt lat="45.9393" lon="4.80063">
        <ele>207</ele>
        <time>2017-06-10T08:22:09Z</time>
      </trkpt>
      <trkpt lat="45.9393" lon="4.80071">
        <ele>207</ele>
        <time>2017-06-10T08:22:10Z</time>
      </trkpt>
      <trkpt lat="45.93931" lon="4.80079">
        <ele>207</ele>
        <time>2017-06-10T08:22:11Z</time>
      </trkpt>
      <trkpt lat="45.93931" lon="4.80086">
        <ele>207</ele>
        <time>2017-06-10T08:22:12Z</time>
      </trkpt>
      <trkpt lat="45.93932" lon="4.80093">
        <ele>207</ele>
        <time>2017-06-10T08:22:13Z</time>
      </trkpt>
      <trkpt lat="45.93933" lon="4.801">
        <ele>208</ele>
        <time>2017-06-10T08:22:14Z</time>
      </trkpt>
      <trkpt lat="45.93934" lon="4.80107">
        <ele>208</ele>
        <time>2017-06-10T08:22:15Z</time>
      </trkpt>
      <trkpt lat="45.93935" lon="4.80115">
        <ele>208</ele>
        <time>2017-06-10T08:22:16Z</time>
      </trkpt>
      <trkpt lat="45.93936" lon="4.80123">
        <ele>208</ele>
        <time>2017-06-10T08:22:17Z</time>
      </trkpt>
      <trkpt lat="45.93936" lon="4.8013">
        <ele>208</ele>
        <time>2017-06-10T08:22:18Z</time>
      </trkpt>
      <trkpt lat="45.93937" lon="4.80137">
        <ele>208</ele>
        <time>2017-06-10T08:22:19Z</time>
      </trkpt>
      <trkpt lat="45.93938" lon="4.80144">
        <ele>208</ele>
        <time>2017-06-10T08:22:20Z</time>
      </trkpt>
      <trkpt lat="45.93939" lon="4.80151">
        <ele>208</ele>
        <time>2017-06-10T08:22:21Z</time>
      </trkpt>
      <trkpt lat="45.9394" lon="4.80157">
        <ele>208</ele>
        <time>2017-06-10T08:22:22Z</time>
      </trkpt>
      <trkpt lat="45.93941" lon="4.80164">
        <ele>208</ele>
        <time>2017-06-10T08:22:23Z</time>
      </trkpt>
      <trkpt lat="45.93941" lon="4.8017">
        <ele>205</ele>
        <time>2017-06-10T08:22:24Z</time>
      </trkpt>
      <trkpt lat="45.93942" lon="4.80176">
        <ele>205</ele>
        <time>2017-06-10T08:22:25Z</time>
      </trkpt>
      <trkpt lat="45.93944" lon="4.80183">
        <ele>205</ele>
        <time>2017-06-10T08:22:26Z</time>
      </trkpt>
      <trkpt lat="45.93945" lon="4.80191">
        <ele>205</ele>
        <time>2017-06-10T08:22:27Z</time>
      </trkpt>
      <trkpt lat="45.93947" lon="4.80197">
        <ele>205</ele>
        <time>2017-06-10T08:22:28Z</time>
      </trkpt>
      <trkpt lat="45.93948" lon="4.80204">
        <ele>205</ele>
        <time>2017-06-10T08:22:29Z</time>
      </trkpt>
      <trkpt lat="45.9395" lon="4.80211">
        <ele>205</ele>
        <time>2017-06-10T08:22:30Z</time>
      </trkpt>
      <trkpt lat="45.93952" lon="4.80217">
        <ele>205</ele>
        <time>2017-06-10T08:22:31Z</time>
      </trkpt>
      <trkpt lat="45.93953" lon="4.80224">
        <ele>204</ele>
        <time>2017-06-10T08:22:32Z</time>
      </trkpt>
      <trkpt lat="45.93955" lon="4.8023">
        <ele>204</ele>
        <time>2017-06-10T08:22:33Z</time>
      </trkpt>
      <trkpt lat="45.93958" lon="4.80242">
        <ele>204</ele>
        <time>2017-06-10T08:22:35Z</time>
      </trkpt>
      <trkpt lat="45.9396" lon="4.80248">
        <ele>204</ele>
        <time>2017-06-10T08:22:36Z</time>
      </trkpt>
      <trkpt lat="45.93962" lon="4.80254">
        <ele>202</ele>
        <time>2017-06-10T08:22:37Z</time>
      </trkpt>
      <trkpt lat="45.93964" lon="4.8026">
        <ele>202</ele>
        <time>2017-06-10T08:22:38Z</time>
      </trkpt>
      <trkpt lat="45.93966" lon="4.80267">
        <ele>202</ele>
        <time>2017-06-10T08:22:39Z</time>
      </trkpt>
      <trkpt lat="45.93968" lon="4.80273">
        <ele>202</ele>
        <time>2017-06-10T08:22:40Z</time>
      </trkpt>
      <trkpt lat="45.93969" lon="4.80279">
        <ele>202</ele>
        <time>2017-06-10T08:22:41Z</time>
      </trkpt>
      <trkpt lat="45.93972" lon="4.80285">
        <ele>202</ele>
        <time>2017-06-10T08:22:42Z</time>
      </trkpt>
      <trkpt lat="45.93976" lon="4.80296">
        <ele>203</ele>
        <time>2017-06-10T08:22:44Z</time>
      </trkpt>
      <trkpt lat="45.93977" lon="4.80302">
        <ele>203</ele>
        <time>2017-06-10T08:22:45Z</time>
      </trkpt>
      <trkpt lat="45.9398" lon="4.80311">
        <ele>203</ele>
        <time>2017-06-10T08:22:47Z</time>
      </trkpt>
      <trkpt lat="45.93981" lon="4.80316">
        <ele>203</ele>
        <time>2017-06-10T08:22:48Z</time>
      </trkpt>
      <trkpt lat="45.93985" lon="4.80328">
        <ele>204</ele>
        <time>2017-06-10T08:22:51Z</time>
      </trkpt>
      <trkpt lat="45.93986" lon="4.80332">
        <ele>204</ele>
        <time>2017-06-10T08:22:52Z</time>
      </trkpt>
      <trkpt lat="45.93989" lon="4.80343">
        <ele>206</ele>
        <time>2017-06-10T08:22:55Z</time>
      </trkpt>
      <trkpt lat="45.9399" lon="4.80347">
        <ele>206</ele>
        <time>2017-06-10T08:22:56Z</time>
      </trkpt>
      <trkpt lat="45.93993" lon="4.80359">
        <ele>207</ele>
        <time>2017-06-10T08:22:59Z</time>
      </trkpt>
      <trkpt lat="45.93994" lon="4.80362">
        <ele>207</ele>
        <time>2017-06-10T08:23:00Z</time>
      </trkpt>
      <trkpt lat="45.93998" lon="4.80374">
        <ele>208</ele>
        <time>2017-06-10T08:23:04Z</time>
      </trkpt>
      <trkpt lat="45.93998" lon="4.80377">
        <ele>208</ele>
        <time>2017-06-10T08:23:05Z</time>
      </trkpt>
      <trkpt lat="45.94001" lon="4.80388">
        <ele>217</ele>
        <time>2017-06-10T08:23:08Z</time>
      </trkpt>
      <trkpt lat="45.94002" lon="4.80392">
        <ele>217</ele>
        <time>2017-06-10T08:23:09Z</time>
      </trkpt>
      <trkpt lat="45.94004" lon="4.80402">
        <ele>217</ele>
        <time>2017-06-10T08:23:12Z</time>
      </trkpt>
      <trkpt lat="45.94005" lon="4.80405">
        <ele>217</ele>
        <time>2017-06-10T08:23:13Z</time>
      </trkpt>
      <trkpt lat="45.94007" lon="4.80417">
        <ele>218</ele>
        <time>2017-06-10T08:23:17Z</time>
      </trkpt>
      <trkpt lat="45.94008" lon="4.80422">
        <ele>219</ele>
        <time>2017-06-10T08:23:18Z</time>
      </trkpt>
      <trkpt lat="45.94011" lon="4.80431">
        <ele>221</ele>
        <time>2017-06-10T08:23:20Z</time>
      </trkpt>
      <trkpt lat="45.94011" lon="4.80436">
        <ele>221</ele>
        <time>2017-06-10T08:23:21Z</time>
      </trkpt>
      <trkpt lat="45.94012" lon="4.80448">
        <ele>222</ele>
        <time>2017-06-10T08:23:23Z</time>
      </trkpt>
      <trkpt lat="45.94012" lon="4.80453">
        <ele>222</ele>
        <time>2017-06-10T08:23:24Z</time>
      </trkpt>
      <trkpt lat="45.94012" lon="4.80465">
        <ele>223</ele>
        <time>2017-06-10T08:23:27Z</time>
      </trkpt>
      <trkpt lat="45.94012" lon="4.80468">
        <ele>223</ele>
        <time>2017-06-10T08:23:28Z</time>
      </trkpt>
      <trkpt lat="45.94011" lon="4.8048">
        <ele>222</ele>
        <time>2017-06-10T08:23:32Z</time>
      </trkpt>
      <trkpt lat="45.94011" lon="4.80484">
        <ele>222</ele>
        <time>2017-06-10T08:23:33Z</time>
      </trkpt>
      <trkpt lat="45.94012" lon="4.80495">
        <ele>221</ele>
        <time>2017-06-10T08:23:38Z</time>
      </trkpt>
      <trkpt lat="45.94011" lon="4.80497">
        <ele>221</ele>
        <time>2017-06-10T08:23:39Z</time>
      </trkpt>
      <trkpt lat="45.94011" lon="4.80507">
        <ele>222</ele>
        <time>2017-06-10T08:23:42Z</time>
      </trkpt>
      <trkpt lat="45.94012" lon="4.80511">
        <ele>222</ele>
        <time>2017-06-10T08:23:43Z</time>
      </trkpt>
      <trkpt lat="45.94011" lon="4.80522">
        <ele>223</ele>
        <time>2017-06-10T08:23:46Z</time>
      </trkpt>
      <trkpt lat="45.94011" lon="4.80526">
        <ele>223</ele>
        <time>2017-06-10T08:23:47Z</time>
      </trkpt>
      <trkpt lat="45.94014" lon="4.80534">
        <ele>224</ele>
        <time>2017-06-10T08:23:50Z</time>
      </trkpt>
      <trkpt lat="45.94015" lon="4.80539">
        <ele>224</ele>
        <time>2017-06-10T08:23:51Z</time>
      </trkpt>
      <trkpt lat="45.94016" lon="4.80549">
        <ele>224</ele>
        <time>2017-06-10T08:23:54Z</time>
      </trkpt>
      <trkpt lat="45.94016" lon="4.80552">
        <ele>224</ele>
        <time>2017-06-10T08:23:55Z</time>
      </trkpt>
      <trkpt lat="45.94014" lon="4.80564">
        <ele>223</ele>
        <time>2017-06-10T08:23:58Z</time>
      </trkpt>
      <trkpt lat="45.94014" lon="4.80568">
        <ele>223</ele>
        <time>2017-06-10T08:23:59Z</time>
      </trkpt>
      <trkpt lat="45.94013" lon="4.80581">
        <ele>221</ele>
        <time>2017-06-10T08:24:02Z</time>
      </trkpt>
      <trkpt lat="45.94013" lon="4.80584">
        <ele>221</ele>
        <time>2017-06-10T08:24:03Z</time>
      </trkpt>
      <trkpt lat="45.94013" lon="4.80594">
        <ele>222</ele>
        <time>2017-06-10T08:24:06Z</time>
      </trkpt>
      <trkpt lat="45.94013" lon="4.80597">
        <ele>222</ele>
        <time>2017-06-10T08:24:07Z</time>
      </trkpt>
      <trkpt lat="45.94015" lon="4.80609">
        <ele>223</ele>
        <time>2017-06-10T08:24:11Z</time>
      </trkpt>
      <trkpt lat="45.94015" lon="4.80612">
        <ele>224</ele>
        <time>2017-06-10T08:24:12Z</time>
      </trkpt>
      <trkpt lat="45.94017" lon="4.80623">
        <ele>224</ele>
        <time>2017-06-10T08:24:15Z</time>
      </trkpt>
      <trkpt lat="45.94017" lon="4.80626">
        <ele>224</ele>
        <time>2017-06-10T08:24:16Z</time>
      </trkpt>
      <trkpt lat="45.94018" lon="4.80636">
        <ele>224</ele>
        <time>2017-06-10T08:24:20Z</time>
      </trkpt>
      <trkpt lat="45.94019" lon="4.80639">
        <ele>224</ele>
        <time>2017-06-10T08:24:21Z</time>
      </trkpt>
      <trkpt lat="45.94021" lon="4.80648">
        <ele>223</ele>
        <time>2017-06-10T08:24:25Z</time>
      </trkpt>
      <trkpt lat="45.94022" lon="4.80652">
        <ele>223</ele>
        <time>2017-06-10T08:24:26Z</time>
      </trkpt>
      <trkpt lat="45.94023" lon="4.80661">
        <ele>223</ele>
        <time>2017-06-10T08:24:28Z</time>
      </trkpt>
      <trkpt lat="45.94023" lon="4.80665">
        <ele>223</ele>
        <time>2017-06-10T08:24:29Z</time>
      </trkpt>
      <trkpt lat="45.94025" lon="4.80675">
        <ele>224</ele>
        <time>2017-06-10T08:24:32Z</time>
      </trkpt>
      <trkpt lat="45.94026" lon="4.80679">
        <ele>224</ele>
        <time>2017-06-10T08:24:33Z</time>
      </trkpt>
      <trkpt lat="45.94028" lon="4.8069">
        <ele>225</ele>
        <time>2017-06-10T08:24:36Z</time>
      </trkpt>
      <trkpt lat="45.94028" lon="4.80693">
        <ele>225</ele>
        <time>2017-06-10T08:24:37Z</time>
      </trkpt>
      <trkpt lat="45.9403" lon="4.80703">
        <ele>225</ele>
        <time>2017-06-10T08:24:40Z</time>
      </trkpt>
      <trkpt lat="45.9403" lon="4.80707">
        <ele>225</ele>
        <time>2017-06-10T08:24:41Z</time>
      </trkpt>
      <trkpt lat="45.94032" lon="4.80716">
        <ele>226</ele>
        <time>2017-06-10T08:24:44Z</time>
      </trkpt>
      <trkpt lat="45.94031" lon="4.8072">
        <ele>226</ele>
        <time>2017-06-10T08:24:45Z</time>
      </trkpt>
      <trkpt lat="45.94035" lon="4.80731">
        <ele>226</ele>
        <time>2017-06-10T08:24:48Z</time>
      </trkpt>
      <trkpt lat="45.94035" lon="4.80735">
        <ele>226</ele>
        <time>2017-06-10T08:24:49Z</time>
      </trkpt>
      <trkpt lat="45.94035" lon="4.80747">
        <ele>226</ele>
        <time>2017-06-10T08:24:53Z</time>
      </trkpt>
      <trkpt lat="45.94035" lon="4.80752">
        <ele>227</ele>
        <time>2017-06-10T08:24:54Z</time>
      </trkpt>
      <trkpt lat="45.94034" lon="4.80764">
        <ele>227</ele>
        <time>2017-06-10T08:24:57Z</time>
      </trkpt>
      <trkpt lat="45.94035" lon="4.80767">
        <ele>227</ele>
        <time>2017-06-10T08:24:58Z</time>
      </trkpt>
      <trkpt lat="45.94035" lon="4.80778">
        <ele>227</ele>
        <time>2017-06-10T08:25:01Z</time>
      </trkpt>
      <trkpt lat="45.94035" lon="4.80782">
        <ele>227</ele>
        <time>2017-06-10T08:25:02Z</time>
      </trkpt>
      <trkpt lat="45.94037" lon="4.80793">
        <ele>227</ele>
        <time>2017-06-10T08:25:05Z</time>
      </trkpt>
      <trkpt lat="45.94038" lon="4.80797">
        <ele>228</ele>
        <time>2017-06-10T08:25:06Z</time>
      </trkpt>
      <trkpt lat="45.94039" lon="4.80809">
        <ele>228</ele>
        <time>2017-06-10T08:25:09Z</time>
      </trkpt>
      <trkpt lat="45.9404" lon="4.80813">
        <ele>228</ele>
        <time>2017-06-10T08:25:10Z</time>
      </trkpt>
      <trkpt lat="45.94041" lon="4.80822">
        <ele>228</ele>
        <time>2017-06-10T08:25:13Z</time>
      </trkpt>
      <trkpt lat="45.94042" lon="4.80826">
        <ele>228</ele>
        <time>2017-06-10T08:25:14Z</time>
      </trkpt>
      <trkpt lat="45.94043" lon="4.80836">
        <ele>229</ele>
        <time>2017-06-10T08:25:17Z</time>
      </trkpt>
      <trkpt lat="45.94044" lon="4.80839">
        <ele>229</ele>
        <time>2017-06-10T08:25:18Z</time>
      </trkpt>
      <trkpt lat="45.94047" lon="4.8085">
        <ele>229</ele>
        <time>2017-06-10T08:25:21Z</time>
      </trkpt>
      <trkpt lat="45.94047" lon="4.80853">
        <ele>229</ele>
        <time>2017-06-10T08:25:22Z</time>
      </trkpt>
      <trkpt lat="45.94049" lon="4.80863">
        <ele>229</ele>
        <time>2017-06-10T08:25:25Z</time>
      </trkpt>
      <trkpt lat="45.9405" lon="4.80868">
        <ele>230</ele>
        <time>2017-06-10T08:25:26Z</time>
      </trkpt>
      <trkpt lat="45.9405" lon="4.80881">
        <ele>230</ele>
        <time>2017-06-10T08:25:30Z</time>
      </trkpt>
      <trkpt lat="45.94051" lon="4.80884">
        <ele>230</ele>
        <time>2017-06-10T08:25:31Z</time>
      </trkpt>
      <trkpt lat="45.94052" lon="4.80896">
        <ele>230</ele>
        <time>2017-06-10T08:25:35Z</time>
      </trkpt>
      <trkpt lat="45.94053" lon="4.80899">
        <ele>230</ele>
        <time>2017-06-10T08:25:36Z</time>
      </trkpt>
      <trkpt lat="45.94054" lon="4.80912">
        <ele>231</ele>
        <time>2017-06-10T08:25:40Z</time>
      </trkpt>
      <trkpt lat="45.94054" lon="4.80915">
        <ele>231</ele>
        <time>2017-06-10T08:25:41Z</time>
      </trkpt>
      <trkpt lat="45.94055" lon="4.80925">
        <ele>232</ele>
        <time>2017-06-10T08:25:44Z</time>
      </trkpt>
      <trkpt lat="45.94055" lon="4.80929">
        <ele>231</ele>
        <time>2017-06-10T08:25:45Z</time>
      </trkpt>
      <trkpt lat="45.94056" lon="4.80939">
        <ele>231</ele>
        <time>2017-06-10T08:25:48Z</time>
      </trkpt>
      <trkpt lat="45.94057" lon="4.80942">
        <ele>231</ele>
        <time>2017-06-10T08:25:49Z</time>
      </trkpt>
      <trkpt lat="45.94058" lon="4.80952">
        <ele>231</ele>
        <time>2017-06-10T08:25:52Z</time>
      </trkpt>
      <trkpt lat="45.94058" lon="4.80955">
        <ele>231</ele>
        <time>2017-06-10T08:25:53Z</time>
      </trkpt>
      <trkpt lat="45.94059" lon="4.80965">
        <ele>232</ele>
        <time>2017-06-10T08:25:56Z</time>
      </trkpt>
      <trkpt lat="45.9406" lon="4.80969">
        <ele>232</ele>
        <time>2017-06-10T08:25:57Z</time>
      </trkpt>
      <trkpt lat="45.94062" lon="4.8098">
        <ele>233</ele>
        <time>2017-06-10T08:26:00Z</time>
      </trkpt>
      <trkpt lat="45.94063" lon="4.80983">
        <ele>233</ele>
        <time>2017-06-10T08:26:01Z</time>
      </trkpt>
      <trkpt lat="45.94064" lon="4.80994">
        <ele>234</ele>
        <time>2017-06-10T08:26:04Z</time>
      </trkpt>
      <trkpt lat="45.94064" lon="4.80997">
        <ele>234</ele>
        <time>2017-06-10T08:26:05Z</time>
      </trkpt>
      <trkpt lat="45.94065" lon="4.81008">
        <ele>234</ele>
        <time>2017-06-10T08:26:08Z</time>
      </trkpt>
      <trkpt lat="45.94065" lon="4.81011">
        <ele>234</ele>
        <time>2017-06-10T08:26:09Z</time>
      </trkpt>
      <trkpt lat="45.94068" lon="4.81023">
        <ele>234</ele>
        <time>2017-06-10T08:26:13Z</time>
      </trkpt>
      <trkpt lat="45.94069" lon="4.81026">
        <ele>233</ele>
        <time>2017-06-10T08:26:14Z</time>
      </trkpt>
      <trkpt lat="45.94072" lon="4.81037">
        <ele>233</ele>
        <time>2017-06-10T08:26:17Z</time>
      </trkpt>
      <trkpt lat="45.94073" lon="4.81041">
        <ele>233</ele>
        <time>2017-06-10T08:26:18Z</time>
      </trkpt>
      <trkpt lat="45.94077" lon="4.81052">
        <ele>233</ele>
        <time>2017-06-10T08:26:21Z</time>
      </trkpt>
      <trkpt lat="45.94078" lon="4.81054">
        <ele>233</ele>
        <time>2017-06-10T08:26:22Z</time>
      </trkpt>
      <trkpt lat="45.9408" lon="4.81063">
        <ele>234</ele>
        <time>2017-06-10T08:26:24Z</time>
      </trkpt>
      <trkpt lat="45.94081" lon="4.81067">
        <ele>234</ele>
        <time>2017-06-10T08:26:25Z</time>
      </trkpt>
      <trkpt lat="45.94086" lon="4.81077">
        <ele>239</ele>
        <time>2017-06-10T08:26:28Z</time>
      </trkpt>
      <trkpt lat="45.94087" lon="4.8108">
        <ele>239</ele>
        <time>2017-06-10T08:26:29Z</time>
      </trkpt>
      <trkpt lat="45.94092" lon="4.81088">
        <ele>239</ele>
        <time>2017-06-10T08:26:32Z</time>
      </trkpt>
      <trkpt lat="45.94093" lon="4.8109">
        <ele>239</ele>
        <time>2017-06-10T08:26:33Z</time>
      </trkpt>
      <trkpt lat="45.94098" lon="4.81098">
        <ele>241</ele>
        <time>2017-06-10T08:26:37Z</time>
      </trkpt>
      <trkpt lat="45.941" lon="4.811">
        <ele>241</ele>
        <time>2017-06-10T08:26:38Z</time>
      </trkpt>
      <trkpt lat="45.94105" lon="4.81108">
        <ele>242</ele>
        <time>2017-06-10T08:26:41Z</time>
      </trkpt>
      <trkpt lat="45.94106" lon="4.8111">
        <ele>242</ele>
        <time>2017-06-10T08:26:42Z</time>
      </trkpt>
      <trkpt lat="45.94112" lon="4.81119">
        <ele>242</ele>
        <time>2017-06-10T08:26:46Z</time>
      </trkpt>
      <trkpt lat="45.94114" lon="4.81122">
        <ele>242</ele>
        <time>2017-06-10T08:26:47Z</time>
      </trkpt>
      <trkpt lat="45.94119" lon="4.81132">
        <ele>243</ele>
        <time>2017-06-10T08:26:51Z</time>
      </trkpt>
      <trkpt lat="45.94121" lon="4.81134">
        <ele>243</ele>
        <time>2017-06-10T08:26:52Z</time>
      </trkpt>
      <trkpt lat="45.94124" lon="4.81142">
        <ele>243</ele>
        <time>2017-06-10T08:26:55Z</time>
      </trkpt>
      <trkpt lat="45.94125" lon="4.81147">
        <ele>243</ele>
        <time>2017-06-10T08:26:56Z</time>
      </trkpt>
      <trkpt lat="45.94129" lon="4.81158">
        <ele>243</ele>
        <time>2017-06-10T08:26:59Z</time>
      </trkpt>
      <trkpt lat="45.9413" lon="4.8116">
        <ele>243</ele>
        <time>2017-06-10T08:27:00Z</time>
      </trkpt>
      <trkpt lat="45.94134" lon="4.81172">
        <ele>243</ele>
        <time>2017-06-10T08:27:04Z</time>
      </trkpt>
      <trkpt lat="45.94135" lon="4.81174">
        <ele>243</ele>
        <time>2017-06-10T08:27:05Z</time>
      </trkpt>
      <trkpt lat="45.94139" lon="4.81183">
        <ele>244</ele>
        <time>2017-06-10T08:27:08Z</time>
      </trkpt>
      <trkpt lat="45.9414" lon="4.81185">
        <ele>244</ele>
        <time>2017-06-10T08:27:09Z</time>
      </trkpt>
      <trkpt lat="45.94144" lon="4.81196">
        <ele>244</ele>
        <time>2017-06-10T08:27:13Z</time>
      </trkpt>
      <trkpt lat="45.94144" lon="4.81199">
        <ele>244</ele>
        <time>2017-06-10T08:27:14Z</time>
      </trkpt>
      <trkpt lat="45.94147" lon="4.81211">
        <ele>244</ele>
        <time>2017-06-10T08:27:18Z</time>
      </trkpt>
      <trkpt lat="45.94148" lon="4.81213">
        <ele>244</ele>
        <time>2017-06-10T08:27:19Z</time>
      </trkpt>
      <trkpt lat="45.9415" lon="4.81223">
        <ele>245</ele>
        <time>2017-06-10T08:27:22Z</time>
      </trkpt>
      <trkpt lat="45.94151" lon="4.81227">
        <ele>245</ele>
        <time>2017-06-10T08:27:23Z</time>
      </trkpt>
      <trkpt lat="45.94151" lon="4.81236">
        <ele>246</ele>
        <time>2017-06-10T08:27:26Z</time>
      </trkpt>
      <trkpt lat="45.94151" lon="4.8124">
        <ele>246</ele>
        <time>2017-06-10T08:27:27Z</time>
      </trkpt>
      <trkpt lat="45.94152" lon="4.8125">
        <ele>247</ele>
        <time>2017-06-10T08:27:30Z</time>
      </trkpt>
      <trkpt lat="45.94153" lon="4.81254">
        <ele>248</ele>
        <time>2017-06-10T08:27:31Z</time>
      </trkpt>
      <trkpt lat="45.94155" lon="4.81264">
        <ele>247</ele>
        <time>2017-06-10T08:27:34Z</time>
      </trkpt>
      <trkpt lat="45.94155" lon="4.81267">
        <ele>247</ele>
        <time>2017-06-10T08:27:35Z</time>
      </trkpt>
      <trkpt lat="45.94156" lon="4.81278">
        <ele>247</ele>
        <time>2017-06-10T08:27:38Z</time>
      </trkpt>
      <trkpt lat="45.94157" lon="4.81282">
        <ele>247</ele>
        <time>2017-06-10T08:27:39Z</time>
      </trkpt>
      <trkpt lat="45.94158" lon="4.81293">
        <ele>247</ele>
        <time>2017-06-10T08:27:42Z</time>
      </trkpt>
      <trkpt lat="45.94158" lon="4.81296">
        <ele>247</ele>
        <time>2017-06-10T08:27:43Z</time>
      </trkpt>
      <trkpt lat="45.94159" lon="4.81308">
        <ele>248</ele>
        <time>2017-06-10T08:27:47Z</time>
      </trkpt>
      <trkpt lat="45.94159" lon="4.81312">
        <ele>248</ele>
        <time>2017-06-10T08:27:48Z</time>
      </trkpt>
      <trkpt lat="45.94158" lon="4.81324">
        <ele>249</ele>
        <time>2017-06-10T08:27:53Z</time>
      </trkpt>
      <trkpt lat="45.94158" lon="4.81331">
        <ele>250</ele>
        <time>2017-06-10T08:27:54Z</time>
      </trkpt>
      <trkpt lat="45.94158" lon="4.81341">
        <ele>251</ele>
        <time>2017-06-10T08:27:56Z</time>
      </trkpt>
      <trkpt lat="45.94157" lon="4.81345">
        <ele>251</ele>
        <time>2017-06-10T08:27:57Z</time>
      </trkpt>
      <trkpt lat="45.94158" lon="4.81357">
        <ele>250</ele>
        <time>2017-06-10T08:28:01Z</time>
      </trkpt>
      <trkpt lat="45.94158" lon="4.8136">
        <ele>250</ele>
        <time>2017-06-10T08:28:02Z</time>
      </trkpt>
      <trkpt lat="45.94156" lon="4.81371">
        <ele>250</ele>
        <time>2017-06-10T08:28:06Z</time>
      </trkpt>
      <trkpt lat="45.94155" lon="4.81374">
        <ele>251</ele>
        <time>2017-06-10T08:28:07Z</time>
      </trkpt>
      <trkpt lat="45.94153" lon="4.81385">
        <ele>251</ele>
        <time>2017-06-10T08:28:11Z</time>
      </trkpt>
      <trkpt lat="45.94152" lon="4.81387">
        <ele>251</ele>
        <time>2017-06-10T08:28:12Z</time>
      </trkpt>
      <trkpt lat="45.9415" lon="4.81399">
        <ele>252</ele>
        <time>2017-06-10T08:28:16Z</time>
      </trkpt>
      <trkpt lat="45.9415" lon="4.81402">
        <ele>252</ele>
        <time>2017-06-10T08:28:17Z</time>
      </trkpt>
      <trkpt lat="45.94148" lon="4.81414">
        <ele>252</ele>
        <time>2017-06-10T08:28:21Z</time>
      </trkpt>
      <trkpt lat="45.94148" lon="4.81417">
        <ele>256</ele>
        <time>2017-06-10T08:28:22Z</time>
      </trkpt>
      <trkpt lat="45.94147" lon="4.81429">
        <ele>256</ele>
        <time>2017-06-10T08:28:26Z</time>
      </trkpt>
      <trkpt lat="45.94148" lon="4.81432">
        <ele>256</ele>
        <time>2017-06-10T08:28:27Z</time>
      </trkpt>
      <trkpt lat="45.94145" lon="4.81442">
        <ele>256</ele>
        <time>2017-06-10T08:28:31Z</time>
      </trkpt>
      <trkpt lat="45.94145" lon="4.81445">
        <ele>256</ele>
        <time>2017-06-10T08:28:32Z</time>
      </trkpt>
      <trkpt lat="45.94145" lon="4.81456">
        <ele>257</ele>
        <time>2017-06-10T08:28:36Z</time>
      </trkpt>
      <trkpt lat="45.94144" lon="4.81458">
        <ele>257</ele>
        <time>2017-06-10T08:28:37Z</time>
      </trkpt>
      <trkpt lat="45.94142" lon="4.81471">
        <ele>257</ele>
        <time>2017-06-10T08:28:42Z</time>
      </trkpt>
      <trkpt lat="45.94142" lon="4.81474">
        <ele>258</ele>
        <time>2017-06-10T08:28:43Z</time>
      </trkpt>
      <trkpt lat="45.94142" lon="4.81485">
        <ele>258</ele>
        <time>2017-06-10T08:28:47Z</time>
      </trkpt>
      <trkpt lat="45.94142" lon="4.81488">
        <ele>258</ele>
        <time>2017-06-10T08:28:48Z</time>
      </trkpt>
      <trkpt lat="45.94141" lon="4.81499">
        <ele>259</ele>
        <time>2017-06-10T08:28:52Z</time>
      </trkpt>
      <trkpt lat="45.94141" lon="4.81502">
        <ele>263</ele>
        <time>2017-06-10T08:28:53Z</time>
      </trkpt>
      <trkpt lat="45.94141" lon="4.81514">
        <ele>263</ele>
        <time>2017-06-10T08:28:56Z</time>
      </trkpt>
      <trkpt lat="45.94141" lon="4.81518">
        <ele>263</ele>
        <time>2017-06-10T08:28:57Z</time>
      </trkpt>
      <trkpt lat="45.94143" lon="4.8153">
        <ele>263</ele>
        <time>2017-06-10T08:29:00Z</time>
      </trkpt>
      <trkpt lat="45.94143" lon="4.81534">
        <ele>264</ele>
        <time>2017-06-10T08:29:01Z</time>
      </trkpt>
      <trkpt lat="45.94142" lon="4.81543">
        <ele>264</ele>
        <time>2017-06-10T08:29:04Z</time>
      </trkpt>
      <trkpt lat="45.94142" lon="4.81547">
        <ele>264</ele>
        <time>2017-06-10T08:29:05Z</time>
      </trkpt>
      <trkpt lat="45.94143" lon="4.81558">
        <ele>264</ele>
        <time>2017-06-10T08:29:08Z</time>
      </trkpt>
      <trkpt lat="45.94143" lon="4.81562">
        <ele>265</ele>
        <time>2017-06-10T08:29:09Z</time>
      </trkpt>
      <trkpt lat="45.94144" lon="4.81573">
        <ele>265</ele>
        <time>2017-06-10T08:29:13Z</time>
      </trkpt>
      <trkpt lat="45.94145" lon="4.81576">
        <ele>265</ele>
        <time>2017-06-10T08:29:14Z</time>
      </trkpt>
      <trkpt lat="45.94147" lon="4.81588">
        <ele>267</ele>
        <time>2017-06-10T08:29:17Z</time>
      </trkpt>
      <trkpt lat="45.94148" lon="4.81593">
        <ele>267</ele>
        <time>2017-06-10T08:29:18Z</time>
      </trkpt>
      <trkpt lat="45.9415" lon="4.81603">
        <ele>267</ele>
        <time>2017-06-10T08:29:20Z</time>
      </trkpt>
      <trkpt lat="45.94151" lon="4.81608">
        <ele>267</ele>
        <time>2017-06-10T08:29:21Z</time>
      </trkpt>
      <trkpt lat="45.94153" lon="4.8162">
        <ele>268</ele>
        <time>2017-06-10T08:29:24Z</time>
      </trkpt>
      <trkpt lat="45.94154" lon="4.81623">
        <ele>268</ele>
        <time>2017-06-10T08:29:25Z</time>
      </trkpt>
      <trkpt lat="45.94156" lon="4.81628">
        <ele>268</ele>
        <time>2017-06-10T08:29:26Z</time>
      </trkpt>
      <trkpt lat="45.94161" lon="4.81635">
        <ele>268</ele>
        <time>2017-06-10T08:29:27Z</time>
      </trkpt>
      <trkpt lat="45.94165" lon="4.81647">
        <ele>268</ele>
        <time>2017-06-10T08:29:30Z</time>
      </trkpt>
      <trkpt lat="45.94165" lon="4.8165">
        <ele>268</ele>
        <time>2017-06-10T08:29:31Z</time>
      </trkpt>
      <trkpt lat="45.94167" lon="4.8166">
        <ele>269</ele>
        <time>2017-06-10T08:29:34Z</time>
      </trkpt>
      <trkpt lat="45.94167" lon="4.81664">
        <ele>269</ele>
        <time>2017-06-10T08:29:35Z</time>
      </trkpt>
      <trkpt lat="45.9417" lon="4.81674">
        <ele>268</ele>
        <time>2017-06-10T08:29:38Z</time>
      </trkpt>
      <trkpt lat="45.94171" lon="4.81678">
        <ele>268</ele>
        <time>2017-06-10T08:29:39Z</time>
      </trkpt>
      <trkpt lat="45.94173" lon="4.8169">
        <ele>267</ele>
        <time>2017-06-10T08:29:42Z</time>
      </trkpt>
      <trkpt lat="45.94175" lon="4.81693">
        <ele>267</ele>
        <time>2017-06-10T08:29:43Z</time>
      </trkpt>
      <trkpt lat="45.94178" lon="4.81703">
        <ele>267</ele>
        <time>2017-06-10T08:29:46Z</time>
      </trkpt>
      <trkpt lat="45.94179" lon="4.81706">
        <ele>267</ele>
        <time>2017-06-10T08:29:47Z</time>
      </trkpt>
      <trkpt lat="45.94179" lon="4.81717">
        <ele>267</ele>
        <time>2017-06-10T08:29:50Z</time>
      </trkpt>
      <trkpt lat="45.94179" lon="4.81721">
        <ele>267</ele>
        <time>2017-06-10T08:29:51Z</time>
      </trkpt>
      <trkpt lat="45.94181" lon="4.8173">
        <ele>267</ele>
        <time>2017-06-10T08:29:53Z</time>
      </trkpt>
      <trkpt lat="45.94181" lon="4.81734">
        <ele>267</ele>
        <time>2017-06-10T08:29:54Z</time>
      </trkpt>
      <trkpt lat="45.94183" lon="4.81742">
        <ele>267</ele>
        <time>2017-06-10T08:29:56Z</time>
      </trkpt>
      <trkpt lat="45.94185" lon="4.81746">
        <ele>267</ele>
        <time>2017-06-10T08:29:57Z</time>
      </trkpt>
      <trkpt lat="45.94189" lon="4.81754">
        <ele>266</ele>
        <time>2017-06-10T08:29:59Z</time>
      </trkpt>
      <trkpt lat="45.94191" lon="4.81759">
        <ele>266</ele>
        <time>2017-06-10T08:30:00Z</time>
      </trkpt>
      <trkpt lat="45.94194" lon="4.81767">
        <ele>266</ele>
        <time>2017-06-10T08:30:02Z</time>
      </trkpt>
      <trkpt lat="45.94195" lon="4.81771">
        <ele>266</ele>
        <time>2017-06-10T08:30:03Z</time>
      </trkpt>
      <trkpt lat="45.94196" lon="4.8178">
        <ele>266</ele>
        <time>2017-06-10T08:30:05Z</time>
      </trkpt>
      <trkpt lat="45.94197" lon="4.81784">
        <ele>266</ele>
        <time>2017-06-10T08:30:06Z</time>
      </trkpt>
      <trkpt lat="45.94197" lon="4.81793">
        <ele>266</ele>
        <time>2017-06-10T08:30:08Z</time>
      </trkpt>
      <trkpt lat="45.94197" lon="4.81798">
        <ele>266</ele>
        <time>2017-06-10T08:30:09Z</time>
      </trkpt>
      <trkpt lat="45.94197" lon="4.81807">
        <ele>266</ele>
        <time>2017-06-10T08:30:11Z</time>
      </trkpt>
      <trkpt lat="45.94198" lon="4.81811">
        <ele>266</ele>
        <time>2017-06-10T08:30:12Z</time>
      </trkpt>
      <trkpt lat="45.94199" lon="4.81821">
        <ele>266</ele>
        <time>2017-06-10T08:30:14Z</time>
      </trkpt>
      <trkpt lat="45.942" lon="4.81825">
        <ele>266</ele>
        <time>2017-06-10T08:30:15Z</time>
      </trkpt>
      <trkpt lat="45.94202" lon="4.81837">
        <ele>266</ele>
        <time>2017-06-10T08:30:18Z</time>
      </trkpt>
      <trkpt lat="45.94203" lon="4.81842">
        <ele>266</ele>
        <time>2017-06-10T08:30:19Z</time>
      </trkpt>
      <trkpt lat="45.94204" lon="4.81851">
        <ele>266</ele>
        <time>2017-06-10T08:30:21Z</time>
      </trkpt>
      <trkpt lat="45.94205" lon="4.81856">
        <ele>266</ele>
        <time>2017-06-10T08:30:22Z</time>
      </trkpt>
      <trkpt lat="45.94207" lon="4.81868">
        <ele>265</ele>
        <time>2017-06-10T08:30:24Z</time>
      </trkpt>
      <trkpt lat="45.94208" lon="4.81873">
        <ele>265</ele>
        <time>2017-06-10T08:30:25Z</time>
      </trkpt>
      <trkpt lat="45.9421" lon="4.81884">
        <ele>265</ele>
        <time>2017-06-10T08:30:27Z</time>
      </trkpt>
      <trkpt lat="45.94211" lon="4.81889">
        <ele>265</ele>
        <time>2017-06-10T08:30:28Z</time>
      </trkpt>
      <trkpt lat="45.94213" lon="4.81901">
        <ele>265</ele>
        <time>2017-06-10T08:30:30Z</time>
      </trkpt>
      <trkpt lat="45.94214" lon="4.81906">
        <ele>265</ele>
        <time>2017-06-10T08:30:31Z</time>
      </trkpt>
      <trkpt lat="45.94216" lon="4.81915">
        <ele>265</ele>
        <time>2017-06-10T08:30:33Z</time>
      </trkpt>
      <trkpt lat="45.94217" lon="4.8192">
        <ele>264</ele>
        <time>2017-06-10T08:30:34Z</time>
      </trkpt>
      <trkpt lat="45.94219" lon="4.81931">
        <ele>264</ele>
        <time>2017-06-10T08:30:36Z</time>
      </trkpt>
      <trkpt lat="45.9422" lon="4.81937">
        <ele>264</ele>
        <time>2017-06-10T08:30:37Z</time>
      </trkpt>
      <trkpt lat="45.94222" lon="4.81948">
        <ele>264</ele>
        <time>2017-06-10T08:30:39Z</time>
      </trkpt>
      <trkpt lat="45.94223" lon="4.81953">
        <ele>264</ele>
        <time>2017-06-10T08:30:40Z</time>
      </trkpt>
      <trkpt lat="45.94226" lon="4.81965">
        <ele>264</ele>
        <time>2017-06-10T08:30:42Z</time>
      </trkpt>
      <trkpt lat="45.94227" lon="4.8197">
        <ele>264</ele>
        <time>2017-06-10T08:30:43Z</time>
      </trkpt>
      <trkpt lat="45.94229" lon="4.81983">
        <ele>263</ele>
        <time>2017-06-10T08:30:45Z</time>
      </trkpt>
      <trkpt lat="45.94231" lon="4.81989">
        <ele>263</ele>
        <time>2017-06-10T08:30:46Z</time>
      </trkpt>
      <trkpt lat="45.94232" lon="4.81995">
        <ele>263</ele>
        <time>2017-06-10T08:30:47Z</time>
      </trkpt>
      <trkpt lat="45.94233" lon="4.82002">
        <ele>263</ele>
        <time>2017-06-10T08:30:48Z</time>
      </trkpt>
      <trkpt lat="45.94234" lon="4.82008">
        <ele>263</ele>
        <time>2017-06-10T08:30:49Z</time>
      </trkpt>
      <trkpt lat="45.94236" lon="4.82015">
        <ele>263</ele>
        <time>2017-06-10T08:30:50Z</time>
      </trkpt>
      <trkpt lat="45.94238" lon="4.82026">
        <ele>263</ele>
        <time>2017-06-10T08:30:52Z</time>
      </trkpt>
      <trkpt lat="45.9424" lon="4.82032">
        <ele>263</ele>
        <time>2017-06-10T08:30:53Z</time>
      </trkpt>
      <trkpt lat="45.94242" lon="4.82043">
        <ele>263</ele>
        <time>2017-06-10T08:30:55Z</time>
      </trkpt>
      <trkpt lat="45.94242" lon="4.82049">
        <ele>263</ele>
        <time>2017-06-10T08:30:56Z</time>
      </trkpt>
      <trkpt lat="45.94245" lon="4.82061">
        <ele>263</ele>
        <time>2017-06-10T08:30:58Z</time>
      </trkpt>
      <trkpt lat="45.94246" lon="4.82067">
        <ele>263</ele>
        <time>2017-06-10T08:30:59Z</time>
      </trkpt>
      <trkpt lat="45.94247" lon="4.82073">
        <ele>263</ele>
        <time>2017-06-10T08:31:00Z</time>
      </trkpt>
      <trkpt lat="45.94248" lon="4.8208">
        <ele>262</ele>
        <time>2017-06-10T08:31:01Z</time>
      </trkpt>
      <trkpt lat="45.9425" lon="4.82086">
        <ele>262</ele>
        <time>2017-06-10T08:31:02Z</time>
      </trkpt>
      <trkpt lat="45.94251" lon="4.82092">
        <ele>262</ele>
        <time>2017-06-10T08:31:03Z</time>
      </trkpt>
      <trkpt lat="45.94252" lon="4.821">
        <ele>262</ele>
        <time>2017-06-10T08:31:04Z</time>
      </trkpt>
      <trkpt lat="45.94254" lon="4.82107">
        <ele>262</ele>
        <time>2017-06-10T08:31:05Z</time>
      </trkpt>
      <trkpt lat="45.94255" lon="4.82114">
        <ele>263</ele>
        <time>2017-06-10T08:31:06Z</time>
      </trkpt>
      <trkpt lat="45.94256" lon="4.82122">
        <ele>263</ele>
        <time>2017-06-10T08:31:07Z</time>
      </trkpt>
      <trkpt lat="45.94257" lon="4.82129">
        <ele>263</ele>
        <time>2017-06-10T08:31:08Z</time>
      </trkpt>
      <trkpt lat="45.94259" lon="4.82136">
        <ele>263</ele>
        <time>2017-06-10T08:31:09Z</time>
      </trkpt>
      <trkpt lat="45.9426" lon="4.82143">
        <ele>263</ele>
        <time>2017-06-10T08:31:10Z</time>
      </trkpt>
      <trkpt lat="45.94262" lon="4.82149">
        <ele>263</ele>
        <time>2017-06-10T08:31:11Z</time>
      </trkpt>
      <trkpt lat="45.94264" lon="4.82156">
        <ele>263</ele>
        <time>2017-06-10T08:31:12Z</time>
      </trkpt>
      <trkpt lat="45.94265" lon="4.82162">
        <ele>263</ele>
        <time>2017-06-10T08:31:13Z</time>
      </trkpt>
      <trkpt lat="45.94266" lon="4.82168">
        <ele>263</ele>
        <time>2017-06-10T08:31:14Z</time>
      </trkpt>
      <trkpt lat="45.94267" lon="4.82174">
        <ele>263</ele>
        <time>2017-06-10T08:31:15Z</time>
      </trkpt>
      <trkpt lat="45.94269" lon="4.82181">
        <ele>264</ele>
        <time>2017-06-10T08:31:16Z</time>
      </trkpt>
      <trkpt lat="45.9427" lon="4.82187">
        <ele>264</ele>
        <time>2017-06-10T08:31:17Z</time>
      </trkpt>
      <trkpt lat="45.94271" lon="4.82193">
        <ele>264</ele>
        <time>2017-06-10T08:31:18Z</time>
      </trkpt>
      <trkpt lat="45.94272" lon="4.822">
        <ele>264</ele>
        <time>2017-06-10T08:31:19Z</time>
      </trkpt>
      <trkpt lat="45.94273" lon="4.82207">
        <ele>264</ele>
        <time>2017-06-10T08:31:20Z</time>
      </trkpt>
      <trkpt lat="45.94274" lon="4.82214">
        <ele>264</ele>
        <time>2017-06-10T08:31:21Z</time>
      </trkpt>
      <trkpt lat="45.94275" lon="4.8222">
        <ele>264</ele>
        <time>2017-06-10T08:31:22Z</time>
      </trkpt>
      <trkpt lat="45.94276" lon="4.82227">
        <ele>264</ele>
        <time>2017-06-10T08:31:23Z</time>
      </trkpt>
      <trkpt lat="45.94277" lon="4.82234">
        <ele>264</ele>
        <time>2017-06-10T08:31:24Z</time>
      </trkpt>
      <trkpt lat="45.94277" lon="4.82241">
        <ele>264</ele>
        <time>2017-06-10T08:31:25Z</time>
      </trkpt>
      <trkpt lat="45.94278" lon="4.82248">
        <ele>264</ele>
        <time>2017-06-10T08:31:26Z</time>
      </trkpt>
      <trkpt lat="45.94279" lon="4.82256">
        <ele>265</ele>
        <time>2017-06-10T08:31:27Z</time>
      </trkpt>
      <trkpt lat="45.94279" lon="4.82263">
        <ele>265</ele>
        <time>2017-06-10T08:31:28Z</time>
      </trkpt>
      <trkpt lat="45.94279" lon="4.82271">
        <ele>265</ele>
        <time>2017-06-10T08:31:29Z</time>
      </trkpt>
      <trkpt lat="45.9428" lon="4.82278">
        <ele>265</ele>
        <time>2017-06-10T08:31:30Z</time>
      </trkpt>
      <trkpt lat="45.94281" lon="4.82285">
        <ele>265</ele>
        <time>2017-06-10T08:31:31Z</time>
      </trkpt>
      <trkpt lat="45.94281" lon="4.82298">
        <ele>265</ele>
        <time>2017-06-10T08:31:33Z</time>
      </trkpt>
      <trkpt lat="45.94282" lon="4.82304">
        <ele>265</ele>
        <time>2017-06-10T08:31:34Z</time>
      </trkpt>
      <trkpt lat="45.94283" lon="4.82316">
        <ele>265</ele>
        <time>2017-06-10T08:31:36Z</time>
      </trkpt>
      <trkpt lat="45.94283" lon="4.82321">
        <ele>265</ele>
        <time>2017-06-10T08:31:37Z</time>
      </trkpt>
      <trkpt lat="45.94284" lon="4.82333">
        <ele>265</ele>
        <time>2017-06-10T08:31:39Z</time>
      </trkpt>
      <trkpt lat="45.94284" lon="4.82339">
        <ele>264</ele>
        <time>2017-06-10T08:31:40Z</time>
      </trkpt>
      <trkpt lat="45.94285" lon="4.82351">
        <ele>264</ele>
        <time>2017-06-10T08:31:42Z</time>
      </trkpt>
      <trkpt lat="45.94285" lon="4.82357">
        <ele>264</ele>
        <time>2017-06-10T08:31:43Z</time>
      </trkpt>
      <trkpt lat="45.94285" lon="4.82364">
        <ele>264</ele>
        <time>2017-06-10T08:31:44Z</time>
      </trkpt>
      <trkpt lat="45.94286" lon="4.8237">
        <ele>264</ele>
        <time>2017-06-10T08:31:45Z</time>
      </trkpt>
      <trkpt lat="45.94286" lon="4.82377">
        <ele>264</ele>
        <time>2017-06-10T08:31:46Z</time>
      </trkpt>
      <trkpt lat="45.94287" lon="4.82384">
        <ele>264</ele>
        <time>2017-06-10T08:31:47Z</time>
      </trkpt>
      <trkpt lat="45.94287" lon="4.82392">
        <ele>264</ele>
        <time>2017-06-10T08:31:48Z</time>
      </trkpt>
      <trkpt lat="45.94288" lon="4.82399">
        <ele>264</ele>
        <time>2017-06-10T08:31:49Z</time>
      </trkpt>
      <trkpt lat="45.94288" lon="4.82406">
        <ele>264</ele>
        <time>2017-06-10T08:31:50Z</time>
      </trkpt>
      <trkpt lat="45.94288" lon="4.82412">
        <ele>264</ele>
        <time>2017-06-10T08:31:51Z</time>
      </trkpt>
      <trkpt lat="45.94288" lon="4.82423">
        <ele>264</ele>
        <time>2017-06-10T08:31:53Z</time>
      </trkpt>
      <trkpt lat="45.94288" lon="4.82429">
        <ele>264</ele>
        <time>2017-06-10T08:31:54Z</time>
      </trkpt>
      <trkpt lat="45.94288" lon="4.8244">
        <ele>264</ele>
        <time>2017-06-10T08:31:56Z</time>
      </trkpt>
      <trkpt lat="45.94289" lon="4.82446">
        <ele>264</ele>
        <time>2017-06-10T08:31:57Z</time>
      </trkpt>
      <trkpt lat="45.94289" lon="4.82458">
        <ele>264</ele>
        <time>2017-06-10T08:31:59Z</time>
      </trkpt>
      <trkpt lat="45.94289" lon="4.82464">
        <ele>264</ele>
        <time>2017-06-10T08:32:00Z</time>
      </trkpt>
      <trkpt lat="45.94289" lon="4.82471">
        <ele>264</ele>
        <time>2017-06-10T08:32:01Z</time>
      </trkpt>
      <trkpt lat="45.94289" lon="4.82477">
        <ele>264</ele>
        <time>2017-06-10T08:32:02Z</time>
      </trkpt>
      <trkpt lat="45.94289" lon="4.82484">
        <ele>264</ele>
        <time>2017-06-10T08:32:03Z</time>
      </trkpt>
      <trkpt lat="45.9429" lon="4.82491">
        <ele>264</ele>
        <time>2017-06-10T08:32:04Z</time>
      </trkpt>
      <trkpt lat="45.9429" lon="4.82498">
        <ele>264</ele>
        <time>2017-06-10T08:32:05Z</time>
      </trkpt>
      <trkpt lat="45.94291" lon="4.82505">
        <ele>264</ele>
        <time>2017-06-10T08:32:06Z</time>
      </trkpt>
      <trkpt lat="45.94291" lon="4.82512">
        <ele>264</ele>
        <time>2017-06-10T08:32:07Z</time>
      </trkpt>
      <trkpt lat="45.94291" lon="4.82519">
        <ele>264</ele>
        <time>2017-06-10T08:32:08Z</time>
      </trkpt>
      <trkpt lat="45.94291" lon="4.82532">
        <ele>264</ele>
        <time>2017-06-10T08:32:10Z</time>
      </trkpt>
      <trkpt lat="45.94291" lon="4.82537">
        <ele>264</ele>
        <time>2017-06-10T08:32:11Z</time>
      </trkpt>
      <trkpt lat="45.94291" lon="4.82549">
        <ele>264</ele>
        <time>2017-06-10T08:32:13Z</time>
      </trkpt>
      <trkpt lat="45.94291" lon="4.82554">
        <ele>264</ele>
        <time>2017-06-10T08:32:14Z</time>
      </trkpt>
      <trkpt lat="45.94291" lon="4.82561">
        <ele>264</ele>
        <time>2017-06-10T08:32:15Z</time>
      </trkpt>
      <trkpt lat="45.9429" lon="4.82569">
        <ele>264</ele>
        <time>2017-06-10T08:32:16Z</time>
      </trkpt>
      <trkpt lat="45.9429" lon="4.82577">
        <ele>265</ele>
        <time>2017-06-10T08:32:17Z</time>
      </trkpt>
      <trkpt lat="45.9429" lon="4.82584">
        <ele>265</ele>
        <time>2017-06-10T08:32:18Z</time>
      </trkpt>
      <trkpt lat="45.9429" lon="4.82591">
        <ele>265</ele>
        <time>2017-06-10T08:32:19Z</time>
      </trkpt>
      <trkpt lat="45.9429" lon="4.82598">
        <ele>265</ele>
        <time>2017-06-10T08:32:20Z</time>
      </trkpt>
      <trkpt lat="45.9429" lon="4.82605">
        <ele>265</ele>
        <time>2017-06-10T08:32:21Z</time>
      </trkpt>
      <trkpt lat="45.9429" lon="4.82612">
        <ele>265</ele>
        <time>2017-06-10T08:32:22Z</time>
      </trkpt>
      <trkpt lat="45.9429" lon="4.82618">
        <ele>265</ele>
        <time>2017-06-10T08:32:23Z</time>
      </trkpt>
      <trkpt lat="45.9429" lon="4.82625">
        <ele>265</ele>
        <time>2017-06-10T08:32:24Z</time>
      </trkpt>
      <trkpt lat="45.9429" lon="4.82637">
        <ele>265</ele>
        <time>2017-06-10T08:32:26Z</time>
      </trkpt>
      <trkpt lat="45.9429" lon="4.82643">
        <ele>265</ele>
        <time>2017-06-10T08:32:27Z</time>
      </trkpt>
      <trkpt lat="45.9429" lon="4.82655">
        <ele>265</ele>
        <time>2017-06-10T08:32:29Z</time>
      </trkpt>
      <trkpt lat="45.94289" lon="4.82661">
        <ele>265</ele>
        <time>2017-06-10T08:32:30Z</time>
      </trkpt>
      <trkpt lat="45.9429" lon="4.82667">
        <ele>265</ele>
        <time>2017-06-10T08:32:31Z</time>
      </trkpt>
      <trkpt lat="45.9429" lon="4.82674">
        <ele>265</ele>
        <time>2017-06-10T08:32:32Z</time>
      </trkpt>
      <trkpt lat="45.94289" lon="4.82681">
        <ele>265</ele>
        <time>2017-06-10T08:32:33Z</time>
      </trkpt>
      <trkpt lat="45.9429" lon="4.82688">
        <ele>265</ele>
        <time>2017-06-10T08:32:34Z</time>
      </trkpt>
      <trkpt lat="45.9429" lon="4.82695">
        <ele>265</ele>
        <time>2017-06-10T08:32:35Z</time>
      </trkpt>
      <trkpt lat="45.9429" lon="4.82702">
        <ele>265</ele>
        <time>2017-06-10T08:32:36Z</time>
      </trkpt>
      <trkpt lat="45.94289" lon="4.82714">
        <ele>265</ele>
        <time>2017-06-10T08:32:38Z</time>
      </trkpt>
      <trkpt lat="45.94289" lon="4.8272">
        <ele>265</ele>
        <time>2017-06-10T08:32:39Z</time>
      </trkpt>
      <trkpt lat="45.94289" lon="4.82731">
        <ele>265</ele>
        <time>2017-06-10T08:32:41Z</time>
      </trkpt>
      <trkpt lat="45.94289" lon="4.82737">
        <ele>265</ele>
        <time>2017-06-10T08:32:42Z</time>
      </trkpt>
      <trkpt lat="45.94289" lon="4.82749">
        <ele>265</ele>
        <time>2017-06-10T08:32:44Z</time>
      </trkpt>
      <trkpt lat="45.94289" lon="4.82755">
        <ele>265</ele>
        <time>2017-06-10T08:32:45Z</time>
      </trkpt>
      <trkpt lat="45.94289" lon="4.82762">
        <ele>265</ele>
        <time>2017-06-10T08:32:46Z</time>
      </trkpt>
      <trkpt lat="45.94288" lon="4.82768">
        <ele>265</ele>
        <time>2017-06-10T08:32:47Z</time>
      </trkpt>
      <trkpt lat="45.94288" lon="4.8278">
        <ele>265</ele>
        <time>2017-06-10T08:32:49Z</time>
      </trkpt>
      <trkpt lat="45.94288" lon="4.82786">
        <ele>265</ele>
        <time>2017-06-10T08:32:50Z</time>
      </trkpt>
      <trkpt lat="45.94288" lon="4.82797">
        <ele>265</ele>
        <time>2017-06-10T08:32:52Z</time>
      </trkpt>
      <trkpt lat="45.94287" lon="4.82802">
        <ele>265</ele>
        <time>2017-06-10T08:32:53Z</time>
      </trkpt>
      <trkpt lat="45.94287" lon="4.82809">
        <ele>265</ele>
        <time>2017-06-10T08:32:54Z</time>
      </trkpt>
      <trkpt lat="45.94287" lon="4.82816">
        <ele>265</ele>
        <time>2017-06-10T08:32:55Z</time>
      </trkpt>
      <trkpt lat="45.94287" lon="4.82823">
        <ele>265</ele>
        <time>2017-06-10T08:32:56Z</time>
      </trkpt>
      <trkpt lat="45.94287" lon="4.82829">
        <ele>265</ele>
        <time>2017-06-10T08:32:57Z</time>
      </trkpt>
      <trkpt lat="45.94287" lon="4.82836">
        <ele>265</ele>
        <time>2017-06-10T08:32:58Z</time>
      </trkpt>
      <trkpt lat="45.94287" lon="4.82843">
        <ele>265</ele>
        <time>2017-06-10T08:32:59Z</time>
      </trkpt>
      <trkpt lat="45.94286" lon="4.82855">
        <ele>265</ele>
        <time>2017-06-10T08:33:01Z</time>
      </trkpt>
      <trkpt lat="45.94286" lon="4.82862">
        <ele>265</ele>
        <time>2017-06-10T08:33:02Z</time>
      </trkpt>
      <trkpt lat="45.94285" lon="4.82873">
        <ele>265</ele>
        <time>2017-06-10T08:33:04Z</time>
      </trkpt>
      <trkpt lat="45.94285" lon="4.82878">
        <ele>265</ele>
        <time>2017-06-10T08:33:05Z</time>
      </trkpt>
      <trkpt lat="45.94284" lon="4.8289">
        <ele>265</ele>
        <time>2017-06-10T08:33:07Z</time>
      </trkpt>
      <trkpt lat="45.94284" lon="4.82896">
        <ele>265</ele>
        <time>2017-06-10T08:33:08Z</time>
      </trkpt>
      <trkpt lat="45.94283" lon="4.82907">
        <ele>265</ele>
        <time>2017-06-10T08:33:10Z</time>
      </trkpt>
      <trkpt lat="45.94282" lon="4.82913">
        <ele>265</ele>
        <time>2017-06-10T08:33:11Z</time>
      </trkpt>
      <trkpt lat="45.94281" lon="4.8292">
        <ele>265</ele>
        <time>2017-06-10T08:33:12Z</time>
      </trkpt>
      <trkpt lat="45.94281" lon="4.82927">
        <ele>265</ele>
        <time>2017-06-10T08:33:13Z</time>
      </trkpt>
      <trkpt lat="45.9428" lon="4.82934">
        <ele>265</ele>
        <time>2017-06-10T08:33:14Z</time>
      </trkpt>
      <trkpt lat="45.94278" lon="4.8294">
        <ele>265</ele>
        <time>2017-06-10T08:33:15Z</time>
      </trkpt>
      <trkpt lat="45.94277" lon="4.82946">
        <ele>265</ele>
        <time>2017-06-10T08:33:16Z</time>
      </trkpt>
      <trkpt lat="45.94275" lon="4.82953">
        <ele>265</ele>
        <time>2017-06-10T08:33:17Z</time>
      </trkpt>
      <trkpt lat="45.94274" lon="4.82965">
        <ele>265</ele>
        <time>2017-06-10T08:33:19Z</time>
      </trkpt>
      <trkpt lat="45.94276" lon="4.8297">
        <ele>265</ele>
        <time>2017-06-10T08:33:20Z</time>
      </trkpt>
      <trkpt lat="45.94279" lon="4.82975">
        <ele>265</ele>
        <time>2017-06-10T08:33:21Z</time>
      </trkpt>
      <trkpt lat="45.94282" lon="4.8298">
        <ele>265</ele>
        <time>2017-06-10T08:33:22Z</time>
      </trkpt>
      <trkpt lat="45.94284" lon="4.82985">
        <ele>265</ele>
        <time>2017-06-10T08:33:23Z</time>
      </trkpt>
      <trkpt lat="45.94287" lon="4.82991">
        <ele>265</ele>
        <time>2017-06-10T08:33:24Z</time>
      </trkpt>
      <trkpt lat="45.9429" lon="4.83003">
        <ele>266</ele>
        <time>2017-06-10T08:33:26Z</time>
      </trkpt>
      <trkpt lat="45.94292" lon="4.83009">
        <ele>266</ele>
        <time>2017-06-10T08:33:27Z</time>
      </trkpt>
      <trkpt lat="45.94294" lon="4.8302">
        <ele>266</ele>
        <time>2017-06-10T08:33:29Z</time>
      </trkpt>
      <trkpt lat="45.94295" lon="4.83026">
        <ele>266</ele>
        <time>2017-06-10T08:33:30Z</time>
      </trkpt>
      <trkpt lat="45.94297" lon="4.83039">
        <ele>266</ele>
        <time>2017-06-10T08:33:32Z</time>
      </trkpt>
      <trkpt lat="45.94298" lon="4.83045">
        <ele>266</ele>
        <time>2017-06-10T08:33:33Z</time>
      </trkpt>
      <trkpt lat="45.943" lon="4.83057">
        <ele>266</ele>
        <time>2017-06-10T08:33:35Z</time>
      </trkpt>
      <trkpt lat="45.94301" lon="4.83063">
        <ele>266</ele>
        <time>2017-06-10T08:33:36Z</time>
      </trkpt>
      <trkpt lat="45.94303" lon="4.83069">
        <ele>266</ele>
        <time>2017-06-10T08:33:37Z</time>
      </trkpt>
      <trkpt lat="45.94305" lon="4.83075">
        <ele>266</ele>
        <time>2017-06-10T08:33:38Z</time>
      </trkpt>
      <trkpt lat="45.94306" lon="4.83081">
        <ele>266</ele>
        <time>2017-06-10T08:33:39Z</time>
      </trkpt>
      <trkpt lat="45.94307" lon="4.83087">
        <ele>266</ele>
        <time>2017-06-10T08:33:40Z</time>
      </trkpt>
      <trkpt lat="45.94309" lon="4.83093">
        <ele>266</ele>
        <time>2017-06-10T08:33:41Z</time>
      </trkpt>
      <trkpt lat="45.94311" lon="4.831">
        <ele>266</ele>
        <time>2017-06-10T08:33:42Z</time>
      </trkpt>
      <trkpt lat="45.94313" lon="4.83106">
        <ele>266</ele>
        <time>2017-06-10T08:33:43Z</time>
      </trkpt>
      <trkpt lat="45.94315" lon="4.83113">
        <ele>266</ele>
        <time>2017-06-10T08:33:44Z</time>
      </trkpt>
      <trkpt lat="45.94317" lon="4.83119">
        <ele>266</ele>
        <time>2017-06-10T08:33:45Z</time>
      </trkpt>
      <trkpt lat="45.94319" lon="4.83125">
        <ele>266</ele>
        <time>2017-06-10T08:33:46Z</time>
      </trkpt>
      <trkpt lat="45.94321" lon="4.83132">
        <ele>266</ele>
        <time>2017-06-10T08:33:47Z</time>
      </trkpt>
      <trkpt lat="45.94323" lon="4.83138">
        <ele>266</ele>
        <time>2017-06-10T08:33:48Z</time>
      </trkpt>
      <trkpt lat="45.94328" lon="4.83149">
        <ele>266</ele>
        <time>2017-06-10T08:33:50Z</time>
      </trkpt>
      <trkpt lat="45.9433" lon="4.83155">
        <ele>266</ele>
        <time>2017-06-10T08:33:51Z</time>
      </trkpt>
      <trkpt lat="45.94334" lon="4.83166">
        <ele>266</ele>
        <time>2017-06-10T08:33:53Z</time>
      </trkpt>
      <trkpt lat="45.94335" lon="4.83171">
        <ele>266</ele>
        <time>2017-06-10T08:33:54Z</time>
      </trkpt>
      <trkpt lat="45.9434" lon="4.83182">
        <ele>266</ele>
        <time>2017-06-10T08:33:56Z</time>
      </trkpt>
      <trkpt lat="45.94342" lon="4.83188">
        <ele>266</ele>
        <time>2017-06-10T08:33:57Z</time>
      </trkpt>
      <trkpt lat="45.94345" lon="4.83199">
        <ele>266</ele>
        <time>2017-06-10T08:33:59Z</time>
      </trkpt>
      <trkpt lat="45.94347" lon="4.83205">
        <ele>266</ele>
        <time>2017-06-10T08:34:00Z</time>
      </trkpt>
      <trkpt lat="45.94349" lon="4.83211">
        <ele>266</ele>
        <time>2017-06-10T08:34:01Z</time>
      </trkpt>
      <trkpt lat="45.94352" lon="4.83217">
        <ele>266</ele>
        <time>2017-06-10T08:34:02Z</time>
      </trkpt>
      <trkpt lat="45.94354" lon="4.83223">
        <ele>266</ele>
        <time>2017-06-10T08:34:03Z</time>
      </trkpt>
      <trkpt lat="45.94356" lon="4.8323">
        <ele>266</ele>
        <time>2017-06-10T08:34:04Z</time>
      </trkpt>
      <trkpt lat="45.94359" lon="4.83237">
        <ele>265</ele>
        <time>2017-06-10T08:34:05Z</time>
      </trkpt>
      <trkpt lat="45.94361" lon="4.83243">
        <ele>265</ele>
        <time>2017-06-10T08:34:06Z</time>
      </trkpt>
      <trkpt lat="45.94363" lon="4.83249">
        <ele>265</ele>
        <time>2017-06-10T08:34:07Z</time>
      </trkpt>
      <trkpt lat="45.94365" lon="4.83256">
        <ele>265</ele>
        <time>2017-06-10T08:34:08Z</time>
      </trkpt>
      <trkpt lat="45.94368" lon="4.83263">
        <ele>264</ele>
        <time>2017-06-10T08:34:09Z</time>
      </trkpt>
      <trkpt lat="45.9437" lon="4.83269">
        <ele>264</ele>
        <time>2017-06-10T08:34:10Z</time>
      </trkpt>
      <trkpt lat="45.94372" lon="4.83276">
        <ele>264</ele>
        <time>2017-06-10T08:34:11Z</time>
      </trkpt>
      <trkpt lat="45.94375" lon="4.83283">
        <ele>264</ele>
        <time>2017-06-10T08:34:12Z</time>
      </trkpt>
      <trkpt lat="45.94377" lon="4.83289">
        <ele>264</ele>
        <time>2017-06-10T08:34:13Z</time>
      </trkpt>
      <trkpt lat="45.94379" lon="4.83296">
        <ele>264</ele>
        <time>2017-06-10T08:34:14Z</time>
      </trkpt>
      <trkpt lat="45.94382" lon="4.83302">
        <ele>264</ele>
        <time>2017-06-10T08:34:15Z</time>
      </trkpt>
      <trkpt lat="45.94385" lon="4.83308">
        <ele>264</ele>
        <time>2017-06-10T08:34:16Z</time>
      </trkpt>
      <trkpt lat="45.94387" lon="4.83314">
        <ele>264</ele>
        <time>2017-06-10T08:34:17Z</time>
      </trkpt>
      <trkpt lat="45.94389" lon="4.8332">
        <ele>264</ele>
        <time>2017-06-10T08:34:18Z</time>
      </trkpt>
      <trkpt lat="45.94391" lon="4.83326">
        <ele>264</ele>
        <time>2017-06-10T08:34:19Z</time>
      </trkpt>
      <trkpt lat="45.94393" lon="4.83333">
        <ele>264</ele>
        <time>2017-06-10T08:34:20Z</time>
      </trkpt>
      <trkpt lat="45.94396" lon="4.8334">
        <ele>263</ele>
        <time>2017-06-10T08:34:21Z</time>
      </trkpt>
      <trkpt lat="45.94398" lon="4.83346">
        <ele>263</ele>
        <time>2017-06-10T08:34:22Z</time>
      </trkpt>
      <trkpt lat="45.94401" lon="4.83353">
        <ele>264</ele>
        <time>2017-06-10T08:34:23Z</time>
      </trkpt>
      <trkpt lat="45.94404" lon="4.8336">
        <ele>264</ele>
        <time>2017-06-10T08:34:24Z</time>
      </trkpt>
      <trkpt lat="45.94406" lon="4.83367">
        <ele>264</ele>
        <time>2017-06-10T08:34:25Z</time>
      </trkpt>
      <trkpt lat="45.94409" lon="4.83373">
        <ele>264</ele>
        <time>2017-06-10T08:34:26Z</time>
      </trkpt>
      <trkpt lat="45.94412" lon="4.83379">
        <ele>264</ele>
        <time>2017-06-10T08:34:27Z</time>
      </trkpt>
      <trkpt lat="45.94415" lon="4.83385">
        <ele>264</ele>
        <time>2017-06-10T08:34:28Z</time>
      </trkpt>
      <trkpt lat="45.94417" lon="4.83391">
        <ele>264</ele>
        <time>2017-06-10T08:34:29Z</time>
      </trkpt>
      <trkpt lat="45.9442" lon="4.83397">
        <ele>264</ele>
        <time>2017-06-10T08:34:30Z</time>
      </trkpt>
      <trkpt lat="45.94423" lon="4.83403">
        <ele>264</ele>
        <time>2017-06-10T08:34:31Z</time>
      </trkpt>
      <trkpt lat="45.94426" lon="4.83409">
        <ele>264</ele>
        <time>2017-06-10T08:34:32Z</time>
      </trkpt>
      <trkpt lat="45.94429" lon="4.83415">
        <ele>264</ele>
        <time>2017-06-10T08:34:33Z</time>
      </trkpt>
      <trkpt lat="45.94432" lon="4.83421">
        <ele>264</ele>
        <time>2017-06-10T08:34:34Z</time>
      </trkpt>
      <trkpt lat="45.94435" lon="4.83427">
        <ele>264</ele>
        <time>2017-06-10T08:34:35Z</time>
      </trkpt>
      <trkpt lat="45.94438" lon="4.83434">
        <ele>263</ele>
        <time>2017-06-10T08:34:36Z</time>
      </trkpt>
      <trkpt lat="45.94441" lon="4.8344">
        <ele>263</ele>
        <time>2017-06-10T08:34:37Z</time>
      </trkpt>
      <trkpt lat="45.94444" lon="4.83446">
        <ele>263</ele>
        <time>2017-06-10T08:34:38Z</time>
      </trkpt>
      <trkpt lat="45.94448" lon="4.83453">
        <ele>263</ele>
        <time>2017-06-10T08:34:39Z</time>
      </trkpt>
      <trkpt lat="45.94452" lon="4.83459">
        <ele>263</ele>
        <time>2017-06-10T08:34:40Z</time>
      </trkpt>
      <trkpt lat="45.94455" lon="4.83465">
        <ele>263</ele>
        <time>2017-06-10T08:34:41Z</time>
      </trkpt>
      <trkpt lat="45.94459" lon="4.83472">
        <ele>263</ele>
        <time>2017-06-10T08:34:42Z</time>
      </trkpt>
      <trkpt lat="45.94463" lon="4.83478">
        <ele>263</ele>
        <time>2017-06-10T08:34:43Z</time>
      </trkpt>
      <trkpt lat="45.94466" lon="4.83485">
        <ele>263</ele>
        <time>2017-06-10T08:34:44Z</time>
      </trkpt>
      <trkpt lat="45.9447" lon="4.83492">
        <ele>263</ele>
        <time>2017-06-10T08:34:45Z</time>
      </trkpt>
      <trkpt lat="45.94473" lon="4.83498">
        <ele>263</ele>
        <time>2017-06-10T08:34:46Z</time>
      </trkpt>
      <trkpt lat="45.94477" lon="4.83504">
        <ele>262</ele>
        <time>2017-06-10T08:34:47Z</time>
      </trkpt>
      <trkpt lat="45.94481" lon="4.8351">
        <ele>262</ele>
        <time>2017-06-10T08:34:48Z</time>
      </trkpt>
      <trkpt lat="45.94484" lon="4.83515">
        <ele>262</ele>
        <time>2017-06-10T08:34:49Z</time>
      </trkpt>
      <trkpt lat="45.94488" lon="4.83521">
        <ele>262</ele>
        <time>2017-06-10T08:34:50Z</time>
      </trkpt>
      <trkpt lat="45.94491" lon="4.83527">
        <ele>262</ele>
        <time>2017-06-10T08:34:51Z</time>
      </trkpt>
      <trkpt lat="45.94495" lon="4.83533">
        <ele>262</ele>
        <time>2017-06-10T08:34:52Z</time>
      </trkpt>
      <trkpt lat="45.94499" lon="4.83538">
        <ele>262</ele>
        <time>2017-06-10T08:34:53Z</time>
      </trkpt>
      <trkpt lat="45.94502" lon="4.83545">
        <ele>261</ele>
        <time>2017-06-10T08:34:54Z</time>
      </trkpt>
      <trkpt lat="45.94506" lon="4.83551">
        <ele>261</ele>
        <time>2017-06-10T08:34:55Z</time>
      </trkpt>
      <trkpt lat="45.94509" lon="4.83558">
        <ele>261</ele>
        <time>2017-06-10T08:34:56Z</time>
      </trkpt>
      <trkpt lat="45.94512" lon="4.83565">
        <ele>261</ele>
        <time>2017-06-10T08:34:57Z</time>
      </trkpt>
      <trkpt lat="45.94515" lon="4.83572">
        <ele>261</ele>
        <time>2017-06-10T08:34:58Z</time>
      </trkpt>
      <trkpt lat="45.94518" lon="4.83579">
        <ele>261</ele>
        <time>2017-06-10T08:34:59Z</time>
      </trkpt>
      <trkpt lat="45.94521" lon="4.83587">
        <ele>261</ele>
        <time>2017-06-10T08:35:00Z</time>
      </trkpt>
      <trkpt lat="45.94523" lon="4.83595">
        <ele>261</ele>
        <time>2017-06-10T08:35:01Z</time>
      </trkpt>
      <trkpt lat="45.94525" lon="4.83603">
        <ele>261</ele>
        <time>2017-06-10T08:35:02Z</time>
      </trkpt>
      <trkpt lat="45.94527" lon="4.83611">
        <ele>261</ele>
        <time>2017-06-10T08:35:03Z</time>
      </trkpt>
      <trkpt lat="45.94528" lon="4.83619">
        <ele>261</ele>
        <time>2017-06-10T08:35:04Z</time>
      </trkpt>
      <trkpt lat="45.9453" lon="4.83627">
        <ele>261</ele>
        <time>2017-06-10T08:35:05Z</time>
      </trkpt>
      <trkpt lat="45.94531" lon="4.83635">
        <ele>261</ele>
        <time>2017-06-10T08:35:06Z</time>
      </trkpt>
      <trkpt lat="45.94532" lon="4.83642">
        <ele>261</ele>
        <time>2017-06-10T08:35:07Z</time>
      </trkpt>
      <trkpt lat="45.94533" lon="4.83649">
        <ele>261</ele>
        <time>2017-06-10T08:35:08Z</time>
      </trkpt>
      <trkpt lat="45.94534" lon="4.83657">
        <ele>261</ele>
        <time>2017-06-10T08:35:09Z</time>
      </trkpt>
      <trkpt lat="45.94535" lon="4.83664">
        <ele>261</ele>
        <time>2017-06-10T08:35:10Z</time>
      </trkpt>
      <trkpt lat="45.94536" lon="4.83671">
        <ele>262</ele>
        <time>2017-06-10T08:35:11Z</time>
      </trkpt>
      <trkpt lat="45.94537" lon="4.83678">
        <ele>262</ele>
        <time>2017-06-10T08:35:12Z</time>
      </trkpt>
      <trkpt lat="45.94538" lon="4.83685">
        <ele>262</ele>
        <time>2017-06-10T08:35:13Z</time>
      </trkpt>
      <trkpt lat="45.94539" lon="4.83691">
        <ele>262</ele>
        <time>2017-06-10T08:35:14Z</time>
      </trkpt>
      <trkpt lat="45.9454" lon="4.83698">
        <ele>262</ele>
        <time>2017-06-10T08:35:15Z</time>
      </trkpt>
      <trkpt lat="45.94541" lon="4.83705">
        <ele>262</ele>
        <time>2017-06-10T08:35:16Z</time>
      </trkpt>
      <trkpt lat="45.94542" lon="4.83712">
        <ele>262</ele>
        <time>2017-06-10T08:35:17Z</time>
      </trkpt>
      <trkpt lat="45.94543" lon="4.83719">
        <ele>262</ele>
        <time>2017-06-10T08:35:18Z</time>
      </trkpt>
      <trkpt lat="45.94544" lon="4.83726">
        <ele>262</ele>
        <time>2017-06-10T08:35:19Z</time>
      </trkpt>
      <trkpt lat="45.94545" lon="4.83732">
        <ele>262</ele>
        <time>2017-06-10T08:35:20Z</time>
      </trkpt>
      <trkpt lat="45.94547" lon="4.83745">
        <ele>262</ele>
        <time>2017-06-10T08:35:22Z</time>
      </trkpt>
      <trkpt lat="45.94548" lon="4.83751">
        <ele>263</ele>
        <time>2017-06-10T08:35:23Z</time>
      </trkpt>
      <trkpt lat="45.94549" lon="4.83758">
        <ele>263</ele>
        <time>2017-06-10T08:35:24Z</time>
      </trkpt>
      <trkpt lat="45.9455" lon="4.83764">
        <ele>263</ele>
        <time>2017-06-10T08:35:25Z</time>
      </trkpt>
      <trkpt lat="45.94551" lon="4.83771">
        <ele>264</ele>
        <time>2017-06-10T08:35:26Z</time>
      </trkpt>
      <trkpt lat="45.94553" lon="4.83778">
        <ele>264</ele>
        <time>2017-06-10T08:35:27Z</time>
      </trkpt>
      <trkpt lat="45.94554" lon="4.83785">
        <ele>264</ele>
        <time>2017-06-10T08:35:28Z</time>
      </trkpt>
      <trkpt lat="45.94555" lon="4.83792">
        <ele>264</ele>
        <time>2017-06-10T08:35:29Z</time>
      </trkpt>
      <trkpt lat="45.94556" lon="4.83798">
        <ele>264</ele>
        <time>2017-06-10T08:35:30Z</time>
      </trkpt>
      <trkpt lat="45.94556" lon="4.83805">
        <ele>264</ele>
        <time>2017-06-10T08:35:31Z</time>
      </trkpt>
      <trkpt lat="45.94557" lon="4.83811">
        <ele>264</ele>
        <time>2017-06-10T08:35:32Z</time>
      </trkpt>
      <trkpt lat="45.94559" lon="4.83817">
        <ele>264</ele>
        <time>2017-06-10T08:35:33Z</time>
      </trkpt>
      <trkpt lat="45.9456" lon="4.83824">
        <ele>264</ele>
        <time>2017-06-10T08:35:34Z</time>
      </trkpt>
      <trkpt lat="45.94561" lon="4.8383">
        <ele>265</ele>
        <time>2017-06-10T08:35:35Z</time>
      </trkpt>
      <trkpt lat="45.94562" lon="4.83837">
        <ele>266</ele>
        <time>2017-06-10T08:35:36Z</time>
      </trkpt>
      <trkpt lat="45.94563" lon="4.83844">
        <ele>266</ele>
        <time>2017-06-10T08:35:37Z</time>
      </trkpt>
      <trkpt lat="45.94564" lon="4.83851">
        <ele>266</ele>
        <time>2017-06-10T08:35:38Z</time>
      </trkpt>
      <trkpt lat="45.94565" lon="4.83858">
        <ele>267</ele>
        <time>2017-06-10T08:35:39Z</time>
      </trkpt>
      <trkpt lat="45.94567" lon="4.83865">
        <ele>267</ele>
        <time>2017-06-10T08:35:40Z</time>
      </trkpt>
      <trkpt lat="45.94568" lon="4.83873">
        <ele>267</ele>
        <time>2017-06-10T08:35:41Z</time>
      </trkpt>
      <trkpt lat="45.9457" lon="4.8388">
        <ele>267</ele>
        <time>2017-06-10T08:35:42Z</time>
      </trkpt>
      <trkpt lat="45.94571" lon="4.83888">
        <ele>267</ele>
        <time>2017-06-10T08:35:43Z</time>
      </trkpt>
      <trkpt lat="45.94573" lon="4.83895">
        <ele>267</ele>
        <time>2017-06-10T08:35:44Z</time>
      </trkpt>
      <trkpt lat="45.94574" lon="4.83903">
        <ele>268</ele>
        <time>2017-06-10T08:35:45Z</time>
      </trkpt>
      <trkpt lat="45.94575" lon="4.8391">
        <ele>268</ele>
        <time>2017-06-10T08:35:46Z</time>
      </trkpt>
      <trkpt lat="45.94577" lon="4.83917">
        <ele>268</ele>
        <time>2017-06-10T08:35:47Z</time>
      </trkpt>
      <trkpt lat="45.94578" lon="4.83925">
        <ele>268</ele>
        <time>2017-06-10T08:35:48Z</time>
      </trkpt>
      <trkpt lat="45.94579" lon="4.83932">
        <ele>268</ele>
        <time>2017-06-10T08:35:49Z</time>
      </trkpt>
      <trkpt lat="45.9458" lon="4.8394">
        <ele>269</ele>
        <time>2017-06-10T08:35:50Z</time>
      </trkpt>
      <trkpt lat="45.94582" lon="4.83947">
        <ele>269</ele>
        <time>2017-06-10T08:35:51Z</time>
      </trkpt>
      <trkpt lat="45.94583" lon="4.83955">
        <ele>269</ele>
        <time>2017-06-10T08:35:52Z</time>
      </trkpt>
      <trkpt lat="45.94584" lon="4.83962">
        <ele>268</ele>
        <time>2017-06-10T08:35:53Z</time>
      </trkpt>
      <trkpt lat="45.94586" lon="4.8397">
        <ele>268</ele>
        <time>2017-06-10T08:35:54Z</time>
      </trkpt>
      <trkpt lat="45.94587" lon="4.83977">
        <ele>268</ele>
        <time>2017-06-10T08:35:55Z</time>
      </trkpt>
      <trkpt lat="45.94588" lon="4.83984">
        <ele>269</ele>
        <time>2017-06-10T08:35:56Z</time>
      </trkpt>
      <trkpt lat="45.94589" lon="4.83991">
        <ele>269</ele>
        <time>2017-06-10T08:35:57Z</time>
      </trkpt>
      <trkpt lat="45.9459" lon="4.83998">
        <ele>269</ele>
        <time>2017-06-10T08:35:58Z</time>
      </trkpt>
      <trkpt lat="45.94591" lon="4.84004">
        <ele>269</ele>
        <time>2017-06-10T08:35:59Z</time>
      </trkpt>
      <trkpt lat="45.94592" lon="4.84017">
        <ele>269</ele>
        <time>2017-06-10T08:36:01Z</time>
      </trkpt>
      <trkpt lat="45.94593" lon="4.84023">
        <ele>269</ele>
        <time>2017-06-10T08:36:02Z</time>
      </trkpt>
      <trkpt lat="45.94595" lon="4.84035">
        <ele>269</ele>
        <time>2017-06-10T08:36:04Z</time>
      </trkpt>
      <trkpt lat="45.94595" lon="4.84041">
        <ele>269</ele>
        <time>2017-06-10T08:36:05Z</time>
      </trkpt>
      <trkpt lat="45.94598" lon="4.84054">
        <ele>269</ele>
        <time>2017-06-10T08:36:07Z</time>
      </trkpt>
      <trkpt lat="45.94599" lon="4.8406">
        <ele>269</ele>
        <time>2017-06-10T08:36:08Z</time>
      </trkpt>
      <trkpt lat="45.946" lon="4.84073">
        <ele>269</ele>
        <time>2017-06-10T08:36:10Z</time>
      </trkpt>
      <trkpt lat="45.94601" lon="4.84079">
        <ele>269</ele>
        <time>2017-06-10T08:36:11Z</time>
      </trkpt>
      <trkpt lat="45.94603" lon="4.8409">
        <ele>269</ele>
        <time>2017-06-10T08:36:13Z</time>
      </trkpt>
      <trkpt lat="45.94604" lon="4.84097">
        <ele>269</ele>
        <time>2017-06-10T08:36:14Z</time>
      </trkpt>
      <trkpt lat="45.94604" lon="4.84103">
        <ele>269</ele>
        <time>2017-06-10T08:36:15Z</time>
      </trkpt>
      <trkpt lat="45.94605" lon="4.84109">
        <ele>269</ele>
        <time>2017-06-10T08:36:16Z</time>
      </trkpt>
      <trkpt lat="45.94607" lon="4.84121">
        <ele>269</ele>
        <time>2017-06-10T08:36:18Z</time>
      </trkpt>
      <trkpt lat="45.94608" lon="4.84127">
        <ele>269</ele>
        <time>2017-06-10T08:36:19Z</time>
      </trkpt>
      <trkpt lat="45.9461" lon="4.84139">
        <ele>269</ele>
        <time>2017-06-10T08:36:21Z</time>
      </trkpt>
      <trkpt lat="45.94611" lon="4.84144">
        <ele>269</ele>
        <time>2017-06-10T08:36:22Z</time>
      </trkpt>
      <trkpt lat="45.94613" lon="4.84155">
        <ele>269</ele>
        <time>2017-06-10T08:36:24Z</time>
      </trkpt>
      <trkpt lat="45.94614" lon="4.84161">
        <ele>269</ele>
        <time>2017-06-10T08:36:25Z</time>
      </trkpt>
      <trkpt lat="45.94615" lon="4.84173">
        <ele>269</ele>
        <time>2017-06-10T08:36:27Z</time>
      </trkpt>
      <trkpt lat="45.94616" lon="4.84179">
        <ele>269</ele>
        <time>2017-06-10T08:36:28Z</time>
      </trkpt>
      <trkpt lat="45.94618" lon="4.84191">
        <ele>269</ele>
        <time>2017-06-10T08:36:30Z</time>
      </trkpt>
      <trkpt lat="45.94619" lon="4.84197">
        <ele>269</ele>
        <time>2017-06-10T08:36:31Z</time>
      </trkpt>
      <trkpt lat="45.94621" lon="4.84209">
        <ele>269</ele>
        <time>2017-06-10T08:36:33Z</time>
      </trkpt>
      <trkpt lat="45.94621" lon="4.84214">
        <ele>269</ele>
        <time>2017-06-10T08:36:34Z</time>
      </trkpt>
      <trkpt lat="45.94623" lon="4.84227">
        <ele>269</ele>
        <time>2017-06-10T08:36:36Z</time>
      </trkpt>
      <trkpt lat="45.94624" lon="4.84233">
        <ele>269</ele>
        <time>2017-06-10T08:36:37Z</time>
      </trkpt>
      <trkpt lat="45.94625" lon="4.84239">
        <ele>269</ele>
        <time>2017-06-10T08:36:38Z</time>
      </trkpt>
      <trkpt lat="45.94626" lon="4.84246">
        <ele>269</ele>
        <time>2017-06-10T08:36:39Z</time>
      </trkpt>
      <trkpt lat="45.94627" lon="4.84253">
        <ele>269</ele>
        <time>2017-06-10T08:36:40Z</time>
      </trkpt>
      <trkpt lat="45.94628" lon="4.84259">
        <ele>269</ele>
        <time>2017-06-10T08:36:41Z</time>
      </trkpt>
      <trkpt lat="45.94629" lon="4.84266">
        <ele>269</ele>
        <time>2017-06-10T08:36:42Z</time>
      </trkpt>
      <trkpt lat="45.9463" lon="4.84273">
        <ele>269</ele>
        <time>2017-06-10T08:36:43Z</time>
      </trkpt>
      <trkpt lat="45.94631" lon="4.84285">
        <ele>269</ele>
        <time>2017-06-10T08:36:45Z</time>
      </trkpt>
      <trkpt lat="45.94632" lon="4.84291">
        <ele>269</ele>
        <time>2017-06-10T08:36:46Z</time>
      </trkpt>
      <trkpt lat="45.94634" lon="4.84303">
        <ele>269</ele>
        <time>2017-06-10T08:36:48Z</time>
      </trkpt>
      <trkpt lat="45.94635" lon="4.84309">
        <ele>269</ele>
        <time>2017-06-10T08:36:49Z</time>
      </trkpt>
      <trkpt lat="45.94636" lon="4.84321">
        <ele>269</ele>
        <time>2017-06-10T08:36:51Z</time>
      </trkpt>
      <trkpt lat="45.94637" lon="4.84328">
        <ele>269</ele>
        <time>2017-06-10T08:36:52Z</time>
      </trkpt>
      <trkpt lat="45.94638" lon="4.84334">
        <ele>268</ele>
        <time>2017-06-10T08:36:53Z</time>
      </trkpt>
      <trkpt lat="45.94639" lon="4.84341">
        <ele>268</ele>
        <time>2017-06-10T08:36:54Z</time>
      </trkpt>
      <trkpt lat="45.9464" lon="4.84347">
        <ele>268</ele>
        <time>2017-06-10T08:36:55Z</time>
      </trkpt>
      <trkpt lat="45.94641" lon="4.84354">
        <ele>268</ele>
        <time>2017-06-10T08:36:56Z</time>
      </trkpt>
      <trkpt lat="45.94641" lon="4.84361">
        <ele>268</ele>
        <time>2017-06-10T08:36:57Z</time>
      </trkpt>
      <trkpt lat="45.94642" lon="4.84368">
        <ele>268</ele>
        <time>2017-06-10T08:36:58Z</time>
      </trkpt>
      <trkpt lat="45.94643" lon="4.84375">
        <ele>268</ele>
        <time>2017-06-10T08:36:59Z</time>
      </trkpt>
      <trkpt lat="45.94644" lon="4.84382">
        <ele>268</ele>
        <time>2017-06-10T08:37:00Z</time>
      </trkpt>
      <trkpt lat="45.94645" lon="4.8439">
        <ele>268</ele>
        <time>2017-06-10T08:37:01Z</time>
      </trkpt>
      <trkpt lat="45.94646" lon="4.84397">
        <ele>268</ele>
        <time>2017-06-10T08:37:02Z</time>
      </trkpt>
      <trkpt lat="45.94647" lon="4.84404">
        <ele>268</ele>
        <time>2017-06-10T08:37:03Z</time>
      </trkpt>
      <trkpt lat="45.94647" lon="4.8441">
        <ele>268</ele>
        <time>2017-06-10T08:37:04Z</time>
      </trkpt>
      <trkpt lat="45.94648" lon="4.84417">
        <ele>268</ele>
        <time>2017-06-10T08:37:05Z</time>
      </trkpt>
      <trkpt lat="45.94649" lon="4.84423">
        <ele>268</ele>
        <time>2017-06-10T08:37:06Z</time>
      </trkpt>
      <trkpt lat="45.9465" lon="4.8443">
        <ele>268</ele>
        <time>2017-06-10T08:37:07Z</time>
      </trkpt>
      <trkpt lat="45.94651" lon="4.84436">
        <ele>268</ele>
        <time>2017-06-10T08:37:08Z</time>
      </trkpt>
      <trkpt lat="45.94652" lon="4.84443">
        <ele>268</ele>
        <time>2017-06-10T08:37:09Z</time>
      </trkpt>
      <trkpt lat="45.94653" lon="4.84449">
        <ele>268</ele>
        <time>2017-06-10T08:37:10Z</time>
      </trkpt>
      <trkpt lat="45.94653" lon="4.84456">
        <ele>268</ele>
        <time>2017-06-10T08:37:11Z</time>
      </trkpt>
      <trkpt lat="45.94654" lon="4.84462">
        <ele>268</ele>
        <time>2017-06-10T08:37:12Z</time>
      </trkpt>
      <trkpt lat="45.94655" lon="4.84469">
        <ele>268</ele>
        <time>2017-06-10T08:37:13Z</time>
      </trkpt>
      <trkpt lat="45.94655" lon="4.84477">
        <ele>268</ele>
        <time>2017-06-10T08:37:14Z</time>
      </trkpt>
      <trkpt lat="45.94656" lon="4.84485">
        <ele>268</ele>
        <time>2017-06-10T08:37:15Z</time>
      </trkpt>
      <trkpt lat="45.94657" lon="4.84493">
        <ele>268</ele>
        <time>2017-06-10T08:37:16Z</time>
      </trkpt>
      <trkpt lat="45.94657" lon="4.84501">
        <ele>268</ele>
        <time>2017-06-10T08:37:17Z</time>
      </trkpt>
      <trkpt lat="45.94657" lon="4.84508">
        <ele>268</ele>
        <time>2017-06-10T08:37:18Z</time>
      </trkpt>
      <trkpt lat="45.94658" lon="4.84516">
        <ele>268</ele>
        <time>2017-06-10T08:37:19Z</time>
      </trkpt>
      <trkpt lat="45.94658" lon="4.84523">
        <ele>268</ele>
        <time>2017-06-10T08:37:20Z</time>
      </trkpt>
      <trkpt lat="45.94659" lon="4.84531">
        <ele>268</ele>
        <time>2017-06-10T08:37:21Z</time>
      </trkpt>
      <trkpt lat="45.9466" lon="4.84538">
        <ele>268</ele>
        <time>2017-06-10T08:37:22Z</time>
      </trkpt>
      <trkpt lat="45.9466" lon="4.84545">
        <ele>268</ele>
        <time>2017-06-10T08:37:23Z</time>
      </trkpt>
      <trkpt lat="45.94661" lon="4.84552">
        <ele>268</ele>
        <time>2017-06-10T08:37:24Z</time>
      </trkpt>
      <trkpt lat="45.94662" lon="4.84559">
        <ele>268</ele>
        <time>2017-06-10T08:37:25Z</time>
      </trkpt>
      <trkpt lat="45.94662" lon="4.84566">
        <ele>268</ele>
        <time>2017-06-10T08:37:26Z</time>
      </trkpt>
      <trkpt lat="45.94663" lon="4.84573">
        <ele>268</ele>
        <time>2017-06-10T08:37:27Z</time>
      </trkpt>
      <trkpt lat="45.94663" lon="4.8458">
        <ele>268</ele>
        <time>2017-06-10T08:37:28Z</time>
      </trkpt>
      <trkpt lat="45.94663" lon="4.84587">
        <ele>268</ele>
        <time>2017-06-10T08:37:29Z</time>
      </trkpt>
      <trkpt lat="45.94664" lon="4.84594">
        <ele>268</ele>
        <time>2017-06-10T08:37:30Z</time>
      </trkpt>
      <trkpt lat="45.94664" lon="4.84601">
        <ele>268</ele>
        <time>2017-06-10T08:37:31Z</time>
      </trkpt>
      <trkpt lat="45.94664" lon="4.84608">
        <ele>268</ele>
        <time>2017-06-10T08:37:32Z</time>
      </trkpt>
      <trkpt lat="45.94665" lon="4.84614">
        <ele>268</ele>
        <time>2017-06-10T08:37:33Z</time>
      </trkpt>
      <trkpt lat="45.94665" lon="4.84621">
        <ele>268</ele>
        <time>2017-06-10T08:37:34Z</time>
      </trkpt>
      <trkpt lat="45.94665" lon="4.84629">
        <ele>268</ele>
        <time>2017-06-10T08:37:35Z</time>
      </trkpt>
      <trkpt lat="45.94665" lon="4.84636">
        <ele>268</ele>
        <time>2017-06-10T08:37:36Z</time>
      </trkpt>
      <trkpt lat="45.94666" lon="4.84644">
        <ele>268</ele>
        <time>2017-06-10T08:37:37Z</time>
      </trkpt>
      <trkpt lat="45.94666" lon="4.84652">
        <ele>269</ele>
        <time>2017-06-10T08:37:38Z</time>
      </trkpt>
      <trkpt lat="45.94666" lon="4.84661">
        <ele>269</ele>
        <time>2017-06-10T08:37:39Z</time>
      </trkpt>
      <trkpt lat="45.94667" lon="4.84669">
        <ele>269</ele>
        <time>2017-06-10T08:37:40Z</time>
      </trkpt>
      <trkpt lat="45.94667" lon="4.84678">
        <ele>269</ele>
        <time>2017-06-10T08:37:41Z</time>
      </trkpt>
      <trkpt lat="45.94668" lon="4.84686">
        <ele>269</ele>
        <time>2017-06-10T08:37:42Z</time>
      </trkpt>
      <trkpt lat="45.94668" lon="4.84695">
        <ele>269</ele>
        <time>2017-06-10T08:37:43Z</time>
      </trkpt>
      <trkpt lat="45.94668" lon="4.84703">
        <ele>269</ele>
        <time>2017-06-10T08:37:44Z</time>
      </trkpt>
      <trkpt lat="45.94668" lon="4.84711">
        <ele>269</ele>
        <time>2017-06-10T08:37:45Z</time>
      </trkpt>
      <trkpt lat="45.94668" lon="4.84718">
        <ele>269</ele>
        <time>2017-06-10T08:37:46Z</time>
      </trkpt>
      <trkpt lat="45.94669" lon="4.84726">
        <ele>269</ele>
        <time>2017-06-10T08:37:47Z</time>
      </trkpt>
      <trkpt lat="45.94669" lon="4.84733">
        <ele>269</ele>
        <time>2017-06-10T08:37:48Z</time>
      </trkpt>
      <trkpt lat="45.94669" lon="4.8474">
        <ele>269</ele>
        <time>2017-06-10T08:37:49Z</time>
      </trkpt>
      <trkpt lat="45.9467" lon="4.84746">
        <ele>269</ele>
        <time>2017-06-10T08:37:50Z</time>
      </trkpt>
      <trkpt lat="45.9467" lon="4.84753">
        <ele>269</ele>
        <time>2017-06-10T08:37:51Z</time>
      </trkpt>
      <trkpt lat="45.94671" lon="4.8476">
        <ele>269</ele>
        <time>2017-06-10T08:37:52Z</time>
      </trkpt>
      <trkpt lat="45.94671" lon="4.84767">
        <ele>269</ele>
        <time>2017-06-10T08:37:53Z</time>
      </trkpt>
      <trkpt lat="45.94672" lon="4.84774">
        <ele>269</ele>
        <time>2017-06-10T08:37:54Z</time>
      </trkpt>
      <trkpt lat="45.94673" lon="4.84781">
        <ele>269</ele>
        <time>2017-06-10T08:37:55Z</time>
      </trkpt>
      <trkpt lat="45.94673" lon="4.84789">
        <ele>269</ele>
        <time>2017-06-10T08:37:56Z</time>
      </trkpt>
      <trkpt lat="45.94674" lon="4.84796">
        <ele>268</ele>
        <time>2017-06-10T08:37:57Z</time>
      </trkpt>
      <trkpt lat="45.94674" lon="4.84804">
        <ele>268</ele>
        <time>2017-06-10T08:37:58Z</time>
      </trkpt>
      <trkpt lat="45.94675" lon="4.84812">
        <ele>268</ele>
        <time>2017-06-10T08:37:59Z</time>
      </trkpt>
      <trkpt lat="45.94676" lon="4.84819">
        <ele>268</ele>
        <time>2017-06-10T08:38:00Z</time>
      </trkpt>
      <trkpt lat="45.94676" lon="4.84827">
        <ele>268</ele>
        <time>2017-06-10T08:38:01Z</time>
      </trkpt>
      <trkpt lat="45.94676" lon="4.84834">
        <ele>268</ele>
        <time>2017-06-10T08:38:02Z</time>
      </trkpt>
      <trkpt lat="45.94677" lon="4.84841">
        <ele>268</ele>
        <time>2017-06-10T08:38:03Z</time>
      </trkpt>
      <trkpt lat="45.94678" lon="4.84848">
        <ele>268</ele>
        <time>2017-06-10T08:38:04Z</time>
      </trkpt>
      <trkpt lat="45.94678" lon="4.84855">
        <ele>268</ele>
        <time>2017-06-10T08:38:05Z</time>
      </trkpt>
      <trkpt lat="45.94679" lon="4.84862">
        <ele>268</ele>
        <time>2017-06-10T08:38:06Z</time>
      </trkpt>
      <trkpt lat="45.9468" lon="4.84869">
        <ele>268</ele>
        <time>2017-06-10T08:38:07Z</time>
      </trkpt>
      <trkpt lat="45.9468" lon="4.84876">
        <ele>268</ele>
        <time>2017-06-10T08:38:08Z</time>
      </trkpt>
      <trkpt lat="45.94681" lon="4.84883">
        <ele>268</ele>
        <time>2017-06-10T08:38:09Z</time>
      </trkpt>
      <trkpt lat="45.94681" lon="4.84891">
        <ele>268</ele>
        <time>2017-06-10T08:38:10Z</time>
      </trkpt>
      <trkpt lat="45.94682" lon="4.84898">
        <ele>269</ele>
        <time>2017-06-10T08:38:11Z</time>
      </trkpt>
      <trkpt lat="45.94683" lon="4.84907">
        <ele>269</ele>
        <time>2017-06-10T08:38:12Z</time>
      </trkpt>
      <trkpt lat="45.94684" lon="4.84915">
        <ele>269</ele>
        <time>2017-06-10T08:38:13Z</time>
      </trkpt>
      <trkpt lat="45.94685" lon="4.84924">
        <ele>269</ele>
        <time>2017-06-10T08:38:14Z</time>
      </trkpt>
      <trkpt lat="45.94685" lon="4.84932">
        <ele>269</ele>
        <time>2017-06-10T08:38:15Z</time>
      </trkpt>
      <trkpt lat="45.94686" lon="4.8494">
        <ele>269</ele>
        <time>2017-06-10T08:38:16Z</time>
      </trkpt>
      <trkpt lat="45.94687" lon="4.84948">
        <ele>269</ele>
        <time>2017-06-10T08:38:17Z</time>
      </trkpt>
      <trkpt lat="45.94688" lon="4.84956">
        <ele>269</ele>
        <time>2017-06-10T08:38:18Z</time>
      </trkpt>
      <trkpt lat="45.94689" lon="4.84963">
        <ele>269</ele>
        <time>2017-06-10T08:38:19Z</time>
      </trkpt>
      <trkpt lat="45.94689" lon="4.8497">
        <ele>269</ele>
        <time>2017-06-10T08:38:20Z</time>
      </trkpt>
      <trkpt lat="45.9469" lon="4.84977">
        <ele>269</ele>
        <time>2017-06-10T08:38:21Z</time>
      </trkpt>
      <trkpt lat="45.94691" lon="4.84984">
        <ele>269</ele>
        <time>2017-06-10T08:38:22Z</time>
      </trkpt>
      <trkpt lat="45.94691" lon="4.84991">
        <ele>269</ele>
        <time>2017-06-10T08:38:23Z</time>
      </trkpt>
      <trkpt lat="45.94692" lon="4.84998">
        <ele>269</ele>
        <time>2017-06-10T08:38:24Z</time>
      </trkpt>
      <trkpt lat="45.94693" lon="4.85005">
        <ele>269</ele>
        <time>2017-06-10T08:38:25Z</time>
      </trkpt>
      <trkpt lat="45.94694" lon="4.85013">
        <ele>269</ele>
        <time>2017-06-10T08:38:26Z</time>
      </trkpt>
      <trkpt lat="45.94695" lon="4.85021">
        <ele>269</ele>
        <time>2017-06-10T08:38:27Z</time>
      </trkpt>
      <trkpt lat="45.94696" lon="4.85029">
        <ele>269</ele>
        <time>2017-06-10T08:38:28Z</time>
      </trkpt>
      <trkpt lat="45.94696" lon="4.85037">
        <ele>269</ele>
        <time>2017-06-10T08:38:29Z</time>
      </trkpt>
      <trkpt lat="45.94697" lon="4.85045">
        <ele>269</ele>
        <time>2017-06-10T08:38:30Z</time>
      </trkpt>
      <trkpt lat="45.94698" lon="4.85053">
        <ele>269</ele>
        <time>2017-06-10T08:38:31Z</time>
      </trkpt>
      <trkpt lat="45.94699" lon="4.85061">
        <ele>269</ele>
        <time>2017-06-10T08:38:32Z</time>
      </trkpt>
      <trkpt lat="45.947" lon="4.8507">
        <ele>269</ele>
        <time>2017-06-10T08:38:33Z</time>
      </trkpt>
      <trkpt lat="45.94701" lon="4.85078">
        <ele>269</ele>
        <time>2017-06-10T08:38:34Z</time>
      </trkpt>
      <trkpt lat="45.94702" lon="4.85086">
        <ele>269</ele>
        <time>2017-06-10T08:38:35Z</time>
      </trkpt>
      <trkpt lat="45.94702" lon="4.85094">
        <ele>269</ele>
        <time>2017-06-10T08:38:36Z</time>
      </trkpt>
      <trkpt lat="45.94703" lon="4.85102">
        <ele>269</ele>
        <time>2017-06-10T08:38:37Z</time>
      </trkpt>
      <trkpt lat="45.94704" lon="4.85109">
        <ele>269</ele>
        <time>2017-06-10T08:38:38Z</time>
      </trkpt>
      <trkpt lat="45.94705" lon="4.85117">
        <ele>269</ele>
        <time>2017-06-10T08:38:39Z</time>
      </trkpt>
      <trkpt lat="45.94706" lon="4.85124">
        <ele>269</ele>
        <time>2017-06-10T08:38:40Z</time>
      </trkpt>
      <trkpt lat="45.94707" lon="4.8513">
        <ele>269</ele>
        <time>2017-06-10T08:38:41Z</time>
      </trkpt>
      <trkpt lat="45.94707" lon="4.85137">
        <ele>269</ele>
        <time>2017-06-10T08:38:42Z</time>
      </trkpt>
      <trkpt lat="45.94708" lon="4.85144">
        <ele>269</ele>
        <time>2017-06-10T08:38:43Z</time>
      </trkpt>
      <trkpt lat="45.94709" lon="4.85151">
        <ele>269</ele>
        <time>2017-06-10T08:38:44Z</time>
      </trkpt>
      <trkpt lat="45.94709" lon="4.85158">
        <ele>269</ele>
        <time>2017-06-10T08:38:45Z</time>
      </trkpt>
      <trkpt lat="45.9471" lon="4.85165">
        <ele>269</ele>
        <time>2017-06-10T08:38:46Z</time>
      </trkpt>
      <trkpt lat="45.94711" lon="4.85171">
        <ele>269</ele>
        <time>2017-06-10T08:38:47Z</time>
      </trkpt>
      <trkpt lat="45.94712" lon="4.85178">
        <ele>269</ele>
        <time>2017-06-10T08:38:48Z</time>
      </trkpt>
      <trkpt lat="45.94713" lon="4.85191">
        <ele>269</ele>
        <time>2017-06-10T08:38:50Z</time>
      </trkpt>
      <trkpt lat="45.94714" lon="4.85197">
        <ele>269</ele>
        <time>2017-06-10T08:38:51Z</time>
      </trkpt>
      <trkpt lat="45.94715" lon="4.85204">
        <ele>269</ele>
        <time>2017-06-10T08:38:52Z</time>
      </trkpt>
      <trkpt lat="45.94715" lon="4.85211">
        <ele>269</ele>
        <time>2017-06-10T08:38:53Z</time>
      </trkpt>
      <trkpt lat="45.94716" lon="4.85217">
        <ele>269</ele>
        <time>2017-06-10T08:38:54Z</time>
      </trkpt>
      <trkpt lat="45.94717" lon="4.85224">
        <ele>269</ele>
        <time>2017-06-10T08:38:55Z</time>
      </trkpt>
      <trkpt lat="45.94717" lon="4.8523">
        <ele>269</ele>
        <time>2017-06-10T08:38:56Z</time>
      </trkpt>
      <trkpt lat="45.94718" lon="4.85236">
        <ele>269</ele>
        <time>2017-06-10T08:38:57Z</time>
      </trkpt>
      <trkpt lat="45.94719" lon="4.85249">
        <ele>269</ele>
        <time>2017-06-10T08:38:59Z</time>
      </trkpt>
      <trkpt lat="45.9472" lon="4.85255">
        <ele>269</ele>
        <time>2017-06-10T08:39:00Z</time>
      </trkpt>
      <trkpt lat="45.9472" lon="4.85261">
        <ele>269</ele>
        <time>2017-06-10T08:39:01Z</time>
      </trkpt>
      <trkpt lat="45.94721" lon="4.85268">
        <ele>269</ele>
        <time>2017-06-10T08:39:02Z</time>
      </trkpt>
      <trkpt lat="45.94722" lon="4.85274">
        <ele>269</ele>
        <time>2017-06-10T08:39:03Z</time>
      </trkpt>
      <trkpt lat="45.94723" lon="4.85281">
        <ele>269</ele>
        <time>2017-06-10T08:39:04Z</time>
      </trkpt>
      <trkpt lat="45.94723" lon="4.85288">
        <ele>269</ele>
        <time>2017-06-10T08:39:05Z</time>
      </trkpt>
      <trkpt lat="45.94724" lon="4.85295">
        <ele>270</ele>
        <time>2017-06-10T08:39:06Z</time>
      </trkpt>
      <trkpt lat="45.94725" lon="4.85302">
        <ele>270</ele>
        <time>2017-06-10T08:39:07Z</time>
      </trkpt>
      <trkpt lat="45.94726" lon="4.85309">
        <ele>270</ele>
        <time>2017-06-10T08:39:08Z</time>
      </trkpt>
      <trkpt lat="45.94727" lon="4.85316">
        <ele>270</ele>
        <time>2017-06-10T08:39:09Z</time>
      </trkpt>
      <trkpt lat="45.94727" lon="4.85322">
        <ele>270</ele>
        <time>2017-06-10T08:39:10Z</time>
      </trkpt>
      <trkpt lat="45.94728" lon="4.85329">
        <ele>270</ele>
        <time>2017-06-10T08:39:11Z</time>
      </trkpt>
      <trkpt lat="45.94729" lon="4.85335">
        <ele>271</ele>
        <time>2017-06-10T08:39:12Z</time>
      </trkpt>
      <trkpt lat="45.94731" lon="4.85342">
        <ele>271</ele>
        <time>2017-06-10T08:39:13Z</time>
      </trkpt>
      <trkpt lat="45.94731" lon="4.8535">
        <ele>271</ele>
        <time>2017-06-10T08:39:14Z</time>
      </trkpt>
      <trkpt lat="45.94732" lon="4.85357">
        <ele>271</ele>
        <time>2017-06-10T08:39:15Z</time>
      </trkpt>
      <trkpt lat="45.94732" lon="4.85366">
        <ele>271</ele>
        <time>2017-06-10T08:39:16Z</time>
      </trkpt>
      <trkpt lat="45.94733" lon="4.85375">
        <ele>271</ele>
        <time>2017-06-10T08:39:17Z</time>
      </trkpt>
      <trkpt lat="45.94734" lon="4.85383">
        <ele>271</ele>
        <time>2017-06-10T08:39:18Z</time>
      </trkpt>
      <trkpt lat="45.94735" lon="4.85391">
        <ele>272</ele>
        <time>2017-06-10T08:39:19Z</time>
      </trkpt>
      <trkpt lat="45.94736" lon="4.85398">
        <ele>272</ele>
        <time>2017-06-10T08:39:20Z</time>
      </trkpt>
      <trkpt lat="45.94737" lon="4.85405">
        <ele>272</ele>
        <time>2017-06-10T08:39:21Z</time>
      </trkpt>
      <trkpt lat="45.94737" lon="4.85412">
        <ele>272</ele>
        <time>2017-06-10T08:39:22Z</time>
      </trkpt>
      <trkpt lat="45.94738" lon="4.8542">
        <ele>273</ele>
        <time>2017-06-10T08:39:23Z</time>
      </trkpt>
      <trkpt lat="45.94739" lon="4.85428">
        <ele>273</ele>
        <time>2017-06-10T08:39:24Z</time>
      </trkpt>
      <trkpt lat="45.9474" lon="4.85436">
        <ele>274</ele>
        <time>2017-06-10T08:39:25Z</time>
      </trkpt>
      <trkpt lat="45.94741" lon="4.85444">
        <ele>274</ele>
        <time>2017-06-10T08:39:26Z</time>
      </trkpt>
      <trkpt lat="45.94742" lon="4.85453">
        <ele>274</ele>
        <time>2017-06-10T08:39:27Z</time>
      </trkpt>
      <trkpt lat="45.94743" lon="4.85461">
        <ele>274</ele>
        <time>2017-06-10T08:39:28Z</time>
      </trkpt>
      <trkpt lat="45.94745" lon="4.8547">
        <ele>274</ele>
        <time>2017-06-10T08:39:29Z</time>
      </trkpt>
      <trkpt lat="45.94746" lon="4.85478">
        <ele>275</ele>
        <time>2017-06-10T08:39:30Z</time>
      </trkpt>
      <trkpt lat="45.94747" lon="4.85486">
        <ele>275</ele>
        <time>2017-06-10T08:39:31Z</time>
      </trkpt>
      <trkpt lat="45.94748" lon="4.85494">
        <ele>275</ele>
        <time>2017-06-10T08:39:32Z</time>
      </trkpt>
      <trkpt lat="45.94749" lon="4.85501">
        <ele>276</ele>
        <time>2017-06-10T08:39:33Z</time>
      </trkpt>
      <trkpt lat="45.94749" lon="4.85508">
        <ele>276</ele>
        <time>2017-06-10T08:39:34Z</time>
      </trkpt>
      <trkpt lat="45.9475" lon="4.85515">
        <ele>277</ele>
        <time>2017-06-10T08:39:35Z</time>
      </trkpt>
      <trkpt lat="45.94751" lon="4.85522">
        <ele>277</ele>
        <time>2017-06-10T08:39:36Z</time>
      </trkpt>
      <trkpt lat="45.94752" lon="4.85529">
        <ele>278</ele>
        <time>2017-06-10T08:39:37Z</time>
      </trkpt>
      <trkpt lat="45.94753" lon="4.85536">
        <ele>278</ele>
        <time>2017-06-10T08:39:38Z</time>
      </trkpt>
      <trkpt lat="45.94754" lon="4.85543">
        <ele>278</ele>
        <time>2017-06-10T08:39:39Z</time>
      </trkpt>
      <trkpt lat="45.94755" lon="4.8555">
        <ele>278</ele>
        <time>2017-06-10T08:39:40Z</time>
      </trkpt>
      <trkpt lat="45.94757" lon="4.85557">
        <ele>278</ele>
        <time>2017-06-10T08:39:41Z</time>
      </trkpt>
      <trkpt lat="45.94758" lon="4.85564">
        <ele>279</ele>
        <time>2017-06-10T08:39:42Z</time>
      </trkpt>
      <trkpt lat="45.94759" lon="4.85571">
        <ele>279</ele>
        <time>2017-06-10T08:39:43Z</time>
      </trkpt>
      <trkpt lat="45.9476" lon="4.85578">
        <ele>279</ele>
        <time>2017-06-10T08:39:44Z</time>
      </trkpt>
      <trkpt lat="45.94762" lon="4.85585">
        <ele>280</ele>
        <time>2017-06-10T08:39:45Z</time>
      </trkpt>
      <trkpt lat="45.94763" lon="4.85592">
        <ele>280</ele>
        <time>2017-06-10T08:39:46Z</time>
      </trkpt>
      <trkpt lat="45.94764" lon="4.85601">
        <ele>280</ele>
        <time>2017-06-10T08:39:47Z</time>
      </trkpt>
      <trkpt lat="45.94766" lon="4.85608">
        <ele>280</ele>
        <time>2017-06-10T08:39:48Z</time>
      </trkpt>
      <trkpt lat="45.94767" lon="4.85615">
        <ele>280</ele>
        <time>2017-06-10T08:39:49Z</time>
      </trkpt>
      <trkpt lat="45.94769" lon="4.85622">
        <ele>280</ele>
        <time>2017-06-10T08:39:50Z</time>
      </trkpt>
      <trkpt lat="45.9477" lon="4.85628">
        <ele>280</ele>
        <time>2017-06-10T08:39:51Z</time>
      </trkpt>
      <trkpt lat="45.94772" lon="4.85635">
        <ele>280</ele>
        <time>2017-06-10T08:39:52Z</time>
      </trkpt>
      <trkpt lat="45.94774" lon="4.85646">
        <ele>281</ele>
        <time>2017-06-10T08:39:54Z</time>
      </trkpt>
      <trkpt lat="45.94776" lon="4.85652">
        <ele>281</ele>
        <time>2017-06-10T08:39:55Z</time>
      </trkpt>
      <trkpt lat="45.94779" lon="4.85663">
        <ele>281</ele>
        <time>2017-06-10T08:39:57Z</time>
      </trkpt>
      <trkpt lat="45.9478" lon="4.85668">
        <ele>280</ele>
        <time>2017-06-10T08:39:58Z</time>
      </trkpt>
      <trkpt lat="45.94783" lon="4.85677">
        <ele>280</ele>
        <time>2017-06-10T08:40:00Z</time>
      </trkpt>
      <trkpt lat="45.94784" lon="4.85682">
        <ele>280</ele>
        <time>2017-06-10T08:40:01Z</time>
      </trkpt>
      <trkpt lat="45.94786" lon="4.85692">
        <ele>280</ele>
        <time>2017-06-10T08:40:03Z</time>
      </trkpt>
      <trkpt lat="45.94787" lon="4.85697">
        <ele>280</ele>
        <time>2017-06-10T08:40:04Z</time>
      </trkpt>
      <trkpt lat="45.9479" lon="4.85706">
        <ele>280</ele>
        <time>2017-06-10T08:40:06Z</time>
      </trkpt>
      <trkpt lat="45.94791" lon="4.85711">
        <ele>280</ele>
        <time>2017-06-10T08:40:07Z</time>
      </trkpt>
      <trkpt lat="45.94794" lon="4.85721">
        <ele>280</ele>
        <time>2017-06-10T08:40:09Z</time>
      </trkpt>
      <trkpt lat="45.94795" lon="4.85726">
        <ele>280</ele>
        <time>2017-06-10T08:40:10Z</time>
      </trkpt>
      <trkpt lat="45.94798" lon="4.85737">
        <ele>280</ele>
        <time>2017-06-10T08:40:12Z</time>
      </trkpt>
      <trkpt lat="45.94799" lon="4.85743">
        <ele>280</ele>
        <time>2017-06-10T08:40:13Z</time>
      </trkpt>
      <trkpt lat="45.94803" lon="4.85754">
        <ele>278</ele>
        <time>2017-06-10T08:40:15Z</time>
      </trkpt>
      <trkpt lat="45.94804" lon="4.8576">
        <ele>278</ele>
        <time>2017-06-10T08:40:16Z</time>
      </trkpt>
      <trkpt lat="45.94808" lon="4.85772">
        <ele>278</ele>
        <time>2017-06-10T08:40:18Z</time>
      </trkpt>
      <trkpt lat="45.9481" lon="4.85778">
        <ele>278</ele>
        <time>2017-06-10T08:40:19Z</time>
      </trkpt>
      <trkpt lat="45.94811" lon="4.85784">
        <ele>278</ele>
        <time>2017-06-10T08:40:20Z</time>
      </trkpt>
      <trkpt lat="45.94813" lon="4.8579">
        <ele>278</ele>
        <time>2017-06-10T08:40:21Z</time>
      </trkpt>
      <trkpt lat="45.94815" lon="4.85797">
        <ele>278</ele>
        <time>2017-06-10T08:40:22Z</time>
      </trkpt>
      <trkpt lat="45.94816" lon="4.85803">
        <ele>278</ele>
        <time>2017-06-10T08:40:23Z</time>
      </trkpt>
      <trkpt lat="45.94818" lon="4.85809">
        <ele>278</ele>
        <time>2017-06-10T08:40:24Z</time>
      </trkpt>
      <trkpt lat="45.9482" lon="4.85816">
        <ele>278</ele>
        <time>2017-06-10T08:40:25Z</time>
      </trkpt>
      <trkpt lat="45.94821" lon="4.85822">
        <ele>278</ele>
        <time>2017-06-10T08:40:26Z</time>
      </trkpt>
      <trkpt lat="45.94823" lon="4.85829">
        <ele>277</ele>
        <time>2017-06-10T08:40:27Z</time>
      </trkpt>
      <trkpt lat="45.94824" lon="4.85835">
        <ele>277</ele>
        <time>2017-06-10T08:40:28Z</time>
      </trkpt>
      <trkpt lat="45.94826" lon="4.85841">
        <ele>277</ele>
        <time>2017-06-10T08:40:29Z</time>
      </trkpt>
      <trkpt lat="45.94828" lon="4.85847">
        <ele>277</ele>
        <time>2017-06-10T08:40:30Z</time>
      </trkpt>
      <trkpt lat="45.94829" lon="4.85853">
        <ele>277</ele>
        <time>2017-06-10T08:40:31Z</time>
      </trkpt>
      <trkpt lat="45.94831" lon="4.8586">
        <ele>277</ele>
        <time>2017-06-10T08:40:32Z</time>
      </trkpt>
      <trkpt lat="45.94832" lon="4.85866">
        <ele>277</ele>
        <time>2017-06-10T08:40:33Z</time>
      </trkpt>
      <trkpt lat="45.94834" lon="4.85873">
        <ele>276</ele>
        <time>2017-06-10T08:40:34Z</time>
      </trkpt>
      <trkpt lat="45.94836" lon="4.8588">
        <ele>276</ele>
        <time>2017-06-10T08:40:35Z</time>
      </trkpt>
      <trkpt lat="45.94838" lon="4.85887">
        <ele>276</ele>
        <time>2017-06-10T08:40:36Z</time>
      </trkpt>
      <trkpt lat="45.9484" lon="4.85894">
        <ele>276</ele>
        <time>2017-06-10T08:40:37Z</time>
      </trkpt>
      <trkpt lat="45.94841" lon="4.85901">
        <ele>276</ele>
        <time>2017-06-10T08:40:38Z</time>
      </trkpt>
      <trkpt lat="45.94843" lon="4.85907">
        <ele>275</ele>
        <time>2017-06-10T08:40:39Z</time>
      </trkpt>
      <trkpt lat="45.94845" lon="4.85914">
        <ele>275</ele>
        <time>2017-06-10T08:40:40Z</time>
      </trkpt>
      <trkpt lat="45.94847" lon="4.85921">
        <ele>275</ele>
        <time>2017-06-10T08:40:41Z</time>
      </trkpt>
      <trkpt lat="45.94849" lon="4.85928">
        <ele>275</ele>
        <time>2017-06-10T08:40:42Z</time>
      </trkpt>
      <trkpt lat="45.94851" lon="4.85935">
        <ele>275</ele>
        <time>2017-06-10T08:40:43Z</time>
      </trkpt>
      <trkpt lat="45.94853" lon="4.85941">
        <ele>275</ele>
        <time>2017-06-10T08:40:44Z</time>
      </trkpt>
      <trkpt lat="45.94855" lon="4.85948">
        <ele>275</ele>
        <time>2017-06-10T08:40:45Z</time>
      </trkpt>
      <trkpt lat="45.94856" lon="4.85956">
        <ele>275</ele>
        <time>2017-06-10T08:40:46Z</time>
      </trkpt>
      <trkpt lat="45.94858" lon="4.85963">
        <ele>275</ele>
        <time>2017-06-10T08:40:47Z</time>
      </trkpt>
      <trkpt lat="45.9486" lon="4.8597">
        <ele>275</ele>
        <time>2017-06-10T08:40:48Z</time>
      </trkpt>
      <trkpt lat="45.94863" lon="4.85978">
        <ele>275</ele>
        <time>2017-06-10T08:40:49Z</time>
      </trkpt>
      <trkpt lat="45.94865" lon="4.85986">
        <ele>275</ele>
        <time>2017-06-10T08:40:50Z</time>
      </trkpt>
      <trkpt lat="45.94867" lon="4.85993">
        <ele>275</ele>
        <time>2017-06-10T08:40:51Z</time>
      </trkpt>
      <trkpt lat="45.94869" lon="4.86">
        <ele>275</ele>
        <time>2017-06-10T08:40:52Z</time>
      </trkpt>
      <trkpt lat="45.9487" lon="4.86007">
        <ele>274</ele>
        <time>2017-06-10T08:40:53Z</time>
      </trkpt>
      <trkpt lat="45.94872" lon="4.86014">
        <ele>274</ele>
        <time>2017-06-10T08:40:54Z</time>
      </trkpt>
      <trkpt lat="45.94873" lon="4.8602">
        <ele>274</ele>
        <time>2017-06-10T08:40:55Z</time>
      </trkpt>
      <trkpt lat="45.94875" lon="4.86027">
        <ele>274</ele>
        <time>2017-06-10T08:40:56Z</time>
      </trkpt>
      <trkpt lat="45.94876" lon="4.86033">
        <ele>274</ele>
        <time>2017-06-10T08:40:57Z</time>
      </trkpt>
      <trkpt lat="45.94878" lon="4.8604">
        <ele>274</ele>
        <time>2017-06-10T08:40:58Z</time>
      </trkpt>
      <trkpt lat="45.9488" lon="4.86047">
        <ele>274</ele>
        <time>2017-06-10T08:40:59Z</time>
      </trkpt>
      <trkpt lat="45.94882" lon="4.86054">
        <ele>274</ele>
        <time>2017-06-10T08:41:00Z</time>
      </trkpt>
      <trkpt lat="45.94884" lon="4.86061">
        <ele>274</ele>
        <time>2017-06-10T08:41:01Z</time>
      </trkpt>
      <trkpt lat="45.94886" lon="4.86068">
        <ele>274</ele>
        <time>2017-06-10T08:41:02Z</time>
      </trkpt>
      <trkpt lat="45.94888" lon="4.86074">
        <ele>274</ele>
        <time>2017-06-10T08:41:03Z</time>
      </trkpt>
      <trkpt lat="45.9489" lon="4.86081">
        <ele>274</ele>
        <time>2017-06-10T08:41:04Z</time>
      </trkpt>
      <trkpt lat="45.94892" lon="4.86087">
        <ele>274</ele>
        <time>2017-06-10T08:41:05Z</time>
      </trkpt>
      <trkpt lat="45.94894" lon="4.86093">
        <ele>274</ele>
        <time>2017-06-10T08:41:06Z</time>
      </trkpt>
      <trkpt lat="45.94896" lon="4.861">
        <ele>274</ele>
        <time>2017-06-10T08:41:07Z</time>
      </trkpt>
      <trkpt lat="45.94898" lon="4.86107">
        <ele>274</ele>
        <time>2017-06-10T08:41:08Z</time>
      </trkpt>
      <trkpt lat="45.949" lon="4.86113">
        <ele>274</ele>
        <time>2017-06-10T08:41:09Z</time>
      </trkpt>
      <trkpt lat="45.94903" lon="4.86119">
        <ele>274</ele>
        <time>2017-06-10T08:41:10Z</time>
      </trkpt>
      <trkpt lat="45.94906" lon="4.86125">
        <ele>274</ele>
        <time>2017-06-10T08:41:11Z</time>
      </trkpt>
      <trkpt lat="45.94909" lon="4.86131">
        <ele>274</ele>
        <time>2017-06-10T08:41:12Z</time>
      </trkpt>
      <trkpt lat="45.94912" lon="4.86137">
        <ele>274</ele>
        <time>2017-06-10T08:41:13Z</time>
      </trkpt>
      <trkpt lat="45.94916" lon="4.86142">
        <ele>274</ele>
        <time>2017-06-10T08:41:14Z</time>
      </trkpt>
      <trkpt lat="45.94919" lon="4.86148">
        <ele>273</ele>
        <time>2017-06-10T08:41:15Z</time>
      </trkpt>
      <trkpt lat="45.94923" lon="4.86153">
        <ele>273</ele>
        <time>2017-06-10T08:41:16Z</time>
      </trkpt>
      <trkpt lat="45.94926" lon="4.86158">
        <ele>273</ele>
        <time>2017-06-10T08:41:17Z</time>
      </trkpt>
      <trkpt lat="45.9493" lon="4.86163">
        <ele>273</ele>
        <time>2017-06-10T08:41:18Z</time>
      </trkpt>
      <trkpt lat="45.94933" lon="4.86167">
        <ele>273</ele>
        <time>2017-06-10T08:41:19Z</time>
      </trkpt>
      <trkpt lat="45.94937" lon="4.86172">
        <ele>273</ele>
        <time>2017-06-10T08:41:20Z</time>
      </trkpt>
      <trkpt lat="45.94941" lon="4.86177">
        <ele>273</ele>
        <time>2017-06-10T08:41:21Z</time>
      </trkpt>
      <trkpt lat="45.94945" lon="4.86181">
        <ele>273</ele>
        <time>2017-06-10T08:41:22Z</time>
      </trkpt>
      <trkpt lat="45.94949" lon="4.86186">
        <ele>273</ele>
        <time>2017-06-10T08:41:23Z</time>
      </trkpt>
      <trkpt lat="45.94953" lon="4.86191">
        <ele>273</ele>
        <time>2017-06-10T08:41:24Z</time>
      </trkpt>
      <trkpt lat="45.94957" lon="4.86196">
        <ele>273</ele>
        <time>2017-06-10T08:41:25Z</time>
      </trkpt>
      <trkpt lat="45.94961" lon="4.86201">
        <ele>272</ele>
        <time>2017-06-10T08:41:26Z</time>
      </trkpt>
      <trkpt lat="45.94965" lon="4.86206">
        <ele>272</ele>
        <time>2017-06-10T08:41:27Z</time>
      </trkpt>
      <trkpt lat="45.94969" lon="4.8621">
        <ele>272</ele>
        <time>2017-06-10T08:41:28Z</time>
      </trkpt>
      <trkpt lat="45.94973" lon="4.86215">
        <ele>272</ele>
        <time>2017-06-10T08:41:29Z</time>
      </trkpt>
      <trkpt lat="45.94976" lon="4.86219">
        <ele>272</ele>
        <time>2017-06-10T08:41:30Z</time>
      </trkpt>
      <trkpt lat="45.9498" lon="4.86224">
        <ele>272</ele>
        <time>2017-06-10T08:41:31Z</time>
      </trkpt>
      <trkpt lat="45.94984" lon="4.86229">
        <ele>272</ele>
        <time>2017-06-10T08:41:32Z</time>
      </trkpt>
      <trkpt lat="45.94988" lon="4.86234">
        <ele>272</ele>
        <time>2017-06-10T08:41:33Z</time>
      </trkpt>
      <trkpt lat="45.94991" lon="4.86238">
        <ele>272</ele>
        <time>2017-06-10T08:41:34Z</time>
      </trkpt>
      <trkpt lat="45.94995" lon="4.86243">
        <ele>272</ele>
        <time>2017-06-10T08:41:35Z</time>
      </trkpt>
      <trkpt lat="45.94999" lon="4.86248">
        <ele>272</ele>
        <time>2017-06-10T08:41:36Z</time>
      </trkpt>
      <trkpt lat="45.95004" lon="4.86253">
        <ele>272</ele>
        <time>2017-06-10T08:41:37Z</time>
      </trkpt>
      <trkpt lat="45.95008" lon="4.86258">
        <ele>272</ele>
        <time>2017-06-10T08:41:38Z</time>
      </trkpt>
      <trkpt lat="45.95012" lon="4.86263">
        <ele>272</ele>
        <time>2017-06-10T08:41:39Z</time>
      </trkpt>
      <trkpt lat="45.95017" lon="4.86268">
        <ele>271</ele>
        <time>2017-06-10T08:41:40Z</time>
      </trkpt>
      <trkpt lat="45.95021" lon="4.86273">
        <ele>271</ele>
        <time>2017-06-10T08:41:41Z</time>
      </trkpt>
      <trkpt lat="45.95025" lon="4.86278">
        <ele>271</ele>
        <time>2017-06-10T08:41:42Z</time>
      </trkpt>
      <trkpt lat="45.9503" lon="4.86284">
        <ele>271</ele>
        <time>2017-06-10T08:41:43Z</time>
      </trkpt>
      <trkpt lat="45.95034" lon="4.86289">
        <ele>271</ele>
        <time>2017-06-10T08:41:44Z</time>
      </trkpt>
      <trkpt lat="45.95038" lon="4.86295">
        <ele>271</ele>
        <time>2017-06-10T08:41:45Z</time>
      </trkpt>
      <trkpt lat="45.95043" lon="4.863">
        <ele>271</ele>
        <time>2017-06-10T08:41:46Z</time>
      </trkpt>
      <trkpt lat="45.95047" lon="4.86306">
        <ele>271</ele>
        <time>2017-06-10T08:41:47Z</time>
      </trkpt>
      <trkpt lat="45.95052" lon="4.86311">
        <ele>271</ele>
        <time>2017-06-10T08:41:48Z</time>
      </trkpt>
      <trkpt lat="45.95056" lon="4.86317">
        <ele>271</ele>
        <time>2017-06-10T08:41:49Z</time>
      </trkpt>
      <trkpt lat="45.95061" lon="4.86322">
        <ele>270</ele>
        <time>2017-06-10T08:41:50Z</time>
      </trkpt>
      <trkpt lat="45.95065" lon="4.86326">
        <ele>270</ele>
        <time>2017-06-10T08:41:51Z</time>
      </trkpt>
      <trkpt lat="45.9507" lon="4.86331">
        <ele>270</ele>
        <time>2017-06-10T08:41:52Z</time>
      </trkpt>
      <trkpt lat="45.95074" lon="4.86337">
        <ele>270</ele>
        <time>2017-06-10T08:41:53Z</time>
      </trkpt>
      <trkpt lat="45.95077" lon="4.86342">
        <ele>270</ele>
        <time>2017-06-10T08:41:54Z</time>
      </trkpt>
      <trkpt lat="45.95081" lon="4.86347">
        <ele>270</ele>
        <time>2017-06-10T08:41:55Z</time>
      </trkpt>
      <trkpt lat="45.95085" lon="4.86353">
        <ele>269</ele>
        <time>2017-06-10T08:41:56Z</time>
      </trkpt>
      <trkpt lat="45.95089" lon="4.86358">
        <ele>269</ele>
        <time>2017-06-10T08:41:57Z</time>
      </trkpt>
      <trkpt lat="45.95093" lon="4.86363">
        <ele>269</ele>
        <time>2017-06-10T08:41:58Z</time>
      </trkpt>
      <trkpt lat="45.95097" lon="4.86368">
        <ele>269</ele>
        <time>2017-06-10T08:41:59Z</time>
      </trkpt>
      <trkpt lat="45.95101" lon="4.86372">
        <ele>269</ele>
        <time>2017-06-10T08:42:00Z</time>
      </trkpt>
      <trkpt lat="45.95105" lon="4.86376">
        <ele>269</ele>
        <time>2017-06-10T08:42:01Z</time>
      </trkpt>
      <trkpt lat="45.95109" lon="4.86381">
        <ele>269</ele>
        <time>2017-06-10T08:42:02Z</time>
      </trkpt>
      <trkpt lat="45.95113" lon="4.86386">
        <ele>269</ele>
        <time>2017-06-10T08:42:03Z</time>
      </trkpt>
      <trkpt lat="45.95117" lon="4.8639">
        <ele>269</ele>
        <time>2017-06-10T08:42:04Z</time>
      </trkpt>
      <trkpt lat="45.9512" lon="4.86394">
        <ele>269</ele>
        <time>2017-06-10T08:42:05Z</time>
      </trkpt>
      <trkpt lat="45.95124" lon="4.86399">
        <ele>269</ele>
        <time>2017-06-10T08:42:06Z</time>
      </trkpt>
      <trkpt lat="45.95128" lon="4.86404">
        <ele>268</ele>
        <time>2017-06-10T08:42:07Z</time>
      </trkpt>
      <trkpt lat="45.95131" lon="4.86408">
        <ele>268</ele>
        <time>2017-06-10T08:42:08Z</time>
      </trkpt>
      <trkpt lat="45.95136" lon="4.86413">
        <ele>268</ele>
        <time>2017-06-10T08:42:09Z</time>
      </trkpt>
      <trkpt lat="45.9514" lon="4.86419">
        <ele>269</ele>
        <time>2017-06-10T08:42:10Z</time>
      </trkpt>
      <trkpt lat="45.95144" lon="4.86424">
        <ele>268</ele>
        <time>2017-06-10T08:42:11Z</time>
      </trkpt>
      <trkpt lat="45.95149" lon="4.8643">
        <ele>268</ele>
        <time>2017-06-10T08:42:12Z</time>
      </trkpt>
      <trkpt lat="45.95153" lon="4.86435">
        <ele>268</ele>
        <time>2017-06-10T08:42:13Z</time>
      </trkpt>
      <trkpt lat="45.95157" lon="4.8644">
        <ele>268</ele>
        <time>2017-06-10T08:42:14Z</time>
      </trkpt>
      <trkpt lat="45.95161" lon="4.86445">
        <ele>269</ele>
        <time>2017-06-10T08:42:15Z</time>
      </trkpt>
      <trkpt lat="45.95165" lon="4.86451">
        <ele>269</ele>
        <time>2017-06-10T08:42:16Z</time>
      </trkpt>
      <trkpt lat="45.95169" lon="4.86456">
        <ele>268</ele>
        <time>2017-06-10T08:42:17Z</time>
      </trkpt>
      <trkpt lat="45.95173" lon="4.86461">
        <ele>268</ele>
        <time>2017-06-10T08:42:18Z</time>
      </trkpt>
      <trkpt lat="45.95178" lon="4.86466">
        <ele>268</ele>
        <time>2017-06-10T08:42:19Z</time>
      </trkpt>
      <trkpt lat="45.95182" lon="4.86472">
        <ele>268</ele>
        <time>2017-06-10T08:42:20Z</time>
      </trkpt>
      <trkpt lat="45.95187" lon="4.86477">
        <ele>268</ele>
        <time>2017-06-10T08:42:21Z</time>
      </trkpt>
      <trkpt lat="45.95192" lon="4.86483">
        <ele>268</ele>
        <time>2017-06-10T08:42:22Z</time>
      </trkpt>
      <trkpt lat="45.95197" lon="4.86489">
        <ele>268</ele>
        <time>2017-06-10T08:42:23Z</time>
      </trkpt>
      <trkpt lat="45.95202" lon="4.86495">
        <ele>268</ele>
        <time>2017-06-10T08:42:24Z</time>
      </trkpt>
      <trkpt lat="45.95207" lon="4.86501">
        <ele>268</ele>
        <time>2017-06-10T08:42:25Z</time>
      </trkpt>
      <trkpt lat="45.95212" lon="4.86508">
        <ele>268</ele>
        <time>2017-06-10T08:42:26Z</time>
      </trkpt>
      <trkpt lat="45.95217" lon="4.86515">
        <ele>268</ele>
        <time>2017-06-10T08:42:27Z</time>
      </trkpt>
      <trkpt lat="45.95223" lon="4.86521">
        <ele>268</ele>
        <time>2017-06-10T08:42:28Z</time>
      </trkpt>
      <trkpt lat="45.95228" lon="4.86527">
        <ele>268</ele>
        <time>2017-06-10T08:42:29Z</time>
      </trkpt>
      <trkpt lat="45.95233" lon="4.86533">
        <ele>268</ele>
        <time>2017-06-10T08:42:30Z</time>
      </trkpt>
      <trkpt lat="45.95239" lon="4.86539">
        <ele>268</ele>
        <time>2017-06-10T08:42:31Z</time>
      </trkpt>
      <trkpt lat="45.95244" lon="4.86544">
        <ele>268</ele>
        <time>2017-06-10T08:42:32Z</time>
      </trkpt>
      <trkpt lat="45.95249" lon="4.8655">
        <ele>268</ele>
        <time>2017-06-10T08:42:33Z</time>
      </trkpt>
      <trkpt lat="45.95252" lon="4.86556">
        <ele>267</ele>
        <time>2017-06-10T08:42:34Z</time>
      </trkpt>
      <trkpt lat="45.95254" lon="4.86562">
        <ele>267</ele>
        <time>2017-06-10T08:42:35Z</time>
      </trkpt>
      <trkpt lat="45.95258" lon="4.8657">
        <ele>267</ele>
        <time>2017-06-10T08:42:37Z</time>
      </trkpt>
      <trkpt lat="45.95258" lon="4.86574">
        <ele>267</ele>
        <time>2017-06-10T08:42:38Z</time>
      </trkpt>
      <trkpt lat="45.95256" lon="4.86579">
        <ele>268</ele>
        <time>2017-06-10T08:42:39Z</time>
      </trkpt>
      <trkpt lat="45.95251" lon="4.86583">
        <ele>268</ele>
        <time>2017-06-10T08:42:40Z</time>
      </trkpt>
      <trkpt lat="45.95242" lon="4.86584">
        <ele>268</ele>
        <time>2017-06-10T08:42:42Z</time>
      </trkpt>
      <trkpt lat="45.95238" lon="4.86583">
        <ele>268</ele>
        <time>2017-06-10T08:42:43Z</time>
      </trkpt>
      <trkpt lat="45.95233" lon="4.86582">
        <ele>268</ele>
        <time>2017-06-10T08:42:44Z</time>
      </trkpt>
      <trkpt lat="45.95228" lon="4.86582">
        <ele>268</ele>
        <time>2017-06-10T08:42:45Z</time>
      </trkpt>
      <trkpt lat="45.95224" lon="4.8658">
        <ele>268</ele>
        <time>2017-06-10T08:42:46Z</time>
      </trkpt>
      <trkpt lat="45.95219" lon="4.86579">
        <ele>268</ele>
        <time>2017-06-10T08:42:47Z</time>
      </trkpt>
      <trkpt lat="45.95215" lon="4.86578">
        <ele>268</ele>
        <time>2017-06-10T08:42:48Z</time>
      </trkpt>
      <trkpt lat="45.9521" lon="4.86578">
        <ele>268</ele>
        <time>2017-06-10T08:42:49Z</time>
      </trkpt>
      <trkpt lat="45.95206" lon="4.86577">
        <ele>268</ele>
        <time>2017-06-10T08:42:50Z</time>
      </trkpt>
      <trkpt lat="45.95201" lon="4.86576">
        <ele>268</ele>
        <time>2017-06-10T08:42:51Z</time>
      </trkpt>
      <trkpt lat="45.95196" lon="4.86576">
        <ele>268</ele>
        <time>2017-06-10T08:42:52Z</time>
      </trkpt>
      <trkpt lat="45.95191" lon="4.86576">
        <ele>269</ele>
        <time>2017-06-10T08:42:53Z</time>
      </trkpt>
      <trkpt lat="45.95186" lon="4.86577">
        <ele>269</ele>
        <time>2017-06-10T08:42:54Z</time>
      </trkpt>
      <trkpt lat="45.95181" lon="4.86577">
        <ele>269</ele>
        <time>2017-06-10T08:42:55Z</time>
      </trkpt>
      <trkpt lat="45.95176" lon="4.86578">
        <ele>269</ele>
        <time>2017-06-10T08:42:56Z</time>
      </trkpt>
      <trkpt lat="45.95171" lon="4.86579">
        <ele>269</ele>
        <time>2017-06-10T08:42:57Z</time>
      </trkpt>
      <trkpt lat="45.95166" lon="4.8658">
        <ele>269</ele>
        <time>2017-06-10T08:42:58Z</time>
      </trkpt>
      <trkpt lat="45.95161" lon="4.86581">
        <ele>269</ele>
        <time>2017-06-10T08:42:59Z</time>
      </trkpt>
      <trkpt lat="45.95152" lon="4.86582">
        <ele>269</ele>
        <time>2017-06-10T08:43:01Z</time>
      </trkpt>
      <trkpt lat="45.95148" lon="4.86582">
        <ele>270</ele>
        <time>2017-06-10T08:43:02Z</time>
      </trkpt>
      <trkpt lat="45.9514" lon="4.86583">
        <ele>270</ele>
        <time>2017-06-10T08:43:04Z</time>
      </trkpt>
      <trkpt lat="45.95136" lon="4.86584">
        <ele>270</ele>
        <time>2017-06-10T08:43:05Z</time>
      </trkpt>
      <trkpt lat="45.95127" lon="4.86585">
        <ele>270</ele>
        <time>2017-06-10T08:43:07Z</time>
      </trkpt>
      <trkpt lat="45.95122" lon="4.86586">
        <ele>270</ele>
        <time>2017-06-10T08:43:08Z</time>
      </trkpt>
      <trkpt lat="45.95118" lon="4.86586">
        <ele>270</ele>
        <time>2017-06-10T08:43:09Z</time>
      </trkpt>
      <trkpt lat="45.95113" lon="4.86588">
        <ele>271</ele>
        <time>2017-06-10T08:43:10Z</time>
      </trkpt>
      <trkpt lat="45.95108" lon="4.86589">
        <ele>271</ele>
        <time>2017-06-10T08:43:11Z</time>
      </trkpt>
      <trkpt lat="45.95103" lon="4.86589">
        <ele>271</ele>
        <time>2017-06-10T08:43:12Z</time>
      </trkpt>
      <trkpt lat="45.95098" lon="4.8659">
        <ele>271</ele>
        <time>2017-06-10T08:43:13Z</time>
      </trkpt>
      <trkpt lat="45.95093" lon="4.86591">
        <ele>271</ele>
        <time>2017-06-10T08:43:14Z</time>
      </trkpt>
      <trkpt lat="45.95088" lon="4.86593">
        <ele>271</ele>
        <time>2017-06-10T08:43:15Z</time>
      </trkpt>
      <trkpt lat="45.95083" lon="4.86594">
        <ele>271</ele>
        <time>2017-06-10T08:43:16Z</time>
      </trkpt>
      <trkpt lat="45.95078" lon="4.86595">
        <ele>272</ele>
        <time>2017-06-10T08:43:17Z</time>
      </trkpt>
      <trkpt lat="45.95074" lon="4.86596">
        <ele>272</ele>
        <time>2017-06-10T08:43:18Z</time>
      </trkpt>
      <trkpt lat="45.9507" lon="4.86597">
        <ele>272</ele>
        <time>2017-06-10T08:43:19Z</time>
      </trkpt>
      <trkpt lat="45.95065" lon="4.86598">
        <ele>272</ele>
        <time>2017-06-10T08:43:20Z</time>
      </trkpt>
      <trkpt lat="45.95061" lon="4.866">
        <ele>272</ele>
        <time>2017-06-10T08:43:21Z</time>
      </trkpt>
      <trkpt lat="45.95056" lon="4.86601">
        <ele>272</ele>
        <time>2017-06-10T08:43:22Z</time>
      </trkpt>
      <trkpt lat="45.95052" lon="4.86603">
        <ele>272</ele>
        <time>2017-06-10T08:43:23Z</time>
      </trkpt>
      <trkpt lat="45.95047" lon="4.86604">
        <ele>272</ele>
        <time>2017-06-10T08:43:24Z</time>
      </trkpt>
      <trkpt lat="45.95039" lon="4.86607">
        <ele>273</ele>
        <time>2017-06-10T08:43:26Z</time>
      </trkpt>
      <trkpt lat="45.95035" lon="4.86608">
        <ele>273</ele>
        <time>2017-06-10T08:43:27Z</time>
      </trkpt>
      <trkpt lat="45.95027" lon="4.86611">
        <ele>273</ele>
        <time>2017-06-10T08:43:29Z</time>
      </trkpt>
      <trkpt lat="45.95023" lon="4.86612">
        <ele>273</ele>
        <time>2017-06-10T08:43:30Z</time>
      </trkpt>
      <trkpt lat="45.95014" lon="4.86613">
        <ele>273</ele>
        <time>2017-06-10T08:43:32Z</time>
      </trkpt>
      <trkpt lat="45.95009" lon="4.86613">
        <ele>273</ele>
        <time>2017-06-10T08:43:33Z</time>
      </trkpt>
      <trkpt lat="45.95004" lon="4.86613">
        <ele>273</ele>
        <time>2017-06-10T08:43:34Z</time>
      </trkpt>
      <trkpt lat="45.94999" lon="4.86614">
        <ele>275</ele>
        <time>2017-06-10T08:43:35Z</time>
      </trkpt>
      <trkpt lat="45.94994" lon="4.86615">
        <ele>275</ele>
        <time>2017-06-10T08:43:36Z</time>
      </trkpt>
      <trkpt lat="45.9499" lon="4.86616">
        <ele>275</ele>
        <time>2017-06-10T08:43:37Z</time>
      </trkpt>
      <trkpt lat="45.94981" lon="4.86617">
        <ele>275</ele>
        <time>2017-06-10T08:43:39Z</time>
      </trkpt>
      <trkpt lat="45.94976" lon="4.86618">
        <ele>275</ele>
        <time>2017-06-10T08:43:40Z</time>
      </trkpt>
      <trkpt lat="45.94968" lon="4.86621">
        <ele>275</ele>
        <time>2017-06-10T08:43:42Z</time>
      </trkpt>
      <trkpt lat="45.94964" lon="4.86623">
        <ele>275</ele>
        <time>2017-06-10T08:43:43Z</time>
      </trkpt>
      <trkpt lat="45.94958" lon="4.86627">
        <ele>276</ele>
        <time>2017-06-10T08:43:45Z</time>
      </trkpt>
      <trkpt lat="45.94954" lon="4.8663">
        <ele>276</ele>
        <time>2017-06-10T08:43:46Z</time>
      </trkpt>
      <trkpt lat="45.94949" lon="4.86639">
        <ele>276</ele>
        <time>2017-06-10T08:43:48Z</time>
      </trkpt>
      <trkpt lat="45.94946" lon="4.86644">
        <ele>276</ele>
        <time>2017-06-10T08:43:49Z</time>
      </trkpt>
      <trkpt lat="45.94944" lon="4.8665">
        <ele>276</ele>
        <time>2017-06-10T08:43:50Z</time>
      </trkpt>
      <trkpt lat="45.94942" lon="4.86656">
        <ele>276</ele>
        <time>2017-06-10T08:43:51Z</time>
      </trkpt>
      <trkpt lat="45.94941" lon="4.86663">
        <ele>276</ele>
        <time>2017-06-10T08:43:52Z</time>
      </trkpt>
      <trkpt lat="45.94941" lon="4.8667">
        <ele>276</ele>
        <time>2017-06-10T08:43:53Z</time>
      </trkpt>
      <trkpt lat="45.94941" lon="4.86682">
        <ele>276</ele>
        <time>2017-06-10T08:43:55Z</time>
      </trkpt>
      <trkpt lat="45.94941" lon="4.86688">
        <ele>276</ele>
        <time>2017-06-10T08:43:56Z</time>
      </trkpt>
      <trkpt lat="45.94943" lon="4.867">
        <ele>276</ele>
        <time>2017-06-10T08:43:58Z</time>
      </trkpt>
      <trkpt lat="45.94944" lon="4.86705">
        <ele>275</ele>
        <time>2017-06-10T08:43:59Z</time>
      </trkpt>
      <trkpt lat="45.94947" lon="4.86717">
        <ele>275</ele>
        <time>2017-06-10T08:44:01Z</time>
      </trkpt>
      <trkpt lat="45.94948" lon="4.86723">
        <ele>275</ele>
        <time>2017-06-10T08:44:02Z</time>
      </trkpt>
      <trkpt lat="45.9495" lon="4.86729">
        <ele>275</ele>
        <time>2017-06-10T08:44:03Z</time>
      </trkpt>
      <trkpt lat="45.94952" lon="4.86735">
        <ele>275</ele>
        <time>2017-06-10T08:44:04Z</time>
      </trkpt>
      <trkpt lat="45.94955" lon="4.86741">
        <ele>275</ele>
        <time>2017-06-10T08:44:05Z</time>
      </trkpt>
      <trkpt lat="45.94957" lon="4.86747">
        <ele>275</ele>
        <time>2017-06-10T08:44:06Z</time>
      </trkpt>
      <trkpt lat="45.94961" lon="4.86757">
        <ele>275</ele>
        <time>2017-06-10T08:44:08Z</time>
      </trkpt>
      <trkpt lat="45.94964" lon="4.86761">
        <ele>275</ele>
        <time>2017-06-10T08:44:09Z</time>
      </trkpt>
      <trkpt lat="45.94969" lon="4.86769">
        <ele>275</ele>
        <time>2017-06-10T08:44:11Z</time>
      </trkpt>
      <trkpt lat="45.94971" lon="4.86774">
        <ele>275</ele>
        <time>2017-06-10T08:44:12Z</time>
      </trkpt>
      <trkpt lat="45.94977" lon="4.86784">
        <ele>275</ele>
        <time>2017-06-10T08:44:14Z</time>
      </trkpt>
      <trkpt lat="45.9498" lon="4.86789">
        <ele>276</ele>
        <time>2017-06-10T08:44:15Z</time>
      </trkpt>
      <trkpt lat="45.94982" lon="4.86795">
        <ele>276</ele>
        <time>2017-06-10T08:44:16Z</time>
      </trkpt>
      <trkpt lat="45.94986" lon="4.868">
        <ele>276</ele>
        <time>2017-06-10T08:44:17Z</time>
      </trkpt>
      <trkpt lat="45.94989" lon="4.86806">
        <ele>276</ele>
        <time>2017-06-10T08:44:18Z</time>
      </trkpt>
      <trkpt lat="45.94992" lon="4.86812">
        <ele>276</ele>
        <time>2017-06-10T08:44:19Z</time>
      </trkpt>
      <trkpt lat="45.94995" lon="4.86818">
        <ele>276</ele>
        <time>2017-06-10T08:44:20Z</time>
      </trkpt>
      <trkpt lat="45.94998" lon="4.86825">
        <ele>276</ele>
        <time>2017-06-10T08:44:21Z</time>
      </trkpt>
      <trkpt lat="45.95" lon="4.86831">
        <ele>276</ele>
        <time>2017-06-10T08:44:22Z</time>
      </trkpt>
      <trkpt lat="45.95003" lon="4.86838">
        <ele>276</ele>
        <time>2017-06-10T08:44:23Z</time>
      </trkpt>
      <trkpt lat="45.95006" lon="4.86845">
        <ele>276</ele>
        <time>2017-06-10T08:44:24Z</time>
      </trkpt>
      <trkpt lat="45.95008" lon="4.86851">
        <ele>275</ele>
        <time>2017-06-10T08:44:25Z</time>
      </trkpt>
      <trkpt lat="45.9501" lon="4.86858">
        <ele>275</ele>
        <time>2017-06-10T08:44:26Z</time>
      </trkpt>
      <trkpt lat="45.95013" lon="4.86865">
        <ele>275</ele>
        <time>2017-06-10T08:44:27Z</time>
      </trkpt>
      <trkpt lat="45.95015" lon="4.86872">
        <ele>275</ele>
        <time>2017-06-10T08:44:28Z</time>
      </trkpt>
      <trkpt lat="45.95017" lon="4.86879">
        <ele>275</ele>
        <time>2017-06-10T08:44:29Z</time>
      </trkpt>
      <trkpt lat="45.95019" lon="4.86885">
        <ele>275</ele>
        <time>2017-06-10T08:44:30Z</time>
      </trkpt>
      <trkpt lat="45.95021" lon="4.86891">
        <ele>275</ele>
        <time>2017-06-10T08:44:31Z</time>
      </trkpt>
      <trkpt lat="45.95024" lon="4.86903">
        <ele>275</ele>
        <time>2017-06-10T08:44:33Z</time>
      </trkpt>
      <trkpt lat="45.95026" lon="4.86908">
        <ele>275</ele>
        <time>2017-06-10T08:44:34Z</time>
      </trkpt>
      <trkpt lat="45.9503" lon="4.86919">
        <ele>276</ele>
        <time>2017-06-10T08:44:36Z</time>
      </trkpt>
      <trkpt lat="45.95031" lon="4.86924">
        <ele>276</ele>
        <time>2017-06-10T08:44:37Z</time>
      </trkpt>
      <trkpt lat="45.95035" lon="4.86936">
        <ele>276</ele>
        <time>2017-06-10T08:44:39Z</time>
      </trkpt>
      <trkpt lat="45.95036" lon="4.86942">
        <ele>276</ele>
        <time>2017-06-10T08:44:40Z</time>
      </trkpt>
      <trkpt lat="45.95041" lon="4.86952">
        <ele>276</ele>
        <time>2017-06-10T08:44:42Z</time>
      </trkpt>
      <trkpt lat="45.95043" lon="4.86959">
        <ele>276</ele>
        <time>2017-06-10T08:44:43Z</time>
      </trkpt>
      <trkpt lat="45.95045" lon="4.86965">
        <ele>276</ele>
        <time>2017-06-10T08:44:44Z</time>
      </trkpt>
      <trkpt lat="45.95046" lon="4.86972">
        <ele>276</ele>
        <time>2017-06-10T08:44:45Z</time>
      </trkpt>
      <trkpt lat="45.95049" lon="4.86978">
        <ele>276</ele>
        <time>2017-06-10T08:44:46Z</time>
      </trkpt>
      <trkpt lat="45.95051" lon="4.86984">
        <ele>276</ele>
        <time>2017-06-10T08:44:47Z</time>
      </trkpt>
      <trkpt lat="45.95054" lon="4.86991">
        <ele>276</ele>
        <time>2017-06-10T08:44:48Z</time>
      </trkpt>
      <trkpt lat="45.95056" lon="4.86996">
        <ele>276</ele>
        <time>2017-06-10T08:44:49Z</time>
      </trkpt>
      <trkpt lat="45.95061" lon="4.87007">
        <ele>277</ele>
        <time>2017-06-10T08:44:51Z</time>
      </trkpt>
      <trkpt lat="45.95063" lon="4.87012">
        <ele>277</ele>
        <time>2017-06-10T08:44:52Z</time>
      </trkpt>
      <trkpt lat="45.95068" lon="4.87022">
        <ele>277</ele>
        <time>2017-06-10T08:44:54Z</time>
      </trkpt>
      <trkpt lat="45.95071" lon="4.87027">
        <ele>277</ele>
        <time>2017-06-10T08:44:55Z</time>
      </trkpt>
      <trkpt lat="45.95074" lon="4.87033">
        <ele>277</ele>
        <time>2017-06-10T08:44:56Z</time>
      </trkpt>
      <trkpt lat="45.95077" lon="4.87039">
        <ele>277</ele>
        <time>2017-06-10T08:44:57Z</time>
      </trkpt>
      <trkpt lat="45.95081" lon="4.87047">
        <ele>277</ele>
        <time>2017-06-10T08:44:58Z</time>
      </trkpt>
      <trkpt lat="45.95084" lon="4.87054">
        <ele>277</ele>
        <time>2017-06-10T08:44:59Z</time>
      </trkpt>
      <trkpt lat="45.95087" lon="4.8706">
        <ele>277</ele>
        <time>2017-06-10T08:45:00Z</time>
      </trkpt>
      <trkpt lat="45.9509" lon="4.87067">
        <ele>277</ele>
        <time>2017-06-10T08:45:01Z</time>
      </trkpt>
      <trkpt lat="45.95093" lon="4.87075">
        <ele>277</ele>
        <time>2017-06-10T08:45:02Z</time>
      </trkpt>
      <trkpt lat="45.95096" lon="4.87082">
        <ele>277</ele>
        <time>2017-06-10T08:45:03Z</time>
      </trkpt>
      <trkpt lat="45.95099" lon="4.87089">
        <ele>277</ele>
        <time>2017-06-10T08:45:04Z</time>
      </trkpt>
      <trkpt lat="45.95102" lon="4.87095">
        <ele>277</ele>
        <time>2017-06-10T08:45:05Z</time>
      </trkpt>
      <trkpt lat="45.95104" lon="4.87102">
        <ele>277</ele>
        <time>2017-06-10T08:45:06Z</time>
      </trkpt>
      <trkpt lat="45.95107" lon="4.87109">
        <ele>277</ele>
        <time>2017-06-10T08:45:07Z</time>
      </trkpt>
      <trkpt lat="45.95109" lon="4.87115">
        <ele>277</ele>
        <time>2017-06-10T08:45:08Z</time>
      </trkpt>
      <trkpt lat="45.9511" lon="4.87122">
        <ele>277</ele>
        <time>2017-06-10T08:45:09Z</time>
      </trkpt>
      <trkpt lat="45.95112" lon="4.87129">
        <ele>277</ele>
        <time>2017-06-10T08:45:10Z</time>
      </trkpt>
      <trkpt lat="45.95114" lon="4.87136">
        <ele>277</ele>
        <time>2017-06-10T08:45:11Z</time>
      </trkpt>
      <trkpt lat="45.95116" lon="4.87143">
        <ele>277</ele>
        <time>2017-06-10T08:45:12Z</time>
      </trkpt>
      <trkpt lat="45.95118" lon="4.8715">
        <ele>277</ele>
        <time>2017-06-10T08:45:13Z</time>
      </trkpt>
      <trkpt lat="45.95119" lon="4.87158">
        <ele>277</ele>
        <time>2017-06-10T08:45:14Z</time>
      </trkpt>
      <trkpt lat="45.95121" lon="4.87167">
        <ele>277</ele>
        <time>2017-06-10T08:45:15Z</time>
      </trkpt>
      <trkpt lat="45.95122" lon="4.87175">
        <ele>276</ele>
        <time>2017-06-10T08:45:16Z</time>
      </trkpt>
      <trkpt lat="45.95124" lon="4.87184">
        <ele>276</ele>
        <time>2017-06-10T08:45:17Z</time>
      </trkpt>
      <trkpt lat="45.95125" lon="4.87192">
        <ele>276</ele>
        <time>2017-06-10T08:45:18Z</time>
      </trkpt>
      <trkpt lat="45.95127" lon="4.87201">
        <ele>276</ele>
        <time>2017-06-10T08:45:19Z</time>
      </trkpt>
      <trkpt lat="45.95129" lon="4.87209">
        <ele>276</ele>
        <time>2017-06-10T08:45:20Z</time>
      </trkpt>
      <trkpt lat="45.95131" lon="4.87218">
        <ele>276</ele>
        <time>2017-06-10T08:45:21Z</time>
      </trkpt>
      <trkpt lat="45.95133" lon="4.87228">
        <ele>276</ele>
        <time>2017-06-10T08:45:22Z</time>
      </trkpt>
      <trkpt lat="45.95135" lon="4.87237">
        <ele>276</ele>
        <time>2017-06-10T08:45:23Z</time>
      </trkpt>
      <trkpt lat="45.95137" lon="4.87247">
        <ele>276</ele>
        <time>2017-06-10T08:45:24Z</time>
      </trkpt>
      <trkpt lat="45.95139" lon="4.87257">
        <ele>275</ele>
        <time>2017-06-10T08:45:25Z</time>
      </trkpt>
      <trkpt lat="45.95141" lon="4.87268">
        <ele>274</ele>
        <time>2017-06-10T08:45:26Z</time>
      </trkpt>
      <trkpt lat="45.95143" lon="4.87278">
        <ele>274</ele>
        <time>2017-06-10T08:45:27Z</time>
      </trkpt>
      <trkpt lat="45.95145" lon="4.87287">
        <ele>274</ele>
        <time>2017-06-10T08:45:28Z</time>
      </trkpt>
      <trkpt lat="45.95148" lon="4.87298">
        <ele>274</ele>
        <time>2017-06-10T08:45:29Z</time>
      </trkpt>
      <trkpt lat="45.95151" lon="4.87307">
        <ele>274</ele>
        <time>2017-06-10T08:45:30Z</time>
      </trkpt>
      <trkpt lat="45.95154" lon="4.87316">
        <ele>273</ele>
        <time>2017-06-10T08:45:31Z</time>
      </trkpt>
      <trkpt lat="45.95155" lon="4.87327">
        <ele>273</ele>
        <time>2017-06-10T08:45:32Z</time>
      </trkpt>
      <trkpt lat="45.95158" lon="4.87338">
        <ele>272</ele>
        <time>2017-06-10T08:45:33Z</time>
      </trkpt>
      <trkpt lat="45.9516" lon="4.87348">
        <ele>272</ele>
        <time>2017-06-10T08:45:34Z</time>
      </trkpt>
      <trkpt lat="45.95162" lon="4.87358">
        <ele>272</ele>
        <time>2017-06-10T08:45:35Z</time>
      </trkpt>
      <trkpt lat="45.95164" lon="4.87368">
        <ele>272</ele>
        <time>2017-06-10T08:45:36Z</time>
      </trkpt>
      <trkpt lat="45.95166" lon="4.87378">
        <ele>272</ele>
        <time>2017-06-10T08:45:37Z</time>
      </trkpt>
      <trkpt lat="45.95168" lon="4.87387">
        <ele>271</ele>
        <time>2017-06-10T08:45:38Z</time>
      </trkpt>
      <trkpt lat="45.95171" lon="4.87396">
        <ele>271</ele>
        <time>2017-06-10T08:45:39Z</time>
      </trkpt>
      <trkpt lat="45.95173" lon="4.87405">
        <ele>271</ele>
        <time>2017-06-10T08:45:40Z</time>
      </trkpt>
      <trkpt lat="45.95175" lon="4.87414">
        <ele>271</ele>
        <time>2017-06-10T08:45:41Z</time>
      </trkpt>
      <trkpt lat="45.95177" lon="4.87423">
        <ele>271</ele>
        <time>2017-06-10T08:45:42Z</time>
      </trkpt>
      <trkpt lat="45.95179" lon="4.87432">
        <ele>271</ele>
        <time>2017-06-10T08:45:43Z</time>
      </trkpt>
      <trkpt lat="45.95181" lon="4.87441">
        <ele>272</ele>
        <time>2017-06-10T08:45:44Z</time>
      </trkpt>
      <trkpt lat="45.95183" lon="4.8745">
        <ele>272</ele>
        <time>2017-06-10T08:45:45Z</time>
      </trkpt>
      <trkpt lat="45.95185" lon="4.87459">
        <ele>272</ele>
        <time>2017-06-10T08:45:46Z</time>
      </trkpt>
      <trkpt lat="45.95187" lon="4.87467">
        <ele>272</ele>
        <time>2017-06-10T08:45:47Z</time>
      </trkpt>
      <trkpt lat="45.95189" lon="4.87475">
        <ele>272</ele>
        <time>2017-06-10T08:45:48Z</time>
      </trkpt>
      <trkpt lat="45.95191" lon="4.87483">
        <ele>272</ele>
        <time>2017-06-10T08:45:49Z</time>
      </trkpt>
      <trkpt lat="45.95193" lon="4.87491">
        <ele>272</ele>
        <time>2017-06-10T08:45:50Z</time>
      </trkpt>
      <trkpt lat="45.95195" lon="4.87497">
        <ele>272</ele>
        <time>2017-06-10T08:45:51Z</time>
      </trkpt>
      <trkpt lat="45.95196" lon="4.87504">
        <ele>273</ele>
        <time>2017-06-10T08:45:52Z</time>
      </trkpt>
      <trkpt lat="45.95197" lon="4.87511">
        <ele>273</ele>
        <time>2017-06-10T08:45:53Z</time>
      </trkpt>
      <trkpt lat="45.95199" lon="4.87518">
        <ele>273</ele>
        <time>2017-06-10T08:45:54Z</time>
      </trkpt>
      <trkpt lat="45.952" lon="4.87525">
        <ele>274</ele>
        <time>2017-06-10T08:45:55Z</time>
      </trkpt>
      <trkpt lat="45.95202" lon="4.87532">
        <ele>274</ele>
        <time>2017-06-10T08:45:56Z</time>
      </trkpt>
      <trkpt lat="45.95203" lon="4.87539">
        <ele>274</ele>
        <time>2017-06-10T08:45:57Z</time>
      </trkpt>
      <trkpt lat="45.95204" lon="4.87547">
        <ele>274</ele>
        <time>2017-06-10T08:45:58Z</time>
      </trkpt>
      <trkpt lat="45.95205" lon="4.87555">
        <ele>274</ele>
        <time>2017-06-10T08:45:59Z</time>
      </trkpt>
      <trkpt lat="45.95204" lon="4.87562">
        <ele>274</ele>
        <time>2017-06-10T08:46:00Z</time>
      </trkpt>
      <trkpt lat="45.95204" lon="4.8757">
        <ele>274</ele>
        <time>2017-06-10T08:46:01Z</time>
      </trkpt>
      <trkpt lat="45.95205" lon="4.87578">
        <ele>274</ele>
        <time>2017-06-10T08:46:02Z</time>
      </trkpt>
      <trkpt lat="45.95205" lon="4.87586">
        <ele>276</ele>
        <time>2017-06-10T08:46:03Z</time>
      </trkpt>
      <trkpt lat="45.95206" lon="4.87592">
        <ele>276</ele>
        <time>2017-06-10T08:46:04Z</time>
      </trkpt>
      <trkpt lat="45.95207" lon="4.87599">
        <ele>276</ele>
        <time>2017-06-10T08:46:05Z</time>
      </trkpt>
      <trkpt lat="45.95208" lon="4.87606">
        <ele>276</ele>
        <time>2017-06-10T08:46:06Z</time>
      </trkpt>
      <trkpt lat="45.95209" lon="4.87613">
        <ele>276</ele>
        <time>2017-06-10T08:46:07Z</time>
      </trkpt>
      <trkpt lat="45.9521" lon="4.87619">
        <ele>276</ele>
        <time>2017-06-10T08:46:08Z</time>
      </trkpt>
      <trkpt lat="45.9521" lon="4.87626">
        <ele>276</ele>
        <time>2017-06-10T08:46:09Z</time>
      </trkpt>
      <trkpt lat="45.95211" lon="4.87638">
        <ele>276</ele>
        <time>2017-06-10T08:46:11Z</time>
      </trkpt>
      <trkpt lat="45.95212" lon="4.87645">
        <ele>276</ele>
        <time>2017-06-10T08:46:12Z</time>
      </trkpt>
      <trkpt lat="45.95213" lon="4.87651">
        <ele>276</ele>
        <time>2017-06-10T08:46:13Z</time>
      </trkpt>
      <trkpt lat="45.95214" lon="4.87657">
        <ele>277</ele>
        <time>2017-06-10T08:46:14Z</time>
      </trkpt>
      <trkpt lat="45.95216" lon="4.87664">
        <ele>277</ele>
        <time>2017-06-10T08:46:15Z</time>
      </trkpt>
      <trkpt lat="45.95217" lon="4.8767">
        <ele>279</ele>
        <time>2017-06-10T08:46:16Z</time>
      </trkpt>
      <trkpt lat="45.95218" lon="4.87683">
        <ele>279</ele>
        <time>2017-06-10T08:46:18Z</time>
      </trkpt>
      <trkpt lat="45.95219" lon="4.87689">
        <ele>279</ele>
        <time>2017-06-10T08:46:19Z</time>
      </trkpt>
      <trkpt lat="45.95221" lon="4.87701">
        <ele>279</ele>
        <time>2017-06-10T08:46:21Z</time>
      </trkpt>
      <trkpt lat="45.95222" lon="4.87707">
        <ele>279</ele>
        <time>2017-06-10T08:46:22Z</time>
      </trkpt>
      <trkpt lat="45.95224" lon="4.87718">
        <ele>279</ele>
        <time>2017-06-10T08:46:24Z</time>
      </trkpt>
      <trkpt lat="45.95225" lon="4.87724">
        <ele>280</ele>
        <time>2017-06-10T08:46:25Z</time>
      </trkpt>
      <trkpt lat="45.95227" lon="4.87735">
        <ele>280</ele>
        <time>2017-06-10T08:46:27Z</time>
      </trkpt>
      <trkpt lat="45.95228" lon="4.87741">
        <ele>280</ele>
        <time>2017-06-10T08:46:28Z</time>
      </trkpt>
      <trkpt lat="45.95229" lon="4.87747">
        <ele>280</ele>
        <time>2017-06-10T08:46:29Z</time>
      </trkpt>
      <trkpt lat="45.95231" lon="4.87755">
        <ele>281</ele>
        <time>2017-06-10T08:46:30Z</time>
      </trkpt>
      <trkpt lat="45.95233" lon="4.87762">
        <ele>282</ele>
        <time>2017-06-10T08:46:31Z</time>
      </trkpt>
      <trkpt lat="45.95234" lon="4.87768">
        <ele>282</ele>
        <time>2017-06-10T08:46:32Z</time>
      </trkpt>
      <trkpt lat="45.95236" lon="4.87775">
        <ele>282</ele>
        <time>2017-06-10T08:46:33Z</time>
      </trkpt>
      <trkpt lat="45.95237" lon="4.87781">
        <ele>282</ele>
        <time>2017-06-10T08:46:34Z</time>
      </trkpt>
      <trkpt lat="45.95238" lon="4.87788">
        <ele>282</ele>
        <time>2017-06-10T08:46:35Z</time>
      </trkpt>
      <trkpt lat="45.9524" lon="4.87794">
        <ele>282</ele>
        <time>2017-06-10T08:46:36Z</time>
      </trkpt>
      <trkpt lat="45.95241" lon="4.87806">
        <ele>282</ele>
        <time>2017-06-10T08:46:38Z</time>
      </trkpt>
      <trkpt lat="45.95241" lon="4.87812">
        <ele>282</ele>
        <time>2017-06-10T08:46:39Z</time>
      </trkpt>
      <trkpt lat="45.95243" lon="4.87824">
        <ele>282</ele>
        <time>2017-06-10T08:46:41Z</time>
      </trkpt>
      <trkpt lat="45.95244" lon="4.8783">
        <ele>282</ele>
        <time>2017-06-10T08:46:42Z</time>
      </trkpt>
      <trkpt lat="45.95245" lon="4.87842">
        <ele>283</ele>
        <time>2017-06-10T08:46:44Z</time>
      </trkpt>
      <trkpt lat="45.95246" lon="4.87848">
        <ele>283</ele>
        <time>2017-06-10T08:46:45Z</time>
      </trkpt>
      <trkpt lat="45.95249" lon="4.87859">
        <ele>283</ele>
        <time>2017-06-10T08:46:47Z</time>
      </trkpt>
      <trkpt lat="45.95251" lon="4.87865">
        <ele>281</ele>
        <time>2017-06-10T08:46:48Z</time>
      </trkpt>
      <trkpt lat="45.95252" lon="4.87872">
        <ele>281</ele>
        <time>2017-06-10T08:46:49Z</time>
      </trkpt>
      <trkpt lat="45.95253" lon="4.87878">
        <ele>281</ele>
        <time>2017-06-10T08:46:50Z</time>
      </trkpt>
      <trkpt lat="45.95255" lon="4.87884">
        <ele>281</ele>
        <time>2017-06-10T08:46:51Z</time>
      </trkpt>
      <trkpt lat="45.95256" lon="4.87891">
        <ele>281</ele>
        <time>2017-06-10T08:46:52Z</time>
      </trkpt>
      <trkpt lat="45.95257" lon="4.87898">
        <ele>281</ele>
        <time>2017-06-10T08:46:53Z</time>
      </trkpt>
      <trkpt lat="45.95258" lon="4.87904">
        <ele>281</ele>
        <time>2017-06-10T08:46:54Z</time>
      </trkpt>
      <trkpt lat="45.95258" lon="4.87911">
        <ele>282</ele>
        <time>2017-06-10T08:46:55Z</time>
      </trkpt>
      <trkpt lat="45.95258" lon="4.87918">
        <ele>282</ele>
        <time>2017-06-10T08:46:56Z</time>
      </trkpt>
      <trkpt lat="45.95257" lon="4.8793">
        <ele>281</ele>
        <time>2017-06-10T08:46:58Z</time>
      </trkpt>
      <trkpt lat="45.95256" lon="4.87935">
        <ele>281</ele>
        <time>2017-06-10T08:46:59Z</time>
      </trkpt>
      <trkpt lat="45.95254" lon="4.87942">
        <ele>280</ele>
        <time>2017-06-10T08:47:00Z</time>
      </trkpt>
      <trkpt lat="45.95252" lon="4.87949">
        <ele>280</ele>
        <time>2017-06-10T08:47:01Z</time>
      </trkpt>
      <trkpt lat="45.9525" lon="4.87955">
        <ele>282</ele>
        <time>2017-06-10T08:47:02Z</time>
      </trkpt>
      <trkpt lat="45.95247" lon="4.87961">
        <ele>282</ele>
        <time>2017-06-10T08:47:03Z</time>
      </trkpt>
      <trkpt lat="45.95244" lon="4.87966">
        <ele>282</ele>
        <time>2017-06-10T08:47:04Z</time>
      </trkpt>
      <trkpt lat="45.95241" lon="4.87972">
        <ele>282</ele>
        <time>2017-06-10T08:47:05Z</time>
      </trkpt>
      <trkpt lat="45.95237" lon="4.87978">
        <ele>282</ele>
        <time>2017-06-10T08:47:06Z</time>
      </trkpt>
      <trkpt lat="45.95234" lon="4.87984">
        <ele>282</ele>
        <time>2017-06-10T08:47:07Z</time>
      </trkpt>
      <trkpt lat="45.9523" lon="4.87989">
        <ele>281</ele>
        <time>2017-06-10T08:47:08Z</time>
      </trkpt>
      <trkpt lat="45.95226" lon="4.87995">
        <ele>282</ele>
        <time>2017-06-10T08:47:09Z</time>
      </trkpt>
      <trkpt lat="45.95223" lon="4.88">
        <ele>282</ele>
        <time>2017-06-10T08:47:10Z</time>
      </trkpt>
      <trkpt lat="45.95219" lon="4.88005">
        <ele>281</ele>
        <time>2017-06-10T08:47:11Z</time>
      </trkpt>
      <trkpt lat="45.95215" lon="4.88011">
        <ele>281</ele>
        <time>2017-06-10T08:47:12Z</time>
      </trkpt>
      <trkpt lat="45.95211" lon="4.88015">
        <ele>281</ele>
        <time>2017-06-10T08:47:13Z</time>
      </trkpt>
      <trkpt lat="45.95208" lon="4.88021">
        <ele>281</ele>
        <time>2017-06-10T08:47:14Z</time>
      </trkpt>
      <trkpt lat="45.95205" lon="4.88026">
        <ele>281</ele>
        <time>2017-06-10T08:47:15Z</time>
      </trkpt>
      <trkpt lat="45.95201" lon="4.88032">
        <ele>281</ele>
        <time>2017-06-10T08:47:16Z</time>
      </trkpt>
      <trkpt lat="45.95199" lon="4.88037">
        <ele>281</ele>
        <time>2017-06-10T08:47:17Z</time>
      </trkpt>
      <trkpt lat="45.95196" lon="4.88043">
        <ele>281</ele>
        <time>2017-06-10T08:47:18Z</time>
      </trkpt>
      <trkpt lat="45.95194" lon="4.88049">
        <ele>281</ele>
        <time>2017-06-10T08:47:19Z</time>
      </trkpt>
      <trkpt lat="45.95191" lon="4.88055">
        <ele>281</ele>
        <time>2017-06-10T08:47:20Z</time>
      </trkpt>
      <trkpt lat="45.95189" lon="4.88062">
        <ele>281</ele>
        <time>2017-06-10T08:47:21Z</time>
      </trkpt>
      <trkpt lat="45.95187" lon="4.88068">
        <ele>281</ele>
        <time>2017-06-10T08:47:22Z</time>
      </trkpt>
      <trkpt lat="45.95185" lon="4.88075">
        <ele>281</ele>
        <time>2017-06-10T08:47:23Z</time>
      </trkpt>
      <trkpt lat="45.95184" lon="4.88082">
        <ele>281</ele>
        <time>2017-06-10T08:47:24Z</time>
      </trkpt>
      <trkpt lat="45.95182" lon="4.88088">
        <ele>282</ele>
        <time>2017-06-10T08:47:25Z</time>
      </trkpt>
      <trkpt lat="45.95181" lon="4.88094">
        <ele>282</ele>
        <time>2017-06-10T08:47:26Z</time>
      </trkpt>
      <trkpt lat="45.9518" lon="4.88101">
        <ele>282</ele>
        <time>2017-06-10T08:47:27Z</time>
      </trkpt>
      <trkpt lat="45.95177" lon="4.88113">
        <ele>282</ele>
        <time>2017-06-10T08:47:29Z</time>
      </trkpt>
      <trkpt lat="45.95175" lon="4.88119">
        <ele>282</ele>
        <time>2017-06-10T08:47:30Z</time>
      </trkpt>
      <trkpt lat="45.95173" lon="4.8813">
        <ele>283</ele>
        <time>2017-06-10T08:47:32Z</time>
      </trkpt>
      <trkpt lat="45.95172" lon="4.88135">
        <ele>283</ele>
        <time>2017-06-10T08:47:33Z</time>
      </trkpt>
      <trkpt lat="45.95169" lon="4.88145">
        <ele>283</ele>
        <time>2017-06-10T08:47:35Z</time>
      </trkpt>
      <trkpt lat="45.95168" lon="4.8815">
        <ele>283</ele>
        <time>2017-06-10T08:47:36Z</time>
      </trkpt>
      <trkpt lat="45.95165" lon="4.8816">
        <ele>285</ele>
        <time>2017-06-10T08:47:41Z</time>
      </trkpt>
      <trkpt lat="45.95165" lon="4.88163">
        <ele>285</ele>
        <time>2017-06-10T08:47:42Z</time>
      </trkpt>
      <trkpt lat="45.95169" lon="4.88174">
        <ele>285</ele>
        <time>2017-06-10T08:47:47Z</time>
      </trkpt>
      <trkpt lat="45.95172" lon="4.88176">
        <ele>285</ele>
        <time>2017-06-10T08:47:48Z</time>
      </trkpt>
      <trkpt lat="45.95179" lon="4.88175">
        <ele>285</ele>
        <time>2017-06-10T08:47:50Z</time>
      </trkpt>
      <trkpt lat="45.95183" lon="4.88175">
        <ele>285</ele>
        <time>2017-06-10T08:47:51Z</time>
      </trkpt>
      <trkpt lat="45.95188" lon="4.88175">
        <ele>285</ele>
        <time>2017-06-10T08:47:52Z</time>
      </trkpt>
      <trkpt lat="45.95192" lon="4.88176">
        <ele>285</ele>
        <time>2017-06-10T08:47:53Z</time>
      </trkpt>
      <trkpt lat="45.95198" lon="4.88176">
        <ele>285</ele>
        <time>2017-06-10T08:47:54Z</time>
      </trkpt>
      <trkpt lat="45.95204" lon="4.88176">
        <ele>285</ele>
        <time>2017-06-10T08:47:55Z</time>
      </trkpt>
      <trkpt lat="45.95209" lon="4.88176">
        <ele>284</ele>
        <time>2017-06-10T08:47:56Z</time>
      </trkpt>
      <trkpt lat="45.95214" lon="4.88176">
        <ele>284</ele>
        <time>2017-06-10T08:47:57Z</time>
      </trkpt>
      <trkpt lat="45.9522" lon="4.88175">
        <ele>284</ele>
        <time>2017-06-10T08:47:58Z</time>
      </trkpt>
      <trkpt lat="45.95226" lon="4.88175">
        <ele>284</ele>
        <time>2017-06-10T08:47:59Z</time>
      </trkpt>
      <trkpt lat="45.95233" lon="4.88175">
        <ele>283</ele>
        <time>2017-06-10T08:48:00Z</time>
      </trkpt>
      <trkpt lat="45.95239" lon="4.88175">
        <ele>283</ele>
        <time>2017-06-10T08:48:01Z</time>
      </trkpt>
      <trkpt lat="45.95246" lon="4.88175">
        <ele>282</ele>
        <time>2017-06-10T08:48:02Z</time>
      </trkpt>
      <trkpt lat="45.95253" lon="4.88175">
        <ele>281</ele>
        <time>2017-06-10T08:48:03Z</time>
      </trkpt>
      <trkpt lat="45.9526" lon="4.88176">
        <ele>281</ele>
        <time>2017-06-10T08:48:04Z</time>
      </trkpt>
      <trkpt lat="45.95268" lon="4.88176">
        <ele>281</ele>
        <time>2017-06-10T08:48:05Z</time>
      </trkpt>
      <trkpt lat="45.95275" lon="4.88177">
        <ele>281</ele>
        <time>2017-06-10T08:48:06Z</time>
      </trkpt>
      <trkpt lat="45.95282" lon="4.88178">
        <ele>281</ele>
        <time>2017-06-10T08:48:07Z</time>
      </trkpt>
      <trkpt lat="45.9529" lon="4.88179">
        <ele>281</ele>
        <time>2017-06-10T08:48:08Z</time>
      </trkpt>
      <trkpt lat="45.95298" lon="4.8818">
        <ele>281</ele>
        <time>2017-06-10T08:48:09Z</time>
      </trkpt>
      <trkpt lat="45.95305" lon="4.88181">
        <ele>281</ele>
        <time>2017-06-10T08:48:10Z</time>
      </trkpt>
      <trkpt lat="45.95313" lon="4.88182">
        <ele>280</ele>
        <time>2017-06-10T08:48:11Z</time>
      </trkpt>
      <trkpt lat="45.95321" lon="4.88182">
        <ele>280</ele>
        <time>2017-06-10T08:48:12Z</time>
      </trkpt>
      <trkpt lat="45.9533" lon="4.88182">
        <ele>280</ele>
        <time>2017-06-10T08:48:13Z</time>
      </trkpt>
      <trkpt lat="45.95338" lon="4.88181">
        <ele>278</ele>
        <time>2017-06-10T08:48:14Z</time>
      </trkpt>
      <trkpt lat="45.95345" lon="4.8818">
        <ele>278</ele>
        <time>2017-06-10T08:48:15Z</time>
      </trkpt>
      <trkpt lat="45.95353" lon="4.88179">
        <ele>278</ele>
        <time>2017-06-10T08:48:16Z</time>
      </trkpt>
      <trkpt lat="45.95361" lon="4.88178">
        <ele>278</ele>
        <time>2017-06-10T08:48:17Z</time>
      </trkpt>
      <trkpt lat="45.95368" lon="4.88176">
        <ele>278</ele>
        <time>2017-06-10T08:48:18Z</time>
      </trkpt>
      <trkpt lat="45.95375" lon="4.88174">
        <ele>278</ele>
        <time>2017-06-10T08:48:19Z</time>
      </trkpt>
      <trkpt lat="45.95383" lon="4.88171">
        <ele>278</ele>
        <time>2017-06-10T08:48:20Z</time>
      </trkpt>
      <trkpt lat="45.9539" lon="4.88169">
        <ele>278</ele>
        <time>2017-06-10T08:48:21Z</time>
      </trkpt>
      <trkpt lat="45.95397" lon="4.88166">
        <ele>276</ele>
        <time>2017-06-10T08:48:22Z</time>
      </trkpt>
      <trkpt lat="45.95405" lon="4.88163">
        <ele>276</ele>
        <time>2017-06-10T08:48:23Z</time>
      </trkpt>
      <trkpt lat="45.95412" lon="4.8816">
        <ele>276</ele>
        <time>2017-06-10T08:48:24Z</time>
      </trkpt>
      <trkpt lat="45.95419" lon="4.88157">
        <ele>276</ele>
        <time>2017-06-10T08:48:25Z</time>
      </trkpt>
      <trkpt lat="45.95425" lon="4.88154">
        <ele>276</ele>
        <time>2017-06-10T08:48:26Z</time>
      </trkpt>
      <trkpt lat="45.95431" lon="4.88152">
        <ele>276</ele>
        <time>2017-06-10T08:48:27Z</time>
      </trkpt>
      <trkpt lat="45.95438" lon="4.88149">
        <ele>276</ele>
        <time>2017-06-10T08:48:28Z</time>
      </trkpt>
      <trkpt lat="45.95443" lon="4.88146">
        <ele>276</ele>
        <time>2017-06-10T08:48:29Z</time>
      </trkpt>
      <trkpt lat="45.95449" lon="4.88144">
        <ele>276</ele>
        <time>2017-06-10T08:48:30Z</time>
      </trkpt>
      <trkpt lat="45.95454" lon="4.88142">
        <ele>276</ele>
        <time>2017-06-10T08:48:31Z</time>
      </trkpt>
      <trkpt lat="45.95459" lon="4.8814">
        <ele>276</ele>
        <time>2017-06-10T08:48:32Z</time>
      </trkpt>
      <trkpt lat="45.95464" lon="4.88137">
        <ele>276</ele>
        <time>2017-06-10T08:48:33Z</time>
      </trkpt>
      <trkpt lat="45.95469" lon="4.88136">
        <ele>276</ele>
        <time>2017-06-10T08:48:34Z</time>
      </trkpt>
      <trkpt lat="45.95475" lon="4.88133">
        <ele>276</ele>
        <time>2017-06-10T08:48:35Z</time>
      </trkpt>
      <trkpt lat="45.95479" lon="4.88131">
        <ele>276</ele>
        <time>2017-06-10T08:48:36Z</time>
      </trkpt>
      <trkpt lat="45.95484" lon="4.88129">
        <ele>276</ele>
        <time>2017-06-10T08:48:37Z</time>
      </trkpt>
      <trkpt lat="45.95489" lon="4.88127">
        <ele>276</ele>
        <time>2017-06-10T08:48:38Z</time>
      </trkpt>
      <trkpt lat="45.95494" lon="4.88124">
        <ele>276</ele>
        <time>2017-06-10T08:48:39Z</time>
      </trkpt>
      <trkpt lat="45.95499" lon="4.88122">
        <ele>276</ele>
        <time>2017-06-10T08:48:40Z</time>
      </trkpt>
      <trkpt lat="45.95504" lon="4.88118">
        <ele>276</ele>
        <time>2017-06-10T08:48:41Z</time>
      </trkpt>
      <trkpt lat="45.9551" lon="4.88115">
        <ele>276</ele>
        <time>2017-06-10T08:48:42Z</time>
      </trkpt>
      <trkpt lat="45.95515" lon="4.88112">
        <ele>276</ele>
        <time>2017-06-10T08:48:43Z</time>
      </trkpt>
      <trkpt lat="45.95521" lon="4.88109">
        <ele>277</ele>
        <time>2017-06-10T08:48:44Z</time>
      </trkpt>
      <trkpt lat="45.95527" lon="4.88107">
        <ele>277</ele>
        <time>2017-06-10T08:48:45Z</time>
      </trkpt>
      <trkpt lat="45.95533" lon="4.88104">
        <ele>277</ele>
        <time>2017-06-10T08:48:46Z</time>
      </trkpt>
      <trkpt lat="45.95539" lon="4.88101">
        <ele>277</ele>
        <time>2017-06-10T08:48:47Z</time>
      </trkpt>
      <trkpt lat="45.95544" lon="4.88099">
        <ele>277</ele>
        <time>2017-06-10T08:48:48Z</time>
      </trkpt>
      <trkpt lat="45.95549" lon="4.88097">
        <ele>277</ele>
        <time>2017-06-10T08:48:49Z</time>
      </trkpt>
      <trkpt lat="45.95554" lon="4.88094">
        <ele>277</ele>
        <time>2017-06-10T08:48:50Z</time>
      </trkpt>
      <trkpt lat="45.95559" lon="4.88092">
        <ele>277</ele>
        <time>2017-06-10T08:48:51Z</time>
      </trkpt>
      <trkpt lat="45.95567" lon="4.88088">
        <ele>277</ele>
        <time>2017-06-10T08:48:53Z</time>
      </trkpt>
      <trkpt lat="45.95571" lon="4.88085">
        <ele>277</ele>
        <time>2017-06-10T08:48:54Z</time>
      </trkpt>
      <trkpt lat="45.95579" lon="4.88079">
        <ele>277</ele>
        <time>2017-06-10T08:48:56Z</time>
      </trkpt>
      <trkpt lat="45.95583" lon="4.88076">
        <ele>277</ele>
        <time>2017-06-10T08:48:57Z</time>
      </trkpt>
      <trkpt lat="45.95587" lon="4.88073">
        <ele>277</ele>
        <time>2017-06-10T08:48:58Z</time>
      </trkpt>
      <trkpt lat="45.95591" lon="4.88069">
        <ele>278</ele>
        <time>2017-06-10T08:48:59Z</time>
      </trkpt>
      <trkpt lat="45.95595" lon="4.88066">
        <ele>278</ele>
        <time>2017-06-10T08:49:00Z</time>
      </trkpt>
      <trkpt lat="45.95599" lon="4.88062">
        <ele>278</ele>
        <time>2017-06-10T08:49:01Z</time>
      </trkpt>
      <trkpt lat="45.95603" lon="4.88059">
        <ele>278</ele>
        <time>2017-06-10T08:49:02Z</time>
      </trkpt>
      <trkpt lat="45.95607" lon="4.88055">
        <ele>278</ele>
        <time>2017-06-10T08:49:03Z</time>
      </trkpt>
      <trkpt lat="45.95614" lon="4.88048">
        <ele>278</ele>
        <time>2017-06-10T08:49:05Z</time>
      </trkpt>
      <trkpt lat="45.95618" lon="4.88044">
        <ele>278</ele>
        <time>2017-06-10T08:49:06Z</time>
      </trkpt>
      <trkpt lat="45.95622" lon="4.8804">
        <ele>278</ele>
        <time>2017-06-10T08:49:07Z</time>
      </trkpt>
      <trkpt lat="45.95626" lon="4.88035">
        <ele>279</ele>
        <time>2017-06-10T08:49:08Z</time>
      </trkpt>
      <trkpt lat="45.95631" lon="4.88031">
        <ele>279</ele>
        <time>2017-06-10T08:49:09Z</time>
      </trkpt>
      <trkpt lat="45.95636" lon="4.88027">
        <ele>279</ele>
        <time>2017-06-10T08:49:10Z</time>
      </trkpt>
      <trkpt lat="45.9564" lon="4.88022">
        <ele>279</ele>
        <time>2017-06-10T08:49:11Z</time>
      </trkpt>
      <trkpt lat="45.95644" lon="4.88018">
        <ele>279</ele>
        <time>2017-06-10T08:49:12Z</time>
      </trkpt>
      <trkpt lat="45.95652" lon="4.88011">
        <ele>280</ele>
        <time>2017-06-10T08:49:14Z</time>
      </trkpt>
      <trkpt lat="45.95655" lon="4.88008">
        <ele>280</ele>
        <time>2017-06-10T08:49:15Z</time>
      </trkpt>
      <trkpt lat="45.95662" lon="4.88002">
        <ele>281</ele>
        <time>2017-06-10T08:49:17Z</time>
      </trkpt>
      <trkpt lat="45.95666" lon="4.87999">
        <ele>281</ele>
        <time>2017-06-10T08:49:18Z</time>
      </trkpt>
      <trkpt lat="45.95669" lon="4.87995">
        <ele>281</ele>
        <time>2017-06-10T08:49:19Z</time>
      </trkpt>
      <trkpt lat="45.95673" lon="4.87991">
        <ele>282</ele>
        <time>2017-06-10T08:49:20Z</time>
      </trkpt>
      <trkpt lat="45.95677" lon="4.87987">
        <ele>282</ele>
        <time>2017-06-10T08:49:21Z</time>
      </trkpt>
      <trkpt lat="45.95681" lon="4.87983">
        <ele>282</ele>
        <time>2017-06-10T08:49:22Z</time>
      </trkpt>
      <trkpt lat="45.95685" lon="4.8798">
        <ele>282</ele>
        <time>2017-06-10T08:49:23Z</time>
      </trkpt>
      <trkpt lat="45.95689" lon="4.87976">
        <ele>282</ele>
        <time>2017-06-10T08:49:24Z</time>
      </trkpt>
      <trkpt lat="45.95696" lon="4.8797">
        <ele>282</ele>
        <time>2017-06-10T08:49:26Z</time>
      </trkpt>
      <trkpt lat="45.95699" lon="4.87967">
        <ele>283</ele>
        <time>2017-06-10T08:49:27Z</time>
      </trkpt>
      <trkpt lat="45.95707" lon="4.87961">
        <ele>283</ele>
        <time>2017-06-10T08:49:30Z</time>
      </trkpt>
      <trkpt lat="45.95709" lon="4.87959">
        <ele>283</ele>
        <time>2017-06-10T08:49:31Z</time>
      </trkpt>
      <trkpt lat="45.95716" lon="4.87951">
        <ele>283</ele>
        <time>2017-06-10T08:49:34Z</time>
      </trkpt>
      <trkpt lat="45.95719" lon="4.87949">
        <ele>283</ele>
        <time>2017-06-10T08:49:35Z</time>
      </trkpt>
      <trkpt lat="45.95726" lon="4.87944">
        <ele>283</ele>
        <time>2017-06-10T08:49:38Z</time>
      </trkpt>
      <trkpt lat="45.95729" lon="4.87942">
        <ele>283</ele>
        <time>2017-06-10T08:49:39Z</time>
      </trkpt>
      <trkpt lat="45.95735" lon="4.87938">
        <ele>284</ele>
        <time>2017-06-10T08:49:41Z</time>
      </trkpt>
      <trkpt lat="45.95738" lon="4.87936">
        <ele>284</ele>
        <time>2017-06-10T08:49:42Z</time>
      </trkpt>
      <trkpt lat="45.95744" lon="4.87932">
        <ele>284</ele>
        <time>2017-06-10T08:49:44Z</time>
      </trkpt>
      <trkpt lat="45.95747" lon="4.87929">
        <ele>284</ele>
        <time>2017-06-10T08:49:45Z</time>
      </trkpt>
      <trkpt lat="45.95754" lon="4.87924">
        <ele>286</ele>
        <time>2017-06-10T08:49:47Z</time>
      </trkpt>
      <trkpt lat="45.95757" lon="4.87922">
        <ele>286</ele>
        <time>2017-06-10T08:49:48Z</time>
      </trkpt>
      <trkpt lat="45.95763" lon="4.87918">
        <ele>286</ele>
        <time>2017-06-10T08:49:50Z</time>
      </trkpt>
      <trkpt lat="45.95766" lon="4.87917">
        <ele>286</ele>
        <time>2017-06-10T08:49:51Z</time>
      </trkpt>
      <trkpt lat="45.95774" lon="4.87911">
        <ele>286</ele>
        <time>2017-06-10T08:49:54Z</time>
      </trkpt>
      <trkpt lat="45.95776" lon="4.87909">
        <ele>286</ele>
        <time>2017-06-10T08:49:55Z</time>
      </trkpt>
      <trkpt lat="45.95782" lon="4.87904">
        <ele>286</ele>
        <time>2017-06-10T08:49:58Z</time>
      </trkpt>
      <trkpt lat="45.95785" lon="4.87902">
        <ele>286</ele>
        <time>2017-06-10T08:49:59Z</time>
      </trkpt>
      <trkpt lat="45.95792" lon="4.87899">
        <ele>286</ele>
        <time>2017-06-10T08:50:02Z</time>
      </trkpt>
      <trkpt lat="45.95794" lon="4.87897">
        <ele>287</ele>
        <time>2017-06-10T08:50:03Z</time>
      </trkpt>
      <trkpt lat="45.95802" lon="4.87893">
        <ele>287</ele>
        <time>2017-06-10T08:50:06Z</time>
      </trkpt>
      <trkpt lat="45.95805" lon="4.87892">
        <ele>287</ele>
        <time>2017-06-10T08:50:07Z</time>
      </trkpt>
      <trkpt lat="45.95813" lon="4.87889">
        <ele>287</ele>
        <time>2017-06-10T08:50:10Z</time>
      </trkpt>
      <trkpt lat="45.95817" lon="4.87889">
        <ele>287</ele>
        <time>2017-06-10T08:50:11Z</time>
      </trkpt>
      <trkpt lat="45.95825" lon="4.87886">
        <ele>287</ele>
        <time>2017-06-10T08:50:14Z</time>
      </trkpt>
      <trkpt lat="45.95827" lon="4.87886">
        <ele>287</ele>
        <time>2017-06-10T08:50:15Z</time>
      </trkpt>
      <trkpt lat="45.95834" lon="4.87884">
        <ele>289</ele>
        <time>2017-06-10T08:50:18Z</time>
      </trkpt>
      <trkpt lat="45.95837" lon="4.87882">
        <ele>289</ele>
        <time>2017-06-10T08:50:19Z</time>
      </trkpt>
      <trkpt lat="45.95842" lon="4.87874">
        <ele>289</ele>
        <time>2017-06-10T08:50:21Z</time>
      </trkpt>
      <trkpt lat="45.95845" lon="4.87869">
        <ele>289</ele>
        <time>2017-06-10T08:50:22Z</time>
      </trkpt>
      <trkpt lat="45.95852" lon="4.87862">
        <ele>289</ele>
        <time>2017-06-10T08:50:24Z</time>
      </trkpt>
      <trkpt lat="45.95855" lon="4.87859">
        <ele>289</ele>
        <time>2017-06-10T08:50:25Z</time>
      </trkpt>
      <trkpt lat="45.95861" lon="4.87852">
        <ele>289</ele>
        <time>2017-06-10T08:50:27Z</time>
      </trkpt>
      <trkpt lat="45.95864" lon="4.87848">
        <ele>289</ele>
        <time>2017-06-10T08:50:28Z</time>
      </trkpt>
      <trkpt lat="45.95869" lon="4.87842">
        <ele>289</ele>
        <time>2017-06-10T08:50:30Z</time>
      </trkpt>
      <trkpt lat="45.95872" lon="4.87839">
        <ele>289</ele>
        <time>2017-06-10T08:50:31Z</time>
      </trkpt>
      <trkpt lat="45.95879" lon="4.87832">
        <ele>288</ele>
        <time>2017-06-10T08:50:33Z</time>
      </trkpt>
      <trkpt lat="45.95882" lon="4.87829">
        <ele>288</ele>
        <time>2017-06-10T08:50:34Z</time>
      </trkpt>
      <trkpt lat="45.95888" lon="4.87821">
        <ele>288</ele>
        <time>2017-06-10T08:50:36Z</time>
      </trkpt>
      <trkpt lat="45.95891" lon="4.87818">
        <ele>288</ele>
        <time>2017-06-10T08:50:37Z</time>
      </trkpt>
      <trkpt lat="45.95896" lon="4.8781">
        <ele>288</ele>
        <time>2017-06-10T08:50:39Z</time>
      </trkpt>
      <trkpt lat="45.95899" lon="4.87805">
        <ele>288</ele>
        <time>2017-06-10T08:50:40Z</time>
      </trkpt>
      <trkpt lat="45.95905" lon="4.87797">
        <ele>288</ele>
        <time>2017-06-10T08:50:42Z</time>
      </trkpt>
      <trkpt lat="45.95908" lon="4.87793">
        <ele>288</ele>
        <time>2017-06-10T08:50:43Z</time>
      </trkpt>
      <trkpt lat="45.95913" lon="4.87784">
        <ele>288</ele>
        <time>2017-06-10T08:50:45Z</time>
      </trkpt>
      <trkpt lat="45.95916" lon="4.8778">
        <ele>288</ele>
        <time>2017-06-10T08:50:46Z</time>
      </trkpt>
      <trkpt lat="45.9592" lon="4.87773">
        <ele>289</ele>
        <time>2017-06-10T08:50:48Z</time>
      </trkpt>
      <trkpt lat="45.95922" lon="4.8777">
        <ele>289</ele>
        <time>2017-06-10T08:50:49Z</time>
      </trkpt>
      <trkpt lat="45.95927" lon="4.87762">
        <ele>288</ele>
        <time>2017-06-10T08:50:51Z</time>
      </trkpt>
      <trkpt lat="45.9593" lon="4.87759">
        <ele>288</ele>
        <time>2017-06-10T08:50:52Z</time>
      </trkpt>
      <trkpt lat="45.95935" lon="4.87751">
        <ele>289</ele>
        <time>2017-06-10T08:50:54Z</time>
      </trkpt>
      <trkpt lat="45.95938" lon="4.87746">
        <ele>288</ele>
        <time>2017-06-10T08:50:55Z</time>
      </trkpt>
      <trkpt lat="45.95944" lon="4.87736">
        <ele>289</ele>
        <time>2017-06-10T08:50:57Z</time>
      </trkpt>
      <trkpt lat="45.95947" lon="4.87732">
        <ele>289</ele>
        <time>2017-06-10T08:50:58Z</time>
      </trkpt>
      <trkpt lat="45.9595" lon="4.87727">
        <ele>289</ele>
        <time>2017-06-10T08:50:59Z</time>
      </trkpt>
      <trkpt lat="45.95953" lon="4.87722">
        <ele>289</ele>
        <time>2017-06-10T08:51:00Z</time>
      </trkpt>
      <trkpt lat="45.95956" lon="4.87718">
        <ele>289</ele>
        <time>2017-06-10T08:51:01Z</time>
      </trkpt>
      <trkpt lat="45.9596" lon="4.87713">
        <ele>289</ele>
        <time>2017-06-10T08:51:02Z</time>
      </trkpt>
      <trkpt lat="45.95963" lon="4.87709">
        <ele>289</ele>
        <time>2017-06-10T08:51:03Z</time>
      </trkpt>
      <trkpt lat="45.95967" lon="4.87705">
        <ele>289</ele>
        <time>2017-06-10T08:51:04Z</time>
      </trkpt>
      <trkpt lat="45.9597" lon="4.87701">
        <ele>289</ele>
        <time>2017-06-10T08:51:05Z</time>
      </trkpt>
      <trkpt lat="45.95974" lon="4.87696">
        <ele>289</ele>
        <time>2017-06-10T08:51:06Z</time>
      </trkpt>
      <trkpt lat="45.95981" lon="4.87689">
        <ele>289</ele>
        <time>2017-06-10T08:51:08Z</time>
      </trkpt>
      <trkpt lat="45.95984" lon="4.87685">
        <ele>289</ele>
        <time>2017-06-10T08:51:09Z</time>
      </trkpt>
      <trkpt lat="45.95991" lon="4.87677">
        <ele>289</ele>
        <time>2017-06-10T08:51:11Z</time>
      </trkpt>
      <trkpt lat="45.95994" lon="4.87673">
        <ele>290</ele>
        <time>2017-06-10T08:51:12Z</time>
      </trkpt>
      <trkpt lat="45.95998" lon="4.87669">
        <ele>290</ele>
        <time>2017-06-10T08:51:13Z</time>
      </trkpt>
      <trkpt lat="45.96001" lon="4.87665">
        <ele>290</ele>
        <time>2017-06-10T08:51:14Z</time>
      </trkpt>
      <trkpt lat="45.96005" lon="4.87661">
        <ele>290</ele>
        <time>2017-06-10T08:51:15Z</time>
      </trkpt>
      <trkpt lat="45.96008" lon="4.87656">
        <ele>289</ele>
        <time>2017-06-10T08:51:16Z</time>
      </trkpt>
      <trkpt lat="45.96012" lon="4.87652">
        <ele>289</ele>
        <time>2017-06-10T08:51:17Z</time>
      </trkpt>
      <trkpt lat="45.96016" lon="4.87647">
        <ele>289</ele>
        <time>2017-06-10T08:51:18Z</time>
      </trkpt>
      <trkpt lat="45.96019" lon="4.87643">
        <ele>289</ele>
        <time>2017-06-10T08:51:19Z</time>
      </trkpt>
      <trkpt lat="45.96023" lon="4.87639">
        <ele>289</ele>
        <time>2017-06-10T08:51:20Z</time>
      </trkpt>
      <trkpt lat="45.96027" lon="4.87634">
        <ele>289</ele>
        <time>2017-06-10T08:51:21Z</time>
      </trkpt>
      <trkpt lat="45.9603" lon="4.8763">
        <ele>289</ele>
        <time>2017-06-10T08:51:22Z</time>
      </trkpt>
      <trkpt lat="45.96034" lon="4.87626">
        <ele>289</ele>
        <time>2017-06-10T08:51:23Z</time>
      </trkpt>
      <trkpt lat="45.96038" lon="4.87623">
        <ele>289</ele>
        <time>2017-06-10T08:51:24Z</time>
      </trkpt>
      <trkpt lat="45.96042" lon="4.87618">
        <ele>289</ele>
        <time>2017-06-10T08:51:25Z</time>
      </trkpt>
      <trkpt lat="45.96046" lon="4.87613">
        <ele>289</ele>
        <time>2017-06-10T08:51:26Z</time>
      </trkpt>
      <trkpt lat="45.9605" lon="4.87608">
        <ele>289</ele>
        <time>2017-06-10T08:51:27Z</time>
      </trkpt>
      <trkpt lat="45.96054" lon="4.87603">
        <ele>289</ele>
        <time>2017-06-10T08:51:28Z</time>
      </trkpt>
      <trkpt lat="45.96058" lon="4.87599">
        <ele>288</ele>
        <time>2017-06-10T08:51:29Z</time>
      </trkpt>
      <trkpt lat="45.96062" lon="4.87595">
        <ele>288</ele>
        <time>2017-06-10T08:51:30Z</time>
      </trkpt>
      <trkpt lat="45.96066" lon="4.8759">
        <ele>288</ele>
        <time>2017-06-10T08:51:31Z</time>
      </trkpt>
      <trkpt lat="45.9607" lon="4.87586">
        <ele>288</ele>
        <time>2017-06-10T08:51:32Z</time>
      </trkpt>
      <trkpt lat="45.96074" lon="4.87581">
        <ele>288</ele>
        <time>2017-06-10T08:51:33Z</time>
      </trkpt>
      <trkpt lat="45.96078" lon="4.87577">
        <ele>288</ele>
        <time>2017-06-10T08:51:34Z</time>
      </trkpt>
      <trkpt lat="45.96081" lon="4.87572">
        <ele>288</ele>
        <time>2017-06-10T08:51:35Z</time>
      </trkpt>
      <trkpt lat="45.96085" lon="4.87567">
        <ele>287</ele>
        <time>2017-06-10T08:51:36Z</time>
      </trkpt>
      <trkpt lat="45.96089" lon="4.87563">
        <ele>287</ele>
        <time>2017-06-10T08:51:37Z</time>
      </trkpt>
      <trkpt lat="45.96093" lon="4.87558">
        <ele>287</ele>
        <time>2017-06-10T08:51:38Z</time>
      </trkpt>
      <trkpt lat="45.96097" lon="4.87553">
        <ele>287</ele>
        <time>2017-06-10T08:51:39Z</time>
      </trkpt>
      <trkpt lat="45.96101" lon="4.87549">
        <ele>287</ele>
        <time>2017-06-10T08:51:40Z</time>
      </trkpt>
      <trkpt lat="45.96105" lon="4.87544">
        <ele>287</ele>
        <time>2017-06-10T08:51:41Z</time>
      </trkpt>
      <trkpt lat="45.9611" lon="4.87539">
        <ele>287</ele>
        <time>2017-06-10T08:51:42Z</time>
      </trkpt>
      <trkpt lat="45.96114" lon="4.87534">
        <ele>287</ele>
        <time>2017-06-10T08:51:43Z</time>
      </trkpt>
      <trkpt lat="45.96118" lon="4.87529">
        <ele>287</ele>
        <time>2017-06-10T08:51:44Z</time>
      </trkpt>
      <trkpt lat="45.96122" lon="4.87524">
        <ele>286</ele>
        <time>2017-06-10T08:51:45Z</time>
      </trkpt>
      <trkpt lat="45.96126" lon="4.87519">
        <ele>286</ele>
        <time>2017-06-10T08:51:46Z</time>
      </trkpt>
      <trkpt lat="45.9613" lon="4.87514">
        <ele>286</ele>
        <time>2017-06-10T08:51:47Z</time>
      </trkpt>
      <trkpt lat="45.96135" lon="4.87509">
        <ele>286</ele>
        <time>2017-06-10T08:51:48Z</time>
      </trkpt>
      <trkpt lat="45.96139" lon="4.87504">
        <ele>286</ele>
        <time>2017-06-10T08:51:49Z</time>
      </trkpt>
      <trkpt lat="45.96144" lon="4.87499">
        <ele>285</ele>
        <time>2017-06-10T08:51:50Z</time>
      </trkpt>
      <trkpt lat="45.96149" lon="4.87494">
        <ele>285</ele>
        <time>2017-06-10T08:51:51Z</time>
      </trkpt>
      <trkpt lat="45.96153" lon="4.87488">
        <ele>285</ele>
        <time>2017-06-10T08:51:52Z</time>
      </trkpt>
      <trkpt lat="45.96158" lon="4.87483">
        <ele>285</ele>
        <time>2017-06-10T08:51:53Z</time>
      </trkpt>
      <trkpt lat="45.96162" lon="4.87477">
        <ele>285</ele>
        <time>2017-06-10T08:51:54Z</time>
      </trkpt>
      <trkpt lat="45.96167" lon="4.87472">
        <ele>284</ele>
        <time>2017-06-10T08:51:55Z</time>
      </trkpt>
      <trkpt lat="45.96172" lon="4.87467">
        <ele>284</ele>
        <time>2017-06-10T08:51:56Z</time>
      </trkpt>
      <trkpt lat="45.96177" lon="4.87462">
        <ele>284</ele>
        <time>2017-06-10T08:51:57Z</time>
      </trkpt>
      <trkpt lat="45.96181" lon="4.87457">
        <ele>284</ele>
        <time>2017-06-10T08:51:58Z</time>
      </trkpt>
      <trkpt lat="45.96186" lon="4.87452">
        <ele>284</ele>
        <time>2017-06-10T08:51:59Z</time>
      </trkpt>
      <trkpt lat="45.96191" lon="4.87446">
        <ele>284</ele>
        <time>2017-06-10T08:52:00Z</time>
      </trkpt>
      <trkpt lat="45.96196" lon="4.87441">
        <ele>284</ele>
        <time>2017-06-10T08:52:01Z</time>
      </trkpt>
      <trkpt lat="45.96201" lon="4.87436">
        <ele>284</ele>
        <time>2017-06-10T08:52:02Z</time>
      </trkpt>
      <trkpt lat="45.96206" lon="4.8743">
        <ele>284</ele>
        <time>2017-06-10T08:52:03Z</time>
      </trkpt>
      <trkpt lat="45.9621" lon="4.87425">
        <ele>284</ele>
        <time>2017-06-10T08:52:04Z</time>
      </trkpt>
      <trkpt lat="45.96215" lon="4.8742">
        <ele>284</ele>
        <time>2017-06-10T08:52:05Z</time>
      </trkpt>
      <trkpt lat="45.96219" lon="4.87415">
        <ele>283</ele>
        <time>2017-06-10T08:52:06Z</time>
      </trkpt>
      <trkpt lat="45.96224" lon="4.8741">
        <ele>283</ele>
        <time>2017-06-10T08:52:07Z</time>
      </trkpt>
      <trkpt lat="45.96228" lon="4.87404">
        <ele>283</ele>
        <time>2017-06-10T08:52:08Z</time>
      </trkpt>
      <trkpt lat="45.96232" lon="4.87399">
        <ele>283</ele>
        <time>2017-06-10T08:52:09Z</time>
      </trkpt>
      <trkpt lat="45.96237" lon="4.87394">
        <ele>283</ele>
        <time>2017-06-10T08:52:10Z</time>
      </trkpt>
      <trkpt lat="45.96241" lon="4.87389">
        <ele>283</ele>
        <time>2017-06-10T08:52:11Z</time>
      </trkpt>
      <trkpt lat="45.96245" lon="4.87383">
        <ele>283</ele>
        <time>2017-06-10T08:52:12Z</time>
      </trkpt>
      <trkpt lat="45.96249" lon="4.87378">
        <ele>283</ele>
        <time>2017-06-10T08:52:13Z</time>
      </trkpt>
      <trkpt lat="45.96253" lon="4.87372">
        <ele>283</ele>
        <time>2017-06-10T08:52:14Z</time>
      </trkpt>
      <trkpt lat="45.96257" lon="4.87367">
        <ele>283</ele>
        <time>2017-06-10T08:52:15Z</time>
      </trkpt>
      <trkpt lat="45.96261" lon="4.87362">
        <ele>283</ele>
        <time>2017-06-10T08:52:16Z</time>
      </trkpt>
      <trkpt lat="45.96265" lon="4.87357">
        <ele>283</ele>
        <time>2017-06-10T08:52:17Z</time>
      </trkpt>
      <trkpt lat="45.9627" lon="4.87352">
        <ele>283</ele>
        <time>2017-06-10T08:52:18Z</time>
      </trkpt>
      <trkpt lat="45.96274" lon="4.87346">
        <ele>283</ele>
        <time>2017-06-10T08:52:19Z</time>
      </trkpt>
      <trkpt lat="45.96279" lon="4.8734">
        <ele>284</ele>
        <time>2017-06-10T08:52:20Z</time>
      </trkpt>
      <trkpt lat="45.96283" lon="4.87335">
        <ele>284</ele>
        <time>2017-06-10T08:52:21Z</time>
      </trkpt>
      <trkpt lat="45.96288" lon="4.87329">
        <ele>283</ele>
        <time>2017-06-10T08:52:22Z</time>
      </trkpt>
      <trkpt lat="45.96292" lon="4.87323">
        <ele>283</ele>
        <time>2017-06-10T08:52:23Z</time>
      </trkpt>
      <trkpt lat="45.96296" lon="4.87318">
        <ele>283</ele>
        <time>2017-06-10T08:52:24Z</time>
      </trkpt>
      <trkpt lat="45.963" lon="4.87313">
        <ele>283</ele>
        <time>2017-06-10T08:52:25Z</time>
      </trkpt>
      <trkpt lat="45.96304" lon="4.87308">
        <ele>283</ele>
        <time>2017-06-10T08:52:26Z</time>
      </trkpt>
      <trkpt lat="45.96308" lon="4.87303">
        <ele>283</ele>
        <time>2017-06-10T08:52:27Z</time>
      </trkpt>
      <trkpt lat="45.96311" lon="4.87297">
        <ele>283</ele>
        <time>2017-06-10T08:52:28Z</time>
      </trkpt>
      <trkpt lat="45.96315" lon="4.87293">
        <ele>283</ele>
        <time>2017-06-10T08:52:29Z</time>
      </trkpt>
      <trkpt lat="45.96319" lon="4.87288">
        <ele>283</ele>
        <time>2017-06-10T08:52:30Z</time>
      </trkpt>
      <trkpt lat="45.96322" lon="4.87284">
        <ele>283</ele>
        <time>2017-06-10T08:52:31Z</time>
      </trkpt>
      <trkpt lat="45.96326" lon="4.87279">
        <ele>283</ele>
        <time>2017-06-10T08:52:32Z</time>
      </trkpt>
      <trkpt lat="45.96329" lon="4.87275">
        <ele>283</ele>
        <time>2017-06-10T08:52:33Z</time>
      </trkpt>
      <trkpt lat="45.96333" lon="4.8727">
        <ele>283</ele>
        <time>2017-06-10T08:52:34Z</time>
      </trkpt>
      <trkpt lat="45.96337" lon="4.87264">
        <ele>283</ele>
        <time>2017-06-10T08:52:35Z</time>
      </trkpt>
      <trkpt lat="45.96341" lon="4.87258">
        <ele>283</ele>
        <time>2017-06-10T08:52:36Z</time>
      </trkpt>
      <trkpt lat="45.96345" lon="4.87253">
        <ele>283</ele>
        <time>2017-06-10T08:52:37Z</time>
      </trkpt>
      <trkpt lat="45.9635" lon="4.87249">
        <ele>283</ele>
        <time>2017-06-10T08:52:38Z</time>
      </trkpt>
      <trkpt lat="45.96354" lon="4.87243">
        <ele>282</ele>
        <time>2017-06-10T08:52:39Z</time>
      </trkpt>
      <trkpt lat="45.96358" lon="4.87238">
        <ele>282</ele>
        <time>2017-06-10T08:52:40Z</time>
      </trkpt>
      <trkpt lat="45.96361" lon="4.87232">
        <ele>282</ele>
        <time>2017-06-10T08:52:41Z</time>
      </trkpt>
      <trkpt lat="45.96365" lon="4.87227">
        <ele>282</ele>
        <time>2017-06-10T08:52:42Z</time>
      </trkpt>
      <trkpt lat="45.96369" lon="4.87223">
        <ele>282</ele>
        <time>2017-06-10T08:52:43Z</time>
      </trkpt>
      <trkpt lat="45.96373" lon="4.87217">
        <ele>282</ele>
        <time>2017-06-10T08:52:44Z</time>
      </trkpt>
      <trkpt lat="45.96377" lon="4.87212">
        <ele>282</ele>
        <time>2017-06-10T08:52:45Z</time>
      </trkpt>
      <trkpt lat="45.96381" lon="4.87207">
        <ele>282</ele>
        <time>2017-06-10T08:52:46Z</time>
      </trkpt>
      <trkpt lat="45.96385" lon="4.87202">
        <ele>282</ele>
        <time>2017-06-10T08:52:47Z</time>
      </trkpt>
      <trkpt lat="45.96389" lon="4.87197">
        <ele>282</ele>
        <time>2017-06-10T08:52:48Z</time>
      </trkpt>
      <trkpt lat="45.96392" lon="4.87192">
        <ele>282</ele>
        <time>2017-06-10T08:52:49Z</time>
      </trkpt>
      <trkpt lat="45.96396" lon="4.87187">
        <ele>282</ele>
        <time>2017-06-10T08:52:50Z</time>
      </trkpt>
      <trkpt lat="45.96401" lon="4.87182">
        <ele>282</ele>
        <time>2017-06-10T08:52:51Z</time>
      </trkpt>
      <trkpt lat="45.96405" lon="4.87176">
        <ele>281</ele>
        <time>2017-06-10T08:52:52Z</time>
      </trkpt>
      <trkpt lat="45.96409" lon="4.8717">
        <ele>281</ele>
        <time>2017-06-10T08:52:53Z</time>
      </trkpt>
      <trkpt lat="45.96412" lon="4.87165">
        <ele>281</ele>
        <time>2017-06-10T08:52:54Z</time>
      </trkpt>
      <trkpt lat="45.96416" lon="4.8716">
        <ele>281</ele>
        <time>2017-06-10T08:52:55Z</time>
      </trkpt>
      <trkpt lat="45.9642" lon="4.87155">
        <ele>281</ele>
        <time>2017-06-10T08:52:56Z</time>
      </trkpt>
      <trkpt lat="45.96424" lon="4.8715">
        <ele>281</ele>
        <time>2017-06-10T08:52:57Z</time>
      </trkpt>
      <trkpt lat="45.96428" lon="4.87145">
        <ele>281</ele>
        <time>2017-06-10T08:52:58Z</time>
      </trkpt>
      <trkpt lat="45.96431" lon="4.87141">
        <ele>281</ele>
        <time>2017-06-10T08:52:59Z</time>
      </trkpt>
      <trkpt lat="45.96435" lon="4.87136">
        <ele>281</ele>
        <time>2017-06-10T08:53:00Z</time>
      </trkpt>
      <trkpt lat="45.96441" lon="4.87128">
        <ele>281</ele>
        <time>2017-06-10T08:53:02Z</time>
      </trkpt>
      <trkpt lat="45.96445" lon="4.87123">
        <ele>281</ele>
        <time>2017-06-10T08:53:03Z</time>
      </trkpt>
      <trkpt lat="45.96449" lon="4.87118">
        <ele>281</ele>
        <time>2017-06-10T08:53:04Z</time>
      </trkpt>
      <trkpt lat="45.96452" lon="4.87114">
        <ele>281</ele>
        <time>2017-06-10T08:53:05Z</time>
      </trkpt>
      <trkpt lat="45.96455" lon="4.8711">
        <ele>281</ele>
        <time>2017-06-10T08:53:06Z</time>
      </trkpt>
      <trkpt lat="45.96459" lon="4.87105">
        <ele>282</ele>
        <time>2017-06-10T08:53:07Z</time>
      </trkpt>
      <trkpt lat="45.96465" lon="4.87097">
        <ele>282</ele>
        <time>2017-06-10T08:53:09Z</time>
      </trkpt>
      <trkpt lat="45.96469" lon="4.87093">
        <ele>282</ele>
        <time>2017-06-10T08:53:10Z</time>
      </trkpt>
      <trkpt lat="45.96474" lon="4.87085">
        <ele>282</ele>
        <time>2017-06-10T08:53:12Z</time>
      </trkpt>
      <trkpt lat="45.96477" lon="4.87081">
        <ele>282</ele>
        <time>2017-06-10T08:53:13Z</time>
      </trkpt>
      <trkpt lat="45.96483" lon="4.87074">
        <ele>282</ele>
        <time>2017-06-10T08:53:15Z</time>
      </trkpt>
      <trkpt lat="45.96486" lon="4.8707">
        <ele>282</ele>
        <time>2017-06-10T08:53:16Z</time>
      </trkpt>
      <trkpt lat="45.96491" lon="4.87063">
        <ele>282</ele>
        <time>2017-06-10T08:53:18Z</time>
      </trkpt>
      <trkpt lat="45.96494" lon="4.87059">
        <ele>282</ele>
        <time>2017-06-10T08:53:19Z</time>
      </trkpt>
      <trkpt lat="45.96499" lon="4.87054">
        <ele>281</ele>
        <time>2017-06-10T08:53:21Z</time>
      </trkpt>
      <trkpt lat="45.96502" lon="4.87052">
        <ele>282</ele>
        <time>2017-06-10T08:53:22Z</time>
      </trkpt>
      <trkpt lat="45.96508" lon="4.87057">
        <ele>283</ele>
        <time>2017-06-10T08:53:25Z</time>
      </trkpt>
      <trkpt lat="45.9651" lon="4.87061">
        <ele>283</ele>
        <time>2017-06-10T08:53:26Z</time>
      </trkpt>
      <trkpt lat="45.96515" lon="4.87069">
        <ele>283</ele>
        <time>2017-06-10T08:53:28Z</time>
      </trkpt>
      <trkpt lat="45.96519" lon="4.87072">
        <ele>283</ele>
        <time>2017-06-10T08:53:29Z</time>
      </trkpt>
      <trkpt lat="45.96526" lon="4.87072">
        <ele>283</ele>
        <time>2017-06-10T08:53:31Z</time>
      </trkpt>
      <trkpt lat="45.96528" lon="4.87071">
        <ele>283</ele>
        <time>2017-06-10T08:53:32Z</time>
      </trkpt>
      <trkpt lat="45.96535" lon="4.87075">
        <ele>283</ele>
        <time>2017-06-10T08:53:38Z</time>
      </trkpt>
      <trkpt lat="45.96536" lon="4.87077">
        <ele>283</ele>
        <time>2017-06-10T08:53:39Z</time>
      </trkpt>
      <trkpt lat="45.96543" lon="4.8708">
        <ele>283</ele>
        <time>2017-06-10T08:53:43Z</time>
      </trkpt>
      <trkpt lat="45.96545" lon="4.87078">
        <ele>283</ele>
        <time>2017-06-10T08:53:44Z</time>
      </trkpt>
      <trkpt lat="45.96553" lon="4.87078">
        <ele>283</ele>
        <time>2017-06-10T08:53:47Z</time>
      </trkpt>
      <trkpt lat="45.96555" lon="4.87076">
        <ele>283</ele>
        <time>2017-06-10T08:53:48Z</time>
      </trkpt>
      <trkpt lat="45.96556" lon="4.87066">
        <ele>283</ele>
        <time>2017-06-10T08:53:51Z</time>
      </trkpt>
      <trkpt lat="45.96557" lon="4.8706">
        <ele>283</ele>
        <time>2017-06-10T08:53:52Z</time>
      </trkpt>
      <trkpt lat="45.96556" lon="4.8705">
        <ele>283</ele>
        <time>2017-06-10T08:53:54Z</time>
      </trkpt>
      <trkpt lat="45.96556" lon="4.87045">
        <ele>283</ele>
        <time>2017-06-10T08:53:55Z</time>
      </trkpt>
      <trkpt lat="45.96554" lon="4.87036">
        <ele>283</ele>
        <time>2017-06-10T08:53:57Z</time>
      </trkpt>
      <trkpt lat="45.96553" lon="4.87032">
        <ele>283</ele>
        <time>2017-06-10T08:53:58Z</time>
      </trkpt>
      <trkpt lat="45.96548" lon="4.87027">
        <ele>283</ele>
        <time>2017-06-10T08:54:07Z</time>
      </trkpt>
      <trkpt lat="45.96547" lon="4.87027">
        <ele>283</ele>
        <time>2017-06-10T08:54:08Z</time>
      </trkpt>
      <trkpt lat="45.96547" lon="4.87029">
        <ele>283</ele>
        <time>2017-06-10T08:54:12Z</time>
      </trkpt>
      <trkpt lat="45.96547" lon="4.87029">
        <ele>283</ele>
        <time>2017-06-10T08:54:13Z</time>
      </trkpt>
      <trkpt lat="45.9654" lon="4.87023">
        <ele>283</ele>
        <time>2017-06-10T09:00:38Z</time>
      </trkpt>
      <trkpt lat="45.96539" lon="4.87023">
        <ele>283</ele>
        <time>2017-06-10T09:00:39Z</time>
      </trkpt>
      <trkpt lat="45.96547" lon="4.87026">
        <ele>283</ele>
        <time>2017-06-10T09:01:05Z</time>
      </trkpt>
      <trkpt lat="45.96548" lon="4.87027">
        <ele>283</ele>
        <time>2017-06-10T09:01:06Z</time>
      </trkpt>
      <trkpt lat="45.96548" lon="4.87015">
        <ele>283</ele>
        <time>2017-06-10T09:01:20Z</time>
      </trkpt>
      <trkpt lat="45.96547" lon="4.87011">
        <ele>283</ele>
        <time>2017-06-10T09:01:21Z</time>
      </trkpt>
      <trkpt lat="45.96546" lon="4.87002">
        <ele>283</ele>
        <time>2017-06-10T09:01:23Z</time>
      </trkpt>
      <trkpt lat="45.96546" lon="4.86998">
        <ele>283</ele>
        <time>2017-06-10T09:01:24Z</time>
      </trkpt>
      <trkpt lat="45.96548" lon="4.86988">
        <ele>283</ele>
        <time>2017-06-10T09:01:27Z</time>
      </trkpt>
      <trkpt lat="45.96549" lon="4.86985">
        <ele>283</ele>
        <time>2017-06-10T09:01:28Z</time>
      </trkpt>
      <trkpt lat="45.96555" lon="4.86978">
        <ele>283</ele>
        <time>2017-06-10T09:01:30Z</time>
      </trkpt>
      <trkpt lat="45.96557" lon="4.86975">
        <ele>283</ele>
        <time>2017-06-10T09:01:31Z</time>
      </trkpt>
      <trkpt lat="45.96562" lon="4.86966">
        <ele>283</ele>
        <time>2017-06-10T09:01:33Z</time>
      </trkpt>
      <trkpt lat="45.96565" lon="4.86961">
        <ele>284</ele>
        <time>2017-06-10T09:01:34Z</time>
      </trkpt>
      <trkpt lat="45.9657" lon="4.86953">
        <ele>284</ele>
        <time>2017-06-10T09:01:36Z</time>
      </trkpt>
      <trkpt lat="45.96573" lon="4.86949">
        <ele>284</ele>
        <time>2017-06-10T09:01:37Z</time>
      </trkpt>
      <trkpt lat="45.96577" lon="4.8694">
        <ele>284</ele>
        <time>2017-06-10T09:01:39Z</time>
      </trkpt>
      <trkpt lat="45.9658" lon="4.86936">
        <ele>284</ele>
        <time>2017-06-10T09:01:40Z</time>
      </trkpt>
      <trkpt lat="45.96585" lon="4.86927">
        <ele>285</ele>
        <time>2017-06-10T09:01:42Z</time>
      </trkpt>
      <trkpt lat="45.96588" lon="4.86923">
        <ele>285</ele>
        <time>2017-06-10T09:01:43Z</time>
      </trkpt>
      <trkpt lat="45.96593" lon="4.86914">
        <ele>286</ele>
        <time>2017-06-10T09:01:45Z</time>
      </trkpt>
      <trkpt lat="45.96595" lon="4.86911">
        <ele>286</ele>
        <time>2017-06-10T09:01:46Z</time>
      </trkpt>
      <trkpt lat="45.966" lon="4.86902">
        <ele>286</ele>
        <time>2017-06-10T09:01:48Z</time>
      </trkpt>
      <trkpt lat="45.96602" lon="4.86897">
        <ele>286</ele>
        <time>2017-06-10T09:01:49Z</time>
      </trkpt>
      <trkpt lat="45.96607" lon="4.86888">
        <ele>287</ele>
        <time>2017-06-10T09:01:51Z</time>
      </trkpt>
      <trkpt lat="45.9661" lon="4.86884">
        <ele>287</ele>
        <time>2017-06-10T09:01:52Z</time>
      </trkpt>
      <trkpt lat="45.96615" lon="4.86874">
        <ele>287</ele>
        <time>2017-06-10T09:01:54Z</time>
      </trkpt>
      <trkpt lat="45.96619" lon="4.86869">
        <ele>287</ele>
        <time>2017-06-10T09:01:55Z</time>
      </trkpt>
      <trkpt lat="45.96624" lon="4.86861">
        <ele>287</ele>
        <time>2017-06-10T09:01:57Z</time>
      </trkpt>
      <trkpt lat="45.96627" lon="4.86856">
        <ele>287</ele>
        <time>2017-06-10T09:01:58Z</time>
      </trkpt>
      <trkpt lat="45.96633" lon="4.86848">
        <ele>287</ele>
        <time>2017-06-10T09:02:00Z</time>
      </trkpt>
      <trkpt lat="45.96636" lon="4.86843">
        <ele>287</ele>
        <time>2017-06-10T09:02:01Z</time>
      </trkpt>
      <trkpt lat="45.96639" lon="4.86838">
        <ele>287</ele>
        <time>2017-06-10T09:02:02Z</time>
      </trkpt>
      <trkpt lat="45.96642" lon="4.86833">
        <ele>288</ele>
        <time>2017-06-10T09:02:03Z</time>
      </trkpt>
      <trkpt lat="45.96644" lon="4.86827">
        <ele>288</ele>
        <time>2017-06-10T09:02:04Z</time>
      </trkpt>
      <trkpt lat="45.96647" lon="4.86822">
        <ele>288</ele>
        <time>2017-06-10T09:02:05Z</time>
      </trkpt>
      <trkpt lat="45.96653" lon="4.86814">
        <ele>288</ele>
        <time>2017-06-10T09:02:07Z</time>
      </trkpt>
      <trkpt lat="45.96654" lon="4.8681">
        <ele>288</ele>
        <time>2017-06-10T09:02:08Z</time>
      </trkpt>
      <trkpt lat="45.96659" lon="4.86803">
        <ele>288</ele>
        <time>2017-06-10T09:02:10Z</time>
      </trkpt>
      <trkpt lat="45.96662" lon="4.86797">
        <ele>288</ele>
        <time>2017-06-10T09:02:11Z</time>
      </trkpt>
      <trkpt lat="45.96665" lon="4.86792">
        <ele>288</ele>
        <time>2017-06-10T09:02:12Z</time>
      </trkpt>
      <trkpt lat="45.96669" lon="4.86788">
        <ele>289</ele>
        <time>2017-06-10T09:02:13Z</time>
      </trkpt>
      <trkpt lat="45.96672" lon="4.86783">
        <ele>289</ele>
        <time>2017-06-10T09:02:14Z</time>
      </trkpt>
      <trkpt lat="45.96676" lon="4.86778">
        <ele>289</ele>
        <time>2017-06-10T09:02:15Z</time>
      </trkpt>
      <trkpt lat="45.9668" lon="4.86773">
        <ele>289</ele>
        <time>2017-06-10T09:02:16Z</time>
      </trkpt>
      <trkpt lat="45.96685" lon="4.86766">
        <ele>289</ele>
        <time>2017-06-10T09:02:17Z</time>
      </trkpt>
      <trkpt lat="45.9669" lon="4.86761">
        <ele>289</ele>
        <time>2017-06-10T09:02:18Z</time>
      </trkpt>
      <trkpt lat="45.96693" lon="4.86755">
        <ele>289</ele>
        <time>2017-06-10T09:02:19Z</time>
      </trkpt>
      <trkpt lat="45.96696" lon="4.8675">
        <ele>289</ele>
        <time>2017-06-10T09:02:20Z</time>
      </trkpt>
      <trkpt lat="45.96699" lon="4.86744">
        <ele>289</ele>
        <time>2017-06-10T09:02:21Z</time>
      </trkpt>
      <trkpt lat="45.96705" lon="4.86735">
        <ele>289</ele>
        <time>2017-06-10T09:02:23Z</time>
      </trkpt>
      <trkpt lat="45.96708" lon="4.8673">
        <ele>289</ele>
        <time>2017-06-10T09:02:24Z</time>
      </trkpt>
      <trkpt lat="45.96711" lon="4.86725">
        <ele>289</ele>
        <time>2017-06-10T09:02:25Z</time>
      </trkpt>
      <trkpt lat="45.96714" lon="4.8672">
        <ele>289</ele>
        <time>2017-06-10T09:02:26Z</time>
      </trkpt>
      <trkpt lat="45.96717" lon="4.86714">
        <ele>289</ele>
        <time>2017-06-10T09:02:27Z</time>
      </trkpt>
      <trkpt lat="45.9672" lon="4.86709">
        <ele>289</ele>
        <time>2017-06-10T09:02:28Z</time>
      </trkpt>
      <trkpt lat="45.96723" lon="4.86703">
        <ele>289</ele>
        <time>2017-06-10T09:02:29Z</time>
      </trkpt>
      <trkpt lat="45.96727" lon="4.86697">
        <ele>289</ele>
        <time>2017-06-10T09:02:30Z</time>
      </trkpt>
      <trkpt lat="45.9673" lon="4.86692">
        <ele>289</ele>
        <time>2017-06-10T09:02:31Z</time>
      </trkpt>
      <trkpt lat="45.96733" lon="4.86686">
        <ele>289</ele>
        <time>2017-06-10T09:02:32Z</time>
      </trkpt>
      <trkpt lat="45.96736" lon="4.86681">
        <ele>290</ele>
        <time>2017-06-10T09:02:33Z</time>
      </trkpt>
      <trkpt lat="45.96739" lon="4.86676">
        <ele>290</ele>
        <time>2017-06-10T09:02:34Z</time>
      </trkpt>
      <trkpt lat="45.96742" lon="4.86671">
        <ele>290</ele>
        <time>2017-06-10T09:02:35Z</time>
      </trkpt>
      <trkpt lat="45.96746" lon="4.86666">
        <ele>290</ele>
        <time>2017-06-10T09:02:36Z</time>
      </trkpt>
      <trkpt lat="45.96751" lon="4.86657">
        <ele>290</ele>
        <time>2017-06-10T09:02:38Z</time>
      </trkpt>
      <trkpt lat="45.96754" lon="4.86652">
        <ele>290</ele>
        <time>2017-06-10T09:02:39Z</time>
      </trkpt>
      <trkpt lat="45.96757" lon="4.86647">
        <ele>290</ele>
        <time>2017-06-10T09:02:40Z</time>
      </trkpt>
      <trkpt lat="45.9676" lon="4.86641">
        <ele>290</ele>
        <time>2017-06-10T09:02:41Z</time>
      </trkpt>
      <trkpt lat="45.96763" lon="4.86637">
        <ele>289</ele>
        <time>2017-06-10T09:02:42Z</time>
      </trkpt>
      <trkpt lat="45.96766" lon="4.86632">
        <ele>289</ele>
        <time>2017-06-10T09:02:43Z</time>
      </trkpt>
      <trkpt lat="45.96769" lon="4.86626">
        <ele>289</ele>
        <time>2017-06-10T09:02:44Z</time>
      </trkpt>
      <trkpt lat="45.96773" lon="4.86621">
        <ele>289</ele>
        <time>2017-06-10T09:02:45Z</time>
      </trkpt>
      <trkpt lat="45.96776" lon="4.86615">
        <ele>289</ele>
        <time>2017-06-10T09:02:46Z</time>
      </trkpt>
      <trkpt lat="45.96779" lon="4.86609">
        <ele>289</ele>
        <time>2017-06-10T09:02:47Z</time>
      </trkpt>
      <trkpt lat="45.96782" lon="4.86604">
        <ele>289</ele>
        <time>2017-06-10T09:02:48Z</time>
      </trkpt>
      <trkpt lat="45.96785" lon="4.86599">
        <ele>289</ele>
        <time>2017-06-10T09:02:49Z</time>
      </trkpt>
      <trkpt lat="45.9679" lon="4.86589">
        <ele>289</ele>
        <time>2017-06-10T09:02:51Z</time>
      </trkpt>
      <trkpt lat="45.96793" lon="4.86583">
        <ele>290</ele>
        <time>2017-06-10T09:02:52Z</time>
      </trkpt>
      <trkpt lat="45.96796" lon="4.86577">
        <ele>290</ele>
        <time>2017-06-10T09:02:53Z</time>
      </trkpt>
      <trkpt lat="45.968" lon="4.86571">
        <ele>290</ele>
        <time>2017-06-10T09:02:54Z</time>
      </trkpt>
      <trkpt lat="45.96803" lon="4.86566">
        <ele>290</ele>
        <time>2017-06-10T09:02:55Z</time>
      </trkpt>
      <trkpt lat="45.96806" lon="4.8656">
        <ele>290</ele>
        <time>2017-06-10T09:02:56Z</time>
      </trkpt>
      <trkpt lat="45.9681" lon="4.86554">
        <ele>290</ele>
        <time>2017-06-10T09:02:57Z</time>
      </trkpt>
      <trkpt lat="45.96813" lon="4.86549">
        <ele>290</ele>
        <time>2017-06-10T09:02:58Z</time>
      </trkpt>
      <trkpt lat="45.96816" lon="4.86543">
        <ele>290</ele>
        <time>2017-06-10T09:02:59Z</time>
      </trkpt>
      <trkpt lat="45.9682" lon="4.86537">
        <ele>290</ele>
        <time>2017-06-10T09:03:00Z</time>
      </trkpt>
      <trkpt lat="45.96823" lon="4.86532">
        <ele>290</ele>
        <time>2017-06-10T09:03:01Z</time>
      </trkpt>
      <trkpt lat="45.96826" lon="4.86526">
        <ele>289</ele>
        <time>2017-06-10T09:03:02Z</time>
      </trkpt>
      <trkpt lat="45.96829" lon="4.86521">
        <ele>289</ele>
        <time>2017-06-10T09:03:03Z</time>
      </trkpt>
      <trkpt lat="45.96832" lon="4.86516">
        <ele>289</ele>
        <time>2017-06-10T09:03:04Z</time>
      </trkpt>
      <trkpt lat="45.96835" lon="4.8651">
        <ele>289</ele>
        <time>2017-06-10T09:03:05Z</time>
      </trkpt>
      <trkpt lat="45.96838" lon="4.86504">
        <ele>289</ele>
        <time>2017-06-10T09:03:06Z</time>
      </trkpt>
      <trkpt lat="45.96841" lon="4.86498">
        <ele>289</ele>
        <time>2017-06-10T09:03:07Z</time>
      </trkpt>
      <trkpt lat="45.96843" lon="4.86491">
        <ele>289</ele>
        <time>2017-06-10T09:03:08Z</time>
      </trkpt>
      <trkpt lat="45.96846" lon="4.86485">
        <ele>289</ele>
        <time>2017-06-10T09:03:09Z</time>
      </trkpt>
      <trkpt lat="45.96848" lon="4.86478">
        <ele>289</ele>
        <time>2017-06-10T09:03:10Z</time>
      </trkpt>
      <trkpt lat="45.9685" lon="4.86472">
        <ele>289</ele>
        <time>2017-06-10T09:03:11Z</time>
      </trkpt>
      <trkpt lat="45.96851" lon="4.86466">
        <ele>289</ele>
        <time>2017-06-10T09:03:12Z</time>
      </trkpt>
      <trkpt lat="45.96853" lon="4.8646">
        <ele>289</ele>
        <time>2017-06-10T09:03:13Z</time>
      </trkpt>
      <trkpt lat="45.96854" lon="4.86454">
        <ele>289</ele>
        <time>2017-06-10T09:03:14Z</time>
      </trkpt>
      <trkpt lat="45.96856" lon="4.86442">
        <ele>290</ele>
        <time>2017-06-10T09:03:16Z</time>
      </trkpt>
      <trkpt lat="45.96857" lon="4.86436">
        <ele>290</ele>
        <time>2017-06-10T09:03:17Z</time>
      </trkpt>
      <trkpt lat="45.96859" lon="4.86424">
        <ele>290</ele>
        <time>2017-06-10T09:03:19Z</time>
      </trkpt>
      <trkpt lat="45.9686" lon="4.86418">
        <ele>290</ele>
        <time>2017-06-10T09:03:20Z</time>
      </trkpt>
      <trkpt lat="45.96861" lon="4.86412">
        <ele>290</ele>
        <time>2017-06-10T09:03:21Z</time>
      </trkpt>
      <trkpt lat="45.96862" lon="4.86405">
        <ele>290</ele>
        <time>2017-06-10T09:03:22Z</time>
      </trkpt>
      <trkpt lat="45.96863" lon="4.86398">
        <ele>290</ele>
        <time>2017-06-10T09:03:23Z</time>
      </trkpt>
      <trkpt lat="45.96864" lon="4.86392">
        <ele>290</ele>
        <time>2017-06-10T09:03:24Z</time>
      </trkpt>
      <trkpt lat="45.96865" lon="4.86385">
        <ele>290</ele>
        <time>2017-06-10T09:03:25Z</time>
      </trkpt>
      <trkpt lat="45.96866" lon="4.86379">
        <ele>290</ele>
        <time>2017-06-10T09:03:26Z</time>
      </trkpt>
      <trkpt lat="45.96867" lon="4.86372">
        <ele>290</ele>
        <time>2017-06-10T09:03:27Z</time>
      </trkpt>
      <trkpt lat="45.96868" lon="4.86365">
        <ele>290</ele>
        <time>2017-06-10T09:03:28Z</time>
      </trkpt>
      <trkpt lat="45.96868" lon="4.86359">
        <ele>290</ele>
        <time>2017-06-10T09:03:29Z</time>
      </trkpt>
      <trkpt lat="45.9687" lon="4.86352">
        <ele>290</ele>
        <time>2017-06-10T09:03:30Z</time>
      </trkpt>
      <trkpt lat="45.96871" lon="4.86345">
        <ele>290</ele>
        <time>2017-06-10T09:03:31Z</time>
      </trkpt>
      <trkpt lat="45.96872" lon="4.86339">
        <ele>290</ele>
        <time>2017-06-10T09:03:32Z</time>
      </trkpt>
      <trkpt lat="45.96873" lon="4.86332">
        <ele>289</ele>
        <time>2017-06-10T09:03:33Z</time>
      </trkpt>
      <trkpt lat="45.96873" lon="4.86325">
        <ele>289</ele>
        <time>2017-06-10T09:03:34Z</time>
      </trkpt>
      <trkpt lat="45.96874" lon="4.86318">
        <ele>289</ele>
        <time>2017-06-10T09:03:35Z</time>
      </trkpt>
      <trkpt lat="45.96875" lon="4.86311">
        <ele>289</ele>
        <time>2017-06-10T09:03:36Z</time>
      </trkpt>
      <trkpt lat="45.96876" lon="4.86304">
        <ele>289</ele>
        <time>2017-06-10T09:03:37Z</time>
      </trkpt>
      <trkpt lat="45.96877" lon="4.86298">
        <ele>289</ele>
        <time>2017-06-10T09:03:38Z</time>
      </trkpt>
      <trkpt lat="45.96878" lon="4.86291">
        <ele>289</ele>
        <time>2017-06-10T09:03:39Z</time>
      </trkpt>
      <trkpt lat="45.96879" lon="4.86284">
        <ele>289</ele>
        <time>2017-06-10T09:03:40Z</time>
      </trkpt>
      <trkpt lat="45.9688" lon="4.86277">
        <ele>289</ele>
        <time>2017-06-10T09:03:41Z</time>
      </trkpt>
      <trkpt lat="45.9688" lon="4.8627">
        <ele>288</ele>
        <time>2017-06-10T09:03:42Z</time>
      </trkpt>
      <trkpt lat="45.96881" lon="4.86263">
        <ele>288</ele>
        <time>2017-06-10T09:03:43Z</time>
      </trkpt>
      <trkpt lat="45.96882" lon="4.86256">
        <ele>288</ele>
        <time>2017-06-10T09:03:44Z</time>
      </trkpt>
      <trkpt lat="45.96883" lon="4.86249">
        <ele>288</ele>
        <time>2017-06-10T09:03:45Z</time>
      </trkpt>
      <trkpt lat="45.96883" lon="4.86243">
        <ele>288</ele>
        <time>2017-06-10T09:03:46Z</time>
      </trkpt>
      <trkpt lat="45.96884" lon="4.86236">
        <ele>289</ele>
        <time>2017-06-10T09:03:47Z</time>
      </trkpt>
      <trkpt lat="45.96885" lon="4.86229">
        <ele>289</ele>
        <time>2017-06-10T09:03:48Z</time>
      </trkpt>
      <trkpt lat="45.96886" lon="4.86222">
        <ele>289</ele>
        <time>2017-06-10T09:03:49Z</time>
      </trkpt>
      <trkpt lat="45.96887" lon="4.86216">
        <ele>289</ele>
        <time>2017-06-10T09:03:50Z</time>
      </trkpt>
      <trkpt lat="45.96888" lon="4.86209">
        <ele>289</ele>
        <time>2017-06-10T09:03:51Z</time>
      </trkpt>
      <trkpt lat="45.96889" lon="4.86203">
        <ele>289</ele>
        <time>2017-06-10T09:03:52Z</time>
      </trkpt>
      <trkpt lat="45.9689" lon="4.86196">
        <ele>289</ele>
        <time>2017-06-10T09:03:53Z</time>
      </trkpt>
      <trkpt lat="45.96891" lon="4.86189">
        <ele>289</ele>
        <time>2017-06-10T09:03:54Z</time>
      </trkpt>
      <trkpt lat="45.96892" lon="4.86182">
        <ele>289</ele>
        <time>2017-06-10T09:03:55Z</time>
      </trkpt>
      <trkpt lat="45.96893" lon="4.86175">
        <ele>289</ele>
        <time>2017-06-10T09:03:56Z</time>
      </trkpt>
      <trkpt lat="45.96894" lon="4.86168">
        <ele>288</ele>
        <time>2017-06-10T09:03:57Z</time>
      </trkpt>
      <trkpt lat="45.96895" lon="4.86161">
        <ele>289</ele>
        <time>2017-06-10T09:03:58Z</time>
      </trkpt>
      <trkpt lat="45.96896" lon="4.86153">
        <ele>289</ele>
        <time>2017-06-10T09:03:59Z</time>
      </trkpt>
      <trkpt lat="45.96897" lon="4.86145">
        <ele>289</ele>
        <time>2017-06-10T09:04:00Z</time>
      </trkpt>
      <trkpt lat="45.96899" lon="4.86137">
        <ele>289</ele>
        <time>2017-06-10T09:04:01Z</time>
      </trkpt>
      <trkpt lat="45.96899" lon="4.86129">
        <ele>289</ele>
        <time>2017-06-10T09:04:02Z</time>
      </trkpt>
      <trkpt lat="45.969" lon="4.86121">
        <ele>289</ele>
        <time>2017-06-10T09:04:03Z</time>
      </trkpt>
      <trkpt lat="45.96901" lon="4.86113">
        <ele>289</ele>
        <time>2017-06-10T09:04:04Z</time>
      </trkpt>
      <trkpt lat="45.96902" lon="4.86106">
        <ele>289</ele>
        <time>2017-06-10T09:04:05Z</time>
      </trkpt>
      <trkpt lat="45.96903" lon="4.86098">
        <ele>288</ele>
        <time>2017-06-10T09:04:06Z</time>
      </trkpt>
      <trkpt lat="45.96904" lon="4.8609">
        <ele>288</ele>
        <time>2017-06-10T09:04:07Z</time>
      </trkpt>
      <trkpt lat="45.96905" lon="4.86082">
        <ele>288</ele>
        <time>2017-06-10T09:04:08Z</time>
      </trkpt>
      <trkpt lat="45.96906" lon="4.86074">
        <ele>288</ele>
        <time>2017-06-10T09:04:09Z</time>
      </trkpt>
      <trkpt lat="45.96907" lon="4.86067">
        <ele>288</ele>
        <time>2017-06-10T09:04:10Z</time>
      </trkpt>
      <trkpt lat="45.96908" lon="4.86058">
        <ele>288</ele>
        <time>2017-06-10T09:04:11Z</time>
      </trkpt>
      <trkpt lat="45.96908" lon="4.8605">
        <ele>289</ele>
        <time>2017-06-10T09:04:12Z</time>
      </trkpt>
      <trkpt lat="45.96909" lon="4.86042">
        <ele>289</ele>
        <time>2017-06-10T09:04:13Z</time>
      </trkpt>
      <trkpt lat="45.9691" lon="4.86034">
        <ele>289</ele>
        <time>2017-06-10T09:04:14Z</time>
      </trkpt>
      <trkpt lat="45.9691" lon="4.86027">
        <ele>289</ele>
        <time>2017-06-10T09:04:15Z</time>
      </trkpt>
      <trkpt lat="45.96911" lon="4.86019">
        <ele>289</ele>
        <time>2017-06-10T09:04:16Z</time>
      </trkpt>
      <trkpt lat="45.96912" lon="4.86011">
        <ele>288</ele>
        <time>2017-06-10T09:04:17Z</time>
      </trkpt>
      <trkpt lat="45.96914" lon="4.86003">
        <ele>288</ele>
        <time>2017-06-10T09:04:18Z</time>
      </trkpt>
      <trkpt lat="45.96915" lon="4.85995">
        <ele>288</ele>
        <time>2017-06-10T09:04:19Z</time>
      </trkpt>
      <trkpt lat="45.96917" lon="4.85986">
        <ele>287</ele>
        <time>2017-06-10T09:04:20Z</time>
      </trkpt>
      <trkpt lat="45.9692" lon="4.85977">
        <ele>287</ele>
        <time>2017-06-10T09:04:21Z</time>
      </trkpt>
      <trkpt lat="45.96922" lon="4.85968">
        <ele>287</ele>
        <time>2017-06-10T09:04:22Z</time>
      </trkpt>
      <trkpt lat="45.96924" lon="4.85958">
        <ele>287</ele>
        <time>2017-06-10T09:04:23Z</time>
      </trkpt>
      <trkpt lat="45.96926" lon="4.85949">
        <ele>287</ele>
        <time>2017-06-10T09:04:24Z</time>
      </trkpt>
      <trkpt lat="45.96929" lon="4.85941">
        <ele>286</ele>
        <time>2017-06-10T09:04:25Z</time>
      </trkpt>
      <trkpt lat="45.96932" lon="4.85932">
        <ele>286</ele>
        <time>2017-06-10T09:04:26Z</time>
      </trkpt>
      <trkpt lat="45.96934" lon="4.85924">
        <ele>286</ele>
        <time>2017-06-10T09:04:27Z</time>
      </trkpt>
      <trkpt lat="45.96936" lon="4.85916">
        <ele>286</ele>
        <time>2017-06-10T09:04:28Z</time>
      </trkpt>
      <trkpt lat="45.96939" lon="4.85908">
        <ele>286</ele>
        <time>2017-06-10T09:04:29Z</time>
      </trkpt>
      <trkpt lat="45.96941" lon="4.859">
        <ele>285</ele>
        <time>2017-06-10T09:04:30Z</time>
      </trkpt>
      <trkpt lat="45.96943" lon="4.85892">
        <ele>285</ele>
        <time>2017-06-10T09:04:31Z</time>
      </trkpt>
      <trkpt lat="45.96945" lon="4.85884">
        <ele>285</ele>
        <time>2017-06-10T09:04:32Z</time>
      </trkpt>
      <trkpt lat="45.96948" lon="4.85876">
        <ele>285</ele>
        <time>2017-06-10T09:04:33Z</time>
      </trkpt>
      <trkpt lat="45.9695" lon="4.85868">
        <ele>285</ele>
        <time>2017-06-10T09:04:34Z</time>
      </trkpt>
      <trkpt lat="45.96952" lon="4.8586">
        <ele>285</ele>
        <time>2017-06-10T09:04:35Z</time>
      </trkpt>
      <trkpt lat="45.96954" lon="4.85852">
        <ele>285</ele>
        <time>2017-06-10T09:04:36Z</time>
      </trkpt>
      <trkpt lat="45.96956" lon="4.85843">
        <ele>285</ele>
        <time>2017-06-10T09:04:37Z</time>
      </trkpt>
      <trkpt lat="45.96958" lon="4.85835">
        <ele>285</ele>
        <time>2017-06-10T09:04:38Z</time>
      </trkpt>
      <trkpt lat="45.96961" lon="4.85826">
        <ele>285</ele>
        <time>2017-06-10T09:04:39Z</time>
      </trkpt>
      <trkpt lat="45.96963" lon="4.85818">
        <ele>285</ele>
        <time>2017-06-10T09:04:40Z</time>
      </trkpt>
      <trkpt lat="45.96964" lon="4.85811">
        <ele>285</ele>
        <time>2017-06-10T09:04:41Z</time>
      </trkpt>
      <trkpt lat="45.96967" lon="4.85804">
        <ele>285</ele>
        <time>2017-06-10T09:04:42Z</time>
      </trkpt>
      <trkpt lat="45.96969" lon="4.85797">
        <ele>285</ele>
        <time>2017-06-10T09:04:43Z</time>
      </trkpt>
      <trkpt lat="45.9697" lon="4.85789">
        <ele>285</ele>
        <time>2017-06-10T09:04:44Z</time>
      </trkpt>
      <trkpt lat="45.96972" lon="4.85782">
        <ele>285</ele>
        <time>2017-06-10T09:04:45Z</time>
      </trkpt>
      <trkpt lat="45.96974" lon="4.85775">
        <ele>285</ele>
        <time>2017-06-10T09:04:46Z</time>
      </trkpt>
      <trkpt lat="45.96976" lon="4.85769">
        <ele>285</ele>
        <time>2017-06-10T09:04:47Z</time>
      </trkpt>
      <trkpt lat="45.96978" lon="4.85761">
        <ele>285</ele>
        <time>2017-06-10T09:04:48Z</time>
      </trkpt>
      <trkpt lat="45.9698" lon="4.85754">
        <ele>285</ele>
        <time>2017-06-10T09:04:49Z</time>
      </trkpt>
      <trkpt lat="45.96982" lon="4.85746">
        <ele>285</ele>
        <time>2017-06-10T09:04:50Z</time>
      </trkpt>
      <trkpt lat="45.96984" lon="4.85738">
        <ele>285</ele>
        <time>2017-06-10T09:04:51Z</time>
      </trkpt>
      <trkpt lat="45.96986" lon="4.85729">
        <ele>285</ele>
        <time>2017-06-10T09:04:52Z</time>
      </trkpt>
      <trkpt lat="45.96989" lon="4.85721">
        <ele>285</ele>
        <time>2017-06-10T09:04:53Z</time>
      </trkpt>
      <trkpt lat="45.96991" lon="4.85713">
        <ele>285</ele>
        <time>2017-06-10T09:04:54Z</time>
      </trkpt>
      <trkpt lat="45.96993" lon="4.85705">
        <ele>285</ele>
        <time>2017-06-10T09:04:55Z</time>
      </trkpt>
      <trkpt lat="45.96994" lon="4.85697">
        <ele>285</ele>
        <time>2017-06-10T09:04:56Z</time>
      </trkpt>
      <trkpt lat="45.96996" lon="4.8569">
        <ele>285</ele>
        <time>2017-06-10T09:04:57Z</time>
      </trkpt>
      <trkpt lat="45.96998" lon="4.85682">
        <ele>286</ele>
        <time>2017-06-10T09:04:58Z</time>
      </trkpt>
      <trkpt lat="45.97" lon="4.85674">
        <ele>286</ele>
        <time>2017-06-10T09:04:59Z</time>
      </trkpt>
      <trkpt lat="45.97002" lon="4.85666">
        <ele>286</ele>
        <time>2017-06-10T09:05:00Z</time>
      </trkpt>
      <trkpt lat="45.97004" lon="4.85659">
        <ele>285</ele>
        <time>2017-06-10T09:05:01Z</time>
      </trkpt>
      <trkpt lat="45.97006" lon="4.85651">
        <ele>285</ele>
        <time>2017-06-10T09:05:02Z</time>
      </trkpt>
      <trkpt lat="45.97008" lon="4.85643">
        <ele>284</ele>
        <time>2017-06-10T09:05:03Z</time>
      </trkpt>
      <trkpt lat="45.9701" lon="4.85636">
        <ele>284</ele>
        <time>2017-06-10T09:05:04Z</time>
      </trkpt>
      <trkpt lat="45.97012" lon="4.85628">
        <ele>284</ele>
        <time>2017-06-10T09:05:05Z</time>
      </trkpt>
      <trkpt lat="45.97014" lon="4.8562">
        <ele>284</ele>
        <time>2017-06-10T09:05:06Z</time>
      </trkpt>
      <trkpt lat="45.97016" lon="4.85612">
        <ele>284</ele>
        <time>2017-06-10T09:05:07Z</time>
      </trkpt>
      <trkpt lat="45.97018" lon="4.85605">
        <ele>284</ele>
        <time>2017-06-10T09:05:08Z</time>
      </trkpt>
      <trkpt lat="45.97021" lon="4.85597">
        <ele>284</ele>
        <time>2017-06-10T09:05:09Z</time>
      </trkpt>
      <trkpt lat="45.97023" lon="4.85589">
        <ele>284</ele>
        <time>2017-06-10T09:05:10Z</time>
      </trkpt>
      <trkpt lat="45.97026" lon="4.8558">
        <ele>283</ele>
        <time>2017-06-10T09:05:11Z</time>
      </trkpt>
      <trkpt lat="45.97028" lon="4.85572">
        <ele>283</ele>
        <time>2017-06-10T09:05:12Z</time>
      </trkpt>
      <trkpt lat="45.9703" lon="4.85564">
        <ele>283</ele>
        <time>2017-06-10T09:05:13Z</time>
      </trkpt>
      <trkpt lat="45.97033" lon="4.85556">
        <ele>283</ele>
        <time>2017-06-10T09:05:14Z</time>
      </trkpt>
      <trkpt lat="45.97035" lon="4.85548">
        <ele>282</ele>
        <time>2017-06-10T09:05:15Z</time>
      </trkpt>
      <trkpt lat="45.97038" lon="4.8554">
        <ele>282</ele>
        <time>2017-06-10T09:05:16Z</time>
      </trkpt>
      <trkpt lat="45.9704" lon="4.85532">
        <ele>282</ele>
        <time>2017-06-10T09:05:17Z</time>
      </trkpt>
      <trkpt lat="45.97043" lon="4.85524">
        <ele>282</ele>
        <time>2017-06-10T09:05:18Z</time>
      </trkpt>
      <trkpt lat="45.97045" lon="4.85516">
        <ele>282</ele>
        <time>2017-06-10T09:05:19Z</time>
      </trkpt>
      <trkpt lat="45.97048" lon="4.85508">
        <ele>282</ele>
        <time>2017-06-10T09:05:20Z</time>
      </trkpt>
      <trkpt lat="45.97051" lon="4.855">
        <ele>282</ele>
        <time>2017-06-10T09:05:21Z</time>
      </trkpt>
      <trkpt lat="45.97053" lon="4.85492">
        <ele>281</ele>
        <time>2017-06-10T09:05:22Z</time>
      </trkpt>
      <trkpt lat="45.97055" lon="4.85484">
        <ele>281</ele>
        <time>2017-06-10T09:05:23Z</time>
      </trkpt>
      <trkpt lat="45.97058" lon="4.85476">
        <ele>281</ele>
        <time>2017-06-10T09:05:24Z</time>
      </trkpt>
      <trkpt lat="45.9706" lon="4.85468">
        <ele>281</ele>
        <time>2017-06-10T09:05:25Z</time>
      </trkpt>
      <trkpt lat="45.97063" lon="4.85459">
        <ele>281</ele>
        <time>2017-06-10T09:05:26Z</time>
      </trkpt>
      <trkpt lat="45.97065" lon="4.85451">
        <ele>281</ele>
        <time>2017-06-10T09:05:27Z</time>
      </trkpt>
      <trkpt lat="45.97068" lon="4.85443">
        <ele>281</ele>
        <time>2017-06-10T09:05:28Z</time>
      </trkpt>
      <trkpt lat="45.97071" lon="4.85434">
        <ele>281</ele>
        <time>2017-06-10T09:05:29Z</time>
      </trkpt>
      <trkpt lat="45.97074" lon="4.85425">
        <ele>281</ele>
        <time>2017-06-10T09:05:30Z</time>
      </trkpt>
      <trkpt lat="45.97076" lon="4.85416">
        <ele>280</ele>
        <time>2017-06-10T09:05:31Z</time>
      </trkpt>
      <trkpt lat="45.97079" lon="4.85408">
        <ele>281</ele>
        <time>2017-06-10T09:05:32Z</time>
      </trkpt>
      <trkpt lat="45.97082" lon="4.85399">
        <ele>281</ele>
        <time>2017-06-10T09:05:33Z</time>
      </trkpt>
      <trkpt lat="45.97085" lon="4.85391">
        <ele>280</ele>
        <time>2017-06-10T09:05:34Z</time>
      </trkpt>
      <trkpt lat="45.97087" lon="4.85382">
        <ele>280</ele>
        <time>2017-06-10T09:05:35Z</time>
      </trkpt>
      <trkpt lat="45.9709" lon="4.85374">
        <ele>280</ele>
        <time>2017-06-10T09:05:36Z</time>
      </trkpt>
      <trkpt lat="45.97092" lon="4.85365">
        <ele>280</ele>
        <time>2017-06-10T09:05:37Z</time>
      </trkpt>
      <trkpt lat="45.97095" lon="4.85357">
        <ele>280</ele>
        <time>2017-06-10T09:05:38Z</time>
      </trkpt>
      <trkpt lat="45.97097" lon="4.85349">
        <ele>280</ele>
        <time>2017-06-10T09:05:39Z</time>
      </trkpt>
      <trkpt lat="45.971" lon="4.85341">
        <ele>280</ele>
        <time>2017-06-10T09:05:40Z</time>
      </trkpt>
      <trkpt lat="45.97103" lon="4.85333">
        <ele>280</ele>
        <time>2017-06-10T09:05:41Z</time>
      </trkpt>
      <trkpt lat="45.97106" lon="4.85326">
        <ele>280</ele>
        <time>2017-06-10T09:05:42Z</time>
      </trkpt>
      <trkpt lat="45.97109" lon="4.85318">
        <ele>280</ele>
        <time>2017-06-10T09:05:43Z</time>
      </trkpt>
      <trkpt lat="45.97112" lon="4.85311">
        <ele>280</ele>
        <time>2017-06-10T09:05:44Z</time>
      </trkpt>
      <trkpt lat="45.97115" lon="4.85304">
        <ele>280</ele>
        <time>2017-06-10T09:05:45Z</time>
      </trkpt>
      <trkpt lat="45.97118" lon="4.85297">
        <ele>280</ele>
        <time>2017-06-10T09:05:46Z</time>
      </trkpt>
      <trkpt lat="45.97121" lon="4.8529">
        <ele>280</ele>
        <time>2017-06-10T09:05:47Z</time>
      </trkpt>
      <trkpt lat="45.97124" lon="4.85283">
        <ele>280</ele>
        <time>2017-06-10T09:05:48Z</time>
      </trkpt>
      <trkpt lat="45.97127" lon="4.85277">
        <ele>279</ele>
        <time>2017-06-10T09:05:49Z</time>
      </trkpt>
      <trkpt lat="45.97131" lon="4.8527">
        <ele>279</ele>
        <time>2017-06-10T09:05:50Z</time>
      </trkpt>
      <trkpt lat="45.97134" lon="4.85263">
        <ele>279</ele>
        <time>2017-06-10T09:05:51Z</time>
      </trkpt>
      <trkpt lat="45.97137" lon="4.85256">
        <ele>279</ele>
        <time>2017-06-10T09:05:52Z</time>
      </trkpt>
      <trkpt lat="45.97141" lon="4.85248">
        <ele>279</ele>
        <time>2017-06-10T09:05:53Z</time>
      </trkpt>
      <trkpt lat="45.97144" lon="4.85241">
        <ele>279</ele>
        <time>2017-06-10T09:05:54Z</time>
      </trkpt>
      <trkpt lat="45.97148" lon="4.85233">
        <ele>279</ele>
        <time>2017-06-10T09:05:55Z</time>
      </trkpt>
      <trkpt lat="45.97152" lon="4.85226">
        <ele>279</ele>
        <time>2017-06-10T09:05:56Z</time>
      </trkpt>
      <trkpt lat="45.97155" lon="4.8522">
        <ele>279</ele>
        <time>2017-06-10T09:05:57Z</time>
      </trkpt>
      <trkpt lat="45.97159" lon="4.85213">
        <ele>279</ele>
        <time>2017-06-10T09:05:58Z</time>
      </trkpt>
      <trkpt lat="45.97163" lon="4.85206">
        <ele>279</ele>
        <time>2017-06-10T09:05:59Z</time>
      </trkpt>
      <trkpt lat="45.97166" lon="4.85199">
        <ele>279</ele>
        <time>2017-06-10T09:06:00Z</time>
      </trkpt>
      <trkpt lat="45.9717" lon="4.85191">
        <ele>278</ele>
        <time>2017-06-10T09:06:01Z</time>
      </trkpt>
      <trkpt lat="45.97173" lon="4.85184">
        <ele>278</ele>
        <time>2017-06-10T09:06:02Z</time>
      </trkpt>
      <trkpt lat="45.97177" lon="4.85175">
        <ele>278</ele>
        <time>2017-06-10T09:06:03Z</time>
      </trkpt>
      <trkpt lat="45.97181" lon="4.85167">
        <ele>278</ele>
        <time>2017-06-10T09:06:04Z</time>
      </trkpt>
      <trkpt lat="45.97185" lon="4.85159">
        <ele>278</ele>
        <time>2017-06-10T09:06:05Z</time>
      </trkpt>
      <trkpt lat="45.97189" lon="4.8515">
        <ele>278</ele>
        <time>2017-06-10T09:06:06Z</time>
      </trkpt>
      <trkpt lat="45.97193" lon="4.85143">
        <ele>278</ele>
        <time>2017-06-10T09:06:07Z</time>
      </trkpt>
      <trkpt lat="45.97197" lon="4.85135">
        <ele>278</ele>
        <time>2017-06-10T09:06:08Z</time>
      </trkpt>
      <trkpt lat="45.972" lon="4.85128">
        <ele>278</ele>
        <time>2017-06-10T09:06:09Z</time>
      </trkpt>
      <trkpt lat="45.97203" lon="4.85121">
        <ele>278</ele>
        <time>2017-06-10T09:06:10Z</time>
      </trkpt>
      <trkpt lat="45.97207" lon="4.85114">
        <ele>278</ele>
        <time>2017-06-10T09:06:11Z</time>
      </trkpt>
      <trkpt lat="45.9721" lon="4.85108">
        <ele>278</ele>
        <time>2017-06-10T09:06:12Z</time>
      </trkpt>
      <trkpt lat="45.97213" lon="4.85101">
        <ele>278</ele>
        <time>2017-06-10T09:06:13Z</time>
      </trkpt>
      <trkpt lat="45.97216" lon="4.85094">
        <ele>278</ele>
        <time>2017-06-10T09:06:14Z</time>
      </trkpt>
      <trkpt lat="45.97219" lon="4.85087">
        <ele>278</ele>
        <time>2017-06-10T09:06:15Z</time>
      </trkpt>
      <trkpt lat="45.97223" lon="4.8508">
        <ele>278</ele>
        <time>2017-06-10T09:06:16Z</time>
      </trkpt>
      <trkpt lat="45.97226" lon="4.85072">
        <ele>278</ele>
        <time>2017-06-10T09:06:17Z</time>
      </trkpt>
      <trkpt lat="45.9723" lon="4.85065">
        <ele>278</ele>
        <time>2017-06-10T09:06:18Z</time>
      </trkpt>
      <trkpt lat="45.97234" lon="4.85057">
        <ele>279</ele>
        <time>2017-06-10T09:06:19Z</time>
      </trkpt>
      <trkpt lat="45.97237" lon="4.85049">
        <ele>279</ele>
        <time>2017-06-10T09:06:20Z</time>
      </trkpt>
      <trkpt lat="45.97241" lon="4.85041">
        <ele>279</ele>
        <time>2017-06-10T09:06:21Z</time>
      </trkpt>
      <trkpt lat="45.97244" lon="4.85033">
        <ele>279</ele>
        <time>2017-06-10T09:06:22Z</time>
      </trkpt>
      <trkpt lat="45.97247" lon="4.85025">
        <ele>279</ele>
        <time>2017-06-10T09:06:23Z</time>
      </trkpt>
      <trkpt lat="45.97251" lon="4.85018">
        <ele>279</ele>
        <time>2017-06-10T09:06:24Z</time>
      </trkpt>
      <trkpt lat="45.97254" lon="4.85011">
        <ele>279</ele>
        <time>2017-06-10T09:06:25Z</time>
      </trkpt>
      <trkpt lat="45.97258" lon="4.85003">
        <ele>279</ele>
        <time>2017-06-10T09:06:26Z</time>
      </trkpt>
      <trkpt lat="45.97261" lon="4.84997">
        <ele>279</ele>
        <time>2017-06-10T09:06:27Z</time>
      </trkpt>
      <trkpt lat="45.97264" lon="4.8499">
        <ele>279</ele>
        <time>2017-06-10T09:06:28Z</time>
      </trkpt>
      <trkpt lat="45.97267" lon="4.84983">
        <ele>279</ele>
        <time>2017-06-10T09:06:29Z</time>
      </trkpt>
      <trkpt lat="45.9727" lon="4.84977">
        <ele>279</ele>
        <time>2017-06-10T09:06:30Z</time>
      </trkpt>
      <trkpt lat="45.97274" lon="4.84971">
        <ele>278</ele>
        <time>2017-06-10T09:06:31Z</time>
      </trkpt>
      <trkpt lat="45.97277" lon="4.84965">
        <ele>278</ele>
        <time>2017-06-10T09:06:32Z</time>
      </trkpt>
      <trkpt lat="45.9728" lon="4.84959">
        <ele>278</ele>
        <time>2017-06-10T09:06:33Z</time>
      </trkpt>
      <trkpt lat="45.97283" lon="4.84952">
        <ele>278</ele>
        <time>2017-06-10T09:06:34Z</time>
      </trkpt>
      <trkpt lat="45.97287" lon="4.84946">
        <ele>278</ele>
        <time>2017-06-10T09:06:35Z</time>
      </trkpt>
      <trkpt lat="45.9729" lon="4.84939">
        <ele>278</ele>
        <time>2017-06-10T09:06:36Z</time>
      </trkpt>
      <trkpt lat="45.97294" lon="4.84933">
        <ele>278</ele>
        <time>2017-06-10T09:06:37Z</time>
      </trkpt>
      <trkpt lat="45.97298" lon="4.84927">
        <ele>278</ele>
        <time>2017-06-10T09:06:38Z</time>
      </trkpt>
      <trkpt lat="45.97301" lon="4.84921">
        <ele>278</ele>
        <time>2017-06-10T09:06:39Z</time>
      </trkpt>
      <trkpt lat="45.97305" lon="4.84916">
        <ele>278</ele>
        <time>2017-06-10T09:06:40Z</time>
      </trkpt>
      <trkpt lat="45.97309" lon="4.8491">
        <ele>278</ele>
        <time>2017-06-10T09:06:41Z</time>
      </trkpt>
      <trkpt lat="45.97313" lon="4.84905">
        <ele>278</ele>
        <time>2017-06-10T09:06:42Z</time>
      </trkpt>
      <trkpt lat="45.97316" lon="4.849">
        <ele>278</ele>
        <time>2017-06-10T09:06:43Z</time>
      </trkpt>
      <trkpt lat="45.9732" lon="4.84894">
        <ele>278</ele>
        <time>2017-06-10T09:06:44Z</time>
      </trkpt>
      <trkpt lat="45.97324" lon="4.84889">
        <ele>278</ele>
        <time>2017-06-10T09:06:45Z</time>
      </trkpt>
      <trkpt lat="45.97327" lon="4.84884">
        <ele>278</ele>
        <time>2017-06-10T09:06:46Z</time>
      </trkpt>
      <trkpt lat="45.9733" lon="4.84879">
        <ele>278</ele>
        <time>2017-06-10T09:06:47Z</time>
      </trkpt>
      <trkpt lat="45.97333" lon="4.84873">
        <ele>278</ele>
        <time>2017-06-10T09:06:48Z</time>
      </trkpt>
      <trkpt lat="45.97335" lon="4.84868">
        <ele>277</ele>
        <time>2017-06-10T09:06:49Z</time>
      </trkpt>
      <trkpt lat="45.97338" lon="4.84861">
        <ele>277</ele>
        <time>2017-06-10T09:06:50Z</time>
      </trkpt>
      <trkpt lat="45.97341" lon="4.84855">
        <ele>277</ele>
        <time>2017-06-10T09:06:51Z</time>
      </trkpt>
      <trkpt lat="45.97344" lon="4.84848">
        <ele>277</ele>
        <time>2017-06-10T09:06:52Z</time>
      </trkpt>
      <trkpt lat="45.97347" lon="4.84841">
        <ele>277</ele>
        <time>2017-06-10T09:06:53Z</time>
      </trkpt>
      <trkpt lat="45.97349" lon="4.84835">
        <ele>277</ele>
        <time>2017-06-10T09:06:54Z</time>
      </trkpt>
      <trkpt lat="45.97352" lon="4.84828">
        <ele>278</ele>
        <time>2017-06-10T09:06:55Z</time>
      </trkpt>
      <trkpt lat="45.97354" lon="4.84823">
        <ele>278</ele>
        <time>2017-06-10T09:06:56Z</time>
      </trkpt>
      <trkpt lat="45.97356" lon="4.84817">
        <ele>278</ele>
        <time>2017-06-10T09:06:57Z</time>
      </trkpt>
      <trkpt lat="45.97358" lon="4.84811">
        <ele>278</ele>
        <time>2017-06-10T09:06:58Z</time>
      </trkpt>
      <trkpt lat="45.97361" lon="4.84805">
        <ele>278</ele>
        <time>2017-06-10T09:06:59Z</time>
      </trkpt>
      <trkpt lat="45.97363" lon="4.84799">
        <ele>278</ele>
        <time>2017-06-10T09:07:00Z</time>
      </trkpt>
      <trkpt lat="45.97366" lon="4.84791">
        <ele>278</ele>
        <time>2017-06-10T09:07:01Z</time>
      </trkpt>
      <trkpt lat="45.97369" lon="4.84783">
        <ele>278</ele>
        <time>2017-06-10T09:07:02Z</time>
      </trkpt>
      <trkpt lat="45.97371" lon="4.84776">
        <ele>278</ele>
        <time>2017-06-10T09:07:03Z</time>
      </trkpt>
      <trkpt lat="45.97374" lon="4.8477">
        <ele>278</ele>
        <time>2017-06-10T09:07:04Z</time>
      </trkpt>
      <trkpt lat="45.97378" lon="4.84759">
        <ele>278</ele>
        <time>2017-06-10T09:07:06Z</time>
      </trkpt>
      <trkpt lat="45.9738" lon="4.84754">
        <ele>278</ele>
        <time>2017-06-10T09:07:07Z</time>
      </trkpt>
      <trkpt lat="45.97383" lon="4.84748">
        <ele>278</ele>
        <time>2017-06-10T09:07:08Z</time>
      </trkpt>
      <trkpt lat="45.97386" lon="4.84743">
        <ele>278</ele>
        <time>2017-06-10T09:07:09Z</time>
      </trkpt>
      <trkpt lat="45.9739" lon="4.84737">
        <ele>278</ele>
        <time>2017-06-10T09:07:10Z</time>
      </trkpt>
      <trkpt lat="45.97395" lon="4.84732">
        <ele>278</ele>
        <time>2017-06-10T09:07:11Z</time>
      </trkpt>
      <trkpt lat="45.974" lon="4.84726">
        <ele>278</ele>
        <time>2017-06-10T09:07:12Z</time>
      </trkpt>
      <trkpt lat="45.97406" lon="4.84722">
        <ele>278</ele>
        <time>2017-06-10T09:07:13Z</time>
      </trkpt>
      <trkpt lat="45.97412" lon="4.84718">
        <ele>278</ele>
        <time>2017-06-10T09:07:14Z</time>
      </trkpt>
      <trkpt lat="45.97417" lon="4.84714">
        <ele>276</ele>
        <time>2017-06-10T09:07:15Z</time>
      </trkpt>
      <trkpt lat="45.97423" lon="4.84711">
        <ele>276</ele>
        <time>2017-06-10T09:07:16Z</time>
      </trkpt>
      <trkpt lat="45.97429" lon="4.84707">
        <ele>276</ele>
        <time>2017-06-10T09:07:17Z</time>
      </trkpt>
      <trkpt lat="45.97434" lon="4.84703">
        <ele>276</ele>
        <time>2017-06-10T09:07:18Z</time>
      </trkpt>
      <trkpt lat="45.97439" lon="4.84699">
        <ele>276</ele>
        <time>2017-06-10T09:07:19Z</time>
      </trkpt>
      <trkpt lat="45.97444" lon="4.84696">
        <ele>276</ele>
        <time>2017-06-10T09:07:20Z</time>
      </trkpt>
      <trkpt lat="45.97449" lon="4.84692">
        <ele>276</ele>
        <time>2017-06-10T09:07:21Z</time>
      </trkpt>
      <trkpt lat="45.97454" lon="4.84688">
        <ele>276</ele>
        <time>2017-06-10T09:07:22Z</time>
      </trkpt>
      <trkpt lat="45.97459" lon="4.84684">
        <ele>276</ele>
        <time>2017-06-10T09:07:23Z</time>
      </trkpt>
      <trkpt lat="45.97464" lon="4.84681">
        <ele>276</ele>
        <time>2017-06-10T09:07:24Z</time>
      </trkpt>
      <trkpt lat="45.97469" lon="4.84677">
        <ele>276</ele>
        <time>2017-06-10T09:07:25Z</time>
      </trkpt>
      <trkpt lat="45.97473" lon="4.84674">
        <ele>276</ele>
        <time>2017-06-10T09:07:26Z</time>
      </trkpt>
      <trkpt lat="45.97479" lon="4.84669">
        <ele>276</ele>
        <time>2017-06-10T09:07:27Z</time>
      </trkpt>
      <trkpt lat="45.97484" lon="4.84665">
        <ele>275</ele>
        <time>2017-06-10T09:07:28Z</time>
      </trkpt>
      <trkpt lat="45.9749" lon="4.84661">
        <ele>275</ele>
        <time>2017-06-10T09:07:29Z</time>
      </trkpt>
      <trkpt lat="45.97495" lon="4.84657">
        <ele>275</ele>
        <time>2017-06-10T09:07:30Z</time>
      </trkpt>
      <trkpt lat="45.97501" lon="4.84653">
        <ele>275</ele>
        <time>2017-06-10T09:07:31Z</time>
      </trkpt>
      <trkpt lat="45.97507" lon="4.84649">
        <ele>275</ele>
        <time>2017-06-10T09:07:32Z</time>
      </trkpt>
      <trkpt lat="45.97512" lon="4.84645">
        <ele>275</ele>
        <time>2017-06-10T09:07:33Z</time>
      </trkpt>
      <trkpt lat="45.97517" lon="4.84642">
        <ele>275</ele>
        <time>2017-06-10T09:07:34Z</time>
      </trkpt>
      <trkpt lat="45.97522" lon="4.84638">
        <ele>275</ele>
        <time>2017-06-10T09:07:35Z</time>
      </trkpt>
      <trkpt lat="45.97527" lon="4.84635">
        <ele>275</ele>
        <time>2017-06-10T09:07:36Z</time>
      </trkpt>
      <trkpt lat="45.97532" lon="4.84631">
        <ele>275</ele>
        <time>2017-06-10T09:07:37Z</time>
      </trkpt>
      <trkpt lat="45.97537" lon="4.84627">
        <ele>275</ele>
        <time>2017-06-10T09:07:38Z</time>
      </trkpt>
      <trkpt lat="45.97541" lon="4.84623">
        <ele>275</ele>
        <time>2017-06-10T09:07:39Z</time>
      </trkpt>
      <trkpt lat="45.97546" lon="4.84619">
        <ele>274</ele>
        <time>2017-06-10T09:07:40Z</time>
      </trkpt>
      <trkpt lat="45.97551" lon="4.84614">
        <ele>274</ele>
        <time>2017-06-10T09:07:41Z</time>
      </trkpt>
      <trkpt lat="45.97555" lon="4.84609">
        <ele>274</ele>
        <time>2017-06-10T09:07:42Z</time>
      </trkpt>
      <trkpt lat="45.9756" lon="4.84604">
        <ele>274</ele>
        <time>2017-06-10T09:07:43Z</time>
      </trkpt>
      <trkpt lat="45.97565" lon="4.84599">
        <ele>274</ele>
        <time>2017-06-10T09:07:44Z</time>
      </trkpt>
      <trkpt lat="45.9757" lon="4.84594">
        <ele>274</ele>
        <time>2017-06-10T09:07:45Z</time>
      </trkpt>
      <trkpt lat="45.97575" lon="4.84589">
        <ele>274</ele>
        <time>2017-06-10T09:07:46Z</time>
      </trkpt>
      <trkpt lat="45.97579" lon="4.84583">
        <ele>274</ele>
        <time>2017-06-10T09:07:47Z</time>
      </trkpt>
      <trkpt lat="45.97584" lon="4.84578">
        <ele>274</ele>
        <time>2017-06-10T09:07:48Z</time>
      </trkpt>
      <trkpt lat="45.97588" lon="4.84573">
        <ele>274</ele>
        <time>2017-06-10T09:07:49Z</time>
      </trkpt>
      <trkpt lat="45.97592" lon="4.84568">
        <ele>274</ele>
        <time>2017-06-10T09:07:50Z</time>
      </trkpt>
      <trkpt lat="45.97596" lon="4.84563">
        <ele>274</ele>
        <time>2017-06-10T09:07:51Z</time>
      </trkpt>
      <trkpt lat="45.976" lon="4.84559">
        <ele>275</ele>
        <time>2017-06-10T09:07:52Z</time>
      </trkpt>
      <trkpt lat="45.97604" lon="4.84554">
        <ele>275</ele>
        <time>2017-06-10T09:07:53Z</time>
      </trkpt>
      <trkpt lat="45.97608" lon="4.84549">
        <ele>275</ele>
        <time>2017-06-10T09:07:54Z</time>
      </trkpt>
      <trkpt lat="45.97612" lon="4.84544">
        <ele>275</ele>
        <time>2017-06-10T09:07:55Z</time>
      </trkpt>
      <trkpt lat="45.97616" lon="4.84538">
        <ele>275</ele>
        <time>2017-06-10T09:07:56Z</time>
      </trkpt>
      <trkpt lat="45.9762" lon="4.84533">
        <ele>275</ele>
        <time>2017-06-10T09:07:57Z</time>
      </trkpt>
      <trkpt lat="45.97624" lon="4.84528">
        <ele>275</ele>
        <time>2017-06-10T09:07:58Z</time>
      </trkpt>
      <trkpt lat="45.97628" lon="4.84523">
        <ele>275</ele>
        <time>2017-06-10T09:07:59Z</time>
      </trkpt>
      <trkpt lat="45.97632" lon="4.84518">
        <ele>275</ele>
        <time>2017-06-10T09:08:00Z</time>
      </trkpt>
      <trkpt lat="45.97637" lon="4.84514">
        <ele>275</ele>
        <time>2017-06-10T09:08:01Z</time>
      </trkpt>
      <trkpt lat="45.9764" lon="4.84509">
        <ele>275</ele>
        <time>2017-06-10T09:08:02Z</time>
      </trkpt>
      <trkpt lat="45.97644" lon="4.84504">
        <ele>275</ele>
        <time>2017-06-10T09:08:03Z</time>
      </trkpt>
      <trkpt lat="45.97648" lon="4.84499">
        <ele>275</ele>
        <time>2017-06-10T09:08:04Z</time>
      </trkpt>
      <trkpt lat="45.97651" lon="4.84495">
        <ele>275</ele>
        <time>2017-06-10T09:08:05Z</time>
      </trkpt>
      <trkpt lat="45.97656" lon="4.84491">
        <ele>275</ele>
        <time>2017-06-10T09:08:06Z</time>
      </trkpt>
      <trkpt lat="45.9766" lon="4.84487">
        <ele>275</ele>
        <time>2017-06-10T09:08:07Z</time>
      </trkpt>
      <trkpt lat="45.97665" lon="4.84483">
        <ele>275</ele>
        <time>2017-06-10T09:08:08Z</time>
      </trkpt>
      <trkpt lat="45.97669" lon="4.8448">
        <ele>276</ele>
        <time>2017-06-10T09:08:09Z</time>
      </trkpt>
      <trkpt lat="45.97674" lon="4.84476">
        <ele>276</ele>
        <time>2017-06-10T09:08:10Z</time>
      </trkpt>
      <trkpt lat="45.97678" lon="4.84472">
        <ele>276</ele>
        <time>2017-06-10T09:08:11Z</time>
      </trkpt>
      <trkpt lat="45.97683" lon="4.84469">
        <ele>277</ele>
        <time>2017-06-10T09:08:12Z</time>
      </trkpt>
      <trkpt lat="45.97688" lon="4.84466">
        <ele>277</ele>
        <time>2017-06-10T09:08:13Z</time>
      </trkpt>
      <trkpt lat="45.97694" lon="4.84463">
        <ele>277</ele>
        <time>2017-06-10T09:08:14Z</time>
      </trkpt>
      <trkpt lat="45.97699" lon="4.8446">
        <ele>277</ele>
        <time>2017-06-10T09:08:15Z</time>
      </trkpt>
      <trkpt lat="45.97704" lon="4.84458">
        <ele>277</ele>
        <time>2017-06-10T09:08:16Z</time>
      </trkpt>
      <trkpt lat="45.97709" lon="4.84455">
        <ele>277</ele>
        <time>2017-06-10T09:08:17Z</time>
      </trkpt>
      <trkpt lat="45.97714" lon="4.84453">
        <ele>277</ele>
        <time>2017-06-10T09:08:18Z</time>
      </trkpt>
      <trkpt lat="45.97718" lon="4.84451">
        <ele>277</ele>
        <time>2017-06-10T09:08:19Z</time>
      </trkpt>
      <trkpt lat="45.97723" lon="4.84449">
        <ele>277</ele>
        <time>2017-06-10T09:08:20Z</time>
      </trkpt>
      <trkpt lat="45.97727" lon="4.84448">
        <ele>277</ele>
        <time>2017-06-10T09:08:21Z</time>
      </trkpt>
      <trkpt lat="45.97732" lon="4.84446">
        <ele>277</ele>
        <time>2017-06-10T09:08:22Z</time>
      </trkpt>
      <trkpt lat="45.97737" lon="4.84445">
        <ele>277</ele>
        <time>2017-06-10T09:08:23Z</time>
      </trkpt>
      <trkpt lat="45.97742" lon="4.84443">
        <ele>277</ele>
        <time>2017-06-10T09:08:24Z</time>
      </trkpt>
      <trkpt lat="45.97748" lon="4.84442">
        <ele>277</ele>
        <time>2017-06-10T09:08:25Z</time>
      </trkpt>
      <trkpt lat="45.97753" lon="4.8444">
        <ele>277</ele>
        <time>2017-06-10T09:08:26Z</time>
      </trkpt>
      <trkpt lat="45.97759" lon="4.84438">
        <ele>277</ele>
        <time>2017-06-10T09:08:27Z</time>
      </trkpt>
      <trkpt lat="45.97765" lon="4.84436">
        <ele>277</ele>
        <time>2017-06-10T09:08:28Z</time>
      </trkpt>
      <trkpt lat="45.97771" lon="4.84434">
        <ele>277</ele>
        <time>2017-06-10T09:08:29Z</time>
      </trkpt>
      <trkpt lat="45.97777" lon="4.84433">
        <ele>277</ele>
        <time>2017-06-10T09:08:30Z</time>
      </trkpt>
      <trkpt lat="45.97782" lon="4.8443">
        <ele>277</ele>
        <time>2017-06-10T09:08:31Z</time>
      </trkpt>
      <trkpt lat="45.97788" lon="4.84428">
        <ele>277</ele>
        <time>2017-06-10T09:08:32Z</time>
      </trkpt>
      <trkpt lat="45.97793" lon="4.84426">
        <ele>277</ele>
        <time>2017-06-10T09:08:33Z</time>
      </trkpt>
      <trkpt lat="45.97798" lon="4.84424">
        <ele>277</ele>
        <time>2017-06-10T09:08:34Z</time>
      </trkpt>
      <trkpt lat="45.97802" lon="4.84421">
        <ele>277</ele>
        <time>2017-06-10T09:08:35Z</time>
      </trkpt>
      <trkpt lat="45.97807" lon="4.84419">
        <ele>277</ele>
        <time>2017-06-10T09:08:36Z</time>
      </trkpt>
      <trkpt lat="45.97811" lon="4.84416">
        <ele>277</ele>
        <time>2017-06-10T09:08:37Z</time>
      </trkpt>
      <trkpt lat="45.97815" lon="4.84413">
        <ele>276</ele>
        <time>2017-06-10T09:08:38Z</time>
      </trkpt>
      <trkpt lat="45.97819" lon="4.8441">
        <ele>276</ele>
        <time>2017-06-10T09:08:39Z</time>
      </trkpt>
      <trkpt lat="45.97823" lon="4.84407">
        <ele>276</ele>
        <time>2017-06-10T09:08:40Z</time>
      </trkpt>
      <trkpt lat="45.97827" lon="4.84403">
        <ele>276</ele>
        <time>2017-06-10T09:08:41Z</time>
      </trkpt>
      <trkpt lat="45.97832" lon="4.844">
        <ele>276</ele>
        <time>2017-06-10T09:08:42Z</time>
      </trkpt>
      <trkpt lat="45.97836" lon="4.84396">
        <ele>276</ele>
        <time>2017-06-10T09:08:43Z</time>
      </trkpt>
      <trkpt lat="45.97841" lon="4.84391">
        <ele>276</ele>
        <time>2017-06-10T09:08:44Z</time>
      </trkpt>
      <trkpt lat="45.97845" lon="4.84387">
        <ele>276</ele>
        <time>2017-06-10T09:08:45Z</time>
      </trkpt>
      <trkpt lat="45.97849" lon="4.84383">
        <ele>276</ele>
        <time>2017-06-10T09:08:46Z</time>
      </trkpt>
      <trkpt lat="45.97854" lon="4.84378">
        <ele>276</ele>
        <time>2017-06-10T09:08:47Z</time>
      </trkpt>
      <trkpt lat="45.97858" lon="4.84373">
        <ele>276</ele>
        <time>2017-06-10T09:08:48Z</time>
      </trkpt>
      <trkpt lat="45.97861" lon="4.84367">
        <ele>276</ele>
        <time>2017-06-10T09:08:49Z</time>
      </trkpt>
      <trkpt lat="45.97865" lon="4.84362">
        <ele>276</ele>
        <time>2017-06-10T09:08:50Z</time>
      </trkpt>
      <trkpt lat="45.97868" lon="4.84357">
        <ele>276</ele>
        <time>2017-06-10T09:08:51Z</time>
      </trkpt>
      <trkpt lat="45.97872" lon="4.84352">
        <ele>276</ele>
        <time>2017-06-10T09:08:52Z</time>
      </trkpt>
      <trkpt lat="45.97875" lon="4.84347">
        <ele>276</ele>
        <time>2017-06-10T09:08:53Z</time>
      </trkpt>
      <trkpt lat="45.97878" lon="4.84343">
        <ele>275</ele>
        <time>2017-06-10T09:08:54Z</time>
      </trkpt>
      <trkpt lat="45.97881" lon="4.84338">
        <ele>275</ele>
        <time>2017-06-10T09:08:55Z</time>
      </trkpt>
      <trkpt lat="45.97884" lon="4.84333">
        <ele>275</ele>
        <time>2017-06-10T09:08:56Z</time>
      </trkpt>
      <trkpt lat="45.97888" lon="4.84327">
        <ele>275</ele>
        <time>2017-06-10T09:08:57Z</time>
      </trkpt>
      <trkpt lat="45.97891" lon="4.84322">
        <ele>275</ele>
        <time>2017-06-10T09:08:58Z</time>
      </trkpt>
      <trkpt lat="45.97894" lon="4.84317">
        <ele>275</ele>
        <time>2017-06-10T09:08:59Z</time>
      </trkpt>
      <trkpt lat="45.97897" lon="4.84311">
        <ele>275</ele>
        <time>2017-06-10T09:09:00Z</time>
      </trkpt>
      <trkpt lat="45.97901" lon="4.84305">
        <ele>275</ele>
        <time>2017-06-10T09:09:01Z</time>
      </trkpt>
      <trkpt lat="45.97905" lon="4.843">
        <ele>275</ele>
        <time>2017-06-10T09:09:02Z</time>
      </trkpt>
      <trkpt lat="45.97908" lon="4.84295">
        <ele>275</ele>
        <time>2017-06-10T09:09:03Z</time>
      </trkpt>
      <trkpt lat="45.97912" lon="4.84289">
        <ele>275</ele>
        <time>2017-06-10T09:09:04Z</time>
      </trkpt>
      <trkpt lat="45.97916" lon="4.84285">
        <ele>275</ele>
        <time>2017-06-10T09:09:05Z</time>
      </trkpt>
      <trkpt lat="45.9792" lon="4.8428">
        <ele>275</ele>
        <time>2017-06-10T09:09:06Z</time>
      </trkpt>
      <trkpt lat="45.97924" lon="4.84276">
        <ele>275</ele>
        <time>2017-06-10T09:09:07Z</time>
      </trkpt>
      <trkpt lat="45.97928" lon="4.84272">
        <ele>275</ele>
        <time>2017-06-10T09:09:08Z</time>
      </trkpt>
      <trkpt lat="45.97932" lon="4.84268">
        <ele>275</ele>
        <time>2017-06-10T09:09:09Z</time>
      </trkpt>
      <trkpt lat="45.97936" lon="4.84263">
        <ele>275</ele>
        <time>2017-06-10T09:09:10Z</time>
      </trkpt>
      <trkpt lat="45.97939" lon="4.84259">
        <ele>275</ele>
        <time>2017-06-10T09:09:11Z</time>
      </trkpt>
      <trkpt lat="45.97947" lon="4.84252">
        <ele>275</ele>
        <time>2017-06-10T09:09:13Z</time>
      </trkpt>
      <trkpt lat="45.9795" lon="4.84249">
        <ele>275</ele>
        <time>2017-06-10T09:09:14Z</time>
      </trkpt>
      <trkpt lat="45.97958" lon="4.84242">
        <ele>275</ele>
        <time>2017-06-10T09:09:16Z</time>
      </trkpt>
      <trkpt lat="45.97962" lon="4.84238">
        <ele>274</ele>
        <time>2017-06-10T09:09:17Z</time>
      </trkpt>
      <trkpt lat="45.97966" lon="4.84234">
        <ele>274</ele>
        <time>2017-06-10T09:09:18Z</time>
      </trkpt>
      <trkpt lat="45.9797" lon="4.8423">
        <ele>274</ele>
        <time>2017-06-10T09:09:19Z</time>
      </trkpt>
      <trkpt lat="45.97974" lon="4.84226">
        <ele>274</ele>
        <time>2017-06-10T09:09:20Z</time>
      </trkpt>
      <trkpt lat="45.97978" lon="4.84222">
        <ele>274</ele>
        <time>2017-06-10T09:09:21Z</time>
      </trkpt>
      <trkpt lat="45.97982" lon="4.84218">
        <ele>274</ele>
        <time>2017-06-10T09:09:22Z</time>
      </trkpt>
      <trkpt lat="45.97986" lon="4.84215">
        <ele>274</ele>
        <time>2017-06-10T09:09:23Z</time>
      </trkpt>
      <trkpt lat="45.9799" lon="4.84211">
        <ele>274</ele>
        <time>2017-06-10T09:09:24Z</time>
      </trkpt>
      <trkpt lat="45.97994" lon="4.84207">
        <ele>274</ele>
        <time>2017-06-10T09:09:25Z</time>
      </trkpt>
      <trkpt lat="45.97999" lon="4.84203">
        <ele>274</ele>
        <time>2017-06-10T09:09:26Z</time>
      </trkpt>
      <trkpt lat="45.98003" lon="4.84199">
        <ele>274</ele>
        <time>2017-06-10T09:09:27Z</time>
      </trkpt>
      <trkpt lat="45.98008" lon="4.84194">
        <ele>274</ele>
        <time>2017-06-10T09:09:28Z</time>
      </trkpt>
      <trkpt lat="45.98013" lon="4.84189">
        <ele>274</ele>
        <time>2017-06-10T09:09:29Z</time>
      </trkpt>
      <trkpt lat="45.98018" lon="4.84184">
        <ele>274</ele>
        <time>2017-06-10T09:09:30Z</time>
      </trkpt>
      <trkpt lat="45.98023" lon="4.84179">
        <ele>274</ele>
        <time>2017-06-10T09:09:31Z</time>
      </trkpt>
      <trkpt lat="45.98028" lon="4.84174">
        <ele>274</ele>
        <time>2017-06-10T09:09:32Z</time>
      </trkpt>
      <trkpt lat="45.98033" lon="4.84169">
        <ele>273</ele>
        <time>2017-06-10T09:09:33Z</time>
      </trkpt>
      <trkpt lat="45.98038" lon="4.84165">
        <ele>273</ele>
        <time>2017-06-10T09:09:34Z</time>
      </trkpt>
      <trkpt lat="45.98043" lon="4.84161">
        <ele>273</ele>
        <time>2017-06-10T09:09:35Z</time>
      </trkpt>
      <trkpt lat="45.98047" lon="4.84156">
        <ele>273</ele>
        <time>2017-06-10T09:09:36Z</time>
      </trkpt>
      <trkpt lat="45.98051" lon="4.84152">
        <ele>273</ele>
        <time>2017-06-10T09:09:37Z</time>
      </trkpt>
      <trkpt lat="45.98056" lon="4.84148">
        <ele>273</ele>
        <time>2017-06-10T09:09:38Z</time>
      </trkpt>
      <trkpt lat="45.9806" lon="4.84144">
        <ele>273</ele>
        <time>2017-06-10T09:09:39Z</time>
      </trkpt>
      <trkpt lat="45.98064" lon="4.84141">
        <ele>273</ele>
        <time>2017-06-10T09:09:40Z</time>
      </trkpt>
      <trkpt lat="45.98068" lon="4.84137">
        <ele>273</ele>
        <time>2017-06-10T09:09:41Z</time>
      </trkpt>
      <trkpt lat="45.98072" lon="4.84133">
        <ele>273</ele>
        <time>2017-06-10T09:09:42Z</time>
      </trkpt>
      <trkpt lat="45.98076" lon="4.84129">
        <ele>273</ele>
        <time>2017-06-10T09:09:43Z</time>
      </trkpt>
      <trkpt lat="45.9808" lon="4.84125">
        <ele>273</ele>
        <time>2017-06-10T09:09:44Z</time>
      </trkpt>
      <trkpt lat="45.98084" lon="4.84122">
        <ele>273</ele>
        <time>2017-06-10T09:09:45Z</time>
      </trkpt>
      <trkpt lat="45.98092" lon="4.84116">
        <ele>273</ele>
        <time>2017-06-10T09:09:47Z</time>
      </trkpt>
      <trkpt lat="45.98095" lon="4.84112">
        <ele>273</ele>
        <time>2017-06-10T09:09:48Z</time>
      </trkpt>
      <trkpt lat="45.98099" lon="4.84109">
        <ele>273</ele>
        <time>2017-06-10T09:09:49Z</time>
      </trkpt>
      <trkpt lat="45.98103" lon="4.84105">
        <ele>273</ele>
        <time>2017-06-10T09:09:50Z</time>
      </trkpt>
      <trkpt lat="45.9811" lon="4.84098">
        <ele>273</ele>
        <time>2017-06-10T09:09:52Z</time>
      </trkpt>
      <trkpt lat="45.98114" lon="4.84094">
        <ele>273</ele>
        <time>2017-06-10T09:09:53Z</time>
      </trkpt>
      <trkpt lat="45.98121" lon="4.84088">
        <ele>273</ele>
        <time>2017-06-10T09:09:55Z</time>
      </trkpt>
      <trkpt lat="45.98124" lon="4.84085">
        <ele>273</ele>
        <time>2017-06-10T09:09:56Z</time>
      </trkpt>
      <trkpt lat="45.98131" lon="4.84078">
        <ele>273</ele>
        <time>2017-06-10T09:09:58Z</time>
      </trkpt>
      <trkpt lat="45.98134" lon="4.84074">
        <ele>273</ele>
        <time>2017-06-10T09:09:59Z</time>
      </trkpt>
      <trkpt lat="45.98138" lon="4.84069">
        <ele>273</ele>
        <time>2017-06-10T09:10:00Z</time>
      </trkpt>
      <trkpt lat="45.98141" lon="4.84064">
        <ele>273</ele>
        <time>2017-06-10T09:10:01Z</time>
      </trkpt>
      <trkpt lat="45.98145" lon="4.84059">
        <ele>273</ele>
        <time>2017-06-10T09:10:02Z</time>
      </trkpt>
      <trkpt lat="45.98148" lon="4.84053">
        <ele>273</ele>
        <time>2017-06-10T09:10:03Z</time>
      </trkpt>
      <trkpt lat="45.98152" lon="4.84047">
        <ele>273</ele>
        <time>2017-06-10T09:10:04Z</time>
      </trkpt>
      <trkpt lat="45.98155" lon="4.8404">
        <ele>273</ele>
        <time>2017-06-10T09:10:05Z</time>
      </trkpt>
      <trkpt lat="45.98159" lon="4.84034">
        <ele>273</ele>
        <time>2017-06-10T09:10:06Z</time>
      </trkpt>
      <trkpt lat="45.98162" lon="4.84028">
        <ele>273</ele>
        <time>2017-06-10T09:10:07Z</time>
      </trkpt>
      <trkpt lat="45.98166" lon="4.84022">
        <ele>273</ele>
        <time>2017-06-10T09:10:08Z</time>
      </trkpt>
      <trkpt lat="45.98169" lon="4.84016">
        <ele>273</ele>
        <time>2017-06-10T09:10:09Z</time>
      </trkpt>
      <trkpt lat="45.98172" lon="4.84009">
        <ele>273</ele>
        <time>2017-06-10T09:10:10Z</time>
      </trkpt>
      <trkpt lat="45.98175" lon="4.84003">
        <ele>273</ele>
        <time>2017-06-10T09:10:11Z</time>
      </trkpt>
      <trkpt lat="45.98178" lon="4.83997">
        <ele>273</ele>
        <time>2017-06-10T09:10:12Z</time>
      </trkpt>
      <trkpt lat="45.9818" lon="4.83991">
        <ele>273</ele>
        <time>2017-06-10T09:10:13Z</time>
      </trkpt>
      <trkpt lat="45.98183" lon="4.83985">
        <ele>273</ele>
        <time>2017-06-10T09:10:14Z</time>
      </trkpt>
      <trkpt lat="45.98185" lon="4.83979">
        <ele>273</ele>
        <time>2017-06-10T09:10:15Z</time>
      </trkpt>
      <trkpt lat="45.98188" lon="4.83973">
        <ele>273</ele>
        <time>2017-06-10T09:10:16Z</time>
      </trkpt>
      <trkpt lat="45.9819" lon="4.83966">
        <ele>273</ele>
        <time>2017-06-10T09:10:17Z</time>
      </trkpt>
      <trkpt lat="45.98193" lon="4.83959">
        <ele>273</ele>
        <time>2017-06-10T09:10:18Z</time>
      </trkpt>
      <trkpt lat="45.98195" lon="4.83952">
        <ele>273</ele>
        <time>2017-06-10T09:10:19Z</time>
      </trkpt>
      <trkpt lat="45.98198" lon="4.83945">
        <ele>273</ele>
        <time>2017-06-10T09:10:20Z</time>
      </trkpt>
      <trkpt lat="45.982" lon="4.83938">
        <ele>273</ele>
        <time>2017-06-10T09:10:21Z</time>
      </trkpt>
      <trkpt lat="45.98203" lon="4.83931">
        <ele>273</ele>
        <time>2017-06-10T09:10:22Z</time>
      </trkpt>
      <trkpt lat="45.98206" lon="4.83924">
        <ele>273</ele>
        <time>2017-06-10T09:10:23Z</time>
      </trkpt>
      <trkpt lat="45.98208" lon="4.83917">
        <ele>273</ele>
        <time>2017-06-10T09:10:24Z</time>
      </trkpt>
      <trkpt lat="45.98211" lon="4.83911">
        <ele>273</ele>
        <time>2017-06-10T09:10:25Z</time>
      </trkpt>
      <trkpt lat="45.98213" lon="4.83904">
        <ele>273</ele>
        <time>2017-06-10T09:10:26Z</time>
      </trkpt>
      <trkpt lat="45.98215" lon="4.83898">
        <ele>273</ele>
        <time>2017-06-10T09:10:27Z</time>
      </trkpt>
      <trkpt lat="45.98217" lon="4.83892">
        <ele>273</ele>
        <time>2017-06-10T09:10:28Z</time>
      </trkpt>
      <trkpt lat="45.9822" lon="4.83886">
        <ele>272</ele>
        <time>2017-06-10T09:10:29Z</time>
      </trkpt>
      <trkpt lat="45.98222" lon="4.8388">
        <ele>272</ele>
        <time>2017-06-10T09:10:30Z</time>
      </trkpt>
      <trkpt lat="45.98224" lon="4.83874">
        <ele>272</ele>
        <time>2017-06-10T09:10:31Z</time>
      </trkpt>
      <trkpt lat="45.98226" lon="4.83867">
        <ele>272</ele>
        <time>2017-06-10T09:10:32Z</time>
      </trkpt>
      <trkpt lat="45.98227" lon="4.83861">
        <ele>272</ele>
        <time>2017-06-10T09:10:33Z</time>
      </trkpt>
      <trkpt lat="45.98229" lon="4.83855">
        <ele>272</ele>
        <time>2017-06-10T09:10:34Z</time>
      </trkpt>
      <trkpt lat="45.98232" lon="4.83848">
        <ele>272</ele>
        <time>2017-06-10T09:10:35Z</time>
      </trkpt>
      <trkpt lat="45.98234" lon="4.83842">
        <ele>272</ele>
        <time>2017-06-10T09:10:36Z</time>
      </trkpt>
      <trkpt lat="45.98237" lon="4.83835">
        <ele>272</ele>
        <time>2017-06-10T09:10:37Z</time>
      </trkpt>
      <trkpt lat="45.98239" lon="4.83827">
        <ele>272</ele>
        <time>2017-06-10T09:10:38Z</time>
      </trkpt>
      <trkpt lat="45.98242" lon="4.83819">
        <ele>272</ele>
        <time>2017-06-10T09:10:39Z</time>
      </trkpt>
      <trkpt lat="45.98245" lon="4.83811">
        <ele>272</ele>
        <time>2017-06-10T09:10:40Z</time>
      </trkpt>
      <trkpt lat="45.98248" lon="4.83802">
        <ele>272</ele>
        <time>2017-06-10T09:10:41Z</time>
      </trkpt>
      <trkpt lat="45.98251" lon="4.83793">
        <ele>272</ele>
        <time>2017-06-10T09:10:42Z</time>
      </trkpt>
      <trkpt lat="45.98254" lon="4.83785">
        <ele>272</ele>
        <time>2017-06-10T09:10:43Z</time>
      </trkpt>
      <trkpt lat="45.98257" lon="4.83777">
        <ele>272</ele>
        <time>2017-06-10T09:10:44Z</time>
      </trkpt>
      <trkpt lat="45.98259" lon="4.83769">
        <ele>272</ele>
        <time>2017-06-10T09:10:45Z</time>
      </trkpt>
      <trkpt lat="45.98262" lon="4.83761">
        <ele>272</ele>
        <time>2017-06-10T09:10:46Z</time>
      </trkpt>
      <trkpt lat="45.98264" lon="4.83753">
        <ele>272</ele>
        <time>2017-06-10T09:10:47Z</time>
      </trkpt>
      <trkpt lat="45.98267" lon="4.83745">
        <ele>272</ele>
        <time>2017-06-10T09:10:48Z</time>
      </trkpt>
      <trkpt lat="45.9827" lon="4.83738">
        <ele>272</ele>
        <time>2017-06-10T09:10:49Z</time>
      </trkpt>
      <trkpt lat="45.98272" lon="4.8373">
        <ele>272</ele>
        <time>2017-06-10T09:10:50Z</time>
      </trkpt>
      <trkpt lat="45.98275" lon="4.83723">
        <ele>272</ele>
        <time>2017-06-10T09:10:51Z</time>
      </trkpt>
      <trkpt lat="45.98278" lon="4.83716">
        <ele>272</ele>
        <time>2017-06-10T09:10:52Z</time>
      </trkpt>
      <trkpt lat="45.9828" lon="4.83709">
        <ele>272</ele>
        <time>2017-06-10T09:10:53Z</time>
      </trkpt>
      <trkpt lat="45.98283" lon="4.83702">
        <ele>272</ele>
        <time>2017-06-10T09:10:54Z</time>
      </trkpt>
      <trkpt lat="45.98285" lon="4.83695">
        <ele>272</ele>
        <time>2017-06-10T09:10:55Z</time>
      </trkpt>
      <trkpt lat="45.98287" lon="4.83688">
        <ele>272</ele>
        <time>2017-06-10T09:10:56Z</time>
      </trkpt>
      <trkpt lat="45.9829" lon="4.83681">
        <ele>272</ele>
        <time>2017-06-10T09:10:57Z</time>
      </trkpt>
      <trkpt lat="45.98292" lon="4.83675">
        <ele>272</ele>
        <time>2017-06-10T09:10:58Z</time>
      </trkpt>
      <trkpt lat="45.98294" lon="4.83668">
        <ele>272</ele>
        <time>2017-06-10T09:10:59Z</time>
      </trkpt>
      <trkpt lat="45.98297" lon="4.83662">
        <ele>271</ele>
        <time>2017-06-10T09:11:00Z</time>
      </trkpt>
      <trkpt lat="45.983" lon="4.83655">
        <ele>271</ele>
        <time>2017-06-10T09:11:01Z</time>
      </trkpt>
      <trkpt lat="45.98303" lon="4.83649">
        <ele>271</ele>
        <time>2017-06-10T09:11:02Z</time>
      </trkpt>
      <trkpt lat="45.98305" lon="4.83642">
        <ele>271</ele>
        <time>2017-06-10T09:11:03Z</time>
      </trkpt>
      <trkpt lat="45.98308" lon="4.83636">
        <ele>271</ele>
        <time>2017-06-10T09:11:04Z</time>
      </trkpt>
      <trkpt lat="45.98312" lon="4.8363">
        <ele>271</ele>
        <time>2017-06-10T09:11:05Z</time>
      </trkpt>
      <trkpt lat="45.98316" lon="4.83624">
        <ele>271</ele>
        <time>2017-06-10T09:11:06Z</time>
      </trkpt>
      <trkpt lat="45.98319" lon="4.83619">
        <ele>271</ele>
        <time>2017-06-10T09:11:07Z</time>
      </trkpt>
      <trkpt lat="45.98322" lon="4.83613">
        <ele>271</ele>
        <time>2017-06-10T09:11:08Z</time>
      </trkpt>
      <trkpt lat="45.98326" lon="4.83608">
        <ele>271</ele>
        <time>2017-06-10T09:11:09Z</time>
      </trkpt>
      <trkpt lat="45.9833" lon="4.83602">
        <ele>271</ele>
        <time>2017-06-10T09:11:10Z</time>
      </trkpt>
      <trkpt lat="45.98333" lon="4.83597">
        <ele>270</ele>
        <time>2017-06-10T09:11:11Z</time>
      </trkpt>
      <trkpt lat="45.98337" lon="4.83591">
        <ele>270</ele>
        <time>2017-06-10T09:11:12Z</time>
      </trkpt>
      <trkpt lat="45.98341" lon="4.83585">
        <ele>270</ele>
        <time>2017-06-10T09:11:13Z</time>
      </trkpt>
      <trkpt lat="45.98345" lon="4.8358">
        <ele>270</ele>
        <time>2017-06-10T09:11:14Z</time>
      </trkpt>
      <trkpt lat="45.98349" lon="4.83574">
        <ele>269</ele>
        <time>2017-06-10T09:11:15Z</time>
      </trkpt>
      <trkpt lat="45.98354" lon="4.83568">
        <ele>269</ele>
        <time>2017-06-10T09:11:16Z</time>
      </trkpt>
      <trkpt lat="45.98358" lon="4.83562">
        <ele>269</ele>
        <time>2017-06-10T09:11:17Z</time>
      </trkpt>
      <trkpt lat="45.98363" lon="4.83556">
        <ele>269</ele>
        <time>2017-06-10T09:11:18Z</time>
      </trkpt>
      <trkpt lat="45.98367" lon="4.8355">
        <ele>269</ele>
        <time>2017-06-10T09:11:19Z</time>
      </trkpt>
      <trkpt lat="45.98372" lon="4.83544">
        <ele>269</ele>
        <time>2017-06-10T09:11:20Z</time>
      </trkpt>
      <trkpt lat="45.98376" lon="4.83538">
        <ele>269</ele>
        <time>2017-06-10T09:11:21Z</time>
      </trkpt>
      <trkpt lat="45.9838" lon="4.83532">
        <ele>269</ele>
        <time>2017-06-10T09:11:22Z</time>
      </trkpt>
      <trkpt lat="45.98385" lon="4.83526">
        <ele>269</ele>
        <time>2017-06-10T09:11:23Z</time>
      </trkpt>
      <trkpt lat="45.98389" lon="4.8352">
        <ele>269</ele>
        <time>2017-06-10T09:11:24Z</time>
      </trkpt>
      <trkpt lat="45.98393" lon="4.83514">
        <ele>269</ele>
        <time>2017-06-10T09:11:25Z</time>
      </trkpt>
      <trkpt lat="45.98398" lon="4.83508">
        <ele>269</ele>
        <time>2017-06-10T09:11:26Z</time>
      </trkpt>
      <trkpt lat="45.98402" lon="4.83503">
        <ele>268</ele>
        <time>2017-06-10T09:11:27Z</time>
      </trkpt>
      <trkpt lat="45.98407" lon="4.83498">
        <ele>268</ele>
        <time>2017-06-10T09:11:28Z</time>
      </trkpt>
      <trkpt lat="45.9841" lon="4.83492">
        <ele>268</ele>
        <time>2017-06-10T09:11:29Z</time>
      </trkpt>
      <trkpt lat="45.98414" lon="4.83486">
        <ele>269</ele>
        <time>2017-06-10T09:11:30Z</time>
      </trkpt>
      <trkpt lat="45.98418" lon="4.83481">
        <ele>268</ele>
        <time>2017-06-10T09:11:31Z</time>
      </trkpt>
      <trkpt lat="45.98422" lon="4.83475">
        <ele>268</ele>
        <time>2017-06-10T09:11:32Z</time>
      </trkpt>
      <trkpt lat="45.98425" lon="4.8347">
        <ele>268</ele>
        <time>2017-06-10T09:11:33Z</time>
      </trkpt>
      <trkpt lat="45.9843" lon="4.83464">
        <ele>268</ele>
        <time>2017-06-10T09:11:34Z</time>
      </trkpt>
      <trkpt lat="45.98434" lon="4.83458">
        <ele>268</ele>
        <time>2017-06-10T09:11:35Z</time>
      </trkpt>
      <trkpt lat="45.98439" lon="4.83452">
        <ele>268</ele>
        <time>2017-06-10T09:11:36Z</time>
      </trkpt>
      <trkpt lat="45.98444" lon="4.83445">
        <ele>268</ele>
        <time>2017-06-10T09:11:37Z</time>
      </trkpt>
      <trkpt lat="45.98449" lon="4.83439">
        <ele>268</ele>
        <time>2017-06-10T09:11:38Z</time>
      </trkpt>
      <trkpt lat="45.98454" lon="4.83433">
        <ele>268</ele>
        <time>2017-06-10T09:11:39Z</time>
      </trkpt>
      <trkpt lat="45.98458" lon="4.83427">
        <ele>268</ele>
        <time>2017-06-10T09:11:40Z</time>
      </trkpt>
      <trkpt lat="45.98462" lon="4.83421">
        <ele>269</ele>
        <time>2017-06-10T09:11:41Z</time>
      </trkpt>
      <trkpt lat="45.98467" lon="4.83415">
        <ele>269</ele>
        <time>2017-06-10T09:11:42Z</time>
      </trkpt>
      <trkpt lat="45.98471" lon="4.8341">
        <ele>269</ele>
        <time>2017-06-10T09:11:43Z</time>
      </trkpt>
      <trkpt lat="45.98475" lon="4.83405">
        <ele>269</ele>
        <time>2017-06-10T09:11:44Z</time>
      </trkpt>
      <trkpt lat="45.98479" lon="4.834">
        <ele>269</ele>
        <time>2017-06-10T09:11:45Z</time>
      </trkpt>
      <trkpt lat="45.98482" lon="4.83395">
        <ele>269</ele>
        <time>2017-06-10T09:11:46Z</time>
      </trkpt>
      <trkpt lat="45.98486" lon="4.8339">
        <ele>269</ele>
        <time>2017-06-10T09:11:47Z</time>
      </trkpt>
      <trkpt lat="45.98489" lon="4.83385">
        <ele>269</ele>
        <time>2017-06-10T09:11:48Z</time>
      </trkpt>
      <trkpt lat="45.98493" lon="4.83381">
        <ele>269</ele>
        <time>2017-06-10T09:11:49Z</time>
      </trkpt>
      <trkpt lat="45.98497" lon="4.83376">
        <ele>269</ele>
        <time>2017-06-10T09:11:50Z</time>
      </trkpt>
      <trkpt lat="45.985" lon="4.83371">
        <ele>270</ele>
        <time>2017-06-10T09:11:51Z</time>
      </trkpt>
      <trkpt lat="45.98504" lon="4.83366">
        <ele>269</ele>
        <time>2017-06-10T09:11:52Z</time>
      </trkpt>
      <trkpt lat="45.98507" lon="4.83361">
        <ele>269</ele>
        <time>2017-06-10T09:11:53Z</time>
      </trkpt>
      <trkpt lat="45.98511" lon="4.83356">
        <ele>269</ele>
        <time>2017-06-10T09:11:54Z</time>
      </trkpt>
      <trkpt lat="45.98514" lon="4.83351">
        <ele>270</ele>
        <time>2017-06-10T09:11:55Z</time>
      </trkpt>
      <trkpt lat="45.98517" lon="4.83346">
        <ele>270</ele>
        <time>2017-06-10T09:11:56Z</time>
      </trkpt>
      <trkpt lat="45.98521" lon="4.8334">
        <ele>270</ele>
        <time>2017-06-10T09:11:57Z</time>
      </trkpt>
      <trkpt lat="45.98525" lon="4.83335">
        <ele>270</ele>
        <time>2017-06-10T09:11:58Z</time>
      </trkpt>
      <trkpt lat="45.98529" lon="4.8333">
        <ele>269</ele>
        <time>2017-06-10T09:11:59Z</time>
      </trkpt>
      <trkpt lat="45.98533" lon="4.83325">
        <ele>269</ele>
        <time>2017-06-10T09:12:00Z</time>
      </trkpt>
      <trkpt lat="45.98537" lon="4.8332">
        <ele>269</ele>
        <time>2017-06-10T09:12:01Z</time>
      </trkpt>
      <trkpt lat="45.9854" lon="4.83315">
        <ele>269</ele>
        <time>2017-06-10T09:12:02Z</time>
      </trkpt>
      <trkpt lat="45.98544" lon="4.83311">
        <ele>269</ele>
        <time>2017-06-10T09:12:03Z</time>
      </trkpt>
      <trkpt lat="45.98547" lon="4.83306">
        <ele>269</ele>
        <time>2017-06-10T09:12:04Z</time>
      </trkpt>
      <trkpt lat="45.98551" lon="4.83301">
        <ele>269</ele>
        <time>2017-06-10T09:12:05Z</time>
      </trkpt>
      <trkpt lat="45.98555" lon="4.83296">
        <ele>269</ele>
        <time>2017-06-10T09:12:06Z</time>
      </trkpt>
      <trkpt lat="45.98559" lon="4.83291">
        <ele>269</ele>
        <time>2017-06-10T09:12:07Z</time>
      </trkpt>
      <trkpt lat="45.98563" lon="4.83286">
        <ele>269</ele>
        <time>2017-06-10T09:12:08Z</time>
      </trkpt>
      <trkpt lat="45.98566" lon="4.83281">
        <ele>269</ele>
        <time>2017-06-10T09:12:09Z</time>
      </trkpt>
      <trkpt lat="45.9857" lon="4.83276">
        <ele>269</ele>
        <time>2017-06-10T09:12:10Z</time>
      </trkpt>
      <trkpt lat="45.98574" lon="4.83271">
        <ele>269</ele>
        <time>2017-06-10T09:12:11Z</time>
      </trkpt>
      <trkpt lat="45.98578" lon="4.83265">
        <ele>269</ele>
        <time>2017-06-10T09:12:12Z</time>
      </trkpt>
      <trkpt lat="45.98581" lon="4.8326">
        <ele>268</ele>
        <time>2017-06-10T09:12:13Z</time>
      </trkpt>
      <trkpt lat="45.98585" lon="4.83255">
        <ele>268</ele>
        <time>2017-06-10T09:12:14Z</time>
      </trkpt>
      <trkpt lat="45.98589" lon="4.8325">
        <ele>268</ele>
        <time>2017-06-10T09:12:15Z</time>
      </trkpt>
      <trkpt lat="45.98592" lon="4.83245">
        <ele>268</ele>
        <time>2017-06-10T09:12:16Z</time>
      </trkpt>
      <trkpt lat="45.98596" lon="4.8324">
        <ele>268</ele>
        <time>2017-06-10T09:12:17Z</time>
      </trkpt>
      <trkpt lat="45.986" lon="4.83235">
        <ele>268</ele>
        <time>2017-06-10T09:12:18Z</time>
      </trkpt>
      <trkpt lat="45.98603" lon="4.8323">
        <ele>268</ele>
        <time>2017-06-10T09:12:19Z</time>
      </trkpt>
      <trkpt lat="45.98607" lon="4.83225">
        <ele>267</ele>
        <time>2017-06-10T09:12:20Z</time>
      </trkpt>
      <trkpt lat="45.98611" lon="4.8322">
        <ele>267</ele>
        <time>2017-06-10T09:12:21Z</time>
      </trkpt>
      <trkpt lat="45.98615" lon="4.83215">
        <ele>267</ele>
        <time>2017-06-10T09:12:22Z</time>
      </trkpt>
      <trkpt lat="45.98619" lon="4.8321">
        <ele>267</ele>
        <time>2017-06-10T09:12:23Z</time>
      </trkpt>
      <trkpt lat="45.98623" lon="4.83205">
        <ele>267</ele>
        <time>2017-06-10T09:12:24Z</time>
      </trkpt>
      <trkpt lat="45.98627" lon="4.83201">
        <ele>267</ele>
        <time>2017-06-10T09:12:25Z</time>
      </trkpt>
      <trkpt lat="45.98631" lon="4.83196">
        <ele>267</ele>
        <time>2017-06-10T09:12:26Z</time>
      </trkpt>
      <trkpt lat="45.98635" lon="4.83191">
        <ele>267</ele>
        <time>2017-06-10T09:12:27Z</time>
      </trkpt>
      <trkpt lat="45.9864" lon="4.83187">
        <ele>267</ele>
        <time>2017-06-10T09:12:28Z</time>
      </trkpt>
      <trkpt lat="45.98644" lon="4.83182">
        <ele>267</ele>
        <time>2017-06-10T09:12:29Z</time>
      </trkpt>
      <trkpt lat="45.98648" lon="4.83178">
        <ele>267</ele>
        <time>2017-06-10T09:12:30Z</time>
      </trkpt>
      <trkpt lat="45.98653" lon="4.83174">
        <ele>267</ele>
        <time>2017-06-10T09:12:31Z</time>
      </trkpt>
      <trkpt lat="45.98657" lon="4.8317">
        <ele>266</ele>
        <time>2017-06-10T09:12:32Z</time>
      </trkpt>
      <trkpt lat="45.98663" lon="4.83167">
        <ele>266</ele>
        <time>2017-06-10T09:12:33Z</time>
      </trkpt>
      <trkpt lat="45.98668" lon="4.83163">
        <ele>266</ele>
        <time>2017-06-10T09:12:34Z</time>
      </trkpt>
      <trkpt lat="45.98674" lon="4.83158">
        <ele>266</ele>
        <time>2017-06-10T09:12:35Z</time>
      </trkpt>
      <trkpt lat="45.98681" lon="4.83154">
        <ele>266</ele>
        <time>2017-06-10T09:12:36Z</time>
      </trkpt>
      <trkpt lat="45.98687" lon="4.83149">
        <ele>266</ele>
        <time>2017-06-10T09:12:37Z</time>
      </trkpt>
      <trkpt lat="45.98693" lon="4.83144">
        <ele>266</ele>
        <time>2017-06-10T09:12:38Z</time>
      </trkpt>
      <trkpt lat="45.98699" lon="4.83139">
        <ele>266</ele>
        <time>2017-06-10T09:12:39Z</time>
      </trkpt>
      <trkpt lat="45.98705" lon="4.83134">
        <ele>266</ele>
        <time>2017-06-10T09:12:40Z</time>
      </trkpt>
      <trkpt lat="45.9871" lon="4.8313">
        <ele>266</ele>
        <time>2017-06-10T09:12:41Z</time>
      </trkpt>
      <trkpt lat="45.98716" lon="4.83125">
        <ele>266</ele>
        <time>2017-06-10T09:12:42Z</time>
      </trkpt>
      <trkpt lat="45.98722" lon="4.8312">
        <ele>266</ele>
        <time>2017-06-10T09:12:43Z</time>
      </trkpt>
      <trkpt lat="45.98728" lon="4.83115">
        <ele>267</ele>
        <time>2017-06-10T09:12:44Z</time>
      </trkpt>
      <trkpt lat="45.98733" lon="4.8311">
        <ele>267</ele>
        <time>2017-06-10T09:12:45Z</time>
      </trkpt>
      <trkpt lat="45.98738" lon="4.83105">
        <ele>267</ele>
        <time>2017-06-10T09:12:46Z</time>
      </trkpt>
      <trkpt lat="45.98744" lon="4.831">
        <ele>267</ele>
        <time>2017-06-10T09:12:47Z</time>
      </trkpt>
      <trkpt lat="45.98749" lon="4.83096">
        <ele>267</ele>
        <time>2017-06-10T09:12:48Z</time>
      </trkpt>
      <trkpt lat="45.98755" lon="4.83091">
        <ele>266</ele>
        <time>2017-06-10T09:12:49Z</time>
      </trkpt>
      <trkpt lat="45.98761" lon="4.83086">
        <ele>266</ele>
        <time>2017-06-10T09:12:50Z</time>
      </trkpt>
      <trkpt lat="45.98767" lon="4.83081">
        <ele>266</ele>
        <time>2017-06-10T09:12:51Z</time>
      </trkpt>
      <trkpt lat="45.98774" lon="4.83076">
        <ele>265</ele>
        <time>2017-06-10T09:12:52Z</time>
      </trkpt>
      <trkpt lat="45.9878" lon="4.8307">
        <ele>265</ele>
        <time>2017-06-10T09:12:53Z</time>
      </trkpt>
      <trkpt lat="45.98787" lon="4.83064">
        <ele>265</ele>
        <time>2017-06-10T09:12:54Z</time>
      </trkpt>
      <trkpt lat="45.98793" lon="4.83058">
        <ele>265</ele>
        <time>2017-06-10T09:12:55Z</time>
      </trkpt>
      <trkpt lat="45.988" lon="4.83053">
        <ele>264</ele>
        <time>2017-06-10T09:12:56Z</time>
      </trkpt>
      <trkpt lat="45.98807" lon="4.83048">
        <ele>264</ele>
        <time>2017-06-10T09:12:57Z</time>
      </trkpt>
      <trkpt lat="45.98814" lon="4.83042">
        <ele>264</ele>
        <time>2017-06-10T09:12:58Z</time>
      </trkpt>
      <trkpt lat="45.98822" lon="4.83036">
        <ele>264</ele>
        <time>2017-06-10T09:12:59Z</time>
      </trkpt>
      <trkpt lat="45.98829" lon="4.8303">
        <ele>264</ele>
        <time>2017-06-10T09:13:00Z</time>
      </trkpt>
      <trkpt lat="45.98837" lon="4.83025">
        <ele>261</ele>
        <time>2017-06-10T09:13:01Z</time>
      </trkpt>
      <trkpt lat="45.98845" lon="4.8302">
        <ele>261</ele>
        <time>2017-06-10T09:13:02Z</time>
      </trkpt>
      <trkpt lat="45.98852" lon="4.83015">
        <ele>261</ele>
        <time>2017-06-10T09:13:03Z</time>
      </trkpt>
      <trkpt lat="45.98861" lon="4.83009">
        <ele>260</ele>
        <time>2017-06-10T09:13:04Z</time>
      </trkpt>
      <trkpt lat="45.98869" lon="4.83003">
        <ele>260</ele>
        <time>2017-06-10T09:13:05Z</time>
      </trkpt>
      <trkpt lat="45.98877" lon="4.82997">
        <ele>260</ele>
        <time>2017-06-10T09:13:06Z</time>
      </trkpt>
      <trkpt lat="45.98886" lon="4.8299">
        <ele>259</ele>
        <time>2017-06-10T09:13:07Z</time>
      </trkpt>
      <trkpt lat="45.98894" lon="4.82983">
        <ele>259</ele>
        <time>2017-06-10T09:13:08Z</time>
      </trkpt>
      <trkpt lat="45.98903" lon="4.82975">
        <ele>259</ele>
        <time>2017-06-10T09:13:09Z</time>
      </trkpt>
      <trkpt lat="45.98911" lon="4.82965">
        <ele>258</ele>
        <time>2017-06-10T09:13:10Z</time>
      </trkpt>
      <trkpt lat="45.98918" lon="4.82954">
        <ele>255</ele>
        <time>2017-06-10T09:13:11Z</time>
      </trkpt>
      <trkpt lat="45.98925" lon="4.82941">
        <ele>255</ele>
        <time>2017-06-10T09:13:12Z</time>
      </trkpt>
      <trkpt lat="45.9893" lon="4.82927">
        <ele>255</ele>
        <time>2017-06-10T09:13:13Z</time>
      </trkpt>
      <trkpt lat="45.98936" lon="4.82914">
        <ele>254</ele>
        <time>2017-06-10T09:13:14Z</time>
      </trkpt>
      <trkpt lat="45.98943" lon="4.82899">
        <ele>253</ele>
        <time>2017-06-10T09:13:15Z</time>
      </trkpt>
      <trkpt lat="45.98949" lon="4.82885">
        <ele>253</ele>
        <time>2017-06-10T09:13:16Z</time>
      </trkpt>
      <trkpt lat="45.98956" lon="4.8287">
        <ele>252</ele>
        <time>2017-06-10T09:13:17Z</time>
      </trkpt>
      <trkpt lat="45.98962" lon="4.82854">
        <ele>252</ele>
        <time>2017-06-10T09:13:18Z</time>
      </trkpt>
      <trkpt lat="45.98969" lon="4.82839">
        <ele>251</ele>
        <time>2017-06-10T09:13:19Z</time>
      </trkpt>
      <trkpt lat="45.98975" lon="4.82824">
        <ele>249</ele>
        <time>2017-06-10T09:13:20Z</time>
      </trkpt>
      <trkpt lat="45.98982" lon="4.82808">
        <ele>248</ele>
        <time>2017-06-10T09:13:21Z</time>
      </trkpt>
      <trkpt lat="45.98989" lon="4.82792">
        <ele>247</ele>
        <time>2017-06-10T09:13:22Z</time>
      </trkpt>
      <trkpt lat="45.98996" lon="4.82776">
        <ele>246</ele>
        <time>2017-06-10T09:13:23Z</time>
      </trkpt>
      <trkpt lat="45.99002" lon="4.82761">
        <ele>241</ele>
        <time>2017-06-10T09:13:24Z</time>
      </trkpt>
      <trkpt lat="45.99009" lon="4.82745">
        <ele>240</ele>
        <time>2017-06-10T09:13:25Z</time>
      </trkpt>
      <trkpt lat="45.99016" lon="4.8273">
        <ele>239</ele>
        <time>2017-06-10T09:13:26Z</time>
      </trkpt>
      <trkpt lat="45.99022" lon="4.82715">
        <ele>239</ele>
        <time>2017-06-10T09:13:27Z</time>
      </trkpt>
      <trkpt lat="45.99029" lon="4.827">
        <ele>238</ele>
        <time>2017-06-10T09:13:28Z</time>
      </trkpt>
      <trkpt lat="45.99036" lon="4.82684">
        <ele>238</ele>
        <time>2017-06-10T09:13:29Z</time>
      </trkpt>
      <trkpt lat="45.99042" lon="4.8267">
        <ele>238</ele>
        <time>2017-06-10T09:13:30Z</time>
      </trkpt>
      <trkpt lat="45.99048" lon="4.82656">
        <ele>236</ele>
        <time>2017-06-10T09:13:31Z</time>
      </trkpt>
      <trkpt lat="45.99054" lon="4.82643">
        <ele>236</ele>
        <time>2017-06-10T09:13:32Z</time>
      </trkpt>
      <trkpt lat="45.99059" lon="4.8263">
        <ele>236</ele>
        <time>2017-06-10T09:13:33Z</time>
      </trkpt>
      <trkpt lat="45.99063" lon="4.82619">
        <ele>236</ele>
        <time>2017-06-10T09:13:34Z</time>
      </trkpt>
      <trkpt lat="45.99068" lon="4.8261">
        <ele>236</ele>
        <time>2017-06-10T09:13:35Z</time>
      </trkpt>
      <trkpt lat="45.99071" lon="4.82602">
        <ele>235</ele>
        <time>2017-06-10T09:13:36Z</time>
      </trkpt>
      <trkpt lat="45.99074" lon="4.82594">
        <ele>235</ele>
        <time>2017-06-10T09:13:37Z</time>
      </trkpt>
      <trkpt lat="45.99075" lon="4.82586">
        <ele>235</ele>
        <time>2017-06-10T09:13:38Z</time>
      </trkpt>
      <trkpt lat="45.99075" lon="4.8258">
        <ele>235</ele>
        <time>2017-06-10T09:13:39Z</time>
      </trkpt>
      <trkpt lat="45.99072" lon="4.82574">
        <ele>235</ele>
        <time>2017-06-10T09:13:40Z</time>
      </trkpt>
      <trkpt lat="45.99068" lon="4.8257">
        <ele>235</ele>
        <time>2017-06-10T09:13:41Z</time>
      </trkpt>
      <trkpt lat="45.99062" lon="4.82568">
        <ele>235</ele>
        <time>2017-06-10T09:13:42Z</time>
      </trkpt>
      <trkpt lat="45.99057" lon="4.82566">
        <ele>235</ele>
        <time>2017-06-10T09:13:43Z</time>
      </trkpt>
      <trkpt lat="45.99051" lon="4.82565">
        <ele>235</ele>
        <time>2017-06-10T09:13:44Z</time>
      </trkpt>
      <trkpt lat="45.99047" lon="4.82563">
        <ele>235</ele>
        <time>2017-06-10T09:13:45Z</time>
      </trkpt>
      <trkpt lat="45.99038" lon="4.82558">
        <ele>235</ele>
        <time>2017-06-10T09:13:47Z</time>
      </trkpt>
      <trkpt lat="45.99035" lon="4.82554">
        <ele>235</ele>
        <time>2017-06-10T09:13:48Z</time>
      </trkpt>
      <trkpt lat="45.99031" lon="4.8255">
        <ele>235</ele>
        <time>2017-06-10T09:13:49Z</time>
      </trkpt>
      <trkpt lat="45.99027" lon="4.82546">
        <ele>235</ele>
        <time>2017-06-10T09:13:50Z</time>
      </trkpt>
      <trkpt lat="45.99024" lon="4.82541">
        <ele>235</ele>
        <time>2017-06-10T09:13:51Z</time>
      </trkpt>
      <trkpt lat="45.9902" lon="4.82536">
        <ele>235</ele>
        <time>2017-06-10T09:13:52Z</time>
      </trkpt>
      <trkpt lat="45.99017" lon="4.82531">
        <ele>235</ele>
        <time>2017-06-10T09:13:53Z</time>
      </trkpt>
      <trkpt lat="45.99014" lon="4.82525">
        <ele>235</ele>
        <time>2017-06-10T09:13:54Z</time>
      </trkpt>
      <trkpt lat="45.99011" lon="4.8252">
        <ele>235</ele>
        <time>2017-06-10T09:13:55Z</time>
      </trkpt>
      <trkpt lat="45.99008" lon="4.82514">
        <ele>235</ele>
        <time>2017-06-10T09:13:56Z</time>
      </trkpt>
      <trkpt lat="45.99006" lon="4.82508">
        <ele>235</ele>
        <time>2017-06-10T09:13:57Z</time>
      </trkpt>
      <trkpt lat="45.99003" lon="4.82502">
        <ele>235</ele>
        <time>2017-06-10T09:13:58Z</time>
      </trkpt>
      <trkpt lat="45.99001" lon="4.82495">
        <ele>235</ele>
        <time>2017-06-10T09:13:59Z</time>
      </trkpt>
      <trkpt lat="45.98998" lon="4.82489">
        <ele>236</ele>
        <time>2017-06-10T09:14:00Z</time>
      </trkpt>
      <trkpt lat="45.98996" lon="4.82482">
        <ele>236</ele>
        <time>2017-06-10T09:14:01Z</time>
      </trkpt>
      <trkpt lat="45.98994" lon="4.82475">
        <ele>236</ele>
        <time>2017-06-10T09:14:02Z</time>
      </trkpt>
      <trkpt lat="45.98992" lon="4.82468">
        <ele>236</ele>
        <time>2017-06-10T09:14:03Z</time>
      </trkpt>
      <trkpt lat="45.9899" lon="4.82462">
        <ele>236</ele>
        <time>2017-06-10T09:14:04Z</time>
      </trkpt>
      <trkpt lat="45.98988" lon="4.82456">
        <ele>236</ele>
        <time>2017-06-10T09:14:05Z</time>
      </trkpt>
      <trkpt lat="45.98987" lon="4.8245">
        <ele>236</ele>
        <time>2017-06-10T09:14:06Z</time>
      </trkpt>
      <trkpt lat="45.98985" lon="4.82444">
        <ele>236</ele>
        <time>2017-06-10T09:14:07Z</time>
      </trkpt>
      <trkpt lat="45.98983" lon="4.82436">
        <ele>236</ele>
        <time>2017-06-10T09:14:08Z</time>
      </trkpt>
      <trkpt lat="45.98981" lon="4.82429">
        <ele>236</ele>
        <time>2017-06-10T09:14:09Z</time>
      </trkpt>
      <trkpt lat="45.98978" lon="4.82422">
        <ele>236</ele>
        <time>2017-06-10T09:14:10Z</time>
      </trkpt>
      <trkpt lat="45.98976" lon="4.82414">
        <ele>235</ele>
        <time>2017-06-10T09:14:11Z</time>
      </trkpt>
      <trkpt lat="45.98974" lon="4.82405">
        <ele>235</ele>
        <time>2017-06-10T09:14:12Z</time>
      </trkpt>
      <trkpt lat="45.98972" lon="4.82398">
        <ele>235</ele>
        <time>2017-06-10T09:14:13Z</time>
      </trkpt>
      <trkpt lat="45.9897" lon="4.8239">
        <ele>235</ele>
        <time>2017-06-10T09:14:14Z</time>
      </trkpt>
      <trkpt lat="45.98969" lon="4.82383">
        <ele>235</ele>
        <time>2017-06-10T09:14:15Z</time>
      </trkpt>
      <trkpt lat="45.98966" lon="4.82375">
        <ele>235</ele>
        <time>2017-06-10T09:14:16Z</time>
      </trkpt>
      <trkpt lat="45.98964" lon="4.82367">
        <ele>235</ele>
        <time>2017-06-10T09:14:17Z</time>
      </trkpt>
      <trkpt lat="45.98962" lon="4.8236">
        <ele>235</ele>
        <time>2017-06-10T09:14:18Z</time>
      </trkpt>
      <trkpt lat="45.98959" lon="4.82352">
        <ele>235</ele>
        <time>2017-06-10T09:14:19Z</time>
      </trkpt>
      <trkpt lat="45.98956" lon="4.82346">
        <ele>235</ele>
        <time>2017-06-10T09:14:20Z</time>
      </trkpt>
      <trkpt lat="45.98953" lon="4.8234">
        <ele>235</ele>
        <time>2017-06-10T09:14:21Z</time>
      </trkpt>
      <trkpt lat="45.98949" lon="4.82335">
        <ele>235</ele>
        <time>2017-06-10T09:14:22Z</time>
      </trkpt>
      <trkpt lat="45.98945" lon="4.8233">
        <ele>234</ele>
        <time>2017-06-10T09:14:23Z</time>
      </trkpt>
      <trkpt lat="45.98941" lon="4.82325">
        <ele>234</ele>
        <time>2017-06-10T09:14:24Z</time>
      </trkpt>
      <trkpt lat="45.98938" lon="4.8232">
        <ele>234</ele>
        <time>2017-06-10T09:14:25Z</time>
      </trkpt>
      <trkpt lat="45.98934" lon="4.82316">
        <ele>235</ele>
        <time>2017-06-10T09:14:26Z</time>
      </trkpt>
      <trkpt lat="45.98931" lon="4.82311">
        <ele>234</ele>
        <time>2017-06-10T09:14:27Z</time>
      </trkpt>
      <trkpt lat="45.98927" lon="4.82307">
        <ele>234</ele>
        <time>2017-06-10T09:14:28Z</time>
      </trkpt>
      <trkpt lat="45.9892" lon="4.82299">
        <ele>234</ele>
        <time>2017-06-10T09:14:30Z</time>
      </trkpt>
      <trkpt lat="45.98916" lon="4.82294">
        <ele>236</ele>
        <time>2017-06-10T09:14:31Z</time>
      </trkpt>
      <trkpt lat="45.98912" lon="4.8229">
        <ele>236</ele>
        <time>2017-06-10T09:14:32Z</time>
      </trkpt>
      <trkpt lat="45.98908" lon="4.82285">
        <ele>236</ele>
        <time>2017-06-10T09:14:33Z</time>
      </trkpt>
      <trkpt lat="45.98904" lon="4.82279">
        <ele>236</ele>
        <time>2017-06-10T09:14:34Z</time>
      </trkpt>
      <trkpt lat="45.989" lon="4.82273">
        <ele>236</ele>
        <time>2017-06-10T09:14:35Z</time>
      </trkpt>
      <trkpt lat="45.98896" lon="4.82267">
        <ele>236</ele>
        <time>2017-06-10T09:14:36Z</time>
      </trkpt>
      <trkpt lat="45.98892" lon="4.8226">
        <ele>236</ele>
        <time>2017-06-10T09:14:37Z</time>
      </trkpt>
      <trkpt lat="45.98889" lon="4.82254">
        <ele>236</ele>
        <time>2017-06-10T09:14:38Z</time>
      </trkpt>
      <trkpt lat="45.98885" lon="4.82247">
        <ele>236</ele>
        <time>2017-06-10T09:14:39Z</time>
      </trkpt>
      <trkpt lat="45.98882" lon="4.82241">
        <ele>236</ele>
        <time>2017-06-10T09:14:40Z</time>
      </trkpt>
      <trkpt lat="45.98878" lon="4.82235">
        <ele>236</ele>
        <time>2017-06-10T09:14:41Z</time>
      </trkpt>
      <trkpt lat="45.98876" lon="4.82229">
        <ele>236</ele>
        <time>2017-06-10T09:14:42Z</time>
      </trkpt>
      <trkpt lat="45.98873" lon="4.82223">
        <ele>236</ele>
        <time>2017-06-10T09:14:43Z</time>
      </trkpt>
      <trkpt lat="45.9887" lon="4.82217">
        <ele>236</ele>
        <time>2017-06-10T09:14:44Z</time>
      </trkpt>
      <trkpt lat="45.98868" lon="4.82211">
        <ele>236</ele>
        <time>2017-06-10T09:14:45Z</time>
      </trkpt>
      <trkpt lat="45.98865" lon="4.82204">
        <ele>236</ele>
        <time>2017-06-10T09:14:46Z</time>
      </trkpt>
      <trkpt lat="45.98863" lon="4.82197">
        <ele>236</ele>
        <time>2017-06-10T09:14:47Z</time>
      </trkpt>
      <trkpt lat="45.9886" lon="4.8219">
        <ele>236</ele>
        <time>2017-06-10T09:14:48Z</time>
      </trkpt>
      <trkpt lat="45.98857" lon="4.82183">
        <ele>236</ele>
        <time>2017-06-10T09:14:49Z</time>
      </trkpt>
      <trkpt lat="45.98855" lon="4.82175">
        <ele>236</ele>
        <time>2017-06-10T09:14:50Z</time>
      </trkpt>
      <trkpt lat="45.98853" lon="4.82168">
        <ele>236</ele>
        <time>2017-06-10T09:14:51Z</time>
      </trkpt>
      <trkpt lat="45.98851" lon="4.8216">
        <ele>236</ele>
        <time>2017-06-10T09:14:52Z</time>
      </trkpt>
      <trkpt lat="45.98849" lon="4.82153">
        <ele>236</ele>
        <time>2017-06-10T09:14:53Z</time>
      </trkpt>
      <trkpt lat="45.98847" lon="4.82146">
        <ele>236</ele>
        <time>2017-06-10T09:14:54Z</time>
      </trkpt>
      <trkpt lat="45.98846" lon="4.82139">
        <ele>236</ele>
        <time>2017-06-10T09:14:55Z</time>
      </trkpt>
      <trkpt lat="45.98844" lon="4.82132">
        <ele>236</ele>
        <time>2017-06-10T09:14:56Z</time>
      </trkpt>
      <trkpt lat="45.98843" lon="4.82126">
        <ele>235</ele>
        <time>2017-06-10T09:14:57Z</time>
      </trkpt>
      <trkpt lat="45.98842" lon="4.82119">
        <ele>235</ele>
        <time>2017-06-10T09:14:58Z</time>
      </trkpt>
      <trkpt lat="45.9884" lon="4.82112">
        <ele>235</ele>
        <time>2017-06-10T09:14:59Z</time>
      </trkpt>
      <trkpt lat="45.98838" lon="4.821">
        <ele>236</ele>
        <time>2017-06-10T09:15:01Z</time>
      </trkpt>
      <trkpt lat="45.98837" lon="4.82094">
        <ele>236</ele>
        <time>2017-06-10T09:15:02Z</time>
      </trkpt>
      <trkpt lat="45.98836" lon="4.82088">
        <ele>236</ele>
        <time>2017-06-10T09:15:03Z</time>
      </trkpt>
      <trkpt lat="45.98834" lon="4.82081">
        <ele>236</ele>
        <time>2017-06-10T09:15:04Z</time>
      </trkpt>
      <trkpt lat="45.98833" lon="4.82073">
        <ele>237</ele>
        <time>2017-06-10T09:15:05Z</time>
      </trkpt>
      <trkpt lat="45.98832" lon="4.82066">
        <ele>237</ele>
        <time>2017-06-10T09:15:06Z</time>
      </trkpt>
      <trkpt lat="45.9883" lon="4.82058">
        <ele>237</ele>
        <time>2017-06-10T09:15:07Z</time>
      </trkpt>
      <trkpt lat="45.98829" lon="4.8205">
        <ele>237</ele>
        <time>2017-06-10T09:15:08Z</time>
      </trkpt>
      <trkpt lat="45.98828" lon="4.82042">
        <ele>238</ele>
        <time>2017-06-10T09:15:09Z</time>
      </trkpt>
      <trkpt lat="45.98827" lon="4.82035">
        <ele>238</ele>
        <time>2017-06-10T09:15:10Z</time>
      </trkpt>
      <trkpt lat="45.98826" lon="4.82028">
        <ele>238</ele>
        <time>2017-06-10T09:15:11Z</time>
      </trkpt>
      <trkpt lat="45.98825" lon="4.82021">
        <ele>238</ele>
        <time>2017-06-10T09:15:12Z</time>
      </trkpt>
      <trkpt lat="45.98824" lon="4.82014">
        <ele>238</ele>
        <time>2017-06-10T09:15:13Z</time>
      </trkpt>
      <trkpt lat="45.98822" lon="4.82008">
        <ele>238</ele>
        <time>2017-06-10T09:15:14Z</time>
      </trkpt>
      <trkpt lat="45.98821" lon="4.82001">
        <ele>238</ele>
        <time>2017-06-10T09:15:15Z</time>
      </trkpt>
      <trkpt lat="45.9882" lon="4.81994">
        <ele>238</ele>
        <time>2017-06-10T09:15:16Z</time>
      </trkpt>
      <trkpt lat="45.9882" lon="4.81987">
        <ele>238</ele>
        <time>2017-06-10T09:15:17Z</time>
      </trkpt>
      <trkpt lat="45.98819" lon="4.8198">
        <ele>238</ele>
        <time>2017-06-10T09:15:18Z</time>
      </trkpt>
      <trkpt lat="45.98818" lon="4.81973">
        <ele>239</ele>
        <time>2017-06-10T09:15:19Z</time>
      </trkpt>
      <trkpt lat="45.98817" lon="4.81966">
        <ele>239</ele>
        <time>2017-06-10T09:15:20Z</time>
      </trkpt>
      <trkpt lat="45.98816" lon="4.81959">
        <ele>239</ele>
        <time>2017-06-10T09:15:21Z</time>
      </trkpt>
      <trkpt lat="45.98815" lon="4.81953">
        <ele>239</ele>
        <time>2017-06-10T09:15:22Z</time>
      </trkpt>
      <trkpt lat="45.98814" lon="4.81946">
        <ele>239</ele>
        <time>2017-06-10T09:15:23Z</time>
      </trkpt>
      <trkpt lat="45.98813" lon="4.8194">
        <ele>239</ele>
        <time>2017-06-10T09:15:24Z</time>
      </trkpt>
      <trkpt lat="45.98812" lon="4.81933">
        <ele>239</ele>
        <time>2017-06-10T09:15:25Z</time>
      </trkpt>
      <trkpt lat="45.98811" lon="4.81925">
        <ele>239</ele>
        <time>2017-06-10T09:15:26Z</time>
      </trkpt>
      <trkpt lat="45.9881" lon="4.81918">
        <ele>239</ele>
        <time>2017-06-10T09:15:27Z</time>
      </trkpt>
      <trkpt lat="45.98809" lon="4.81911">
        <ele>239</ele>
        <time>2017-06-10T09:15:28Z</time>
      </trkpt>
      <trkpt lat="45.98807" lon="4.81905">
        <ele>239</ele>
        <time>2017-06-10T09:15:29Z</time>
      </trkpt>
      <trkpt lat="45.98806" lon="4.81899">
        <ele>239</ele>
        <time>2017-06-10T09:15:30Z</time>
      </trkpt>
      <trkpt lat="45.98803" lon="4.81887">
        <ele>239</ele>
        <time>2017-06-10T09:15:32Z</time>
      </trkpt>
      <trkpt lat="45.98801" lon="4.8188">
        <ele>239</ele>
        <time>2017-06-10T09:15:33Z</time>
      </trkpt>
      <trkpt lat="45.98798" lon="4.81874">
        <ele>239</ele>
        <time>2017-06-10T09:15:34Z</time>
      </trkpt>
      <trkpt lat="45.98796" lon="4.81867">
        <ele>239</ele>
        <time>2017-06-10T09:15:35Z</time>
      </trkpt>
      <trkpt lat="45.98794" lon="4.81861">
        <ele>239</ele>
        <time>2017-06-10T09:15:36Z</time>
      </trkpt>
      <trkpt lat="45.98791" lon="4.81854">
        <ele>239</ele>
        <time>2017-06-10T09:15:37Z</time>
      </trkpt>
      <trkpt lat="45.98788" lon="4.81848">
        <ele>239</ele>
        <time>2017-06-10T09:15:38Z</time>
      </trkpt>
      <trkpt lat="45.98785" lon="4.81842">
        <ele>239</ele>
        <time>2017-06-10T09:15:39Z</time>
      </trkpt>
      <trkpt lat="45.98782" lon="4.81832">
        <ele>240</ele>
        <time>2017-06-10T09:15:41Z</time>
      </trkpt>
      <trkpt lat="45.9878" lon="4.81827">
        <ele>240</ele>
        <time>2017-06-10T09:15:42Z</time>
      </trkpt>
      <trkpt lat="45.98776" lon="4.81818">
        <ele>240</ele>
        <time>2017-06-10T09:15:44Z</time>
      </trkpt>
      <trkpt lat="45.98773" lon="4.81812">
        <ele>240</ele>
        <time>2017-06-10T09:15:45Z</time>
      </trkpt>
      <trkpt lat="45.98771" lon="4.81807">
        <ele>240</ele>
        <time>2017-06-10T09:15:46Z</time>
      </trkpt>
      <trkpt lat="45.98768" lon="4.81801">
        <ele>240</ele>
        <time>2017-06-10T09:15:47Z</time>
      </trkpt>
      <trkpt lat="45.98765" lon="4.81795">
        <ele>240</ele>
        <time>2017-06-10T09:15:48Z</time>
      </trkpt>
      <trkpt lat="45.98762" lon="4.8179">
        <ele>241</ele>
        <time>2017-06-10T09:15:49Z</time>
      </trkpt>
      <trkpt lat="45.9876" lon="4.81784">
        <ele>241</ele>
        <time>2017-06-10T09:15:50Z</time>
      </trkpt>
      <trkpt lat="45.98757" lon="4.81779">
        <ele>241</ele>
        <time>2017-06-10T09:15:51Z</time>
      </trkpt>
      <trkpt lat="45.98752" lon="4.8177">
        <ele>241</ele>
        <time>2017-06-10T09:15:53Z</time>
      </trkpt>
      <trkpt lat="45.9875" lon="4.81764">
        <ele>241</ele>
        <time>2017-06-10T09:15:54Z</time>
      </trkpt>
      <trkpt lat="45.98747" lon="4.81755">
        <ele>241</ele>
        <time>2017-06-10T09:15:56Z</time>
      </trkpt>
      <trkpt lat="45.98744" lon="4.8175">
        <ele>240</ele>
        <time>2017-06-10T09:15:57Z</time>
      </trkpt>
      <trkpt lat="45.9874" lon="4.81745">
        <ele>240</ele>
        <time>2017-06-10T09:15:58Z</time>
      </trkpt>
      <trkpt lat="45.98736" lon="4.8174">
        <ele>240</ele>
        <time>2017-06-10T09:15:59Z</time>
      </trkpt>
      <trkpt lat="45.98729" lon="4.81734">
        <ele>239</ele>
        <time>2017-06-10T09:16:01Z</time>
      </trkpt>
      <trkpt lat="45.98724" lon="4.81732">
        <ele>239</ele>
        <time>2017-06-10T09:16:02Z</time>
      </trkpt>
      <trkpt lat="45.9872" lon="4.81732">
        <ele>239</ele>
        <time>2017-06-10T09:16:03Z</time>
      </trkpt>
      <trkpt lat="45.98715" lon="4.81732">
        <ele>239</ele>
        <time>2017-06-10T09:16:04Z</time>
      </trkpt>
      <trkpt lat="45.98706" lon="4.81732">
        <ele>239</ele>
        <time>2017-06-10T09:16:06Z</time>
      </trkpt>
      <trkpt lat="45.98702" lon="4.81734">
        <ele>239</ele>
        <time>2017-06-10T09:16:07Z</time>
      </trkpt>
      <trkpt lat="45.98693" lon="4.81735">
        <ele>238</ele>
        <time>2017-06-10T09:16:09Z</time>
      </trkpt>
      <trkpt lat="45.98689" lon="4.81736">
        <ele>238</ele>
        <time>2017-06-10T09:16:10Z</time>
      </trkpt>
      <trkpt lat="45.98686" lon="4.81736">
        <ele>238</ele>
        <time>2017-06-10T09:16:11Z</time>
      </trkpt>
      <trkpt lat="45.98678" lon="4.81736">
        <ele>238</ele>
        <time>2017-06-10T09:16:12Z</time>
      </trkpt>
      <trkpt lat="45.98674" lon="4.81736">
        <ele>238</ele>
        <time>2017-06-10T09:16:13Z</time>
      </trkpt>
      <trkpt lat="45.98668" lon="4.81738">
        <ele>238</ele>
        <time>2017-06-10T09:16:14Z</time>
      </trkpt>
      <trkpt lat="45.98661" lon="4.81741">
        <ele>237</ele>
        <time>2017-06-10T09:16:16Z</time>
      </trkpt>
      <trkpt lat="45.98656" lon="4.81742">
        <ele>237</ele>
        <time>2017-06-10T09:16:17Z</time>
      </trkpt>
      <trkpt lat="45.9865" lon="4.81744">
        <ele>237</ele>
        <time>2017-06-10T09:16:18Z</time>
      </trkpt>
      <trkpt lat="45.98645" lon="4.81745">
        <ele>237</ele>
        <time>2017-06-10T09:16:19Z</time>
      </trkpt>
      <trkpt lat="45.9864" lon="4.81747">
        <ele>237</ele>
        <time>2017-06-10T09:16:20Z</time>
      </trkpt>
      <trkpt lat="45.98635" lon="4.81749">
        <ele>237</ele>
        <time>2017-06-10T09:16:21Z</time>
      </trkpt>
      <trkpt lat="45.9863" lon="4.8175">
        <ele>237</ele>
        <time>2017-06-10T09:16:22Z</time>
      </trkpt>
      <trkpt lat="45.98625" lon="4.81752">
        <ele>238</ele>
        <time>2017-06-10T09:16:23Z</time>
      </trkpt>
      <trkpt lat="45.98621" lon="4.81753">
        <ele>238</ele>
        <time>2017-06-10T09:16:24Z</time>
      </trkpt>
      <trkpt lat="45.98616" lon="4.81755">
        <ele>238</ele>
        <time>2017-06-10T09:16:25Z</time>
      </trkpt>
      <trkpt lat="45.98612" lon="4.81756">
        <ele>238</ele>
        <time>2017-06-10T09:16:26Z</time>
      </trkpt>
      <trkpt lat="45.98606" lon="4.81758">
        <ele>238</ele>
        <time>2017-06-10T09:16:27Z</time>
      </trkpt>
      <trkpt lat="45.98601" lon="4.81762">
        <ele>238</ele>
        <time>2017-06-10T09:16:28Z</time>
      </trkpt>
      <trkpt lat="45.98596" lon="4.81765">
        <ele>238</ele>
        <time>2017-06-10T09:16:29Z</time>
      </trkpt>
      <trkpt lat="45.98592" lon="4.81769">
        <ele>238</ele>
        <time>2017-06-10T09:16:30Z</time>
      </trkpt>
      <trkpt lat="45.98588" lon="4.81774">
        <ele>238</ele>
        <time>2017-06-10T09:16:31Z</time>
      </trkpt>
      <trkpt lat="45.98584" lon="4.81779">
        <ele>238</ele>
        <time>2017-06-10T09:16:32Z</time>
      </trkpt>
      <trkpt lat="45.9858" lon="4.81784">
        <ele>238</ele>
        <time>2017-06-10T09:16:33Z</time>
      </trkpt>
      <trkpt lat="45.98576" lon="4.81788">
        <ele>238</ele>
        <time>2017-06-10T09:16:34Z</time>
      </trkpt>
      <trkpt lat="45.9857" lon="4.81793">
        <ele>238</ele>
        <time>2017-06-10T09:16:35Z</time>
      </trkpt>
      <trkpt lat="45.98563" lon="4.81797">
        <ele>238</ele>
        <time>2017-06-10T09:16:36Z</time>
      </trkpt>
      <trkpt lat="45.98556" lon="4.81801">
        <ele>238</ele>
        <time>2017-06-10T09:16:37Z</time>
      </trkpt>
      <trkpt lat="45.98547" lon="4.818">
        <ele>238</ele>
        <time>2017-06-10T09:16:39Z</time>
      </trkpt>
      <trkpt lat="45.98543" lon="4.81798">
        <ele>238</ele>
        <time>2017-06-10T09:16:40Z</time>
      </trkpt>
      <trkpt lat="45.98535" lon="4.81791">
        <ele>238</ele>
        <time>2017-06-10T09:16:42Z</time>
      </trkpt>
      <trkpt lat="45.98532" lon="4.81788">
        <ele>238</ele>
        <time>2017-06-10T09:16:43Z</time>
      </trkpt>
      <trkpt lat="45.98528" lon="4.81784">
        <ele>238</ele>
        <time>2017-06-10T09:16:44Z</time>
      </trkpt>
      <trkpt lat="45.98525" lon="4.81779">
        <ele>238</ele>
        <time>2017-06-10T09:16:45Z</time>
      </trkpt>
      <trkpt lat="45.98521" lon="4.81774">
        <ele>238</ele>
        <time>2017-06-10T09:16:46Z</time>
      </trkpt>
      <trkpt lat="45.98517" lon="4.81769">
        <ele>238</ele>
        <time>2017-06-10T09:16:47Z</time>
      </trkpt>
      <trkpt lat="45.98513" lon="4.81765">
        <ele>237</ele>
        <time>2017-06-10T09:16:48Z</time>
      </trkpt>
      <trkpt lat="45.9851" lon="4.8176">
        <ele>237</ele>
        <time>2017-06-10T09:16:49Z</time>
      </trkpt>
      <trkpt lat="45.98506" lon="4.81756">
        <ele>237</ele>
        <time>2017-06-10T09:16:50Z</time>
      </trkpt>
      <trkpt lat="45.98501" lon="4.81753">
        <ele>237</ele>
        <time>2017-06-10T09:16:51Z</time>
      </trkpt>
      <trkpt lat="45.98497" lon="4.81749">
        <ele>237</ele>
        <time>2017-06-10T09:16:52Z</time>
      </trkpt>
      <trkpt lat="45.98493" lon="4.81745">
        <ele>238</ele>
        <time>2017-06-10T09:16:53Z</time>
      </trkpt>
      <trkpt lat="45.98489" lon="4.81741">
        <ele>238</ele>
        <time>2017-06-10T09:16:54Z</time>
      </trkpt>
      <trkpt lat="45.98485" lon="4.81737">
        <ele>238</ele>
        <time>2017-06-10T09:16:55Z</time>
      </trkpt>
      <trkpt lat="45.98482" lon="4.81733">
        <ele>238</ele>
        <time>2017-06-10T09:16:56Z</time>
      </trkpt>
      <trkpt lat="45.98478" lon="4.81728">
        <ele>238</ele>
        <time>2017-06-10T09:16:57Z</time>
      </trkpt>
      <trkpt lat="45.98474" lon="4.81724">
        <ele>239</ele>
        <time>2017-06-10T09:16:58Z</time>
      </trkpt>
      <trkpt lat="45.98471" lon="4.8172">
        <ele>239</ele>
        <time>2017-06-10T09:16:59Z</time>
      </trkpt>
      <trkpt lat="45.98465" lon="4.8171">
        <ele>239</ele>
        <time>2017-06-10T09:17:01Z</time>
      </trkpt>
      <trkpt lat="45.98462" lon="4.81706">
        <ele>239</ele>
        <time>2017-06-10T09:17:02Z</time>
      </trkpt>
      <trkpt lat="45.98456" lon="4.81696">
        <ele>239</ele>
        <time>2017-06-10T09:17:04Z</time>
      </trkpt>
      <trkpt lat="45.98454" lon="4.81691">
        <ele>239</ele>
        <time>2017-06-10T09:17:05Z</time>
      </trkpt>
      <trkpt lat="45.98448" lon="4.81682">
        <ele>239</ele>
        <time>2017-06-10T09:17:07Z</time>
      </trkpt>
      <trkpt lat="45.98445" lon="4.81678">
        <ele>239</ele>
        <time>2017-06-10T09:17:08Z</time>
      </trkpt>
      <trkpt lat="45.98439" lon="4.81671">
        <ele>240</ele>
        <time>2017-06-10T09:17:10Z</time>
      </trkpt>
      <trkpt lat="45.98435" lon="4.81669">
        <ele>240</ele>
        <time>2017-06-10T09:17:11Z</time>
      </trkpt>
      <trkpt lat="45.9843" lon="4.81667">
        <ele>239</ele>
        <time>2017-06-10T09:17:12Z</time>
      </trkpt>
      <trkpt lat="45.98426" lon="4.81665">
        <ele>240</ele>
        <time>2017-06-10T09:17:13Z</time>
      </trkpt>
      <trkpt lat="45.98419" lon="4.81665">
        <ele>240</ele>
        <time>2017-06-10T09:17:14Z</time>
      </trkpt>
      <trkpt lat="45.98414" lon="4.81665">
        <ele>241</ele>
        <time>2017-06-10T09:17:15Z</time>
      </trkpt>
      <trkpt lat="45.98409" lon="4.81666">
        <ele>241</ele>
        <time>2017-06-10T09:17:16Z</time>
      </trkpt>
      <trkpt lat="45.98404" lon="4.81667">
        <ele>242</ele>
        <time>2017-06-10T09:17:17Z</time>
      </trkpt>
      <trkpt lat="45.984" lon="4.81668">
        <ele>243</ele>
        <time>2017-06-10T09:17:18Z</time>
      </trkpt>
      <trkpt lat="45.98395" lon="4.8167">
        <ele>243</ele>
        <time>2017-06-10T09:17:19Z</time>
      </trkpt>
      <trkpt lat="45.98387" lon="4.81672">
        <ele>243</ele>
        <time>2017-06-10T09:17:21Z</time>
      </trkpt>
      <trkpt lat="45.98383" lon="4.81673">
        <ele>243</ele>
        <time>2017-06-10T09:17:22Z</time>
      </trkpt>
      <trkpt lat="45.98374" lon="4.81674">
        <ele>244</ele>
        <time>2017-06-10T09:17:24Z</time>
      </trkpt>
      <trkpt lat="45.9837" lon="4.81675">
        <ele>244</ele>
        <time>2017-06-10T09:17:25Z</time>
      </trkpt>
      <trkpt lat="45.98365" lon="4.81676">
        <ele>244</ele>
        <time>2017-06-10T09:17:26Z</time>
      </trkpt>
      <trkpt lat="45.98361" lon="4.81677">
        <ele>244</ele>
        <time>2017-06-10T09:17:27Z</time>
      </trkpt>
      <trkpt lat="45.98356" lon="4.81677">
        <ele>245</ele>
        <time>2017-06-10T09:17:28Z</time>
      </trkpt>
      <trkpt lat="45.98351" lon="4.81677">
        <ele>245</ele>
        <time>2017-06-10T09:17:29Z</time>
      </trkpt>
      <trkpt lat="45.98346" lon="4.81676">
        <ele>245</ele>
        <time>2017-06-10T09:17:30Z</time>
      </trkpt>
      <trkpt lat="45.98342" lon="4.81675">
        <ele>245</ele>
        <time>2017-06-10T09:17:31Z</time>
      </trkpt>
      <trkpt lat="45.98334" lon="4.81671">
        <ele>246</ele>
        <time>2017-06-10T09:17:33Z</time>
      </trkpt>
      <trkpt lat="45.9833" lon="4.81669">
        <ele>246</ele>
        <time>2017-06-10T09:17:34Z</time>
      </trkpt>
      <trkpt lat="45.98322" lon="4.81664">
        <ele>246</ele>
        <time>2017-06-10T09:17:36Z</time>
      </trkpt>
      <trkpt lat="45.98319" lon="4.81661">
        <ele>246</ele>
        <time>2017-06-10T09:17:37Z</time>
      </trkpt>
      <trkpt lat="45.98315" lon="4.81657">
        <ele>246</ele>
        <time>2017-06-10T09:17:38Z</time>
      </trkpt>
      <trkpt lat="45.98311" lon="4.81653">
        <ele>246</ele>
        <time>2017-06-10T09:17:39Z</time>
      </trkpt>
      <trkpt lat="45.98307" lon="4.81649">
        <ele>246</ele>
        <time>2017-06-10T09:17:40Z</time>
      </trkpt>
      <trkpt lat="45.98303" lon="4.81646">
        <ele>246</ele>
        <time>2017-06-10T09:17:41Z</time>
      </trkpt>
      <trkpt lat="45.983" lon="4.81641">
        <ele>247</ele>
        <time>2017-06-10T09:17:42Z</time>
      </trkpt>
      <trkpt lat="45.98296" lon="4.81637">
        <ele>247</ele>
        <time>2017-06-10T09:17:43Z</time>
      </trkpt>
      <trkpt lat="45.98293" lon="4.81633">
        <ele>247</ele>
        <time>2017-06-10T09:17:44Z</time>
      </trkpt>
      <trkpt lat="45.98289" lon="4.81628">
        <ele>247</ele>
        <time>2017-06-10T09:17:45Z</time>
      </trkpt>
      <trkpt lat="45.98283" lon="4.81619">
        <ele>247</ele>
        <time>2017-06-10T09:17:47Z</time>
      </trkpt>
      <trkpt lat="45.98281" lon="4.81615">
        <ele>247</ele>
        <time>2017-06-10T09:17:48Z</time>
      </trkpt>
      <trkpt lat="45.98276" lon="4.81605">
        <ele>247</ele>
        <time>2017-06-10T09:17:50Z</time>
      </trkpt>
      <trkpt lat="45.98274" lon="4.81599">
        <ele>247</ele>
        <time>2017-06-10T09:17:51Z</time>
      </trkpt>
      <trkpt lat="45.98272" lon="4.81593">
        <ele>247</ele>
        <time>2017-06-10T09:17:52Z</time>
      </trkpt>
      <trkpt lat="45.9827" lon="4.81587">
        <ele>247</ele>
        <time>2017-06-10T09:17:53Z</time>
      </trkpt>
      <trkpt lat="45.98267" lon="4.81576">
        <ele>247</ele>
        <time>2017-06-10T09:17:55Z</time>
      </trkpt>
      <trkpt lat="45.98265" lon="4.8157">
        <ele>247</ele>
        <time>2017-06-10T09:17:56Z</time>
      </trkpt>
      <trkpt lat="45.98263" lon="4.81564">
        <ele>247</ele>
        <time>2017-06-10T09:17:57Z</time>
      </trkpt>
      <trkpt lat="45.98261" lon="4.81558">
        <ele>247</ele>
        <time>2017-06-10T09:17:58Z</time>
      </trkpt>
      <trkpt lat="45.98258" lon="4.81552">
        <ele>247</ele>
        <time>2017-06-10T09:17:59Z</time>
      </trkpt>
      <trkpt lat="45.98256" lon="4.81545">
        <ele>247</ele>
        <time>2017-06-10T09:18:00Z</time>
      </trkpt>
      <trkpt lat="45.98254" lon="4.81538">
        <ele>247</ele>
        <time>2017-06-10T09:18:01Z</time>
      </trkpt>
      <trkpt lat="45.98252" lon="4.81532">
        <ele>247</ele>
        <time>2017-06-10T09:18:02Z</time>
      </trkpt>
      <trkpt lat="45.98249" lon="4.81521">
        <ele>249</ele>
        <time>2017-06-10T09:18:04Z</time>
      </trkpt>
      <trkpt lat="45.98247" lon="4.81514">
        <ele>249</ele>
        <time>2017-06-10T09:18:05Z</time>
      </trkpt>
      <trkpt lat="45.98245" lon="4.81508">
        <ele>249</ele>
        <time>2017-06-10T09:18:06Z</time>
      </trkpt>
      <trkpt lat="45.98243" lon="4.81502">
        <ele>249</ele>
        <time>2017-06-10T09:18:07Z</time>
      </trkpt>
      <trkpt lat="45.98239" lon="4.81491">
        <ele>249</ele>
        <time>2017-06-10T09:18:09Z</time>
      </trkpt>
      <trkpt lat="45.98237" lon="4.81485">
        <ele>249</ele>
        <time>2017-06-10T09:18:10Z</time>
      </trkpt>
      <trkpt lat="45.98234" lon="4.81474">
        <ele>249</ele>
        <time>2017-06-10T09:18:12Z</time>
      </trkpt>
      <trkpt lat="45.98233" lon="4.81468">
        <ele>249</ele>
        <time>2017-06-10T09:18:13Z</time>
      </trkpt>
      <trkpt lat="45.98231" lon="4.81462">
        <ele>249</ele>
        <time>2017-06-10T09:18:14Z</time>
      </trkpt>
      <trkpt lat="45.98229" lon="4.81456">
        <ele>249</ele>
        <time>2017-06-10T09:18:15Z</time>
      </trkpt>
      <trkpt lat="45.98227" lon="4.8145">
        <ele>249</ele>
        <time>2017-06-10T09:18:16Z</time>
      </trkpt>
      <trkpt lat="45.98225" lon="4.81444">
        <ele>249</ele>
        <time>2017-06-10T09:18:17Z</time>
      </trkpt>
      <trkpt lat="45.98222" lon="4.81434">
        <ele>249</ele>
        <time>2017-06-10T09:18:19Z</time>
      </trkpt>
      <trkpt lat="45.9822" lon="4.81428">
        <ele>249</ele>
        <time>2017-06-10T09:18:20Z</time>
      </trkpt>
      <trkpt lat="45.98217" lon="4.81418">
        <ele>249</ele>
        <time>2017-06-10T09:18:22Z</time>
      </trkpt>
      <trkpt lat="45.98215" lon="4.81412">
        <ele>248</ele>
        <time>2017-06-10T09:18:23Z</time>
      </trkpt>
      <trkpt lat="45.98211" lon="4.81402">
        <ele>248</ele>
        <time>2017-06-10T09:18:25Z</time>
      </trkpt>
      <trkpt lat="45.98209" lon="4.81397">
        <ele>248</ele>
        <time>2017-06-10T09:18:26Z</time>
      </trkpt>
      <trkpt lat="45.98206" lon="4.81386">
        <ele>248</ele>
        <time>2017-06-10T09:18:28Z</time>
      </trkpt>
      <trkpt lat="45.98205" lon="4.8138">
        <ele>248</ele>
        <time>2017-06-10T09:18:29Z</time>
      </trkpt>
      <trkpt lat="45.98204" lon="4.81374">
        <ele>248</ele>
        <time>2017-06-10T09:18:30Z</time>
      </trkpt>
      <trkpt lat="45.98202" lon="4.81368">
        <ele>248</ele>
        <time>2017-06-10T09:18:31Z</time>
      </trkpt>
      <trkpt lat="45.982" lon="4.81361">
        <ele>248</ele>
        <time>2017-06-10T09:18:32Z</time>
      </trkpt>
      <trkpt lat="45.98199" lon="4.81354">
        <ele>248</ele>
        <time>2017-06-10T09:18:33Z</time>
      </trkpt>
      <trkpt lat="45.98197" lon="4.81347">
        <ele>248</ele>
        <time>2017-06-10T09:18:34Z</time>
      </trkpt>
      <trkpt lat="45.98195" lon="4.81341">
        <ele>248</ele>
        <time>2017-06-10T09:18:35Z</time>
      </trkpt>
      <trkpt lat="45.98194" lon="4.81333">
        <ele>247</ele>
        <time>2017-06-10T09:18:36Z</time>
      </trkpt>
      <trkpt lat="45.98193" lon="4.81326">
        <ele>247</ele>
        <time>2017-06-10T09:18:37Z</time>
      </trkpt>
      <trkpt lat="45.98192" lon="4.81319">
        <ele>247</ele>
        <time>2017-06-10T09:18:38Z</time>
      </trkpt>
      <trkpt lat="45.9819" lon="4.81311">
        <ele>247</ele>
        <time>2017-06-10T09:18:39Z</time>
      </trkpt>
      <trkpt lat="45.98188" lon="4.81303">
        <ele>247</ele>
        <time>2017-06-10T09:18:40Z</time>
      </trkpt>
      <trkpt lat="45.98187" lon="4.81296">
        <ele>247</ele>
        <time>2017-06-10T09:18:41Z</time>
      </trkpt>
      <trkpt lat="45.98186" lon="4.81289">
        <ele>247</ele>
        <time>2017-06-10T09:18:42Z</time>
      </trkpt>
      <trkpt lat="45.98185" lon="4.81281">
        <ele>247</ele>
        <time>2017-06-10T09:18:43Z</time>
      </trkpt>
      <trkpt lat="45.98183" lon="4.81274">
        <ele>247</ele>
        <time>2017-06-10T09:18:44Z</time>
      </trkpt>
      <trkpt lat="45.98182" lon="4.81267">
        <ele>247</ele>
        <time>2017-06-10T09:18:45Z</time>
      </trkpt>
      <trkpt lat="45.98181" lon="4.81259">
        <ele>247</ele>
        <time>2017-06-10T09:18:46Z</time>
      </trkpt>
      <trkpt lat="45.9818" lon="4.81251">
        <ele>247</ele>
        <time>2017-06-10T09:18:47Z</time>
      </trkpt>
      <trkpt lat="45.98179" lon="4.81243">
        <ele>247</ele>
        <time>2017-06-10T09:18:48Z</time>
      </trkpt>
      <trkpt lat="45.98178" lon="4.81235">
        <ele>246</ele>
        <time>2017-06-10T09:18:49Z</time>
      </trkpt>
      <trkpt lat="45.98177" lon="4.81228">
        <ele>246</ele>
        <time>2017-06-10T09:18:50Z</time>
      </trkpt>
      <trkpt lat="45.98176" lon="4.8122">
        <ele>246</ele>
        <time>2017-06-10T09:18:51Z</time>
      </trkpt>
      <trkpt lat="45.98177" lon="4.81213">
        <ele>246</ele>
        <time>2017-06-10T09:18:52Z</time>
      </trkpt>
      <trkpt lat="45.98176" lon="4.81205">
        <ele>245</ele>
        <time>2017-06-10T09:18:53Z</time>
      </trkpt>
      <trkpt lat="45.98176" lon="4.81197">
        <ele>245</ele>
        <time>2017-06-10T09:18:54Z</time>
      </trkpt>
      <trkpt lat="45.98175" lon="4.81189">
        <ele>245</ele>
        <time>2017-06-10T09:18:55Z</time>
      </trkpt>
      <trkpt lat="45.98173" lon="4.81181">
        <ele>245</ele>
        <time>2017-06-10T09:18:56Z</time>
      </trkpt>
      <trkpt lat="45.98171" lon="4.81173">
        <ele>245</ele>
        <time>2017-06-10T09:18:57Z</time>
      </trkpt>
      <trkpt lat="45.98169" lon="4.81165">
        <ele>245</ele>
        <time>2017-06-10T09:18:58Z</time>
      </trkpt>
      <trkpt lat="45.98167" lon="4.81157">
        <ele>244</ele>
        <time>2017-06-10T09:18:59Z</time>
      </trkpt>
      <trkpt lat="45.98165" lon="4.8115">
        <ele>245</ele>
        <time>2017-06-10T09:19:00Z</time>
      </trkpt>
      <trkpt lat="45.98162" lon="4.81143">
        <ele>245</ele>
        <time>2017-06-10T09:19:01Z</time>
      </trkpt>
      <trkpt lat="45.98159" lon="4.81135">
        <ele>245</ele>
        <time>2017-06-10T09:19:02Z</time>
      </trkpt>
      <trkpt lat="45.98156" lon="4.81128">
        <ele>245</ele>
        <time>2017-06-10T09:19:03Z</time>
      </trkpt>
      <trkpt lat="45.98152" lon="4.8112">
        <ele>245</ele>
        <time>2017-06-10T09:19:04Z</time>
      </trkpt>
      <trkpt lat="45.98149" lon="4.81112">
        <ele>245</ele>
        <time>2017-06-10T09:19:05Z</time>
      </trkpt>
      <trkpt lat="45.98146" lon="4.81104">
        <ele>245</ele>
        <time>2017-06-10T09:19:06Z</time>
      </trkpt>
      <trkpt lat="45.98142" lon="4.81096">
        <ele>245</ele>
        <time>2017-06-10T09:19:07Z</time>
      </trkpt>
      <trkpt lat="45.98139" lon="4.81087">
        <ele>245</ele>
        <time>2017-06-10T09:19:08Z</time>
      </trkpt>
      <trkpt lat="45.98135" lon="4.81079">
        <ele>243</ele>
        <time>2017-06-10T09:19:09Z</time>
      </trkpt>
      <trkpt lat="45.98131" lon="4.8107">
        <ele>243</ele>
        <time>2017-06-10T09:19:10Z</time>
      </trkpt>
      <trkpt lat="45.98128" lon="4.8106">
        <ele>243</ele>
        <time>2017-06-10T09:19:11Z</time>
      </trkpt>
      <trkpt lat="45.98125" lon="4.81051">
        <ele>242</ele>
        <time>2017-06-10T09:19:12Z</time>
      </trkpt>
      <trkpt lat="45.98123" lon="4.81042">
        <ele>242</ele>
        <time>2017-06-10T09:19:13Z</time>
      </trkpt>
      <trkpt lat="45.9812" lon="4.81033">
        <ele>242</ele>
        <time>2017-06-10T09:19:14Z</time>
      </trkpt>
      <trkpt lat="45.98117" lon="4.81025">
        <ele>242</ele>
        <time>2017-06-10T09:19:15Z</time>
      </trkpt>
      <trkpt lat="45.98114" lon="4.81017">
        <ele>242</ele>
        <time>2017-06-10T09:19:16Z</time>
      </trkpt>
      <trkpt lat="45.98112" lon="4.81009">
        <ele>242</ele>
        <time>2017-06-10T09:19:17Z</time>
      </trkpt>
      <trkpt lat="45.98106" lon="4.81001">
        <ele>242</ele>
        <time>2017-06-10T09:19:18Z</time>
      </trkpt>
      <trkpt lat="45.98103" lon="4.80994">
        <ele>240</ele>
        <time>2017-06-10T09:19:19Z</time>
      </trkpt>
      <trkpt lat="45.98101" lon="4.80988">
        <ele>240</ele>
        <time>2017-06-10T09:19:20Z</time>
      </trkpt>
      <trkpt lat="45.98099" lon="4.80982">
        <ele>239</ele>
        <time>2017-06-10T09:19:21Z</time>
      </trkpt>
      <trkpt lat="45.98097" lon="4.80975">
        <ele>239</ele>
        <time>2017-06-10T09:19:22Z</time>
      </trkpt>
      <trkpt lat="45.98096" lon="4.80966">
        <ele>239</ele>
        <time>2017-06-10T09:19:23Z</time>
      </trkpt>
      <trkpt lat="45.98093" lon="4.80958">
        <ele>238</ele>
        <time>2017-06-10T09:19:24Z</time>
      </trkpt>
      <trkpt lat="45.98091" lon="4.80948">
        <ele>238</ele>
        <time>2017-06-10T09:19:25Z</time>
      </trkpt>
      <trkpt lat="45.98088" lon="4.80937">
        <ele>238</ele>
        <time>2017-06-10T09:19:26Z</time>
      </trkpt>
      <trkpt lat="45.98085" lon="4.80926">
        <ele>239</ele>
        <time>2017-06-10T09:19:27Z</time>
      </trkpt>
      <trkpt lat="45.98082" lon="4.80915">
        <ele>239</ele>
        <time>2017-06-10T09:19:28Z</time>
      </trkpt>
      <trkpt lat="45.98079" lon="4.80903">
        <ele>238</ele>
        <time>2017-06-10T09:19:29Z</time>
      </trkpt>
      <trkpt lat="45.98076" lon="4.8089">
        <ele>238</ele>
        <time>2017-06-10T09:19:30Z</time>
      </trkpt>
      <trkpt lat="45.98073" lon="4.80877">
        <ele>237</ele>
        <time>2017-06-10T09:19:31Z</time>
      </trkpt>
      <trkpt lat="45.9807" lon="4.80864">
        <ele>237</ele>
        <time>2017-06-10T09:19:32Z</time>
      </trkpt>
      <trkpt lat="45.98067" lon="4.80851">
        <ele>236</ele>
        <time>2017-06-10T09:19:33Z</time>
      </trkpt>
      <trkpt lat="45.98064" lon="4.80839">
        <ele>236</ele>
        <time>2017-06-10T09:19:34Z</time>
      </trkpt>
      <trkpt lat="45.98061" lon="4.80827">
        <ele>234</ele>
        <time>2017-06-10T09:19:35Z</time>
      </trkpt>
      <trkpt lat="45.98058" lon="4.80816">
        <ele>234</ele>
        <time>2017-06-10T09:19:36Z</time>
      </trkpt>
      <trkpt lat="45.98055" lon="4.80806">
        <ele>234</ele>
        <time>2017-06-10T09:19:37Z</time>
      </trkpt>
      <trkpt lat="45.98053" lon="4.80795">
        <ele>233</ele>
        <time>2017-06-10T09:19:38Z</time>
      </trkpt>
      <trkpt lat="45.98051" lon="4.80785">
        <ele>233</ele>
        <time>2017-06-10T09:19:39Z</time>
      </trkpt>
      <trkpt lat="45.98049" lon="4.80774">
        <ele>233</ele>
        <time>2017-06-10T09:19:40Z</time>
      </trkpt>
      <trkpt lat="45.98046" lon="4.80763">
        <ele>233</ele>
        <time>2017-06-10T09:19:41Z</time>
      </trkpt>
      <trkpt lat="45.98044" lon="4.80753">
        <ele>233</ele>
        <time>2017-06-10T09:19:42Z</time>
      </trkpt>
      <trkpt lat="45.98042" lon="4.80744">
        <ele>231</ele>
        <time>2017-06-10T09:19:43Z</time>
      </trkpt>
      <trkpt lat="45.98039" lon="4.80736">
        <ele>231</ele>
        <time>2017-06-10T09:19:44Z</time>
      </trkpt>
      <trkpt lat="45.98037" lon="4.80728">
        <ele>231</ele>
        <time>2017-06-10T09:19:45Z</time>
      </trkpt>
      <trkpt lat="45.98036" lon="4.80721">
        <ele>231</ele>
        <time>2017-06-10T09:19:46Z</time>
      </trkpt>
      <trkpt lat="45.98033" lon="4.8071">
        <ele>231</ele>
        <time>2017-06-10T09:19:48Z</time>
      </trkpt>
      <trkpt lat="45.98034" lon="4.80705">
        <ele>231</ele>
        <time>2017-06-10T09:19:49Z</time>
      </trkpt>
      <trkpt lat="45.98039" lon="4.80698">
        <ele>230</ele>
        <time>2017-06-10T09:19:51Z</time>
      </trkpt>
      <trkpt lat="45.98044" lon="4.80696">
        <ele>230</ele>
        <time>2017-06-10T09:19:52Z</time>
      </trkpt>
      <trkpt lat="45.9805" lon="4.80696">
        <ele>230</ele>
        <time>2017-06-10T09:19:53Z</time>
      </trkpt>
      <trkpt lat="45.98056" lon="4.80695">
        <ele>230</ele>
        <time>2017-06-10T09:19:54Z</time>
      </trkpt>
      <trkpt lat="45.98063" lon="4.80695">
        <ele>230</ele>
        <time>2017-06-10T09:19:55Z</time>
      </trkpt>
      <trkpt lat="45.98069" lon="4.80695">
        <ele>230</ele>
        <time>2017-06-10T09:19:56Z</time>
      </trkpt>
      <trkpt lat="45.98077" lon="4.80695">
        <ele>230</ele>
        <time>2017-06-10T09:19:57Z</time>
      </trkpt>
      <trkpt lat="45.98084" lon="4.80695">
        <ele>228</ele>
        <time>2017-06-10T09:19:58Z</time>
      </trkpt>
      <trkpt lat="45.98091" lon="4.80696">
        <ele>228</ele>
        <time>2017-06-10T09:19:59Z</time>
      </trkpt>
      <trkpt lat="45.98098" lon="4.80696">
        <ele>228</ele>
        <time>2017-06-10T09:20:00Z</time>
      </trkpt>
      <trkpt lat="45.98106" lon="4.80696">
        <ele>228</ele>
        <time>2017-06-10T09:20:01Z</time>
      </trkpt>
      <trkpt lat="45.98113" lon="4.80696">
        <ele>228</ele>
        <time>2017-06-10T09:20:02Z</time>
      </trkpt>
      <trkpt lat="45.98121" lon="4.80696">
        <ele>228</ele>
        <time>2017-06-10T09:20:03Z</time>
      </trkpt>
      <trkpt lat="45.98128" lon="4.80697">
        <ele>228</ele>
        <time>2017-06-10T09:20:04Z</time>
      </trkpt>
      <trkpt lat="45.98135" lon="4.80697">
        <ele>228</ele>
        <time>2017-06-10T09:20:05Z</time>
      </trkpt>
      <trkpt lat="45.98143" lon="4.80696">
        <ele>228</ele>
        <time>2017-06-10T09:20:06Z</time>
      </trkpt>
      <trkpt lat="45.9815" lon="4.80695">
        <ele>228</ele>
        <time>2017-06-10T09:20:07Z</time>
      </trkpt>
      <trkpt lat="45.98158" lon="4.80695">
        <ele>228</ele>
        <time>2017-06-10T09:20:08Z</time>
      </trkpt>
      <trkpt lat="45.98165" lon="4.80694">
        <ele>227</ele>
        <time>2017-06-10T09:20:09Z</time>
      </trkpt>
      <trkpt lat="45.98173" lon="4.80693">
        <ele>225</ele>
        <time>2017-06-10T09:20:10Z</time>
      </trkpt>
      <trkpt lat="45.9818" lon="4.80691">
        <ele>225</ele>
        <time>2017-06-10T09:20:11Z</time>
      </trkpt>
      <trkpt lat="45.98187" lon="4.80689">
        <ele>225</ele>
        <time>2017-06-10T09:20:12Z</time>
      </trkpt>
      <trkpt lat="45.98194" lon="4.80686">
        <ele>225</ele>
        <time>2017-06-10T09:20:13Z</time>
      </trkpt>
      <trkpt lat="45.982" lon="4.80684">
        <ele>225</ele>
        <time>2017-06-10T09:20:14Z</time>
      </trkpt>
      <trkpt lat="45.98207" lon="4.80681">
        <ele>224</ele>
        <time>2017-06-10T09:20:15Z</time>
      </trkpt>
      <trkpt lat="45.98213" lon="4.80678">
        <ele>224</ele>
        <time>2017-06-10T09:20:16Z</time>
      </trkpt>
      <trkpt lat="45.98219" lon="4.80672">
        <ele>224</ele>
        <time>2017-06-10T09:20:17Z</time>
      </trkpt>
      <trkpt lat="45.98224" lon="4.80665">
        <ele>223</ele>
        <time>2017-06-10T09:20:18Z</time>
      </trkpt>
      <trkpt lat="45.98229" lon="4.80657">
        <ele>223</ele>
        <time>2017-06-10T09:20:19Z</time>
      </trkpt>
      <trkpt lat="45.98233" lon="4.80646">
        <ele>223</ele>
        <time>2017-06-10T09:20:20Z</time>
      </trkpt>
      <trkpt lat="45.98236" lon="4.80637">
        <ele>224</ele>
        <time>2017-06-10T09:20:21Z</time>
      </trkpt>
      <trkpt lat="45.98239" lon="4.80628">
        <ele>224</ele>
        <time>2017-06-10T09:20:22Z</time>
      </trkpt>
      <trkpt lat="45.98242" lon="4.80619">
        <ele>224</ele>
        <time>2017-06-10T09:20:23Z</time>
      </trkpt>
      <trkpt lat="45.98245" lon="4.80609">
        <ele>224</ele>
        <time>2017-06-10T09:20:24Z</time>
      </trkpt>
      <trkpt lat="45.98248" lon="4.80599">
        <ele>224</ele>
        <time>2017-06-10T09:20:25Z</time>
      </trkpt>
      <trkpt lat="45.9825" lon="4.80589">
        <ele>224</ele>
        <time>2017-06-10T09:20:26Z</time>
      </trkpt>
      <trkpt lat="45.98253" lon="4.80579">
        <ele>224</ele>
        <time>2017-06-10T09:20:27Z</time>
      </trkpt>
      <trkpt lat="45.98256" lon="4.80569">
        <ele>224</ele>
        <time>2017-06-10T09:20:28Z</time>
      </trkpt>
      <trkpt lat="45.98259" lon="4.80558">
        <ele>224</ele>
        <time>2017-06-10T09:20:29Z</time>
      </trkpt>
      <trkpt lat="45.98261" lon="4.80549">
        <ele>224</ele>
        <time>2017-06-10T09:20:30Z</time>
      </trkpt>
      <trkpt lat="45.98264" lon="4.80539">
        <ele>224</ele>
        <time>2017-06-10T09:20:31Z</time>
      </trkpt>
      <trkpt lat="45.98266" lon="4.80531">
        <ele>224</ele>
        <time>2017-06-10T09:20:32Z</time>
      </trkpt>
      <trkpt lat="45.98269" lon="4.80522">
        <ele>224</ele>
        <time>2017-06-10T09:20:33Z</time>
      </trkpt>
      <trkpt lat="45.98271" lon="4.80512">
        <ele>223</ele>
        <time>2017-06-10T09:20:34Z</time>
      </trkpt>
      <trkpt lat="45.98273" lon="4.80504">
        <ele>223</ele>
        <time>2017-06-10T09:20:35Z</time>
      </trkpt>
      <trkpt lat="45.98275" lon="4.80495">
        <ele>223</ele>
        <time>2017-06-10T09:20:36Z</time>
      </trkpt>
      <trkpt lat="45.98277" lon="4.80487">
        <ele>223</ele>
        <time>2017-06-10T09:20:37Z</time>
      </trkpt>
      <trkpt lat="45.98279" lon="4.80479">
        <ele>223</ele>
        <time>2017-06-10T09:20:38Z</time>
      </trkpt>
      <trkpt lat="45.98281" lon="4.80472">
        <ele>223</ele>
        <time>2017-06-10T09:20:39Z</time>
      </trkpt>
      <trkpt lat="45.98283" lon="4.80465">
        <ele>223</ele>
        <time>2017-06-10T09:20:40Z</time>
      </trkpt>
      <trkpt lat="45.98284" lon="4.80458">
        <ele>224</ele>
        <time>2017-06-10T09:20:41Z</time>
      </trkpt>
      <trkpt lat="45.98286" lon="4.8045">
        <ele>224</ele>
        <time>2017-06-10T09:20:42Z</time>
      </trkpt>
      <trkpt lat="45.98287" lon="4.80444">
        <ele>224</ele>
        <time>2017-06-10T09:20:43Z</time>
      </trkpt>
      <trkpt lat="45.98289" lon="4.80436">
        <ele>224</ele>
        <time>2017-06-10T09:20:44Z</time>
      </trkpt>
      <trkpt lat="45.9829" lon="4.80429">
        <ele>224</ele>
        <time>2017-06-10T09:20:45Z</time>
      </trkpt>
      <trkpt lat="45.98291" lon="4.80422">
        <ele>224</ele>
        <time>2017-06-10T09:20:46Z</time>
      </trkpt>
      <trkpt lat="45.98293" lon="4.80414">
        <ele>224</ele>
        <time>2017-06-10T09:20:47Z</time>
      </trkpt>
      <trkpt lat="45.98294" lon="4.80408">
        <ele>224</ele>
        <time>2017-06-10T09:20:48Z</time>
      </trkpt>
      <trkpt lat="45.98296" lon="4.80401">
        <ele>224</ele>
        <time>2017-06-10T09:20:49Z</time>
      </trkpt>
      <trkpt lat="45.98297" lon="4.80393">
        <ele>225</ele>
        <time>2017-06-10T09:20:50Z</time>
      </trkpt>
      <trkpt lat="45.98299" lon="4.80386">
        <ele>225</ele>
        <time>2017-06-10T09:20:51Z</time>
      </trkpt>
      <trkpt lat="45.98301" lon="4.80377">
        <ele>225</ele>
        <time>2017-06-10T09:20:52Z</time>
      </trkpt>
      <trkpt lat="45.98303" lon="4.80369">
        <ele>225</ele>
        <time>2017-06-10T09:20:53Z</time>
      </trkpt>
      <trkpt lat="45.98305" lon="4.80359">
        <ele>225</ele>
        <time>2017-06-10T09:20:54Z</time>
      </trkpt>
      <trkpt lat="45.98306" lon="4.8035">
        <ele>226</ele>
        <time>2017-06-10T09:20:55Z</time>
      </trkpt>
      <trkpt lat="45.98308" lon="4.80342">
        <ele>226</ele>
        <time>2017-06-10T09:20:56Z</time>
      </trkpt>
      <trkpt lat="45.98309" lon="4.80335">
        <ele>226</ele>
        <time>2017-06-10T09:20:57Z</time>
      </trkpt>
      <trkpt lat="45.9831" lon="4.80329">
        <ele>227</ele>
        <time>2017-06-10T09:20:58Z</time>
      </trkpt>
      <trkpt lat="45.98312" lon="4.8032">
        <ele>227</ele>
        <time>2017-06-10T09:20:59Z</time>
      </trkpt>
      <trkpt lat="45.98313" lon="4.80313">
        <ele>227</ele>
        <time>2017-06-10T09:21:00Z</time>
      </trkpt>
      <trkpt lat="45.98315" lon="4.80306">
        <ele>226</ele>
        <time>2017-06-10T09:21:01Z</time>
      </trkpt>
      <trkpt lat="45.98317" lon="4.80297">
        <ele>226</ele>
        <time>2017-06-10T09:21:02Z</time>
      </trkpt>
      <trkpt lat="45.98319" lon="4.80289">
        <ele>226</ele>
        <time>2017-06-10T09:21:03Z</time>
      </trkpt>
      <trkpt lat="45.9832" lon="4.80281">
        <ele>227</ele>
        <time>2017-06-10T09:21:04Z</time>
      </trkpt>
      <trkpt lat="45.98321" lon="4.80274">
        <ele>227</ele>
        <time>2017-06-10T09:21:05Z</time>
      </trkpt>
      <trkpt lat="45.98322" lon="4.80267">
        <ele>227</ele>
        <time>2017-06-10T09:21:06Z</time>
      </trkpt>
      <trkpt lat="45.98325" lon="4.80256">
        <ele>228</ele>
        <time>2017-06-10T09:21:08Z</time>
      </trkpt>
      <trkpt lat="45.98326" lon="4.80251">
        <ele>229</ele>
        <time>2017-06-10T09:21:09Z</time>
      </trkpt>
      <trkpt lat="45.98328" lon="4.80243">
        <ele>229</ele>
        <time>2017-06-10T09:21:10Z</time>
      </trkpt>
      <trkpt lat="45.98329" lon="4.80237">
        <ele>228</ele>
        <time>2017-06-10T09:21:11Z</time>
      </trkpt>
      <trkpt lat="45.98331" lon="4.80225">
        <ele>228</ele>
        <time>2017-06-10T09:21:13Z</time>
      </trkpt>
      <trkpt lat="45.9833" lon="4.80218">
        <ele>227</ele>
        <time>2017-06-10T09:21:14Z</time>
      </trkpt>
      <trkpt lat="45.98327" lon="4.80207">
        <ele>227</ele>
        <time>2017-06-10T09:21:16Z</time>
      </trkpt>
      <trkpt lat="45.98325" lon="4.80201">
        <ele>227</ele>
        <time>2017-06-10T09:21:17Z</time>
      </trkpt>
      <trkpt lat="45.98323" lon="4.80195">
        <ele>227</ele>
        <time>2017-06-10T09:21:18Z</time>
      </trkpt>
      <trkpt lat="45.98321" lon="4.8019">
        <ele>227</ele>
        <time>2017-06-10T09:21:19Z</time>
      </trkpt>
      <trkpt lat="45.98317" lon="4.80178">
        <ele>227</ele>
        <time>2017-06-10T09:21:21Z</time>
      </trkpt>
      <trkpt lat="45.98316" lon="4.80171">
        <ele>227</ele>
        <time>2017-06-10T09:21:22Z</time>
      </trkpt>
      <trkpt lat="45.98313" lon="4.8016">
        <ele>228</ele>
        <time>2017-06-10T09:21:24Z</time>
      </trkpt>
      <trkpt lat="45.98311" lon="4.80154">
        <ele>228</ele>
        <time>2017-06-10T09:21:25Z</time>
      </trkpt>
      <trkpt lat="45.9831" lon="4.80148">
        <ele>228</ele>
        <time>2017-06-10T09:21:26Z</time>
      </trkpt>
      <trkpt lat="45.98307" lon="4.80142">
        <ele>228</ele>
        <time>2017-06-10T09:21:27Z</time>
      </trkpt>
      <trkpt lat="45.98305" lon="4.80136">
        <ele>228</ele>
        <time>2017-06-10T09:21:28Z</time>
      </trkpt>
      <trkpt lat="45.98303" lon="4.80129">
        <ele>228</ele>
        <time>2017-06-10T09:21:29Z</time>
      </trkpt>
      <trkpt lat="45.983" lon="4.80123">
        <ele>228</ele>
        <time>2017-06-10T09:21:30Z</time>
      </trkpt>
      <trkpt lat="45.98298" lon="4.80117">
        <ele>228</ele>
        <time>2017-06-10T09:21:31Z</time>
      </trkpt>
      <trkpt lat="45.98295" lon="4.80111">
        <ele>228</ele>
        <time>2017-06-10T09:21:32Z</time>
      </trkpt>
      <trkpt lat="45.98293" lon="4.80104">
        <ele>228</ele>
        <time>2017-06-10T09:21:33Z</time>
      </trkpt>
      <trkpt lat="45.98291" lon="4.80098">
        <ele>228</ele>
        <time>2017-06-10T09:21:34Z</time>
      </trkpt>
      <trkpt lat="45.98289" lon="4.80092">
        <ele>228</ele>
        <time>2017-06-10T09:21:35Z</time>
      </trkpt>
      <trkpt lat="45.98284" lon="4.8008">
        <ele>229</ele>
        <time>2017-06-10T09:21:37Z</time>
      </trkpt>
      <trkpt lat="45.98282" lon="4.80074">
        <ele>229</ele>
        <time>2017-06-10T09:21:38Z</time>
      </trkpt>
      <trkpt lat="45.9828" lon="4.80067">
        <ele>229</ele>
        <time>2017-06-10T09:21:39Z</time>
      </trkpt>
      <trkpt lat="45.98277" lon="4.8006">
        <ele>229</ele>
        <time>2017-06-10T09:21:40Z</time>
      </trkpt>
      <trkpt lat="45.98274" lon="4.80053">
        <ele>229</ele>
        <time>2017-06-10T09:21:41Z</time>
      </trkpt>
      <trkpt lat="45.98271" lon="4.80046">
        <ele>229</ele>
        <time>2017-06-10T09:21:42Z</time>
      </trkpt>
      <trkpt lat="45.98269" lon="4.80039">
        <ele>229</ele>
        <time>2017-06-10T09:21:43Z</time>
      </trkpt>
      <trkpt lat="45.98266" lon="4.80032">
        <ele>228</ele>
        <time>2017-06-10T09:21:44Z</time>
      </trkpt>
      <trkpt lat="45.98264" lon="4.80025">
        <ele>228</ele>
        <time>2017-06-10T09:21:45Z</time>
      </trkpt>
      <trkpt lat="45.98261" lon="4.80018">
        <ele>228</ele>
        <time>2017-06-10T09:21:46Z</time>
      </trkpt>
      <trkpt lat="45.98259" lon="4.80011">
        <ele>228</ele>
        <time>2017-06-10T09:21:47Z</time>
      </trkpt>
      <trkpt lat="45.98257" lon="4.80004">
        <ele>227</ele>
        <time>2017-06-10T09:21:48Z</time>
      </trkpt>
      <trkpt lat="45.98255" lon="4.79998">
        <ele>227</ele>
        <time>2017-06-10T09:21:49Z</time>
      </trkpt>
      <trkpt lat="45.98253" lon="4.79991">
        <ele>227</ele>
        <time>2017-06-10T09:21:50Z</time>
      </trkpt>
      <trkpt lat="45.98251" lon="4.79984">
        <ele>228</ele>
        <time>2017-06-10T09:21:51Z</time>
      </trkpt>
      <trkpt lat="45.98249" lon="4.79978">
        <ele>225</ele>
        <time>2017-06-10T09:21:52Z</time>
      </trkpt>
      <trkpt lat="45.98247" lon="4.79972">
        <ele>225</ele>
        <time>2017-06-10T09:21:53Z</time>
      </trkpt>
      <trkpt lat="45.98244" lon="4.79966">
        <ele>225</ele>
        <time>2017-06-10T09:21:54Z</time>
      </trkpt>
      <trkpt lat="45.9824" lon="4.79954">
        <ele>225</ele>
        <time>2017-06-10T09:21:56Z</time>
      </trkpt>
      <trkpt lat="45.98238" lon="4.79948">
        <ele>225</ele>
        <time>2017-06-10T09:21:57Z</time>
      </trkpt>
      <trkpt lat="45.98236" lon="4.79943">
        <ele>225</ele>
        <time>2017-06-10T09:21:58Z</time>
      </trkpt>
      <trkpt lat="45.98233" lon="4.79937">
        <ele>225</ele>
        <time>2017-06-10T09:21:59Z</time>
      </trkpt>
      <trkpt lat="45.98231" lon="4.7993">
        <ele>225</ele>
        <time>2017-06-10T09:22:00Z</time>
      </trkpt>
      <trkpt lat="45.98229" lon="4.79924">
        <ele>225</ele>
        <time>2017-06-10T09:22:01Z</time>
      </trkpt>
      <trkpt lat="45.98226" lon="4.79916">
        <ele>225</ele>
        <time>2017-06-10T09:22:02Z</time>
      </trkpt>
      <trkpt lat="45.98224" lon="4.7991">
        <ele>225</ele>
        <time>2017-06-10T09:22:03Z</time>
      </trkpt>
      <trkpt lat="45.98222" lon="4.79903">
        <ele>225</ele>
        <time>2017-06-10T09:22:04Z</time>
      </trkpt>
      <trkpt lat="45.9822" lon="4.79897">
        <ele>225</ele>
        <time>2017-06-10T09:22:05Z</time>
      </trkpt>
      <trkpt lat="45.98218" lon="4.79891">
        <ele>225</ele>
        <time>2017-06-10T09:22:06Z</time>
      </trkpt>
      <trkpt lat="45.98216" lon="4.79885">
        <ele>225</ele>
        <time>2017-06-10T09:22:07Z</time>
      </trkpt>
      <trkpt lat="45.98212" lon="4.79874">
        <ele>225</ele>
        <time>2017-06-10T09:22:09Z</time>
      </trkpt>
      <trkpt lat="45.9821" lon="4.79869">
        <ele>225</ele>
        <time>2017-06-10T09:22:10Z</time>
      </trkpt>
      <trkpt lat="45.98207" lon="4.79858">
        <ele>225</ele>
        <time>2017-06-10T09:22:12Z</time>
      </trkpt>
      <trkpt lat="45.98204" lon="4.79852">
        <ele>225</ele>
        <time>2017-06-10T09:22:13Z</time>
      </trkpt>
      <trkpt lat="45.98201" lon="4.79845">
        <ele>225</ele>
        <time>2017-06-10T09:22:14Z</time>
      </trkpt>
      <trkpt lat="45.98199" lon="4.79838">
        <ele>225</ele>
        <time>2017-06-10T09:22:15Z</time>
      </trkpt>
      <trkpt lat="45.98196" lon="4.79831">
        <ele>225</ele>
        <time>2017-06-10T09:22:16Z</time>
      </trkpt>
      <trkpt lat="45.98194" lon="4.79824">
        <ele>225</ele>
        <time>2017-06-10T09:22:17Z</time>
      </trkpt>
      <trkpt lat="45.98191" lon="4.79817">
        <ele>225</ele>
        <time>2017-06-10T09:22:18Z</time>
      </trkpt>
      <trkpt lat="45.98189" lon="4.79809">
        <ele>225</ele>
        <time>2017-06-10T09:22:19Z</time>
      </trkpt>
      <trkpt lat="45.98187" lon="4.79801">
        <ele>226</ele>
        <time>2017-06-10T09:22:20Z</time>
      </trkpt>
      <trkpt lat="45.98186" lon="4.79793">
        <ele>226</ele>
        <time>2017-06-10T09:22:21Z</time>
      </trkpt>
      <trkpt lat="45.98185" lon="4.79785">
        <ele>226</ele>
        <time>2017-06-10T09:22:22Z</time>
      </trkpt>
      <trkpt lat="45.98185" lon="4.79777">
        <ele>226</ele>
        <time>2017-06-10T09:22:23Z</time>
      </trkpt>
      <trkpt lat="45.98185" lon="4.79769">
        <ele>226</ele>
        <time>2017-06-10T09:22:24Z</time>
      </trkpt>
      <trkpt lat="45.98185" lon="4.79762">
        <ele>226</ele>
        <time>2017-06-10T09:22:25Z</time>
      </trkpt>
      <trkpt lat="45.98184" lon="4.7975">
        <ele>227</ele>
        <time>2017-06-10T09:22:27Z</time>
      </trkpt>
      <trkpt lat="45.98181" lon="4.79744">
        <ele>227</ele>
        <time>2017-06-10T09:22:28Z</time>
      </trkpt>
      <trkpt lat="45.98176" lon="4.79742">
        <ele>227</ele>
        <time>2017-06-10T09:22:29Z</time>
      </trkpt>
      <trkpt lat="45.98169" lon="4.79743">
        <ele>227</ele>
        <time>2017-06-10T09:22:30Z</time>
      </trkpt>
      <trkpt lat="45.98163" lon="4.79746">
        <ele>226</ele>
        <time>2017-06-10T09:22:31Z</time>
      </trkpt>
      <trkpt lat="45.98157" lon="4.7975">
        <ele>226</ele>
        <time>2017-06-10T09:22:32Z</time>
      </trkpt>
      <trkpt lat="45.98151" lon="4.79753">
        <ele>225</ele>
        <time>2017-06-10T09:22:33Z</time>
      </trkpt>
      <trkpt lat="45.98144" lon="4.79755">
        <ele>225</ele>
        <time>2017-06-10T09:22:34Z</time>
      </trkpt>
      <trkpt lat="45.98137" lon="4.79757">
        <ele>224</ele>
        <time>2017-06-10T09:22:35Z</time>
      </trkpt>
      <trkpt lat="45.9813" lon="4.79758">
        <ele>224</ele>
        <time>2017-06-10T09:22:36Z</time>
      </trkpt>
      <trkpt lat="45.98123" lon="4.79759">
        <ele>224</ele>
        <time>2017-06-10T09:22:37Z</time>
      </trkpt>
      <trkpt lat="45.98115" lon="4.79761">
        <ele>224</ele>
        <time>2017-06-10T09:22:38Z</time>
      </trkpt>
      <trkpt lat="45.98107" lon="4.79762">
        <ele>224</ele>
        <time>2017-06-10T09:22:39Z</time>
      </trkpt>
      <trkpt lat="45.98099" lon="4.79764">
        <ele>223</ele>
        <time>2017-06-10T09:22:40Z</time>
      </trkpt>
      <trkpt lat="45.98092" lon="4.79765">
        <ele>223</ele>
        <time>2017-06-10T09:22:41Z</time>
      </trkpt>
      <trkpt lat="45.98084" lon="4.79767">
        <ele>223</ele>
        <time>2017-06-10T09:22:42Z</time>
      </trkpt>
      <trkpt lat="45.98077" lon="4.79768">
        <ele>223</ele>
        <time>2017-06-10T09:22:43Z</time>
      </trkpt>
      <trkpt lat="45.9807" lon="4.79769">
        <ele>223</ele>
        <time>2017-06-10T09:22:44Z</time>
      </trkpt>
      <trkpt lat="45.98062" lon="4.7977">
        <ele>223</ele>
        <time>2017-06-10T09:22:45Z</time>
      </trkpt>
      <trkpt lat="45.98056" lon="4.7977">
        <ele>223</ele>
        <time>2017-06-10T09:22:46Z</time>
      </trkpt>
      <trkpt lat="45.98049" lon="4.79771">
        <ele>223</ele>
        <time>2017-06-10T09:22:47Z</time>
      </trkpt>
      <trkpt lat="45.98042" lon="4.79772">
        <ele>223</ele>
        <time>2017-06-10T09:22:48Z</time>
      </trkpt>
      <trkpt lat="45.98035" lon="4.79774">
        <ele>223</ele>
        <time>2017-06-10T09:22:49Z</time>
      </trkpt>
      <trkpt lat="45.98028" lon="4.79774">
        <ele>223</ele>
        <time>2017-06-10T09:22:50Z</time>
      </trkpt>
      <trkpt lat="45.98022" lon="4.79775">
        <ele>223</ele>
        <time>2017-06-10T09:22:51Z</time>
      </trkpt>
      <trkpt lat="45.98015" lon="4.79775">
        <ele>223</ele>
        <time>2017-06-10T09:22:52Z</time>
      </trkpt>
      <trkpt lat="45.98008" lon="4.79776">
        <ele>223</ele>
        <time>2017-06-10T09:22:53Z</time>
      </trkpt>
      <trkpt lat="45.98002" lon="4.79777">
        <ele>223</ele>
        <time>2017-06-10T09:22:54Z</time>
      </trkpt>
      <trkpt lat="45.97996" lon="4.79778">
        <ele>224</ele>
        <time>2017-06-10T09:22:55Z</time>
      </trkpt>
      <trkpt lat="45.9799" lon="4.79778">
        <ele>224</ele>
        <time>2017-06-10T09:22:56Z</time>
      </trkpt>
      <trkpt lat="45.97984" lon="4.79779">
        <ele>224</ele>
        <time>2017-06-10T09:22:57Z</time>
      </trkpt>
      <trkpt lat="45.97977" lon="4.7978">
        <ele>224</ele>
        <time>2017-06-10T09:22:58Z</time>
      </trkpt>
      <trkpt lat="45.97972" lon="4.7978">
        <ele>224</ele>
        <time>2017-06-10T09:22:59Z</time>
      </trkpt>
      <trkpt lat="45.97966" lon="4.79781">
        <ele>224</ele>
        <time>2017-06-10T09:23:00Z</time>
      </trkpt>
      <trkpt lat="45.97961" lon="4.79782">
        <ele>224</ele>
        <time>2017-06-10T09:23:01Z</time>
      </trkpt>
      <trkpt lat="45.97956" lon="4.79783">
        <ele>224</ele>
        <time>2017-06-10T09:23:02Z</time>
      </trkpt>
      <trkpt lat="45.9795" lon="4.79784">
        <ele>224</ele>
        <time>2017-06-10T09:23:03Z</time>
      </trkpt>
      <trkpt lat="45.97945" lon="4.79785">
        <ele>224</ele>
        <time>2017-06-10T09:23:04Z</time>
      </trkpt>
      <trkpt lat="45.9794" lon="4.79786">
        <ele>224</ele>
        <time>2017-06-10T09:23:05Z</time>
      </trkpt>
      <trkpt lat="45.97934" lon="4.79787">
        <ele>224</ele>
        <time>2017-06-10T09:23:06Z</time>
      </trkpt>
      <trkpt lat="45.97928" lon="4.79787">
        <ele>224</ele>
        <time>2017-06-10T09:23:07Z</time>
      </trkpt>
      <trkpt lat="45.97921" lon="4.79788">
        <ele>225</ele>
        <time>2017-06-10T09:23:08Z</time>
      </trkpt>
      <trkpt lat="45.97915" lon="4.79789">
        <ele>225</ele>
        <time>2017-06-10T09:23:09Z</time>
      </trkpt>
      <trkpt lat="45.97908" lon="4.79789">
        <ele>225</ele>
        <time>2017-06-10T09:23:10Z</time>
      </trkpt>
      <trkpt lat="45.97902" lon="4.7979">
        <ele>225</ele>
        <time>2017-06-10T09:23:11Z</time>
      </trkpt>
      <trkpt lat="45.97895" lon="4.79791">
        <ele>224</ele>
        <time>2017-06-10T09:23:12Z</time>
      </trkpt>
      <trkpt lat="45.97889" lon="4.79793">
        <ele>224</ele>
        <time>2017-06-10T09:23:13Z</time>
      </trkpt>
      <trkpt lat="45.97883" lon="4.79794">
        <ele>224</ele>
        <time>2017-06-10T09:23:14Z</time>
      </trkpt>
      <trkpt lat="45.97876" lon="4.79796">
        <ele>224</ele>
        <time>2017-06-10T09:23:15Z</time>
      </trkpt>
      <trkpt lat="45.9787" lon="4.79797">
        <ele>224</ele>
        <time>2017-06-10T09:23:16Z</time>
      </trkpt>
      <trkpt lat="45.97864" lon="4.79799">
        <ele>224</ele>
        <time>2017-06-10T09:23:17Z</time>
      </trkpt>
      <trkpt lat="45.97858" lon="4.798">
        <ele>224</ele>
        <time>2017-06-10T09:23:18Z</time>
      </trkpt>
      <trkpt lat="45.97853" lon="4.79801">
        <ele>224</ele>
        <time>2017-06-10T09:23:19Z</time>
      </trkpt>
      <trkpt lat="45.97846" lon="4.79802">
        <ele>224</ele>
        <time>2017-06-10T09:23:20Z</time>
      </trkpt>
      <trkpt lat="45.97839" lon="4.79803">
        <ele>224</ele>
        <time>2017-06-10T09:23:21Z</time>
      </trkpt>
      <trkpt lat="45.97832" lon="4.79805">
        <ele>223</ele>
        <time>2017-06-10T09:23:22Z</time>
      </trkpt>
      <trkpt lat="45.97825" lon="4.79806">
        <ele>223</ele>
        <time>2017-06-10T09:23:23Z</time>
      </trkpt>
      <trkpt lat="45.97818" lon="4.79807">
        <ele>223</ele>
        <time>2017-06-10T09:23:24Z</time>
      </trkpt>
      <trkpt lat="45.97812" lon="4.79809">
        <ele>223</ele>
        <time>2017-06-10T09:23:25Z</time>
      </trkpt>
      <trkpt lat="45.97805" lon="4.7981">
        <ele>223</ele>
        <time>2017-06-10T09:23:26Z</time>
      </trkpt>
      <trkpt lat="45.97799" lon="4.79811">
        <ele>223</ele>
        <time>2017-06-10T09:23:27Z</time>
      </trkpt>
      <trkpt lat="45.97792" lon="4.79812">
        <ele>223</ele>
        <time>2017-06-10T09:23:28Z</time>
      </trkpt>
      <trkpt lat="45.97786" lon="4.79813">
        <ele>223</ele>
        <time>2017-06-10T09:23:29Z</time>
      </trkpt>
      <trkpt lat="45.9778" lon="4.79814">
        <ele>223</ele>
        <time>2017-06-10T09:23:30Z</time>
      </trkpt>
      <trkpt lat="45.97773" lon="4.79814">
        <ele>223</ele>
        <time>2017-06-10T09:23:31Z</time>
      </trkpt>
      <trkpt lat="45.97768" lon="4.79815">
        <ele>223</ele>
        <time>2017-06-10T09:23:32Z</time>
      </trkpt>
      <trkpt lat="45.97761" lon="4.79817">
        <ele>223</ele>
        <time>2017-06-10T09:23:33Z</time>
      </trkpt>
      <trkpt lat="45.97755" lon="4.79818">
        <ele>223</ele>
        <time>2017-06-10T09:23:34Z</time>
      </trkpt>
      <trkpt lat="45.97748" lon="4.79819">
        <ele>223</ele>
        <time>2017-06-10T09:23:35Z</time>
      </trkpt>
      <trkpt lat="45.97742" lon="4.79821">
        <ele>223</ele>
        <time>2017-06-10T09:23:36Z</time>
      </trkpt>
      <trkpt lat="45.97735" lon="4.79822">
        <ele>223</ele>
        <time>2017-06-10T09:23:37Z</time>
      </trkpt>
      <trkpt lat="45.97728" lon="4.79822">
        <ele>223</ele>
        <time>2017-06-10T09:23:38Z</time>
      </trkpt>
      <trkpt lat="45.97722" lon="4.79824">
        <ele>223</ele>
        <time>2017-06-10T09:23:39Z</time>
      </trkpt>
      <trkpt lat="45.97715" lon="4.79825">
        <ele>223</ele>
        <time>2017-06-10T09:23:40Z</time>
      </trkpt>
      <trkpt lat="45.97709" lon="4.79826">
        <ele>223</ele>
        <time>2017-06-10T09:23:41Z</time>
      </trkpt>
      <trkpt lat="45.97702" lon="4.79827">
        <ele>223</ele>
        <time>2017-06-10T09:23:42Z</time>
      </trkpt>
      <trkpt lat="45.97697" lon="4.79829">
        <ele>223</ele>
        <time>2017-06-10T09:23:43Z</time>
      </trkpt>
      <trkpt lat="45.97691" lon="4.7983">
        <ele>223</ele>
        <time>2017-06-10T09:23:44Z</time>
      </trkpt>
      <trkpt lat="45.97685" lon="4.79832">
        <ele>223</ele>
        <time>2017-06-10T09:23:45Z</time>
      </trkpt>
      <trkpt lat="45.9768" lon="4.79833">
        <ele>223</ele>
        <time>2017-06-10T09:23:46Z</time>
      </trkpt>
      <trkpt lat="45.97674" lon="4.79835">
        <ele>221</ele>
        <time>2017-06-10T09:23:47Z</time>
      </trkpt>
      <trkpt lat="45.97669" lon="4.79837">
        <ele>222</ele>
        <time>2017-06-10T09:23:48Z</time>
      </trkpt>
      <trkpt lat="45.97663" lon="4.79838">
        <ele>222</ele>
        <time>2017-06-10T09:23:49Z</time>
      </trkpt>
      <trkpt lat="45.97658" lon="4.7984">
        <ele>221</ele>
        <time>2017-06-10T09:23:50Z</time>
      </trkpt>
      <trkpt lat="45.97652" lon="4.79842">
        <ele>221</ele>
        <time>2017-06-10T09:23:51Z</time>
      </trkpt>
      <trkpt lat="45.97646" lon="4.79843">
        <ele>221</ele>
        <time>2017-06-10T09:23:52Z</time>
      </trkpt>
      <trkpt lat="45.9764" lon="4.79845">
        <ele>221</ele>
        <time>2017-06-10T09:23:53Z</time>
      </trkpt>
      <trkpt lat="45.97634" lon="4.79848">
        <ele>221</ele>
        <time>2017-06-10T09:23:54Z</time>
      </trkpt>
      <trkpt lat="45.97628" lon="4.7985">
        <ele>221</ele>
        <time>2017-06-10T09:23:55Z</time>
      </trkpt>
      <trkpt lat="45.97622" lon="4.79852">
        <ele>221</ele>
        <time>2017-06-10T09:23:56Z</time>
      </trkpt>
      <trkpt lat="45.97613" lon="4.79855">
        <ele>221</ele>
        <time>2017-06-10T09:23:57Z</time>
      </trkpt>
      <trkpt lat="45.97607" lon="4.79858">
        <ele>221</ele>
        <time>2017-06-10T09:23:58Z</time>
      </trkpt>
      <trkpt lat="45.97601" lon="4.7986">
        <ele>221</ele>
        <time>2017-06-10T09:23:59Z</time>
      </trkpt>
      <trkpt lat="45.97594" lon="4.79863">
        <ele>221</ele>
        <time>2017-06-10T09:24:00Z</time>
      </trkpt>
      <trkpt lat="45.97587" lon="4.79865">
        <ele>221</ele>
        <time>2017-06-10T09:24:01Z</time>
      </trkpt>
      <trkpt lat="45.9758" lon="4.79867">
        <ele>222</ele>
        <time>2017-06-10T09:24:02Z</time>
      </trkpt>
      <trkpt lat="45.97573" lon="4.7987">
        <ele>222</ele>
        <time>2017-06-10T09:24:03Z</time>
      </trkpt>
      <trkpt lat="45.97566" lon="4.79872">
        <ele>222</ele>
        <time>2017-06-10T09:24:04Z</time>
      </trkpt>
      <trkpt lat="45.9756" lon="4.79874">
        <ele>222</ele>
        <time>2017-06-10T09:24:05Z</time>
      </trkpt>
      <trkpt lat="45.97553" lon="4.79876">
        <ele>222</ele>
        <time>2017-06-10T09:24:06Z</time>
      </trkpt>
      <trkpt lat="45.97546" lon="4.79878">
        <ele>222</ele>
        <time>2017-06-10T09:24:07Z</time>
      </trkpt>
      <trkpt lat="45.97539" lon="4.7988">
        <ele>222</ele>
        <time>2017-06-10T09:24:08Z</time>
      </trkpt>
      <trkpt lat="45.97531" lon="4.79882">
        <ele>222</ele>
        <time>2017-06-10T09:24:09Z</time>
      </trkpt>
      <trkpt lat="45.97524" lon="4.79883">
        <ele>222</ele>
        <time>2017-06-10T09:24:10Z</time>
      </trkpt>
      <trkpt lat="45.97515" lon="4.79884">
        <ele>222</ele>
        <time>2017-06-10T09:24:11Z</time>
      </trkpt>
      <trkpt lat="45.97507" lon="4.79885">
        <ele>221</ele>
        <time>2017-06-10T09:24:12Z</time>
      </trkpt>
      <trkpt lat="45.97498" lon="4.79887">
        <ele>221</ele>
        <time>2017-06-10T09:24:13Z</time>
      </trkpt>
      <trkpt lat="45.97489" lon="4.79887">
        <ele>221</ele>
        <time>2017-06-10T09:24:14Z</time>
      </trkpt>
      <trkpt lat="45.9748" lon="4.79888">
        <ele>221</ele>
        <time>2017-06-10T09:24:15Z</time>
      </trkpt>
      <trkpt lat="45.97471" lon="4.79888">
        <ele>221</ele>
        <time>2017-06-10T09:24:16Z</time>
      </trkpt>
      <trkpt lat="45.97461" lon="4.79888">
        <ele>221</ele>
        <time>2017-06-10T09:24:17Z</time>
      </trkpt>
      <trkpt lat="45.97452" lon="4.79887">
        <ele>221</ele>
        <time>2017-06-10T09:24:18Z</time>
      </trkpt>
      <trkpt lat="45.97443" lon="4.79888">
        <ele>220</ele>
        <time>2017-06-10T09:24:19Z</time>
      </trkpt>
      <trkpt lat="45.97434" lon="4.79889">
        <ele>220</ele>
        <time>2017-06-10T09:24:20Z</time>
      </trkpt>
      <trkpt lat="45.97425" lon="4.7989">
        <ele>220</ele>
        <time>2017-06-10T09:24:21Z</time>
      </trkpt>
      <trkpt lat="45.97416" lon="4.79891">
        <ele>218</ele>
        <time>2017-06-10T09:24:22Z</time>
      </trkpt>
      <trkpt lat="45.97406" lon="4.79893">
        <ele>217</ele>
        <time>2017-06-10T09:24:23Z</time>
      </trkpt>
      <trkpt lat="45.97397" lon="4.79895">
        <ele>217</ele>
        <time>2017-06-10T09:24:24Z</time>
      </trkpt>
      <trkpt lat="45.97389" lon="4.79897">
        <ele>217</ele>
        <time>2017-06-10T09:24:25Z</time>
      </trkpt>
      <trkpt lat="45.9738" lon="4.79899">
        <ele>217</ele>
        <time>2017-06-10T09:24:26Z</time>
      </trkpt>
      <trkpt lat="45.97371" lon="4.79901">
        <ele>217</ele>
        <time>2017-06-10T09:24:27Z</time>
      </trkpt>
      <trkpt lat="45.97362" lon="4.79903">
        <ele>216</ele>
        <time>2017-06-10T09:24:28Z</time>
      </trkpt>
      <trkpt lat="45.97352" lon="4.79905">
        <ele>216</ele>
        <time>2017-06-10T09:24:29Z</time>
      </trkpt>
      <trkpt lat="45.97343" lon="4.79905">
        <ele>215</ele>
        <time>2017-06-10T09:24:30Z</time>
      </trkpt>
      <trkpt lat="45.97334" lon="4.79906">
        <ele>215</ele>
        <time>2017-06-10T09:24:31Z</time>
      </trkpt>
      <trkpt lat="45.97324" lon="4.79907">
        <ele>213</ele>
        <time>2017-06-10T09:24:32Z</time>
      </trkpt>
      <trkpt lat="45.97315" lon="4.79907">
        <ele>213</ele>
        <time>2017-06-10T09:24:33Z</time>
      </trkpt>
      <trkpt lat="45.97306" lon="4.79908">
        <ele>213</ele>
        <time>2017-06-10T09:24:34Z</time>
      </trkpt>
      <trkpt lat="45.97297" lon="4.79909">
        <ele>213</ele>
        <time>2017-06-10T09:24:35Z</time>
      </trkpt>
      <trkpt lat="45.97289" lon="4.79911">
        <ele>213</ele>
        <time>2017-06-10T09:24:36Z</time>
      </trkpt>
      <trkpt lat="45.9728" lon="4.79912">
        <ele>213</ele>
        <time>2017-06-10T09:24:37Z</time>
      </trkpt>
      <trkpt lat="45.97273" lon="4.79913">
        <ele>213</ele>
        <time>2017-06-10T09:24:38Z</time>
      </trkpt>
      <trkpt lat="45.97266" lon="4.79914">
        <ele>213</ele>
        <time>2017-06-10T09:24:39Z</time>
      </trkpt>
      <trkpt lat="45.97261" lon="4.79914">
        <ele>213</ele>
        <time>2017-06-10T09:24:40Z</time>
      </trkpt>
      <trkpt lat="45.97257" lon="4.79911">
        <ele>212</ele>
        <time>2017-06-10T09:24:41Z</time>
      </trkpt>
      <trkpt lat="45.97252" lon="4.79901">
        <ele>213</ele>
        <time>2017-06-10T09:24:43Z</time>
      </trkpt>
      <trkpt lat="45.9725" lon="4.79894">
        <ele>211</ele>
        <time>2017-06-10T09:24:44Z</time>
      </trkpt>
      <trkpt lat="45.97247" lon="4.79887">
        <ele>211</ele>
        <time>2017-06-10T09:24:45Z</time>
      </trkpt>
      <trkpt lat="45.97245" lon="4.79879">
        <ele>211</ele>
        <time>2017-06-10T09:24:46Z</time>
      </trkpt>
      <trkpt lat="45.97243" lon="4.79871">
        <ele>211</ele>
        <time>2017-06-10T09:24:47Z</time>
      </trkpt>
      <trkpt lat="45.97241" lon="4.79862">
        <ele>211</ele>
        <time>2017-06-10T09:24:48Z</time>
      </trkpt>
      <trkpt lat="45.97239" lon="4.79854">
        <ele>211</ele>
        <time>2017-06-10T09:24:49Z</time>
      </trkpt>
      <trkpt lat="45.97238" lon="4.79845">
        <ele>211</ele>
        <time>2017-06-10T09:24:50Z</time>
      </trkpt>
      <trkpt lat="45.97238" lon="4.79836">
        <ele>211</ele>
        <time>2017-06-10T09:24:51Z</time>
      </trkpt>
      <trkpt lat="45.97239" lon="4.79827">
        <ele>211</ele>
        <time>2017-06-10T09:24:52Z</time>
      </trkpt>
      <trkpt lat="45.97239" lon="4.79819">
        <ele>211</ele>
        <time>2017-06-10T09:24:53Z</time>
      </trkpt>
      <trkpt lat="45.97239" lon="4.7981">
        <ele>210</ele>
        <time>2017-06-10T09:24:54Z</time>
      </trkpt>
      <trkpt lat="45.97239" lon="4.79801">
        <ele>210</ele>
        <time>2017-06-10T09:24:55Z</time>
      </trkpt>
      <trkpt lat="45.97239" lon="4.79793">
        <ele>210</ele>
        <time>2017-06-10T09:24:56Z</time>
      </trkpt>
      <trkpt lat="45.9724" lon="4.79785">
        <ele>210</ele>
        <time>2017-06-10T09:24:57Z</time>
      </trkpt>
      <trkpt lat="45.97241" lon="4.79777">
        <ele>210</ele>
        <time>2017-06-10T09:24:58Z</time>
      </trkpt>
      <trkpt lat="45.97241" lon="4.79769">
        <ele>210</ele>
        <time>2017-06-10T09:24:59Z</time>
      </trkpt>
      <trkpt lat="45.97242" lon="4.79761">
        <ele>209</ele>
        <time>2017-06-10T09:25:00Z</time>
      </trkpt>
      <trkpt lat="45.97243" lon="4.79754">
        <ele>209</ele>
        <time>2017-06-10T09:25:01Z</time>
      </trkpt>
      <trkpt lat="45.97244" lon="4.79746">
        <ele>209</ele>
        <time>2017-06-10T09:25:02Z</time>
      </trkpt>
      <trkpt lat="45.97244" lon="4.79738">
        <ele>209</ele>
        <time>2017-06-10T09:25:03Z</time>
      </trkpt>
      <trkpt lat="45.97245" lon="4.79731">
        <ele>209</ele>
        <time>2017-06-10T09:25:04Z</time>
      </trkpt>
      <trkpt lat="45.97245" lon="4.79724">
        <ele>209</ele>
        <time>2017-06-10T09:25:05Z</time>
      </trkpt>
      <trkpt lat="45.97247" lon="4.79716">
        <ele>209</ele>
        <time>2017-06-10T09:25:06Z</time>
      </trkpt>
      <trkpt lat="45.97248" lon="4.79708">
        <ele>208</ele>
        <time>2017-06-10T09:25:07Z</time>
      </trkpt>
      <trkpt lat="45.9725" lon="4.797">
        <ele>212</ele>
        <time>2017-06-10T09:25:08Z</time>
      </trkpt>
      <trkpt lat="45.97252" lon="4.79693">
        <ele>212</ele>
        <time>2017-06-10T09:25:09Z</time>
      </trkpt>
      <trkpt lat="45.97253" lon="4.79685">
        <ele>211</ele>
        <time>2017-06-10T09:25:10Z</time>
      </trkpt>
      <trkpt lat="45.97253" lon="4.79672">
        <ele>209</ele>
        <time>2017-06-10T09:25:11Z</time>
      </trkpt>
      <trkpt lat="45.97255" lon="4.79664">
        <ele>209</ele>
        <time>2017-06-10T09:25:12Z</time>
      </trkpt>
      <trkpt lat="45.97256" lon="4.79656">
        <ele>211</ele>
        <time>2017-06-10T09:25:13Z</time>
      </trkpt>
      <trkpt lat="45.97256" lon="4.79646">
        <ele>212</ele>
        <time>2017-06-10T09:25:14Z</time>
      </trkpt>
      <trkpt lat="45.97256" lon="4.79637">
        <ele>212</ele>
        <time>2017-06-10T09:25:15Z</time>
      </trkpt>
      <trkpt lat="45.97256" lon="4.79628">
        <ele>213</ele>
        <time>2017-06-10T09:25:16Z</time>
      </trkpt>
      <trkpt lat="45.97256" lon="4.79619">
        <ele>213</ele>
        <time>2017-06-10T09:25:17Z</time>
      </trkpt>
      <trkpt lat="45.97256" lon="4.7961">
        <ele>213</ele>
        <time>2017-06-10T09:25:18Z</time>
      </trkpt>
      <trkpt lat="45.97256" lon="4.79602">
        <ele>212</ele>
        <time>2017-06-10T09:25:19Z</time>
      </trkpt>
      <trkpt lat="45.97256" lon="4.79593">
        <ele>212</ele>
        <time>2017-06-10T09:25:20Z</time>
      </trkpt>
      <trkpt lat="45.97256" lon="4.79585">
        <ele>211</ele>
        <time>2017-06-10T09:25:21Z</time>
      </trkpt>
      <trkpt lat="45.97256" lon="4.79578">
        <ele>212</ele>
        <time>2017-06-10T09:25:22Z</time>
      </trkpt>
      <trkpt lat="45.97256" lon="4.79571">
        <ele>212</ele>
        <time>2017-06-10T09:25:23Z</time>
      </trkpt>
      <trkpt lat="45.97256" lon="4.79564">
        <ele>213</ele>
        <time>2017-06-10T09:25:24Z</time>
      </trkpt>
      <trkpt lat="45.97255" lon="4.79556">
        <ele>213</ele>
        <time>2017-06-10T09:25:25Z</time>
      </trkpt>
      <trkpt lat="45.97254" lon="4.79548">
        <ele>214</ele>
        <time>2017-06-10T09:25:26Z</time>
      </trkpt>
      <trkpt lat="45.97253" lon="4.7954">
        <ele>214</ele>
        <time>2017-06-10T09:25:27Z</time>
      </trkpt>
      <trkpt lat="45.97252" lon="4.79531">
        <ele>214</ele>
        <time>2017-06-10T09:25:28Z</time>
      </trkpt>
      <trkpt lat="45.97251" lon="4.79522">
        <ele>213</ele>
        <time>2017-06-10T09:25:29Z</time>
      </trkpt>
      <trkpt lat="45.9725" lon="4.79514">
        <ele>213</ele>
        <time>2017-06-10T09:25:30Z</time>
      </trkpt>
      <trkpt lat="45.97249" lon="4.79505">
        <ele>211</ele>
        <time>2017-06-10T09:25:31Z</time>
      </trkpt>
      <trkpt lat="45.97247" lon="4.79497">
        <ele>211</ele>
        <time>2017-06-10T09:25:32Z</time>
      </trkpt>
      <trkpt lat="45.97245" lon="4.79489">
        <ele>210</ele>
        <time>2017-06-10T09:25:33Z</time>
      </trkpt>
      <trkpt lat="45.97243" lon="4.79481">
        <ele>210</ele>
        <time>2017-06-10T09:25:34Z</time>
      </trkpt>
      <trkpt lat="45.97241" lon="4.79473">
        <ele>209</ele>
        <time>2017-06-10T09:25:35Z</time>
      </trkpt>
      <trkpt lat="45.97239" lon="4.79465">
        <ele>209</ele>
        <time>2017-06-10T09:25:36Z</time>
      </trkpt>
      <trkpt lat="45.97237" lon="4.79457">
        <ele>209</ele>
        <time>2017-06-10T09:25:37Z</time>
      </trkpt>
      <trkpt lat="45.97234" lon="4.7945">
        <ele>209</ele>
        <time>2017-06-10T09:25:38Z</time>
      </trkpt>
      <trkpt lat="45.97231" lon="4.79442">
        <ele>209</ele>
        <time>2017-06-10T09:25:39Z</time>
      </trkpt>
      <trkpt lat="45.97228" lon="4.79435">
        <ele>209</ele>
        <time>2017-06-10T09:25:40Z</time>
      </trkpt>
      <trkpt lat="45.97225" lon="4.79427">
        <ele>209</ele>
        <time>2017-06-10T09:25:41Z</time>
      </trkpt>
      <trkpt lat="45.97222" lon="4.79419">
        <ele>209</ele>
        <time>2017-06-10T09:25:42Z</time>
      </trkpt>
      <trkpt lat="45.9722" lon="4.79411">
        <ele>208</ele>
        <time>2017-06-10T09:25:43Z</time>
      </trkpt>
      <trkpt lat="45.97216" lon="4.79404">
        <ele>208</ele>
        <time>2017-06-10T09:25:44Z</time>
      </trkpt>
      <trkpt lat="45.97212" lon="4.79397">
        <ele>208</ele>
        <time>2017-06-10T09:25:45Z</time>
      </trkpt>
      <trkpt lat="45.97209" lon="4.7939">
        <ele>208</ele>
        <time>2017-06-10T09:25:46Z</time>
      </trkpt>
      <trkpt lat="45.97207" lon="4.79383">
        <ele>208</ele>
        <time>2017-06-10T09:25:47Z</time>
      </trkpt>
      <trkpt lat="45.97203" lon="4.79376">
        <ele>208</ele>
        <time>2017-06-10T09:25:48Z</time>
      </trkpt>
      <trkpt lat="45.972" lon="4.79369">
        <ele>207</ele>
        <time>2017-06-10T09:25:49Z</time>
      </trkpt>
      <trkpt lat="45.97197" lon="4.79361">
        <ele>207</ele>
        <time>2017-06-10T09:25:50Z</time>
      </trkpt>
      <trkpt lat="45.97193" lon="4.79354">
        <ele>207</ele>
        <time>2017-06-10T09:25:51Z</time>
      </trkpt>
      <trkpt lat="45.9719" lon="4.79346">
        <ele>207</ele>
        <time>2017-06-10T09:25:52Z</time>
      </trkpt>
      <trkpt lat="45.97187" lon="4.79337">
        <ele>207</ele>
        <time>2017-06-10T09:25:53Z</time>
      </trkpt>
      <trkpt lat="45.97184" lon="4.7933">
        <ele>207</ele>
        <time>2017-06-10T09:25:54Z</time>
      </trkpt>
      <trkpt lat="45.97181" lon="4.79322">
        <ele>207</ele>
        <time>2017-06-10T09:25:55Z</time>
      </trkpt>
      <trkpt lat="45.97177" lon="4.79314">
        <ele>207</ele>
        <time>2017-06-10T09:25:56Z</time>
      </trkpt>
      <trkpt lat="45.97174" lon="4.79307">
        <ele>207</ele>
        <time>2017-06-10T09:25:57Z</time>
      </trkpt>
      <trkpt lat="45.9717" lon="4.79299">
        <ele>207</ele>
        <time>2017-06-10T09:25:58Z</time>
      </trkpt>
      <trkpt lat="45.97167" lon="4.79291">
        <ele>207</ele>
        <time>2017-06-10T09:25:59Z</time>
      </trkpt>
      <trkpt lat="45.97164" lon="4.79283">
        <ele>204</ele>
        <time>2017-06-10T09:26:00Z</time>
      </trkpt>
      <trkpt lat="45.97161" lon="4.79275">
        <ele>204</ele>
        <time>2017-06-10T09:26:01Z</time>
      </trkpt>
      <trkpt lat="45.97158" lon="4.79268">
        <ele>204</ele>
        <time>2017-06-10T09:26:02Z</time>
      </trkpt>
      <trkpt lat="45.97155" lon="4.79261">
        <ele>205</ele>
        <time>2017-06-10T09:26:03Z</time>
      </trkpt>
      <trkpt lat="45.97151" lon="4.79253">
        <ele>205</ele>
        <time>2017-06-10T09:26:04Z</time>
      </trkpt>
      <trkpt lat="45.97148" lon="4.79246">
        <ele>205</ele>
        <time>2017-06-10T09:26:05Z</time>
      </trkpt>
      <trkpt lat="45.97145" lon="4.79239">
        <ele>205</ele>
        <time>2017-06-10T09:26:06Z</time>
      </trkpt>
      <trkpt lat="45.97143" lon="4.79231">
        <ele>205</ele>
        <time>2017-06-10T09:26:07Z</time>
      </trkpt>
      <trkpt lat="45.97139" lon="4.79224">
        <ele>205</ele>
        <time>2017-06-10T09:26:08Z</time>
      </trkpt>
      <trkpt lat="45.97136" lon="4.79217">
        <ele>206</ele>
        <time>2017-06-10T09:26:09Z</time>
      </trkpt>
      <trkpt lat="45.97133" lon="4.7921">
        <ele>206</ele>
        <time>2017-06-10T09:26:10Z</time>
      </trkpt>
      <trkpt lat="45.9713" lon="4.79203">
        <ele>206</ele>
        <time>2017-06-10T09:26:11Z</time>
      </trkpt>
      <trkpt lat="45.97127" lon="4.79196">
        <ele>206</ele>
        <time>2017-06-10T09:26:12Z</time>
      </trkpt>
      <trkpt lat="45.97125" lon="4.79189">
        <ele>206</ele>
        <time>2017-06-10T09:26:13Z</time>
      </trkpt>
      <trkpt lat="45.97122" lon="4.79182">
        <ele>206</ele>
        <time>2017-06-10T09:26:14Z</time>
      </trkpt>
      <trkpt lat="45.97119" lon="4.79175">
        <ele>206</ele>
        <time>2017-06-10T09:26:15Z</time>
      </trkpt>
      <trkpt lat="45.97116" lon="4.79168">
        <ele>206</ele>
        <time>2017-06-10T09:26:16Z</time>
      </trkpt>
      <trkpt lat="45.97113" lon="4.79161">
        <ele>206</ele>
        <time>2017-06-10T09:26:17Z</time>
      </trkpt>
      <trkpt lat="45.97109" lon="4.79153">
        <ele>206</ele>
        <time>2017-06-10T09:26:18Z</time>
      </trkpt>
      <trkpt lat="45.97105" lon="4.79146">
        <ele>206</ele>
        <time>2017-06-10T09:26:19Z</time>
      </trkpt>
      <trkpt lat="45.971" lon="4.79139">
        <ele>206</ele>
        <time>2017-06-10T09:26:20Z</time>
      </trkpt>
      <trkpt lat="45.97096" lon="4.79131">
        <ele>206</ele>
        <time>2017-06-10T09:26:21Z</time>
      </trkpt>
      <trkpt lat="45.97092" lon="4.79124">
        <ele>206</ele>
        <time>2017-06-10T09:26:22Z</time>
      </trkpt>
      <trkpt lat="45.97089" lon="4.79116">
        <ele>206</ele>
        <time>2017-06-10T09:26:23Z</time>
      </trkpt>
      <trkpt lat="45.97086" lon="4.79108">
        <ele>206</ele>
        <time>2017-06-10T09:26:24Z</time>
      </trkpt>
      <trkpt lat="45.97084" lon="4.791">
        <ele>205</ele>
        <time>2017-06-10T09:26:25Z</time>
      </trkpt>
      <trkpt lat="45.97082" lon="4.79092">
        <ele>204</ele>
        <time>2017-06-10T09:26:26Z</time>
      </trkpt>
      <trkpt lat="45.9708" lon="4.79083">
        <ele>204</ele>
        <time>2017-06-10T09:26:27Z</time>
      </trkpt>
      <trkpt lat="45.97077" lon="4.79074">
        <ele>204</ele>
        <time>2017-06-10T09:26:28Z</time>
      </trkpt>
      <trkpt lat="45.97076" lon="4.79065">
        <ele>204</ele>
        <time>2017-06-10T09:26:29Z</time>
      </trkpt>
      <trkpt lat="45.97073" lon="4.79056">
        <ele>203</ele>
        <time>2017-06-10T09:26:30Z</time>
      </trkpt>
      <trkpt lat="45.97071" lon="4.79048">
        <ele>203</ele>
        <time>2017-06-10T09:26:31Z</time>
      </trkpt>
      <trkpt lat="45.97069" lon="4.7904">
        <ele>203</ele>
        <time>2017-06-10T09:26:32Z</time>
      </trkpt>
      <trkpt lat="45.97067" lon="4.79032">
        <ele>204</ele>
        <time>2017-06-10T09:26:33Z</time>
      </trkpt>
      <trkpt lat="45.97065" lon="4.79024">
        <ele>204</ele>
        <time>2017-06-10T09:26:34Z</time>
      </trkpt>
      <trkpt lat="45.97062" lon="4.79016">
        <ele>204</ele>
        <time>2017-06-10T09:26:35Z</time>
      </trkpt>
      <trkpt lat="45.9706" lon="4.79009">
        <ele>204</ele>
        <time>2017-06-10T09:26:36Z</time>
      </trkpt>
      <trkpt lat="45.97057" lon="4.79001">
        <ele>204</ele>
        <time>2017-06-10T09:26:37Z</time>
      </trkpt>
      <trkpt lat="45.97055" lon="4.78994">
        <ele>205</ele>
        <time>2017-06-10T09:26:38Z</time>
      </trkpt>
      <trkpt lat="45.97053" lon="4.78987">
        <ele>205</ele>
        <time>2017-06-10T09:26:39Z</time>
      </trkpt>
      <trkpt lat="45.9705" lon="4.7898">
        <ele>205</ele>
        <time>2017-06-10T09:26:40Z</time>
      </trkpt>
      <trkpt lat="45.97047" lon="4.78973">
        <ele>205</ele>
        <time>2017-06-10T09:26:41Z</time>
      </trkpt>
      <trkpt lat="45.97045" lon="4.78966">
        <ele>205</ele>
        <time>2017-06-10T09:26:42Z</time>
      </trkpt>
      <trkpt lat="45.97041" lon="4.78959">
        <ele>205</ele>
        <time>2017-06-10T09:26:43Z</time>
      </trkpt>
      <trkpt lat="45.97039" lon="4.78952">
        <ele>205</ele>
        <time>2017-06-10T09:26:44Z</time>
      </trkpt>
      <trkpt lat="45.97035" lon="4.78945">
        <ele>205</ele>
        <time>2017-06-10T09:26:45Z</time>
      </trkpt>
      <trkpt lat="45.97031" lon="4.78938">
        <ele>205</ele>
        <time>2017-06-10T09:26:46Z</time>
      </trkpt>
      <trkpt lat="45.97027" lon="4.78932">
        <ele>205</ele>
        <time>2017-06-10T09:26:47Z</time>
      </trkpt>
      <trkpt lat="45.97022" lon="4.78927">
        <ele>205</ele>
        <time>2017-06-10T09:26:48Z</time>
      </trkpt>
      <trkpt lat="45.97018" lon="4.78921">
        <ele>205</ele>
        <time>2017-06-10T09:26:49Z</time>
      </trkpt>
      <trkpt lat="45.97013" lon="4.78915">
        <ele>206</ele>
        <time>2017-06-10T09:26:50Z</time>
      </trkpt>
      <trkpt lat="45.97008" lon="4.78908">
        <ele>206</ele>
        <time>2017-06-10T09:26:51Z</time>
      </trkpt>
      <trkpt lat="45.97003" lon="4.78902">
        <ele>206</ele>
        <time>2017-06-10T09:26:52Z</time>
      </trkpt>
      <trkpt lat="45.96998" lon="4.78896">
        <ele>203</ele>
        <time>2017-06-10T09:26:53Z</time>
      </trkpt>
      <trkpt lat="45.96993" lon="4.7889">
        <ele>203</ele>
        <time>2017-06-10T09:26:54Z</time>
      </trkpt>
      <trkpt lat="45.96988" lon="4.78884">
        <ele>203</ele>
        <time>2017-06-10T09:26:55Z</time>
      </trkpt>
      <trkpt lat="45.96983" lon="4.78878">
        <ele>203</ele>
        <time>2017-06-10T09:26:56Z</time>
      </trkpt>
      <trkpt lat="45.96978" lon="4.78872">
        <ele>203</ele>
        <time>2017-06-10T09:26:57Z</time>
      </trkpt>
      <trkpt lat="45.96973" lon="4.78867">
        <ele>203</ele>
        <time>2017-06-10T09:26:58Z</time>
      </trkpt>
      <trkpt lat="45.96968" lon="4.78861">
        <ele>203</ele>
        <time>2017-06-10T09:26:59Z</time>
      </trkpt>
      <trkpt lat="45.96963" lon="4.78856">
        <ele>203</ele>
        <time>2017-06-10T09:27:00Z</time>
      </trkpt>
      <trkpt lat="45.96958" lon="4.7885">
        <ele>203</ele>
        <time>2017-06-10T09:27:01Z</time>
      </trkpt>
      <trkpt lat="45.96953" lon="4.78845">
        <ele>203</ele>
        <time>2017-06-10T09:27:02Z</time>
      </trkpt>
      <trkpt lat="45.96949" lon="4.78839">
        <ele>202</ele>
        <time>2017-06-10T09:27:03Z</time>
      </trkpt>
      <trkpt lat="45.96945" lon="4.78833">
        <ele>203</ele>
        <time>2017-06-10T09:27:04Z</time>
      </trkpt>
      <trkpt lat="45.9694" lon="4.78827">
        <ele>203</ele>
        <time>2017-06-10T09:27:05Z</time>
      </trkpt>
      <trkpt lat="45.96936" lon="4.7882">
        <ele>203</ele>
        <time>2017-06-10T09:27:06Z</time>
      </trkpt>
      <trkpt lat="45.96932" lon="4.78813">
        <ele>203</ele>
        <time>2017-06-10T09:27:07Z</time>
      </trkpt>
      <trkpt lat="45.96927" lon="4.78806">
        <ele>203</ele>
        <time>2017-06-10T09:27:08Z</time>
      </trkpt>
      <trkpt lat="45.96923" lon="4.78799">
        <ele>203</ele>
        <time>2017-06-10T09:27:09Z</time>
      </trkpt>
      <trkpt lat="45.96919" lon="4.78791">
        <ele>203</ele>
        <time>2017-06-10T09:27:10Z</time>
      </trkpt>
      <trkpt lat="45.96915" lon="4.78784">
        <ele>201</ele>
        <time>2017-06-10T09:27:11Z</time>
      </trkpt>
      <trkpt lat="45.96911" lon="4.78778">
        <ele>201</ele>
        <time>2017-06-10T09:27:12Z</time>
      </trkpt>
      <trkpt lat="45.96908" lon="4.78771">
        <ele>201</ele>
        <time>2017-06-10T09:27:13Z</time>
      </trkpt>
      <trkpt lat="45.96905" lon="4.78764">
        <ele>202</ele>
        <time>2017-06-10T09:27:14Z</time>
      </trkpt>
      <trkpt lat="45.96902" lon="4.78757">
        <ele>202</ele>
        <time>2017-06-10T09:27:15Z</time>
      </trkpt>
      <trkpt lat="45.96899" lon="4.78751">
        <ele>202</ele>
        <time>2017-06-10T09:27:16Z</time>
      </trkpt>
      <trkpt lat="45.96895" lon="4.78744">
        <ele>202</ele>
        <time>2017-06-10T09:27:17Z</time>
      </trkpt>
      <trkpt lat="45.96892" lon="4.78738">
        <ele>202</ele>
        <time>2017-06-10T09:27:18Z</time>
      </trkpt>
      <trkpt lat="45.96889" lon="4.78731">
        <ele>202</ele>
        <time>2017-06-10T09:27:19Z</time>
      </trkpt>
      <trkpt lat="45.96886" lon="4.78723">
        <ele>202</ele>
        <time>2017-06-10T09:27:20Z</time>
      </trkpt>
      <trkpt lat="45.96883" lon="4.78715">
        <ele>202</ele>
        <time>2017-06-10T09:27:21Z</time>
      </trkpt>
      <trkpt lat="45.96879" lon="4.78707">
        <ele>202</ele>
        <time>2017-06-10T09:27:22Z</time>
      </trkpt>
      <trkpt lat="45.96875" lon="4.787">
        <ele>202</ele>
        <time>2017-06-10T09:27:23Z</time>
      </trkpt>
      <trkpt lat="45.96871" lon="4.78692">
        <ele>202</ele>
        <time>2017-06-10T09:27:24Z</time>
      </trkpt>
      <trkpt lat="45.96868" lon="4.78685">
        <ele>202</ele>
        <time>2017-06-10T09:27:25Z</time>
      </trkpt>
      <trkpt lat="45.96864" lon="4.78677">
        <ele>202</ele>
        <time>2017-06-10T09:27:26Z</time>
      </trkpt>
      <trkpt lat="45.9686" lon="4.78669">
        <ele>202</ele>
        <time>2017-06-10T09:27:27Z</time>
      </trkpt>
      <trkpt lat="45.96857" lon="4.78662">
        <ele>203</ele>
        <time>2017-06-10T09:27:28Z</time>
      </trkpt>
      <trkpt lat="45.96853" lon="4.78654">
        <ele>203</ele>
        <time>2017-06-10T09:27:29Z</time>
      </trkpt>
      <trkpt lat="45.96849" lon="4.78647">
        <ele>203</ele>
        <time>2017-06-10T09:27:30Z</time>
      </trkpt>
      <trkpt lat="45.96845" lon="4.78639">
        <ele>203</ele>
        <time>2017-06-10T09:27:31Z</time>
      </trkpt>
      <trkpt lat="45.96842" lon="4.78632">
        <ele>203</ele>
        <time>2017-06-10T09:27:32Z</time>
      </trkpt>
      <trkpt lat="45.96838" lon="4.78624">
        <ele>203</ele>
        <time>2017-06-10T09:27:33Z</time>
      </trkpt>
      <trkpt lat="45.96835" lon="4.78616">
        <ele>203</ele>
        <time>2017-06-10T09:27:34Z</time>
      </trkpt>
      <trkpt lat="45.96832" lon="4.78609">
        <ele>202</ele>
        <time>2017-06-10T09:27:35Z</time>
      </trkpt>
      <trkpt lat="45.96829" lon="4.78602">
        <ele>202</ele>
        <time>2017-06-10T09:27:36Z</time>
      </trkpt>
      <trkpt lat="45.96826" lon="4.78594">
        <ele>202</ele>
        <time>2017-06-10T09:27:37Z</time>
      </trkpt>
      <trkpt lat="45.96824" lon="4.78586">
        <ele>202</ele>
        <time>2017-06-10T09:27:38Z</time>
      </trkpt>
      <trkpt lat="45.9682" lon="4.7858">
        <ele>203</ele>
        <time>2017-06-10T09:27:39Z</time>
      </trkpt>
      <trkpt lat="45.96816" lon="4.78573">
        <ele>203</ele>
        <time>2017-06-10T09:27:40Z</time>
      </trkpt>
      <trkpt lat="45.96812" lon="4.78566">
        <ele>203</ele>
        <time>2017-06-10T09:27:41Z</time>
      </trkpt>
      <trkpt lat="45.96808" lon="4.78559">
        <ele>203</ele>
        <time>2017-06-10T09:27:42Z</time>
      </trkpt>
      <trkpt lat="45.96803" lon="4.78552">
        <ele>203</ele>
        <time>2017-06-10T09:27:43Z</time>
      </trkpt>
      <trkpt lat="45.96799" lon="4.78545">
        <ele>203</ele>
        <time>2017-06-10T09:27:44Z</time>
      </trkpt>
      <trkpt lat="45.96795" lon="4.78538">
        <ele>203</ele>
        <time>2017-06-10T09:27:45Z</time>
      </trkpt>
      <trkpt lat="45.9679" lon="4.7853">
        <ele>203</ele>
        <time>2017-06-10T09:27:46Z</time>
      </trkpt>
      <trkpt lat="45.96786" lon="4.78523">
        <ele>203</ele>
        <time>2017-06-10T09:27:47Z</time>
      </trkpt>
      <trkpt lat="45.96781" lon="4.78516">
        <ele>203</ele>
        <time>2017-06-10T09:27:48Z</time>
      </trkpt>
      <trkpt lat="45.96776" lon="4.7851">
        <ele>203</ele>
        <time>2017-06-10T09:27:49Z</time>
      </trkpt>
      <trkpt lat="45.96771" lon="4.78503">
        <ele>203</ele>
        <time>2017-06-10T09:27:50Z</time>
      </trkpt>
      <trkpt lat="45.96766" lon="4.78496">
        <ele>205</ele>
        <time>2017-06-10T09:27:51Z</time>
      </trkpt>
      <trkpt lat="45.96762" lon="4.7849">
        <ele>205</ele>
        <time>2017-06-10T09:27:52Z</time>
      </trkpt>
      <trkpt lat="45.96757" lon="4.78485">
        <ele>205</ele>
        <time>2017-06-10T09:27:53Z</time>
      </trkpt>
      <trkpt lat="45.96752" lon="4.78479">
        <ele>205</ele>
        <time>2017-06-10T09:27:54Z</time>
      </trkpt>
      <trkpt lat="45.96747" lon="4.78474">
        <ele>203</ele>
        <time>2017-06-10T09:27:55Z</time>
      </trkpt>
      <trkpt lat="45.96743" lon="4.78468">
        <ele>203</ele>
        <time>2017-06-10T09:27:56Z</time>
      </trkpt>
      <trkpt lat="45.96737" lon="4.78462">
        <ele>203</ele>
        <time>2017-06-10T09:27:57Z</time>
      </trkpt>
      <trkpt lat="45.96732" lon="4.78456">
        <ele>203</ele>
        <time>2017-06-10T09:27:58Z</time>
      </trkpt>
      <trkpt lat="45.96726" lon="4.7845">
        <ele>203</ele>
        <time>2017-06-10T09:27:59Z</time>
      </trkpt>
      <trkpt lat="45.9672" lon="4.78444">
        <ele>203</ele>
        <time>2017-06-10T09:28:00Z</time>
      </trkpt>
      <trkpt lat="45.96715" lon="4.78439">
        <ele>203</ele>
        <time>2017-06-10T09:28:01Z</time>
      </trkpt>
      <trkpt lat="45.9671" lon="4.78433">
        <ele>203</ele>
        <time>2017-06-10T09:28:02Z</time>
      </trkpt>
      <trkpt lat="45.96706" lon="4.78427">
        <ele>203</ele>
        <time>2017-06-10T09:28:03Z</time>
      </trkpt>
      <trkpt lat="45.96701" lon="4.78422">
        <ele>203</ele>
        <time>2017-06-10T09:28:04Z</time>
      </trkpt>
      <trkpt lat="45.96697" lon="4.78418">
        <ele>203</ele>
        <time>2017-06-10T09:28:05Z</time>
      </trkpt>
      <trkpt lat="45.96692" lon="4.78414">
        <ele>205</ele>
        <time>2017-06-10T09:28:06Z</time>
      </trkpt>
      <trkpt lat="45.96688" lon="4.78409">
        <ele>204</ele>
        <time>2017-06-10T09:28:07Z</time>
      </trkpt>
      <trkpt lat="45.96682" lon="4.78404">
        <ele>204</ele>
        <time>2017-06-10T09:28:08Z</time>
      </trkpt>
      <trkpt lat="45.96677" lon="4.78399">
        <ele>204</ele>
        <time>2017-06-10T09:28:09Z</time>
      </trkpt>
      <trkpt lat="45.96672" lon="4.78394">
        <ele>204</ele>
        <time>2017-06-10T09:28:10Z</time>
      </trkpt>
      <trkpt lat="45.96666" lon="4.78389">
        <ele>201</ele>
        <time>2017-06-10T09:28:11Z</time>
      </trkpt>
      <trkpt lat="45.9666" lon="4.78383">
        <ele>201</ele>
        <time>2017-06-10T09:28:12Z</time>
      </trkpt>
      <trkpt lat="45.96655" lon="4.78379">
        <ele>201</ele>
        <time>2017-06-10T09:28:13Z</time>
      </trkpt>
      <trkpt lat="45.96649" lon="4.78373">
        <ele>202</ele>
        <time>2017-06-10T09:28:14Z</time>
      </trkpt>
      <trkpt lat="45.96644" lon="4.78368">
        <ele>202</ele>
        <time>2017-06-10T09:28:15Z</time>
      </trkpt>
      <trkpt lat="45.96638" lon="4.78362">
        <ele>202</ele>
        <time>2017-06-10T09:28:16Z</time>
      </trkpt>
      <trkpt lat="45.96633" lon="4.78357">
        <ele>201</ele>
        <time>2017-06-10T09:28:17Z</time>
      </trkpt>
      <trkpt lat="45.96628" lon="4.78352">
        <ele>201</ele>
        <time>2017-06-10T09:28:18Z</time>
      </trkpt>
      <trkpt lat="45.96622" lon="4.78347">
        <ele>201</ele>
        <time>2017-06-10T09:28:19Z</time>
      </trkpt>
      <trkpt lat="45.96616" lon="4.78342">
        <ele>201</ele>
        <time>2017-06-10T09:28:20Z</time>
      </trkpt>
      <trkpt lat="45.96611" lon="4.78337">
        <ele>200</ele>
        <time>2017-06-10T09:28:21Z</time>
      </trkpt>
      <trkpt lat="45.96605" lon="4.78332">
        <ele>203</ele>
        <time>2017-06-10T09:28:22Z</time>
      </trkpt>
      <trkpt lat="45.966" lon="4.78326">
        <ele>202</ele>
        <time>2017-06-10T09:28:23Z</time>
      </trkpt>
      <trkpt lat="45.96594" lon="4.7832">
        <ele>202</ele>
        <time>2017-06-10T09:28:24Z</time>
      </trkpt>
      <trkpt lat="45.96589" lon="4.78314">
        <ele>203</ele>
        <time>2017-06-10T09:28:25Z</time>
      </trkpt>
      <trkpt lat="45.96583" lon="4.78307">
        <ele>200</ele>
        <time>2017-06-10T09:28:26Z</time>
      </trkpt>
      <trkpt lat="45.96578" lon="4.78301">
        <ele>200</ele>
        <time>2017-06-10T09:28:27Z</time>
      </trkpt>
      <trkpt lat="45.96572" lon="4.78295">
        <ele>200</ele>
        <time>2017-06-10T09:28:28Z</time>
      </trkpt>
      <trkpt lat="45.96567" lon="4.78289">
        <ele>200</ele>
        <time>2017-06-10T09:28:29Z</time>
      </trkpt>
      <trkpt lat="45.96561" lon="4.78283">
        <ele>200</ele>
        <time>2017-06-10T09:28:30Z</time>
      </trkpt>
      <trkpt lat="45.96556" lon="4.78277">
        <ele>201</ele>
        <time>2017-06-10T09:28:31Z</time>
      </trkpt>
      <trkpt lat="45.96552" lon="4.78271">
        <ele>201</ele>
        <time>2017-06-10T09:28:32Z</time>
      </trkpt>
      <trkpt lat="45.96547" lon="4.78264">
        <ele>201</ele>
        <time>2017-06-10T09:28:33Z</time>
      </trkpt>
      <trkpt lat="45.96543" lon="4.78258">
        <ele>200</ele>
        <time>2017-06-10T09:28:34Z</time>
      </trkpt>
      <trkpt lat="45.96539" lon="4.78251">
        <ele>200</ele>
        <time>2017-06-10T09:28:35Z</time>
      </trkpt>
      <trkpt lat="45.96535" lon="4.78244">
        <ele>205</ele>
        <time>2017-06-10T09:28:36Z</time>
      </trkpt>
      <trkpt lat="45.96532" lon="4.78236">
        <ele>205</ele>
        <time>2017-06-10T09:28:37Z</time>
      </trkpt>
      <trkpt lat="45.96527" lon="4.7823">
        <ele>205</ele>
        <time>2017-06-10T09:28:38Z</time>
      </trkpt>
      <trkpt lat="45.96523" lon="4.78223">
        <ele>205</ele>
        <time>2017-06-10T09:28:39Z</time>
      </trkpt>
      <trkpt lat="45.96518" lon="4.78216">
        <ele>205</ele>
        <time>2017-06-10T09:28:40Z</time>
      </trkpt>
      <trkpt lat="45.96513" lon="4.7821">
        <ele>205</ele>
        <time>2017-06-10T09:28:41Z</time>
      </trkpt>
      <trkpt lat="45.96509" lon="4.78204">
        <ele>205</ele>
        <time>2017-06-10T09:28:42Z</time>
      </trkpt>
      <trkpt lat="45.96504" lon="4.782">
        <ele>205</ele>
        <time>2017-06-10T09:28:43Z</time>
      </trkpt>
      <trkpt lat="45.96497" lon="4.78196">
        <ele>201</ele>
        <time>2017-06-10T09:28:44Z</time>
      </trkpt>
      <trkpt lat="45.96492" lon="4.78192">
        <ele>201</ele>
        <time>2017-06-10T09:28:45Z</time>
      </trkpt>
      <trkpt lat="45.96485" lon="4.78189">
        <ele>201</ele>
        <time>2017-06-10T09:28:46Z</time>
      </trkpt>
      <trkpt lat="45.96478" lon="4.78184">
        <ele>201</ele>
        <time>2017-06-10T09:28:47Z</time>
      </trkpt>
      <trkpt lat="45.96473" lon="4.78179">
        <ele>201</ele>
        <time>2017-06-10T09:28:48Z</time>
      </trkpt>
      <trkpt lat="45.96467" lon="4.78174">
        <ele>200</ele>
        <time>2017-06-10T09:28:49Z</time>
      </trkpt>
      <trkpt lat="45.96461" lon="4.78169">
        <ele>200</ele>
        <time>2017-06-10T09:28:50Z</time>
      </trkpt>
      <trkpt lat="45.96456" lon="4.78164">
        <ele>204</ele>
        <time>2017-06-10T09:28:51Z</time>
      </trkpt>
      <trkpt lat="45.9645" lon="4.78159">
        <ele>204</ele>
        <time>2017-06-10T09:28:52Z</time>
      </trkpt>
      <trkpt lat="45.96445" lon="4.78155">
        <ele>203</ele>
        <time>2017-06-10T09:28:53Z</time>
      </trkpt>
      <trkpt lat="45.96438" lon="4.7815">
        <ele>203</ele>
        <time>2017-06-10T09:28:54Z</time>
      </trkpt>
      <trkpt lat="45.96432" lon="4.78145">
        <ele>203</ele>
        <time>2017-06-10T09:28:55Z</time>
      </trkpt>
      <trkpt lat="45.96427" lon="4.7814">
        <ele>203</ele>
        <time>2017-06-10T09:28:56Z</time>
      </trkpt>
      <trkpt lat="45.96422" lon="4.78135">
        <ele>203</ele>
        <time>2017-06-10T09:28:57Z</time>
      </trkpt>
      <trkpt lat="45.96419" lon="4.7813">
        <ele>204</ele>
        <time>2017-06-10T09:28:58Z</time>
      </trkpt>
      <trkpt lat="45.96414" lon="4.78125">
        <ele>200</ele>
        <time>2017-06-10T09:28:59Z</time>
      </trkpt>
      <trkpt lat="45.96409" lon="4.78121">
        <ele>200</ele>
        <time>2017-06-10T09:29:00Z</time>
      </trkpt>
      <trkpt lat="45.96405" lon="4.78116">
        <ele>200</ele>
        <time>2017-06-10T09:29:01Z</time>
      </trkpt>
      <trkpt lat="45.964" lon="4.78111">
        <ele>200</ele>
        <time>2017-06-10T09:29:02Z</time>
      </trkpt>
      <trkpt lat="45.96395" lon="4.78107">
        <ele>200</ele>
        <time>2017-06-10T09:29:03Z</time>
      </trkpt>
      <trkpt lat="45.9639" lon="4.78102">
        <ele>200</ele>
        <time>2017-06-10T09:29:04Z</time>
      </trkpt>
      <trkpt lat="45.96385" lon="4.78097">
        <ele>200</ele>
        <time>2017-06-10T09:29:05Z</time>
      </trkpt>
      <trkpt lat="45.9638" lon="4.78092">
        <ele>200</ele>
        <time>2017-06-10T09:29:06Z</time>
      </trkpt>
      <trkpt lat="45.96375" lon="4.78087">
        <ele>200</ele>
        <time>2017-06-10T09:29:07Z</time>
      </trkpt>
      <trkpt lat="45.96369" lon="4.78081">
        <ele>203</ele>
        <time>2017-06-10T09:29:08Z</time>
      </trkpt>
      <trkpt lat="45.96363" lon="4.78075">
        <ele>202</ele>
        <time>2017-06-10T09:29:09Z</time>
      </trkpt>
      <trkpt lat="45.96357" lon="4.78069">
        <ele>202</ele>
        <time>2017-06-10T09:29:10Z</time>
      </trkpt>
      <trkpt lat="45.96351" lon="4.78062">
        <ele>202</ele>
        <time>2017-06-10T09:29:11Z</time>
      </trkpt>
      <trkpt lat="45.96345" lon="4.78056">
        <ele>202</ele>
        <time>2017-06-10T09:29:12Z</time>
      </trkpt>
      <trkpt lat="45.9634" lon="4.7805">
        <ele>203</ele>
        <time>2017-06-10T09:29:13Z</time>
      </trkpt>
      <trkpt lat="45.96335" lon="4.78044">
        <ele>203</ele>
        <time>2017-06-10T09:29:14Z</time>
      </trkpt>
      <trkpt lat="45.96329" lon="4.78037">
        <ele>200</ele>
        <time>2017-06-10T09:29:15Z</time>
      </trkpt>
      <trkpt lat="45.96324" lon="4.78031">
        <ele>200</ele>
        <time>2017-06-10T09:29:16Z</time>
      </trkpt>
      <trkpt lat="45.9632" lon="4.78025">
        <ele>200</ele>
        <time>2017-06-10T09:29:17Z</time>
      </trkpt>
      <trkpt lat="45.96315" lon="4.7802">
        <ele>200</ele>
        <time>2017-06-10T09:29:18Z</time>
      </trkpt>
      <trkpt lat="45.96309" lon="4.78014">
        <ele>200</ele>
        <time>2017-06-10T09:29:19Z</time>
      </trkpt>
      <trkpt lat="45.96304" lon="4.78011">
        <ele>200</ele>
        <time>2017-06-10T09:29:20Z</time>
      </trkpt>
      <trkpt lat="45.96299" lon="4.78007">
        <ele>200</ele>
        <time>2017-06-10T09:29:21Z</time>
      </trkpt>
      <trkpt lat="45.96295" lon="4.78003">
        <ele>199</ele>
        <time>2017-06-10T09:29:22Z</time>
      </trkpt>
      <trkpt lat="45.96291" lon="4.77998">
        <ele>204</ele>
        <time>2017-06-10T09:29:23Z</time>
      </trkpt>
      <trkpt lat="45.96286" lon="4.77993">
        <ele>204</ele>
        <time>2017-06-10T09:29:24Z</time>
      </trkpt>
      <trkpt lat="45.96281" lon="4.77988">
        <ele>204</ele>
        <time>2017-06-10T09:29:25Z</time>
      </trkpt>
      <trkpt lat="45.96277" lon="4.77983">
        <ele>203</ele>
        <time>2017-06-10T09:29:26Z</time>
      </trkpt>
      <trkpt lat="45.96272" lon="4.77979">
        <ele>203</ele>
        <time>2017-06-10T09:29:27Z</time>
      </trkpt>
      <trkpt lat="45.96267" lon="4.77974">
        <ele>203</ele>
        <time>2017-06-10T09:29:28Z</time>
      </trkpt>
      <trkpt lat="45.96263" lon="4.77969">
        <ele>204</ele>
        <time>2017-06-10T09:29:29Z</time>
      </trkpt>
      <trkpt lat="45.96259" lon="4.77965">
        <ele>204</ele>
        <time>2017-06-10T09:29:30Z</time>
      </trkpt>
      <trkpt lat="45.96253" lon="4.77958">
        <ele>205</ele>
        <time>2017-06-10T09:29:32Z</time>
      </trkpt>
      <trkpt lat="45.96249" lon="4.77954">
        <ele>200</ele>
        <time>2017-06-10T09:29:33Z</time>
      </trkpt>
      <trkpt lat="45.96245" lon="4.7795">
        <ele>200</ele>
        <time>2017-06-10T09:29:34Z</time>
      </trkpt>
      <trkpt lat="45.96241" lon="4.77945">
        <ele>201</ele>
        <time>2017-06-10T09:29:35Z</time>
      </trkpt>
      <trkpt lat="45.96237" lon="4.77939">
        <ele>201</ele>
        <time>2017-06-10T09:29:36Z</time>
      </trkpt>
      <trkpt lat="45.96233" lon="4.77933">
        <ele>201</ele>
        <time>2017-06-10T09:29:37Z</time>
      </trkpt>
      <trkpt lat="45.96228" lon="4.77926">
        <ele>201</ele>
        <time>2017-06-10T09:29:38Z</time>
      </trkpt>
      <trkpt lat="45.96224" lon="4.77919">
        <ele>201</ele>
        <time>2017-06-10T09:29:39Z</time>
      </trkpt>
      <trkpt lat="45.9622" lon="4.77913">
        <ele>204</ele>
        <time>2017-06-10T09:29:40Z</time>
      </trkpt>
      <trkpt lat="45.96215" lon="4.77905">
        <ele>203</ele>
        <time>2017-06-10T09:29:41Z</time>
      </trkpt>
      <trkpt lat="45.96211" lon="4.77898">
        <ele>203</ele>
        <time>2017-06-10T09:29:42Z</time>
      </trkpt>
      <trkpt lat="45.96206" lon="4.7789">
        <ele>202</ele>
        <time>2017-06-10T09:29:43Z</time>
      </trkpt>
      <trkpt lat="45.96201" lon="4.77883">
        <ele>202</ele>
        <time>2017-06-10T09:29:44Z</time>
      </trkpt>
      <trkpt lat="45.96197" lon="4.77875">
        <ele>202</ele>
        <time>2017-06-10T09:29:45Z</time>
      </trkpt>
      <trkpt lat="45.96193" lon="4.77868">
        <ele>202</ele>
        <time>2017-06-10T09:29:46Z</time>
      </trkpt>
      <trkpt lat="45.96189" lon="4.77861">
        <ele>202</ele>
        <time>2017-06-10T09:29:47Z</time>
      </trkpt>
      <trkpt lat="45.96185" lon="4.77854">
        <ele>202</ele>
        <time>2017-06-10T09:29:48Z</time>
      </trkpt>
      <trkpt lat="45.9618" lon="4.77845">
        <ele>201</ele>
        <time>2017-06-10T09:29:49Z</time>
      </trkpt>
      <trkpt lat="45.96176" lon="4.77838">
        <ele>200</ele>
        <time>2017-06-10T09:29:50Z</time>
      </trkpt>
      <trkpt lat="45.96172" lon="4.77832">
        <ele>200</ele>
        <time>2017-06-10T09:29:51Z</time>
      </trkpt>
      <trkpt lat="45.96168" lon="4.77826">
        <ele>201</ele>
        <time>2017-06-10T09:29:52Z</time>
      </trkpt>
      <trkpt lat="45.96164" lon="4.7782">
        <ele>198</ele>
        <time>2017-06-10T09:29:53Z</time>
      </trkpt>
      <trkpt lat="45.9616" lon="4.77814">
        <ele>198</ele>
        <time>2017-06-10T09:29:54Z</time>
      </trkpt>
      <trkpt lat="45.96156" lon="4.77808">
        <ele>198</ele>
        <time>2017-06-10T09:29:55Z</time>
      </trkpt>
      <trkpt lat="45.96152" lon="4.77802">
        <ele>198</ele>
        <time>2017-06-10T09:29:56Z</time>
      </trkpt>
      <trkpt lat="45.96148" lon="4.77797">
        <ele>198</ele>
        <time>2017-06-10T09:29:57Z</time>
      </trkpt>
      <trkpt lat="45.96145" lon="4.77792">
        <ele>198</ele>
        <time>2017-06-10T09:29:58Z</time>
      </trkpt>
      <trkpt lat="45.96142" lon="4.77786">
        <ele>198</ele>
        <time>2017-06-10T09:29:59Z</time>
      </trkpt>
      <trkpt lat="45.96138" lon="4.77781">
        <ele>198</ele>
        <time>2017-06-10T09:30:00Z</time>
      </trkpt>
      <trkpt lat="45.96135" lon="4.77775">
        <ele>198</ele>
        <time>2017-06-10T09:30:01Z</time>
      </trkpt>
      <trkpt lat="45.96131" lon="4.77769">
        <ele>198</ele>
        <time>2017-06-10T09:30:02Z</time>
      </trkpt>
      <trkpt lat="45.96127" lon="4.77762">
        <ele>198</ele>
        <time>2017-06-10T09:30:03Z</time>
      </trkpt>
      <trkpt lat="45.96123" lon="4.77756">
        <ele>198</ele>
        <time>2017-06-10T09:30:04Z</time>
      </trkpt>
      <trkpt lat="45.96118" lon="4.77749">
        <ele>199</ele>
        <time>2017-06-10T09:30:05Z</time>
      </trkpt>
      <trkpt lat="45.96113" lon="4.77741">
        <ele>199</ele>
        <time>2017-06-10T09:30:06Z</time>
      </trkpt>
      <trkpt lat="45.96109" lon="4.77734">
        <ele>199</ele>
        <time>2017-06-10T09:30:07Z</time>
      </trkpt>
      <trkpt lat="45.96104" lon="4.77726">
        <ele>199</ele>
        <time>2017-06-10T09:30:08Z</time>
      </trkpt>
      <trkpt lat="45.961" lon="4.77718">
        <ele>200</ele>
        <time>2017-06-10T09:30:09Z</time>
      </trkpt>
      <trkpt lat="45.96095" lon="4.77711">
        <ele>200</ele>
        <time>2017-06-10T09:30:10Z</time>
      </trkpt>
      <trkpt lat="45.9609" lon="4.77703">
        <ele>200</ele>
        <time>2017-06-10T09:30:11Z</time>
      </trkpt>
      <trkpt lat="45.96085" lon="4.77696">
        <ele>200</ele>
        <time>2017-06-10T09:30:12Z</time>
      </trkpt>
      <trkpt lat="45.96081" lon="4.77689">
        <ele>198</ele>
        <time>2017-06-10T09:30:13Z</time>
      </trkpt>
      <trkpt lat="45.96076" lon="4.77682">
        <ele>198</ele>
        <time>2017-06-10T09:30:14Z</time>
      </trkpt>
      <trkpt lat="45.96071" lon="4.77675">
        <ele>199</ele>
        <time>2017-06-10T09:30:15Z</time>
      </trkpt>
      <trkpt lat="45.96066" lon="4.77668">
        <ele>198</ele>
        <time>2017-06-10T09:30:16Z</time>
      </trkpt>
      <trkpt lat="45.96062" lon="4.77662">
        <ele>200</ele>
        <time>2017-06-10T09:30:17Z</time>
      </trkpt>
      <trkpt lat="45.96057" lon="4.77656">
        <ele>200</ele>
        <time>2017-06-10T09:30:18Z</time>
      </trkpt>
      <trkpt lat="45.96052" lon="4.7765">
        <ele>200</ele>
        <time>2017-06-10T09:30:19Z</time>
      </trkpt>
      <trkpt lat="45.96047" lon="4.77644">
        <ele>200</ele>
        <time>2017-06-10T09:30:20Z</time>
      </trkpt>
      <trkpt lat="45.96041" lon="4.77638">
        <ele>199</ele>
        <time>2017-06-10T09:30:21Z</time>
      </trkpt>
      <trkpt lat="45.96036" lon="4.77632">
        <ele>199</ele>
        <time>2017-06-10T09:30:22Z</time>
      </trkpt>
      <trkpt lat="45.9603" lon="4.77625">
        <ele>199</ele>
        <time>2017-06-10T09:30:23Z</time>
      </trkpt>
      <trkpt lat="45.96025" lon="4.77619">
        <ele>199</ele>
        <time>2017-06-10T09:30:24Z</time>
      </trkpt>
      <trkpt lat="45.9602" lon="4.77614">
        <ele>199</ele>
        <time>2017-06-10T09:30:25Z</time>
      </trkpt>
      <trkpt lat="45.96015" lon="4.77609">
        <ele>199</ele>
        <time>2017-06-10T09:30:26Z</time>
      </trkpt>
      <trkpt lat="45.96012" lon="4.77604">
        <ele>199</ele>
        <time>2017-06-10T09:30:27Z</time>
      </trkpt>
      <trkpt lat="45.96006" lon="4.77596">
        <ele>198</ele>
        <time>2017-06-10T09:30:29Z</time>
      </trkpt>
      <trkpt lat="45.96004" lon="4.77592">
        <ele>198</ele>
        <time>2017-06-10T09:30:30Z</time>
      </trkpt>
      <trkpt lat="45.96001" lon="4.77587">
        <ele>197</ele>
        <time>2017-06-10T09:30:31Z</time>
      </trkpt>
      <trkpt lat="45.95998" lon="4.7758">
        <ele>197</ele>
        <time>2017-06-10T09:30:32Z</time>
      </trkpt>
      <trkpt lat="45.95994" lon="4.77574">
        <ele>196</ele>
        <time>2017-06-10T09:30:33Z</time>
      </trkpt>
      <trkpt lat="45.95992" lon="4.77568">
        <ele>196</ele>
        <time>2017-06-10T09:30:34Z</time>
      </trkpt>
      <trkpt lat="45.95989" lon="4.77561">
        <ele>196</ele>
        <time>2017-06-10T09:30:35Z</time>
      </trkpt>
      <trkpt lat="45.95987" lon="4.77554">
        <ele>196</ele>
        <time>2017-06-10T09:30:36Z</time>
      </trkpt>
      <trkpt lat="45.95985" lon="4.77547">
        <ele>196</ele>
        <time>2017-06-10T09:30:37Z</time>
      </trkpt>
      <trkpt lat="45.95982" lon="4.77542">
        <ele>196</ele>
        <time>2017-06-10T09:30:38Z</time>
      </trkpt>
      <trkpt lat="45.95979" lon="4.77536">
        <ele>196</ele>
        <time>2017-06-10T09:30:39Z</time>
      </trkpt>
      <trkpt lat="45.95976" lon="4.77529">
        <ele>196</ele>
        <time>2017-06-10T09:30:40Z</time>
      </trkpt>
      <trkpt lat="45.95973" lon="4.77522">
        <ele>196</ele>
        <time>2017-06-10T09:30:41Z</time>
      </trkpt>
      <trkpt lat="45.95969" lon="4.77514">
        <ele>196</ele>
        <time>2017-06-10T09:30:42Z</time>
      </trkpt>
      <trkpt lat="45.95965" lon="4.77506">
        <ele>196</ele>
        <time>2017-06-10T09:30:43Z</time>
      </trkpt>
      <trkpt lat="45.95962" lon="4.77498">
        <ele>196</ele>
        <time>2017-06-10T09:30:44Z</time>
      </trkpt>
      <trkpt lat="45.95958" lon="4.77489">
        <ele>196</ele>
        <time>2017-06-10T09:30:45Z</time>
      </trkpt>
      <trkpt lat="45.95954" lon="4.7748">
        <ele>196</ele>
        <time>2017-06-10T09:30:46Z</time>
      </trkpt>
      <trkpt lat="45.95951" lon="4.77471">
        <ele>196</ele>
        <time>2017-06-10T09:30:47Z</time>
      </trkpt>
      <trkpt lat="45.95947" lon="4.77462">
        <ele>196</ele>
        <time>2017-06-10T09:30:48Z</time>
      </trkpt>
      <trkpt lat="45.95944" lon="4.77454">
        <ele>196</ele>
        <time>2017-06-10T09:30:49Z</time>
      </trkpt>
      <trkpt lat="45.9594" lon="4.77445">
        <ele>196</ele>
        <time>2017-06-10T09:30:50Z</time>
      </trkpt>
      <trkpt lat="45.95937" lon="4.77436">
        <ele>195</ele>
        <time>2017-06-10T09:30:51Z</time>
      </trkpt>
      <trkpt lat="45.95933" lon="4.77427">
        <ele>195</ele>
        <time>2017-06-10T09:30:52Z</time>
      </trkpt>
      <trkpt lat="45.95929" lon="4.77419">
        <ele>195</ele>
        <time>2017-06-10T09:30:53Z</time>
      </trkpt>
      <trkpt lat="45.95927" lon="4.7741">
        <ele>195</ele>
        <time>2017-06-10T09:30:54Z</time>
      </trkpt>
      <trkpt lat="45.95925" lon="4.774">
        <ele>196</ele>
        <time>2017-06-10T09:30:55Z</time>
      </trkpt>
      <trkpt lat="45.95922" lon="4.77391">
        <ele>196</ele>
        <time>2017-06-10T09:30:56Z</time>
      </trkpt>
      <trkpt lat="45.95919" lon="4.77382">
        <ele>196</ele>
        <time>2017-06-10T09:30:57Z</time>
      </trkpt>
      <trkpt lat="45.95915" lon="4.77372">
        <ele>193</ele>
        <time>2017-06-10T09:30:58Z</time>
      </trkpt>
      <trkpt lat="45.95912" lon="4.77363">
        <ele>193</ele>
        <time>2017-06-10T09:30:59Z</time>
      </trkpt>
      <trkpt lat="45.95909" lon="4.77354">
        <ele>193</ele>
        <time>2017-06-10T09:31:00Z</time>
      </trkpt>
      <trkpt lat="45.95907" lon="4.77345">
        <ele>194</ele>
        <time>2017-06-10T09:31:01Z</time>
      </trkpt>
      <trkpt lat="45.95904" lon="4.77335">
        <ele>194</ele>
        <time>2017-06-10T09:31:02Z</time>
      </trkpt>
      <trkpt lat="45.95902" lon="4.77325">
        <ele>194</ele>
        <time>2017-06-10T09:31:03Z</time>
      </trkpt>
      <trkpt lat="45.959" lon="4.77315">
        <ele>193</ele>
        <time>2017-06-10T09:31:04Z</time>
      </trkpt>
      <trkpt lat="45.95897" lon="4.77306">
        <ele>193</ele>
        <time>2017-06-10T09:31:05Z</time>
      </trkpt>
      <trkpt lat="45.95894" lon="4.77296">
        <ele>193</ele>
        <time>2017-06-10T09:31:06Z</time>
      </trkpt>
      <trkpt lat="45.95891" lon="4.77286">
        <ele>193</ele>
        <time>2017-06-10T09:31:07Z</time>
      </trkpt>
      <trkpt lat="45.95888" lon="4.77276">
        <ele>193</ele>
        <time>2017-06-10T09:31:08Z</time>
      </trkpt>
      <trkpt lat="45.95885" lon="4.77267">
        <ele>193</ele>
        <time>2017-06-10T09:31:09Z</time>
      </trkpt>
      <trkpt lat="45.95883" lon="4.77258">
        <ele>193</ele>
        <time>2017-06-10T09:31:10Z</time>
      </trkpt>
      <trkpt lat="45.95881" lon="4.77248">
        <ele>193</ele>
        <time>2017-06-10T09:31:11Z</time>
      </trkpt>
      <trkpt lat="45.95879" lon="4.77238">
        <ele>193</ele>
        <time>2017-06-10T09:31:12Z</time>
      </trkpt>
      <trkpt lat="45.95877" lon="4.77229">
        <ele>193</ele>
        <time>2017-06-10T09:31:13Z</time>
      </trkpt>
      <trkpt lat="45.95876" lon="4.77221">
        <ele>193</ele>
        <time>2017-06-10T09:31:14Z</time>
      </trkpt>
      <trkpt lat="45.95874" lon="4.77212">
        <ele>193</ele>
        <time>2017-06-10T09:31:15Z</time>
      </trkpt>
      <trkpt lat="45.95872" lon="4.77203">
        <ele>193</ele>
        <time>2017-06-10T09:31:16Z</time>
      </trkpt>
      <trkpt lat="45.95869" lon="4.77194">
        <ele>193</ele>
        <time>2017-06-10T09:31:17Z</time>
      </trkpt>
      <trkpt lat="45.95867" lon="4.77185">
        <ele>193</ele>
        <time>2017-06-10T09:31:18Z</time>
      </trkpt>
      <trkpt lat="45.95864" lon="4.77176">
        <ele>192</ele>
        <time>2017-06-10T09:31:19Z</time>
      </trkpt>
      <trkpt lat="45.95862" lon="4.77166">
        <ele>193</ele>
        <time>2017-06-10T09:31:20Z</time>
      </trkpt>
      <trkpt lat="45.95859" lon="4.77157">
        <ele>193</ele>
        <time>2017-06-10T09:31:21Z</time>
      </trkpt>
      <trkpt lat="45.95857" lon="4.77148">
        <ele>193</ele>
        <time>2017-06-10T09:31:22Z</time>
      </trkpt>
      <trkpt lat="45.95855" lon="4.77138">
        <ele>193</ele>
        <time>2017-06-10T09:31:23Z</time>
      </trkpt>
      <trkpt lat="45.95852" lon="4.77129">
        <ele>193</ele>
        <time>2017-06-10T09:31:24Z</time>
      </trkpt>
      <trkpt lat="45.9585" lon="4.7712">
        <ele>193</ele>
        <time>2017-06-10T09:31:25Z</time>
      </trkpt>
      <trkpt lat="45.95848" lon="4.77111">
        <ele>193</ele>
        <time>2017-06-10T09:31:26Z</time>
      </trkpt>
      <trkpt lat="45.95846" lon="4.77102">
        <ele>193</ele>
        <time>2017-06-10T09:31:27Z</time>
      </trkpt>
      <trkpt lat="45.95843" lon="4.77093">
        <ele>193</ele>
        <time>2017-06-10T09:31:28Z</time>
      </trkpt>
      <trkpt lat="45.95839" lon="4.77085">
        <ele>192</ele>
        <time>2017-06-10T09:31:29Z</time>
      </trkpt>
      <trkpt lat="45.95836" lon="4.77076">
        <ele>192</ele>
        <time>2017-06-10T09:31:30Z</time>
      </trkpt>
      <trkpt lat="45.95832" lon="4.77068">
        <ele>191</ele>
        <time>2017-06-10T09:31:31Z</time>
      </trkpt>
      <trkpt lat="45.95828" lon="4.7706">
        <ele>191</ele>
        <time>2017-06-10T09:31:32Z</time>
      </trkpt>
      <trkpt lat="45.95825" lon="4.77051">
        <ele>190</ele>
        <time>2017-06-10T09:31:33Z</time>
      </trkpt>
      <trkpt lat="45.95822" lon="4.77044">
        <ele>190</ele>
        <time>2017-06-10T09:31:34Z</time>
      </trkpt>
      <trkpt lat="45.95818" lon="4.77036">
        <ele>190</ele>
        <time>2017-06-10T09:31:35Z</time>
      </trkpt>
      <trkpt lat="45.95815" lon="4.77028">
        <ele>190</ele>
        <time>2017-06-10T09:31:36Z</time>
      </trkpt>
      <trkpt lat="45.95812" lon="4.7702">
        <ele>190</ele>
        <time>2017-06-10T09:31:37Z</time>
      </trkpt>
      <trkpt lat="45.9581" lon="4.77012">
        <ele>190</ele>
        <time>2017-06-10T09:31:38Z</time>
      </trkpt>
      <trkpt lat="45.95809" lon="4.77004">
        <ele>190</ele>
        <time>2017-06-10T09:31:39Z</time>
      </trkpt>
      <trkpt lat="45.95807" lon="4.76996">
        <ele>190</ele>
        <time>2017-06-10T09:31:40Z</time>
      </trkpt>
      <trkpt lat="45.95806" lon="4.76987">
        <ele>190</ele>
        <time>2017-06-10T09:31:41Z</time>
      </trkpt>
      <trkpt lat="45.95806" lon="4.76978">
        <ele>189</ele>
        <time>2017-06-10T09:31:42Z</time>
      </trkpt>
      <trkpt lat="45.95807" lon="4.7697">
        <ele>189</ele>
        <time>2017-06-10T09:31:43Z</time>
      </trkpt>
      <trkpt lat="45.95807" lon="4.76961">
        <ele>189</ele>
        <time>2017-06-10T09:31:44Z</time>
      </trkpt>
      <trkpt lat="45.95809" lon="4.76952">
        <ele>189</ele>
        <time>2017-06-10T09:31:45Z</time>
      </trkpt>
      <trkpt lat="45.9581" lon="4.76943">
        <ele>189</ele>
        <time>2017-06-10T09:31:46Z</time>
      </trkpt>
      <trkpt lat="45.95812" lon="4.76934">
        <ele>189</ele>
        <time>2017-06-10T09:31:47Z</time>
      </trkpt>
      <trkpt lat="45.95813" lon="4.76925">
        <ele>189</ele>
        <time>2017-06-10T09:31:48Z</time>
      </trkpt>
      <trkpt lat="45.95814" lon="4.76917">
        <ele>189</ele>
        <time>2017-06-10T09:31:49Z</time>
      </trkpt>
      <trkpt lat="45.95815" lon="4.76909">
        <ele>189</ele>
        <time>2017-06-10T09:31:50Z</time>
      </trkpt>
      <trkpt lat="45.95816" lon="4.76901">
        <ele>189</ele>
        <time>2017-06-10T09:31:51Z</time>
      </trkpt>
      <trkpt lat="45.95818" lon="4.76893">
        <ele>189</ele>
        <time>2017-06-10T09:31:52Z</time>
      </trkpt>
      <trkpt lat="45.95819" lon="4.76886">
        <ele>189</ele>
        <time>2017-06-10T09:31:53Z</time>
      </trkpt>
      <trkpt lat="45.95821" lon="4.76879">
        <ele>189</ele>
        <time>2017-06-10T09:31:54Z</time>
      </trkpt>
      <trkpt lat="45.95822" lon="4.76872">
        <ele>189</ele>
        <time>2017-06-10T09:31:55Z</time>
      </trkpt>
      <trkpt lat="45.95824" lon="4.76865">
        <ele>189</ele>
        <time>2017-06-10T09:31:56Z</time>
      </trkpt>
      <trkpt lat="45.95826" lon="4.76857">
        <ele>189</ele>
        <time>2017-06-10T09:31:57Z</time>
      </trkpt>
      <trkpt lat="45.95827" lon="4.76848">
        <ele>190</ele>
        <time>2017-06-10T09:31:58Z</time>
      </trkpt>
      <trkpt lat="45.95829" lon="4.7684">
        <ele>190</ele>
        <time>2017-06-10T09:31:59Z</time>
      </trkpt>
      <trkpt lat="45.9583" lon="4.76832">
        <ele>190</ele>
        <time>2017-06-10T09:32:00Z</time>
      </trkpt>
      <trkpt lat="45.95832" lon="4.76824">
        <ele>190</ele>
        <time>2017-06-10T09:32:01Z</time>
      </trkpt>
      <trkpt lat="45.95834" lon="4.76816">
        <ele>190</ele>
        <time>2017-06-10T09:32:02Z</time>
      </trkpt>
      <trkpt lat="45.95835" lon="4.76809">
        <ele>190</ele>
        <time>2017-06-10T09:32:03Z</time>
      </trkpt>
      <trkpt lat="45.95835" lon="4.76801">
        <ele>191</ele>
        <time>2017-06-10T09:32:04Z</time>
      </trkpt>
      <trkpt lat="45.95834" lon="4.76793">
        <ele>191</ele>
        <time>2017-06-10T09:32:05Z</time>
      </trkpt>
      <trkpt lat="45.95833" lon="4.76785">
        <ele>190</ele>
        <time>2017-06-10T09:32:06Z</time>
      </trkpt>
      <trkpt lat="45.95832" lon="4.76777">
        <ele>190</ele>
        <time>2017-06-10T09:32:07Z</time>
      </trkpt>
      <trkpt lat="45.9583" lon="4.76769">
        <ele>190</ele>
        <time>2017-06-10T09:32:08Z</time>
      </trkpt>
      <trkpt lat="45.95828" lon="4.76761">
        <ele>191</ele>
        <time>2017-06-10T09:32:09Z</time>
      </trkpt>
      <trkpt lat="45.95827" lon="4.76753">
        <ele>191</ele>
        <time>2017-06-10T09:32:10Z</time>
      </trkpt>
      <trkpt lat="45.95825" lon="4.76744">
        <ele>190</ele>
        <time>2017-06-10T09:32:11Z</time>
      </trkpt>
      <trkpt lat="45.95824" lon="4.76735">
        <ele>190</ele>
        <time>2017-06-10T09:32:12Z</time>
      </trkpt>
      <trkpt lat="45.95823" lon="4.76726">
        <ele>190</ele>
        <time>2017-06-10T09:32:13Z</time>
      </trkpt>
      <trkpt lat="45.95822" lon="4.76717">
        <ele>189</ele>
        <time>2017-06-10T09:32:14Z</time>
      </trkpt>
      <trkpt lat="45.95821" lon="4.76708">
        <ele>189</ele>
        <time>2017-06-10T09:32:15Z</time>
      </trkpt>
      <trkpt lat="45.95819" lon="4.76699">
        <ele>189</ele>
        <time>2017-06-10T09:32:16Z</time>
      </trkpt>
      <trkpt lat="45.95818" lon="4.76691">
        <ele>189</ele>
        <time>2017-06-10T09:32:17Z</time>
      </trkpt>
      <trkpt lat="45.95817" lon="4.76682">
        <ele>189</ele>
        <time>2017-06-10T09:32:18Z</time>
      </trkpt>
      <trkpt lat="45.95816" lon="4.76674">
        <ele>189</ele>
        <time>2017-06-10T09:32:19Z</time>
      </trkpt>
      <trkpt lat="45.95815" lon="4.76665">
        <ele>188</ele>
        <time>2017-06-10T09:32:20Z</time>
      </trkpt>
      <trkpt lat="45.95814" lon="4.76657">
        <ele>188</ele>
        <time>2017-06-10T09:32:21Z</time>
      </trkpt>
      <trkpt lat="45.95812" lon="4.76649">
        <ele>188</ele>
        <time>2017-06-10T09:32:22Z</time>
      </trkpt>
      <trkpt lat="45.95811" lon="4.7664">
        <ele>188</ele>
        <time>2017-06-10T09:32:23Z</time>
      </trkpt>
      <trkpt lat="45.9581" lon="4.76631">
        <ele>188</ele>
        <time>2017-06-10T09:32:24Z</time>
      </trkpt>
      <trkpt lat="45.95809" lon="4.76621">
        <ele>188</ele>
        <time>2017-06-10T09:32:25Z</time>
      </trkpt>
      <trkpt lat="45.95808" lon="4.76612">
        <ele>188</ele>
        <time>2017-06-10T09:32:26Z</time>
      </trkpt>
      <trkpt lat="45.95807" lon="4.76603">
        <ele>188</ele>
        <time>2017-06-10T09:32:27Z</time>
      </trkpt>
      <trkpt lat="45.95806" lon="4.76593">
        <ele>188</ele>
        <time>2017-06-10T09:32:28Z</time>
      </trkpt>
      <trkpt lat="45.95805" lon="4.76584">
        <ele>188</ele>
        <time>2017-06-10T09:32:29Z</time>
      </trkpt>
      <trkpt lat="45.95804" lon="4.76575">
        <ele>187</ele>
        <time>2017-06-10T09:32:30Z</time>
      </trkpt>
      <trkpt lat="45.95803" lon="4.76566">
        <ele>187</ele>
        <time>2017-06-10T09:32:31Z</time>
      </trkpt>
      <trkpt lat="45.95802" lon="4.76558">
        <ele>187</ele>
        <time>2017-06-10T09:32:32Z</time>
      </trkpt>
      <trkpt lat="45.958" lon="4.7655">
        <ele>187</ele>
        <time>2017-06-10T09:32:33Z</time>
      </trkpt>
      <trkpt lat="45.95799" lon="4.76542">
        <ele>187</ele>
        <time>2017-06-10T09:32:34Z</time>
      </trkpt>
      <trkpt lat="45.95798" lon="4.76534">
        <ele>187</ele>
        <time>2017-06-10T09:32:35Z</time>
      </trkpt>
      <trkpt lat="45.95796" lon="4.76525">
        <ele>187</ele>
        <time>2017-06-10T09:32:36Z</time>
      </trkpt>
      <trkpt lat="45.95795" lon="4.76516">
        <ele>187</ele>
        <time>2017-06-10T09:32:37Z</time>
      </trkpt>
      <trkpt lat="45.95794" lon="4.76506">
        <ele>187</ele>
        <time>2017-06-10T09:32:38Z</time>
      </trkpt>
      <trkpt lat="45.95793" lon="4.76497">
        <ele>187</ele>
        <time>2017-06-10T09:32:39Z</time>
      </trkpt>
      <trkpt lat="45.95791" lon="4.76488">
        <ele>186</ele>
        <time>2017-06-10T09:32:40Z</time>
      </trkpt>
      <trkpt lat="45.9579" lon="4.76479">
        <ele>186</ele>
        <time>2017-06-10T09:32:41Z</time>
      </trkpt>
      <trkpt lat="45.95789" lon="4.7647">
        <ele>186</ele>
        <time>2017-06-10T09:32:42Z</time>
      </trkpt>
      <trkpt lat="45.95787" lon="4.76461">
        <ele>186</ele>
        <time>2017-06-10T09:32:43Z</time>
      </trkpt>
      <trkpt lat="45.95786" lon="4.76452">
        <ele>186</ele>
        <time>2017-06-10T09:32:44Z</time>
      </trkpt>
      <trkpt lat="45.95785" lon="4.76443">
        <ele>186</ele>
        <time>2017-06-10T09:32:45Z</time>
      </trkpt>
      <trkpt lat="45.95784" lon="4.76435">
        <ele>186</ele>
        <time>2017-06-10T09:32:46Z</time>
      </trkpt>
      <trkpt lat="45.95783" lon="4.76426">
        <ele>186</ele>
        <time>2017-06-10T09:32:47Z</time>
      </trkpt>
      <trkpt lat="45.95782" lon="4.76418">
        <ele>186</ele>
        <time>2017-06-10T09:32:48Z</time>
      </trkpt>
      <trkpt lat="45.95781" lon="4.7641">
        <ele>186</ele>
        <time>2017-06-10T09:32:49Z</time>
      </trkpt>
      <trkpt lat="45.9578" lon="4.76402">
        <ele>186</ele>
        <time>2017-06-10T09:32:50Z</time>
      </trkpt>
      <trkpt lat="45.95779" lon="4.76394">
        <ele>186</ele>
        <time>2017-06-10T09:32:51Z</time>
      </trkpt>
      <trkpt lat="45.95778" lon="4.76386">
        <ele>186</ele>
        <time>2017-06-10T09:32:52Z</time>
      </trkpt>
      <trkpt lat="45.95777" lon="4.76379">
        <ele>186</ele>
        <time>2017-06-10T09:32:53Z</time>
      </trkpt>
      <trkpt lat="45.95776" lon="4.76371">
        <ele>186</ele>
        <time>2017-06-10T09:32:54Z</time>
      </trkpt>
      <trkpt lat="45.95776" lon="4.76363">
        <ele>186</ele>
        <time>2017-06-10T09:32:55Z</time>
      </trkpt>
      <trkpt lat="45.95776" lon="4.76355">
        <ele>186</ele>
        <time>2017-06-10T09:32:56Z</time>
      </trkpt>
      <trkpt lat="45.95776" lon="4.76346">
        <ele>186</ele>
        <time>2017-06-10T09:32:57Z</time>
      </trkpt>
      <trkpt lat="45.95775" lon="4.76336">
        <ele>186</ele>
        <time>2017-06-10T09:32:58Z</time>
      </trkpt>
      <trkpt lat="45.95775" lon="4.76326">
        <ele>185</ele>
        <time>2017-06-10T09:32:59Z</time>
      </trkpt>
      <trkpt lat="45.95774" lon="4.76315">
        <ele>186</ele>
        <time>2017-06-10T09:33:00Z</time>
      </trkpt>
      <trkpt lat="45.95774" lon="4.76305">
        <ele>186</ele>
        <time>2017-06-10T09:33:01Z</time>
      </trkpt>
      <trkpt lat="45.95773" lon="4.76295">
        <ele>186</ele>
        <time>2017-06-10T09:33:02Z</time>
      </trkpt>
      <trkpt lat="45.95772" lon="4.76285">
        <ele>186</ele>
        <time>2017-06-10T09:33:03Z</time>
      </trkpt>
      <trkpt lat="45.95771" lon="4.76276">
        <ele>186</ele>
        <time>2017-06-10T09:33:04Z</time>
      </trkpt>
      <trkpt lat="45.95771" lon="4.76266">
        <ele>186</ele>
        <time>2017-06-10T09:33:05Z</time>
      </trkpt>
      <trkpt lat="45.9577" lon="4.76257">
        <ele>185</ele>
        <time>2017-06-10T09:33:06Z</time>
      </trkpt>
      <trkpt lat="45.9577" lon="4.76248">
        <ele>186</ele>
        <time>2017-06-10T09:33:07Z</time>
      </trkpt>
      <trkpt lat="45.95769" lon="4.76239">
        <ele>186</ele>
        <time>2017-06-10T09:33:08Z</time>
      </trkpt>
      <trkpt lat="45.95769" lon="4.7623">
        <ele>186</ele>
        <time>2017-06-10T09:33:09Z</time>
      </trkpt>
      <trkpt lat="45.95768" lon="4.76221">
        <ele>186</ele>
        <time>2017-06-10T09:33:10Z</time>
      </trkpt>
      <trkpt lat="45.95767" lon="4.76213">
        <ele>186</ele>
        <time>2017-06-10T09:33:11Z</time>
      </trkpt>
      <trkpt lat="45.95767" lon="4.76204">
        <ele>186</ele>
        <time>2017-06-10T09:33:12Z</time>
      </trkpt>
      <trkpt lat="45.95766" lon="4.76195">
        <ele>186</ele>
        <time>2017-06-10T09:33:13Z</time>
      </trkpt>
      <trkpt lat="45.95766" lon="4.76187">
        <ele>186</ele>
        <time>2017-06-10T09:33:14Z</time>
      </trkpt>
      <trkpt lat="45.95765" lon="4.76178">
        <ele>186</ele>
        <time>2017-06-10T09:33:15Z</time>
      </trkpt>
      <trkpt lat="45.95765" lon="4.7617">
        <ele>185</ele>
        <time>2017-06-10T09:33:16Z</time>
      </trkpt>
      <trkpt lat="45.95765" lon="4.76162">
        <ele>186</ele>
        <time>2017-06-10T09:33:17Z</time>
      </trkpt>
      <trkpt lat="45.95765" lon="4.76153">
        <ele>186</ele>
        <time>2017-06-10T09:33:18Z</time>
      </trkpt>
      <trkpt lat="45.95764" lon="4.76144">
        <ele>186</ele>
        <time>2017-06-10T09:33:19Z</time>
      </trkpt>
      <trkpt lat="45.95763" lon="4.76135">
        <ele>186</ele>
        <time>2017-06-10T09:33:20Z</time>
      </trkpt>
      <trkpt lat="45.95763" lon="4.76126">
        <ele>186</ele>
        <time>2017-06-10T09:33:21Z</time>
      </trkpt>
      <trkpt lat="45.95761" lon="4.76117">
        <ele>186</ele>
        <time>2017-06-10T09:33:22Z</time>
      </trkpt>
      <trkpt lat="45.95759" lon="4.76107">
        <ele>186</ele>
        <time>2017-06-10T09:33:23Z</time>
      </trkpt>
      <trkpt lat="45.95757" lon="4.76098">
        <ele>186</ele>
        <time>2017-06-10T09:33:24Z</time>
      </trkpt>
      <trkpt lat="45.95754" lon="4.76088">
        <ele>185</ele>
        <time>2017-06-10T09:33:25Z</time>
      </trkpt>
      <trkpt lat="45.9575" lon="4.76079">
        <ele>185</ele>
        <time>2017-06-10T09:33:26Z</time>
      </trkpt>
      <trkpt lat="45.95746" lon="4.7607">
        <ele>185</ele>
        <time>2017-06-10T09:33:27Z</time>
      </trkpt>
      <trkpt lat="45.95743" lon="4.76061">
        <ele>184</ele>
        <time>2017-06-10T09:33:28Z</time>
      </trkpt>
      <trkpt lat="45.95739" lon="4.76052">
        <ele>184</ele>
        <time>2017-06-10T09:33:29Z</time>
      </trkpt>
      <trkpt lat="45.95736" lon="4.76043">
        <ele>184</ele>
        <time>2017-06-10T09:33:30Z</time>
      </trkpt>
      <trkpt lat="45.95732" lon="4.76034">
        <ele>184</ele>
        <time>2017-06-10T09:33:31Z</time>
      </trkpt>
      <trkpt lat="45.95729" lon="4.76026">
        <ele>185</ele>
        <time>2017-06-10T09:33:32Z</time>
      </trkpt>
      <trkpt lat="45.95725" lon="4.76017">
        <ele>185</ele>
        <time>2017-06-10T09:33:33Z</time>
      </trkpt>
      <trkpt lat="45.95721" lon="4.76009">
        <ele>185</ele>
        <time>2017-06-10T09:33:34Z</time>
      </trkpt>
      <trkpt lat="45.95717" lon="4.76001">
        <ele>184</ele>
        <time>2017-06-10T09:33:35Z</time>
      </trkpt>
      <trkpt lat="45.95713" lon="4.75993">
        <ele>185</ele>
        <time>2017-06-10T09:33:36Z</time>
      </trkpt>
      <trkpt lat="45.95709" lon="4.75986">
        <ele>185</ele>
        <time>2017-06-10T09:33:37Z</time>
      </trkpt>
      <trkpt lat="45.95706" lon="4.75978">
        <ele>185</ele>
        <time>2017-06-10T09:33:38Z</time>
      </trkpt>
      <trkpt lat="45.95702" lon="4.7597">
        <ele>185</ele>
        <time>2017-06-10T09:33:39Z</time>
      </trkpt>
      <trkpt lat="45.95699" lon="4.75963">
        <ele>185</ele>
        <time>2017-06-10T09:33:40Z</time>
      </trkpt>
      <trkpt lat="45.95696" lon="4.75955">
        <ele>185</ele>
        <time>2017-06-10T09:33:41Z</time>
      </trkpt>
      <trkpt lat="45.95692" lon="4.75948">
        <ele>185</ele>
        <time>2017-06-10T09:33:42Z</time>
      </trkpt>
      <trkpt lat="45.95689" lon="4.75941">
        <ele>185</ele>
        <time>2017-06-10T09:33:43Z</time>
      </trkpt>
      <trkpt lat="45.95686" lon="4.75933">
        <ele>185</ele>
        <time>2017-06-10T09:33:44Z</time>
      </trkpt>
      <trkpt lat="45.95683" lon="4.75926">
        <ele>185</ele>
        <time>2017-06-10T09:33:45Z</time>
      </trkpt>
      <trkpt lat="45.95679" lon="4.75917">
        <ele>185</ele>
        <time>2017-06-10T09:33:46Z</time>
      </trkpt>
      <trkpt lat="45.95676" lon="4.75909">
        <ele>185</ele>
        <time>2017-06-10T09:33:47Z</time>
      </trkpt>
      <trkpt lat="45.95673" lon="4.759">
        <ele>185</ele>
        <time>2017-06-10T09:33:48Z</time>
      </trkpt>
      <trkpt lat="45.9567" lon="4.75891">
        <ele>186</ele>
        <time>2017-06-10T09:33:49Z</time>
      </trkpt>
      <trkpt lat="45.95667" lon="4.75882">
        <ele>186</ele>
        <time>2017-06-10T09:33:50Z</time>
      </trkpt>
      <trkpt lat="45.95664" lon="4.75873">
        <ele>184</ele>
        <time>2017-06-10T09:33:51Z</time>
      </trkpt>
      <trkpt lat="45.95661" lon="4.75865">
        <ele>184</ele>
        <time>2017-06-10T09:33:52Z</time>
      </trkpt>
      <trkpt lat="45.95659" lon="4.75856">
        <ele>184</ele>
        <time>2017-06-10T09:33:53Z</time>
      </trkpt>
      <trkpt lat="45.95656" lon="4.75847">
        <ele>185</ele>
        <time>2017-06-10T09:33:54Z</time>
      </trkpt>
      <trkpt lat="45.95654" lon="4.75839">
        <ele>185</ele>
        <time>2017-06-10T09:33:55Z</time>
      </trkpt>
      <trkpt lat="45.95652" lon="4.75831">
        <ele>185</ele>
        <time>2017-06-10T09:33:56Z</time>
      </trkpt>
      <trkpt lat="45.9565" lon="4.75824">
        <ele>185</ele>
        <time>2017-06-10T09:33:57Z</time>
      </trkpt>
      <trkpt lat="45.95648" lon="4.75816">
        <ele>185</ele>
        <time>2017-06-10T09:33:58Z</time>
      </trkpt>
      <trkpt lat="45.95646" lon="4.75808">
        <ele>185</ele>
        <time>2017-06-10T09:33:59Z</time>
      </trkpt>
      <trkpt lat="45.95644" lon="4.75799">
        <ele>185</ele>
        <time>2017-06-10T09:34:00Z</time>
      </trkpt>
      <trkpt lat="45.95643" lon="4.7579">
        <ele>185</ele>
        <time>2017-06-10T09:34:01Z</time>
      </trkpt>
      <trkpt lat="45.95642" lon="4.75782">
        <ele>186</ele>
        <time>2017-06-10T09:34:02Z</time>
      </trkpt>
      <trkpt lat="45.95641" lon="4.75773">
        <ele>186</ele>
        <time>2017-06-10T09:34:03Z</time>
      </trkpt>
      <trkpt lat="45.9564" lon="4.75766">
        <ele>186</ele>
        <time>2017-06-10T09:34:04Z</time>
      </trkpt>
      <trkpt lat="45.95639" lon="4.75758">
        <ele>186</ele>
        <time>2017-06-10T09:34:05Z</time>
      </trkpt>
      <trkpt lat="45.95638" lon="4.75751">
        <ele>186</ele>
        <time>2017-06-10T09:34:06Z</time>
      </trkpt>
      <trkpt lat="45.95637" lon="4.75744">
        <ele>187</ele>
        <time>2017-06-10T09:34:07Z</time>
      </trkpt>
      <trkpt lat="45.95636" lon="4.75736">
        <ele>187</ele>
        <time>2017-06-10T09:34:08Z</time>
      </trkpt>
      <trkpt lat="45.95635" lon="4.75728">
        <ele>187</ele>
        <time>2017-06-10T09:34:09Z</time>
      </trkpt>
      <trkpt lat="45.95634" lon="4.7572">
        <ele>187</ele>
        <time>2017-06-10T09:34:10Z</time>
      </trkpt>
      <trkpt lat="45.95633" lon="4.75712">
        <ele>187</ele>
        <time>2017-06-10T09:34:11Z</time>
      </trkpt>
      <trkpt lat="45.95631" lon="4.75704">
        <ele>187</ele>
        <time>2017-06-10T09:34:12Z</time>
      </trkpt>
      <trkpt lat="45.9563" lon="4.75695">
        <ele>187</ele>
        <time>2017-06-10T09:34:13Z</time>
      </trkpt>
      <trkpt lat="45.95629" lon="4.75686">
        <ele>187</ele>
        <time>2017-06-10T09:34:14Z</time>
      </trkpt>
      <trkpt lat="45.95627" lon="4.75676">
        <ele>187</ele>
        <time>2017-06-10T09:34:15Z</time>
      </trkpt>
      <trkpt lat="45.95625" lon="4.75667">
        <ele>187</ele>
        <time>2017-06-10T09:34:16Z</time>
      </trkpt>
      <trkpt lat="45.95623" lon="4.75658">
        <ele>188</ele>
        <time>2017-06-10T09:34:17Z</time>
      </trkpt>
      <trkpt lat="45.95621" lon="4.75649">
        <ele>188</ele>
        <time>2017-06-10T09:34:18Z</time>
      </trkpt>
      <trkpt lat="45.95619" lon="4.75641">
        <ele>188</ele>
        <time>2017-06-10T09:34:19Z</time>
      </trkpt>
      <trkpt lat="45.95617" lon="4.75633">
        <ele>188</ele>
        <time>2017-06-10T09:34:20Z</time>
      </trkpt>
      <trkpt lat="45.95614" lon="4.75625">
        <ele>188</ele>
        <time>2017-06-10T09:34:21Z</time>
      </trkpt>
      <trkpt lat="45.95612" lon="4.75617">
        <ele>188</ele>
        <time>2017-06-10T09:34:22Z</time>
      </trkpt>
      <trkpt lat="45.9561" lon="4.75609">
        <ele>188</ele>
        <time>2017-06-10T09:34:23Z</time>
      </trkpt>
      <trkpt lat="45.95607" lon="4.75602">
        <ele>187</ele>
        <time>2017-06-10T09:34:24Z</time>
      </trkpt>
      <trkpt lat="45.95604" lon="4.75595">
        <ele>187</ele>
        <time>2017-06-10T09:34:25Z</time>
      </trkpt>
      <trkpt lat="45.95601" lon="4.75588">
        <ele>187</ele>
        <time>2017-06-10T09:34:26Z</time>
      </trkpt>
      <trkpt lat="45.95597" lon="4.75581">
        <ele>188</ele>
        <time>2017-06-10T09:34:27Z</time>
      </trkpt>
      <trkpt lat="45.95594" lon="4.75574">
        <ele>188</ele>
        <time>2017-06-10T09:34:28Z</time>
      </trkpt>
      <trkpt lat="45.95591" lon="4.75568">
        <ele>188</ele>
        <time>2017-06-10T09:34:29Z</time>
      </trkpt>
      <trkpt lat="45.95586" lon="4.75562">
        <ele>188</ele>
        <time>2017-06-10T09:34:30Z</time>
      </trkpt>
      <trkpt lat="45.95583" lon="4.75556">
        <ele>186</ele>
        <time>2017-06-10T09:34:31Z</time>
      </trkpt>
      <trkpt lat="45.95578" lon="4.75549">
        <ele>186</ele>
        <time>2017-06-10T09:34:32Z</time>
      </trkpt>
      <trkpt lat="45.95574" lon="4.75543">
        <ele>186</ele>
        <time>2017-06-10T09:34:33Z</time>
      </trkpt>
      <trkpt lat="45.95569" lon="4.75537">
        <ele>186</ele>
        <time>2017-06-10T09:34:34Z</time>
      </trkpt>
      <trkpt lat="45.95564" lon="4.75532">
        <ele>186</ele>
        <time>2017-06-10T09:34:35Z</time>
      </trkpt>
      <trkpt lat="45.9556" lon="4.75526">
        <ele>186</ele>
        <time>2017-06-10T09:34:36Z</time>
      </trkpt>
      <trkpt lat="45.95555" lon="4.7552">
        <ele>186</ele>
        <time>2017-06-10T09:34:37Z</time>
      </trkpt>
      <trkpt lat="45.95551" lon="4.75514">
        <ele>186</ele>
        <time>2017-06-10T09:34:38Z</time>
      </trkpt>
      <trkpt lat="45.95548" lon="4.75508">
        <ele>186</ele>
        <time>2017-06-10T09:34:39Z</time>
      </trkpt>
      <trkpt lat="45.95545" lon="4.755">
        <ele>186</ele>
        <time>2017-06-10T09:34:40Z</time>
      </trkpt>
      <trkpt lat="45.95544" lon="4.75493">
        <ele>187</ele>
        <time>2017-06-10T09:34:41Z</time>
      </trkpt>
      <trkpt lat="45.95544" lon="4.75485">
        <ele>187</ele>
        <time>2017-06-10T09:34:42Z</time>
      </trkpt>
      <trkpt lat="45.95543" lon="4.75476">
        <ele>187</ele>
        <time>2017-06-10T09:34:43Z</time>
      </trkpt>
      <trkpt lat="45.95541" lon="4.75469">
        <ele>187</ele>
        <time>2017-06-10T09:34:44Z</time>
      </trkpt>
      <trkpt lat="45.95538" lon="4.75461">
        <ele>187</ele>
        <time>2017-06-10T09:34:45Z</time>
      </trkpt>
      <trkpt lat="45.95534" lon="4.75455">
        <ele>187</ele>
        <time>2017-06-10T09:34:46Z</time>
      </trkpt>
      <trkpt lat="45.95529" lon="4.75449">
        <ele>187</ele>
        <time>2017-06-10T09:34:47Z</time>
      </trkpt>
      <trkpt lat="45.95524" lon="4.75441">
        <ele>187</ele>
        <time>2017-06-10T09:34:48Z</time>
      </trkpt>
      <trkpt lat="45.95521" lon="4.75433">
        <ele>187</ele>
        <time>2017-06-10T09:34:49Z</time>
      </trkpt>
      <trkpt lat="45.95517" lon="4.75425">
        <ele>186</ele>
        <time>2017-06-10T09:34:50Z</time>
      </trkpt>
      <trkpt lat="45.95515" lon="4.75417">
        <ele>186</ele>
        <time>2017-06-10T09:34:51Z</time>
      </trkpt>
      <trkpt lat="45.95512" lon="4.75409">
        <ele>187</ele>
        <time>2017-06-10T09:34:52Z</time>
      </trkpt>
      <trkpt lat="45.95509" lon="4.75402">
        <ele>187</ele>
        <time>2017-06-10T09:34:53Z</time>
      </trkpt>
      <trkpt lat="45.95506" lon="4.75395">
        <ele>188</ele>
        <time>2017-06-10T09:34:54Z</time>
      </trkpt>
      <trkpt lat="45.95503" lon="4.75387">
        <ele>188</ele>
        <time>2017-06-10T09:34:55Z</time>
      </trkpt>
      <trkpt lat="45.955" lon="4.7538">
        <ele>185</ele>
        <time>2017-06-10T09:34:56Z</time>
      </trkpt>
      <trkpt lat="45.95496" lon="4.75373">
        <ele>185</ele>
        <time>2017-06-10T09:34:57Z</time>
      </trkpt>
      <trkpt lat="45.95492" lon="4.75365">
        <ele>186</ele>
        <time>2017-06-10T09:34:58Z</time>
      </trkpt>
      <trkpt lat="45.95488" lon="4.75358">
        <ele>186</ele>
        <time>2017-06-10T09:34:59Z</time>
      </trkpt>
      <trkpt lat="45.95484" lon="4.7535">
        <ele>186</ele>
        <time>2017-06-10T09:35:00Z</time>
      </trkpt>
      <trkpt lat="45.9548" lon="4.75343">
        <ele>186</ele>
        <time>2017-06-10T09:35:01Z</time>
      </trkpt>
      <trkpt lat="45.95476" lon="4.75336">
        <ele>186</ele>
        <time>2017-06-10T09:35:02Z</time>
      </trkpt>
      <trkpt lat="45.95473" lon="4.75329">
        <ele>188</ele>
        <time>2017-06-10T09:35:03Z</time>
      </trkpt>
      <trkpt lat="45.95469" lon="4.75323">
        <ele>188</ele>
        <time>2017-06-10T09:35:04Z</time>
      </trkpt>
      <trkpt lat="45.95466" lon="4.75317">
        <ele>188</ele>
        <time>2017-06-10T09:35:05Z</time>
      </trkpt>
      <trkpt lat="45.95463" lon="4.7531">
        <ele>188</ele>
        <time>2017-06-10T09:35:06Z</time>
      </trkpt>
      <trkpt lat="45.9546" lon="4.75303">
        <ele>188</ele>
        <time>2017-06-10T09:35:07Z</time>
      </trkpt>
      <trkpt lat="45.95457" lon="4.75297">
        <ele>188</ele>
        <time>2017-06-10T09:35:08Z</time>
      </trkpt>
      <trkpt lat="45.95453" lon="4.75291">
        <ele>188</ele>
        <time>2017-06-10T09:35:09Z</time>
      </trkpt>
      <trkpt lat="45.9545" lon="4.75285">
        <ele>188</ele>
        <time>2017-06-10T09:35:10Z</time>
      </trkpt>
      <trkpt lat="45.95446" lon="4.75279">
        <ele>189</ele>
        <time>2017-06-10T09:35:11Z</time>
      </trkpt>
      <trkpt lat="45.95443" lon="4.75272">
        <ele>189</ele>
        <time>2017-06-10T09:35:12Z</time>
      </trkpt>
      <trkpt lat="45.9544" lon="4.75266">
        <ele>189</ele>
        <time>2017-06-10T09:35:13Z</time>
      </trkpt>
      <trkpt lat="45.95436" lon="4.75259">
        <ele>189</ele>
        <time>2017-06-10T09:35:14Z</time>
      </trkpt>
      <trkpt lat="45.95433" lon="4.75253">
        <ele>189</ele>
        <time>2017-06-10T09:35:15Z</time>
      </trkpt>
      <trkpt lat="45.95431" lon="4.75246">
        <ele>190</ele>
        <time>2017-06-10T09:35:16Z</time>
      </trkpt>
      <trkpt lat="45.95428" lon="4.75239">
        <ele>190</ele>
        <time>2017-06-10T09:35:17Z</time>
      </trkpt>
      <trkpt lat="45.95424" lon="4.75233">
        <ele>190</ele>
        <time>2017-06-10T09:35:18Z</time>
      </trkpt>
      <trkpt lat="45.95421" lon="4.75227">
        <ele>191</ele>
        <time>2017-06-10T09:35:19Z</time>
      </trkpt>
      <trkpt lat="45.95418" lon="4.75222">
        <ele>191</ele>
        <time>2017-06-10T09:35:20Z</time>
      </trkpt>
      <trkpt lat="45.95415" lon="4.75216">
        <ele>189</ele>
        <time>2017-06-10T09:35:21Z</time>
      </trkpt>
      <trkpt lat="45.95412" lon="4.7521">
        <ele>189</ele>
        <time>2017-06-10T09:35:22Z</time>
      </trkpt>
      <trkpt lat="45.95409" lon="4.75203">
        <ele>189</ele>
        <time>2017-06-10T09:35:23Z</time>
      </trkpt>
      <trkpt lat="45.95406" lon="4.75197">
        <ele>189</ele>
        <time>2017-06-10T09:35:24Z</time>
      </trkpt>
      <trkpt lat="45.95403" lon="4.75192">
        <ele>189</ele>
        <time>2017-06-10T09:35:25Z</time>
      </trkpt>
      <trkpt lat="45.954" lon="4.75186">
        <ele>189</ele>
        <time>2017-06-10T09:35:26Z</time>
      </trkpt>
      <trkpt lat="45.95397" lon="4.7518">
        <ele>189</ele>
        <time>2017-06-10T09:35:27Z</time>
      </trkpt>
      <trkpt lat="45.95394" lon="4.75174">
        <ele>189</ele>
        <time>2017-06-10T09:35:28Z</time>
      </trkpt>
      <trkpt lat="45.9539" lon="4.75169">
        <ele>189</ele>
        <time>2017-06-10T09:35:29Z</time>
      </trkpt>
      <trkpt lat="45.95387" lon="4.75163">
        <ele>191</ele>
        <time>2017-06-10T09:35:30Z</time>
      </trkpt>
      <trkpt lat="45.95384" lon="4.75158">
        <ele>191</ele>
        <time>2017-06-10T09:35:31Z</time>
      </trkpt>
      <trkpt lat="45.95381" lon="4.75153">
        <ele>191</ele>
        <time>2017-06-10T09:35:32Z</time>
      </trkpt>
      <trkpt lat="45.95378" lon="4.75147">
        <ele>191</ele>
        <time>2017-06-10T09:35:33Z</time>
      </trkpt>
      <trkpt lat="45.95374" lon="4.75142">
        <ele>191</ele>
        <time>2017-06-10T09:35:34Z</time>
      </trkpt>
      <trkpt lat="45.95371" lon="4.75136">
        <ele>191</ele>
        <time>2017-06-10T09:35:35Z</time>
      </trkpt>
      <trkpt lat="45.95367" lon="4.7513">
        <ele>191</ele>
        <time>2017-06-10T09:35:36Z</time>
      </trkpt>
      <trkpt lat="45.95363" lon="4.75124">
        <ele>191</ele>
        <time>2017-06-10T09:35:37Z</time>
      </trkpt>
      <trkpt lat="45.95358" lon="4.75118">
        <ele>192</ele>
        <time>2017-06-10T09:35:38Z</time>
      </trkpt>
      <trkpt lat="45.95354" lon="4.75112">
        <ele>192</ele>
        <time>2017-06-10T09:35:39Z</time>
      </trkpt>
      <trkpt lat="45.9535" lon="4.75107">
        <ele>192</ele>
        <time>2017-06-10T09:35:40Z</time>
      </trkpt>
      <trkpt lat="45.95347" lon="4.75101">
        <ele>192</ele>
        <time>2017-06-10T09:35:41Z</time>
      </trkpt>
      <trkpt lat="45.95344" lon="4.75096">
        <ele>192</ele>
        <time>2017-06-10T09:35:42Z</time>
      </trkpt>
      <trkpt lat="45.9534" lon="4.7509">
        <ele>192</ele>
        <time>2017-06-10T09:35:43Z</time>
      </trkpt>
      <trkpt lat="45.95337" lon="4.75085">
        <ele>193</ele>
        <time>2017-06-10T09:35:44Z</time>
      </trkpt>
      <trkpt lat="45.95334" lon="4.7508">
        <ele>193</ele>
        <time>2017-06-10T09:35:45Z</time>
      </trkpt>
      <trkpt lat="45.95331" lon="4.75074">
        <ele>192</ele>
        <time>2017-06-10T09:35:46Z</time>
      </trkpt>
      <trkpt lat="45.95327" lon="4.75068">
        <ele>192</ele>
        <time>2017-06-10T09:35:47Z</time>
      </trkpt>
      <trkpt lat="45.95324" lon="4.75063">
        <ele>192</ele>
        <time>2017-06-10T09:35:48Z</time>
      </trkpt>
      <trkpt lat="45.95321" lon="4.75057">
        <ele>192</ele>
        <time>2017-06-10T09:35:49Z</time>
      </trkpt>
      <trkpt lat="45.95317" lon="4.75051">
        <ele>192</ele>
        <time>2017-06-10T09:35:50Z</time>
      </trkpt>
      <trkpt lat="45.95313" lon="4.75046">
        <ele>192</ele>
        <time>2017-06-10T09:35:51Z</time>
      </trkpt>
      <trkpt lat="45.9531" lon="4.75041">
        <ele>192</ele>
        <time>2017-06-10T09:35:52Z</time>
      </trkpt>
      <trkpt lat="45.95304" lon="4.75031">
        <ele>192</ele>
        <time>2017-06-10T09:35:54Z</time>
      </trkpt>
      <trkpt lat="45.95301" lon="4.75027">
        <ele>192</ele>
        <time>2017-06-10T09:35:55Z</time>
      </trkpt>
      <trkpt lat="45.95295" lon="4.75017">
        <ele>192</ele>
        <time>2017-06-10T09:35:57Z</time>
      </trkpt>
      <trkpt lat="45.95293" lon="4.75013">
        <ele>191</ele>
        <time>2017-06-10T09:35:58Z</time>
      </trkpt>
      <trkpt lat="45.95287" lon="4.75004">
        <ele>191</ele>
        <time>2017-06-10T09:36:00Z</time>
      </trkpt>
      <trkpt lat="45.95285" lon="4.75">
        <ele>191</ele>
        <time>2017-06-10T09:36:01Z</time>
      </trkpt>
      <trkpt lat="45.95278" lon="4.74992">
        <ele>192</ele>
        <time>2017-06-10T09:36:03Z</time>
      </trkpt>
      <trkpt lat="45.95275" lon="4.74988">
        <ele>192</ele>
        <time>2017-06-10T09:36:04Z</time>
      </trkpt>
      <trkpt lat="45.9527" lon="4.7498">
        <ele>192</ele>
        <time>2017-06-10T09:36:06Z</time>
      </trkpt>
      <trkpt lat="45.95268" lon="4.74976">
        <ele>192</ele>
        <time>2017-06-10T09:36:07Z</time>
      </trkpt>
      <trkpt lat="45.95262" lon="4.74968">
        <ele>192</ele>
        <time>2017-06-10T09:36:09Z</time>
      </trkpt>
      <trkpt lat="45.9526" lon="4.74963">
        <ele>192</ele>
        <time>2017-06-10T09:36:10Z</time>
      </trkpt>
      <trkpt lat="45.95254" lon="4.74953">
        <ele>192</ele>
        <time>2017-06-10T09:36:12Z</time>
      </trkpt>
      <trkpt lat="45.95251" lon="4.74949">
        <ele>192</ele>
        <time>2017-06-10T09:36:13Z</time>
      </trkpt>
      <trkpt lat="45.95245" lon="4.74939">
        <ele>192</ele>
        <time>2017-06-10T09:36:15Z</time>
      </trkpt>
      <trkpt lat="45.95243" lon="4.74935">
        <ele>192</ele>
        <time>2017-06-10T09:36:16Z</time>
      </trkpt>
      <trkpt lat="45.95237" lon="4.74926">
        <ele>192</ele>
        <time>2017-06-10T09:36:18Z</time>
      </trkpt>
      <trkpt lat="45.95234" lon="4.74922">
        <ele>192</ele>
        <time>2017-06-10T09:36:19Z</time>
      </trkpt>
      <trkpt lat="45.9523" lon="4.74914">
        <ele>193</ele>
        <time>2017-06-10T09:36:21Z</time>
      </trkpt>
      <trkpt lat="45.95227" lon="4.74909">
        <ele>193</ele>
        <time>2017-06-10T09:36:22Z</time>
      </trkpt>
      <trkpt lat="45.95222" lon="4.74899">
        <ele>193</ele>
        <time>2017-06-10T09:36:24Z</time>
      </trkpt>
      <trkpt lat="45.95218" lon="4.74894">
        <ele>193</ele>
        <time>2017-06-10T09:36:25Z</time>
      </trkpt>
      <trkpt lat="45.95216" lon="4.74888">
        <ele>193</ele>
        <time>2017-06-10T09:36:26Z</time>
      </trkpt>
      <trkpt lat="45.95212" lon="4.74883">
        <ele>193</ele>
        <time>2017-06-10T09:36:27Z</time>
      </trkpt>
      <trkpt lat="45.95208" lon="4.74877">
        <ele>194</ele>
        <time>2017-06-10T09:36:28Z</time>
      </trkpt>
      <trkpt lat="45.95205" lon="4.74871">
        <ele>194</ele>
        <time>2017-06-10T09:36:29Z</time>
      </trkpt>
      <trkpt lat="45.95201" lon="4.74864">
        <ele>194</ele>
        <time>2017-06-10T09:36:30Z</time>
      </trkpt>
      <trkpt lat="45.95197" lon="4.74858">
        <ele>194</ele>
        <time>2017-06-10T09:36:31Z</time>
      </trkpt>
      <trkpt lat="45.95192" lon="4.74852">
        <ele>194</ele>
        <time>2017-06-10T09:36:32Z</time>
      </trkpt>
      <trkpt lat="45.95188" lon="4.74846">
        <ele>194</ele>
        <time>2017-06-10T09:36:33Z</time>
      </trkpt>
      <trkpt lat="45.95183" lon="4.74839">
        <ele>194</ele>
        <time>2017-06-10T09:36:34Z</time>
      </trkpt>
      <trkpt lat="45.95179" lon="4.74833">
        <ele>194</ele>
        <time>2017-06-10T09:36:35Z</time>
      </trkpt>
      <trkpt lat="45.95175" lon="4.74827">
        <ele>194</ele>
        <time>2017-06-10T09:36:36Z</time>
      </trkpt>
      <trkpt lat="45.95171" lon="4.74821">
        <ele>194</ele>
        <time>2017-06-10T09:36:37Z</time>
      </trkpt>
      <trkpt lat="45.95167" lon="4.74814">
        <ele>194</ele>
        <time>2017-06-10T09:36:38Z</time>
      </trkpt>
      <trkpt lat="45.95164" lon="4.74808">
        <ele>194</ele>
        <time>2017-06-10T09:36:39Z</time>
      </trkpt>
      <trkpt lat="45.9516" lon="4.74802">
        <ele>194</ele>
        <time>2017-06-10T09:36:40Z</time>
      </trkpt>
      <trkpt lat="45.95157" lon="4.74796">
        <ele>194</ele>
        <time>2017-06-10T09:36:41Z</time>
      </trkpt>
      <trkpt lat="45.95153" lon="4.74789">
        <ele>194</ele>
        <time>2017-06-10T09:36:42Z</time>
      </trkpt>
      <trkpt lat="45.95149" lon="4.74782">
        <ele>194</ele>
        <time>2017-06-10T09:36:43Z</time>
      </trkpt>
      <trkpt lat="45.95146" lon="4.74775">
        <ele>194</ele>
        <time>2017-06-10T09:36:44Z</time>
      </trkpt>
      <trkpt lat="45.95141" lon="4.74768">
        <ele>194</ele>
        <time>2017-06-10T09:36:45Z</time>
      </trkpt>
      <trkpt lat="45.95137" lon="4.74761">
        <ele>194</ele>
        <time>2017-06-10T09:36:46Z</time>
      </trkpt>
      <trkpt lat="45.95133" lon="4.74755">
        <ele>194</ele>
        <time>2017-06-10T09:36:47Z</time>
      </trkpt>
      <trkpt lat="45.95129" lon="4.74748">
        <ele>194</ele>
        <time>2017-06-10T09:36:48Z</time>
      </trkpt>
      <trkpt lat="45.95125" lon="4.74742">
        <ele>194</ele>
        <time>2017-06-10T09:36:49Z</time>
      </trkpt>
      <trkpt lat="45.95122" lon="4.74735">
        <ele>194</ele>
        <time>2017-06-10T09:36:50Z</time>
      </trkpt>
      <trkpt lat="45.95119" lon="4.74728">
        <ele>194</ele>
        <time>2017-06-10T09:36:51Z</time>
      </trkpt>
      <trkpt lat="45.95116" lon="4.74722">
        <ele>194</ele>
        <time>2017-06-10T09:36:52Z</time>
      </trkpt>
      <trkpt lat="45.95112" lon="4.74716">
        <ele>194</ele>
        <time>2017-06-10T09:36:53Z</time>
      </trkpt>
      <trkpt lat="45.95108" lon="4.7471">
        <ele>194</ele>
        <time>2017-06-10T09:36:54Z</time>
      </trkpt>
      <trkpt lat="45.95104" lon="4.74704">
        <ele>194</ele>
        <time>2017-06-10T09:36:55Z</time>
      </trkpt>
      <trkpt lat="45.95099" lon="4.74697">
        <ele>194</ele>
        <time>2017-06-10T09:36:56Z</time>
      </trkpt>
      <trkpt lat="45.95095" lon="4.74691">
        <ele>194</ele>
        <time>2017-06-10T09:36:57Z</time>
      </trkpt>
      <trkpt lat="45.95091" lon="4.74684">
        <ele>195</ele>
        <time>2017-06-10T09:36:58Z</time>
      </trkpt>
      <trkpt lat="45.95086" lon="4.74678">
        <ele>195</ele>
        <time>2017-06-10T09:36:59Z</time>
      </trkpt>
      <trkpt lat="45.95083" lon="4.74671">
        <ele>195</ele>
        <time>2017-06-10T09:37:00Z</time>
      </trkpt>
      <trkpt lat="45.95079" lon="4.74664">
        <ele>195</ele>
        <time>2017-06-10T09:37:01Z</time>
      </trkpt>
      <trkpt lat="45.95075" lon="4.74657">
        <ele>195</ele>
        <time>2017-06-10T09:37:02Z</time>
      </trkpt>
      <trkpt lat="45.95071" lon="4.74651">
        <ele>195</ele>
        <time>2017-06-10T09:37:03Z</time>
      </trkpt>
      <trkpt lat="45.95067" lon="4.74644">
        <ele>195</ele>
        <time>2017-06-10T09:37:04Z</time>
      </trkpt>
      <trkpt lat="45.95064" lon="4.74638">
        <ele>195</ele>
        <time>2017-06-10T09:37:05Z</time>
      </trkpt>
      <trkpt lat="45.9506" lon="4.74632">
        <ele>194</ele>
        <time>2017-06-10T09:37:06Z</time>
      </trkpt>
      <trkpt lat="45.95056" lon="4.74625">
        <ele>194</ele>
        <time>2017-06-10T09:37:07Z</time>
      </trkpt>
      <trkpt lat="45.95052" lon="4.74619">
        <ele>194</ele>
        <time>2017-06-10T09:37:08Z</time>
      </trkpt>
      <trkpt lat="45.95049" lon="4.74612">
        <ele>194</ele>
        <time>2017-06-10T09:37:09Z</time>
      </trkpt>
      <trkpt lat="45.95046" lon="4.74606">
        <ele>194</ele>
        <time>2017-06-10T09:37:10Z</time>
      </trkpt>
      <trkpt lat="45.95042" lon="4.746">
        <ele>194</ele>
        <time>2017-06-10T09:37:11Z</time>
      </trkpt>
      <trkpt lat="45.95039" lon="4.74594">
        <ele>194</ele>
        <time>2017-06-10T09:37:12Z</time>
      </trkpt>
      <trkpt lat="45.95035" lon="4.74587">
        <ele>194</ele>
        <time>2017-06-10T09:37:13Z</time>
      </trkpt>
      <trkpt lat="45.95031" lon="4.7458">
        <ele>194</ele>
        <time>2017-06-10T09:37:14Z</time>
      </trkpt>
      <trkpt lat="45.95027" lon="4.74572">
        <ele>194</ele>
        <time>2017-06-10T09:37:15Z</time>
      </trkpt>
      <trkpt lat="45.95023" lon="4.74564">
        <ele>194</ele>
        <time>2017-06-10T09:37:16Z</time>
      </trkpt>
      <trkpt lat="45.95018" lon="4.74556">
        <ele>194</ele>
        <time>2017-06-10T09:37:17Z</time>
      </trkpt>
      <trkpt lat="45.95013" lon="4.74548">
        <ele>194</ele>
        <time>2017-06-10T09:37:18Z</time>
      </trkpt>
      <trkpt lat="45.95009" lon="4.7454">
        <ele>194</ele>
        <time>2017-06-10T09:37:19Z</time>
      </trkpt>
      <trkpt lat="45.95004" lon="4.74531">
        <ele>194</ele>
        <time>2017-06-10T09:37:20Z</time>
      </trkpt>
      <trkpt lat="45.95" lon="4.74522">
        <ele>193</ele>
        <time>2017-06-10T09:37:21Z</time>
      </trkpt>
      <trkpt lat="45.94996" lon="4.74514">
        <ele>193</ele>
        <time>2017-06-10T09:37:22Z</time>
      </trkpt>
      <trkpt lat="45.94991" lon="4.74505">
        <ele>193</ele>
        <time>2017-06-10T09:37:23Z</time>
      </trkpt>
      <trkpt lat="45.94986" lon="4.74497">
        <ele>193</ele>
        <time>2017-06-10T09:37:24Z</time>
      </trkpt>
      <trkpt lat="45.94982" lon="4.74488">
        <ele>193</ele>
        <time>2017-06-10T09:37:25Z</time>
      </trkpt>
      <trkpt lat="45.94977" lon="4.7448">
        <ele>193</ele>
        <time>2017-06-10T09:37:26Z</time>
      </trkpt>
      <trkpt lat="45.94973" lon="4.74471">
        <ele>193</ele>
        <time>2017-06-10T09:37:27Z</time>
      </trkpt>
      <trkpt lat="45.94968" lon="4.74463">
        <ele>193</ele>
        <time>2017-06-10T09:37:28Z</time>
      </trkpt>
      <trkpt lat="45.94964" lon="4.74456">
        <ele>192</ele>
        <time>2017-06-10T09:37:29Z</time>
      </trkpt>
      <trkpt lat="45.9496" lon="4.74448">
        <ele>192</ele>
        <time>2017-06-10T09:37:30Z</time>
      </trkpt>
      <trkpt lat="45.94956" lon="4.7444">
        <ele>192</ele>
        <time>2017-06-10T09:37:31Z</time>
      </trkpt>
      <trkpt lat="45.94952" lon="4.74432">
        <ele>192</ele>
        <time>2017-06-10T09:37:32Z</time>
      </trkpt>
      <trkpt lat="45.94948" lon="4.74425">
        <ele>192</ele>
        <time>2017-06-10T09:37:33Z</time>
      </trkpt>
      <trkpt lat="45.94945" lon="4.74417">
        <ele>192</ele>
        <time>2017-06-10T09:37:34Z</time>
      </trkpt>
      <trkpt lat="45.9494" lon="4.74409">
        <ele>192</ele>
        <time>2017-06-10T09:37:35Z</time>
      </trkpt>
      <trkpt lat="45.94936" lon="4.74402">
        <ele>192</ele>
        <time>2017-06-10T09:37:36Z</time>
      </trkpt>
      <trkpt lat="45.94932" lon="4.74395">
        <ele>192</ele>
        <time>2017-06-10T09:37:37Z</time>
      </trkpt>
      <trkpt lat="45.94928" lon="4.74388">
        <ele>192</ele>
        <time>2017-06-10T09:37:38Z</time>
      </trkpt>
      <trkpt lat="45.94924" lon="4.74381">
        <ele>192</ele>
        <time>2017-06-10T09:37:39Z</time>
      </trkpt>
      <trkpt lat="45.9492" lon="4.74373">
        <ele>192</ele>
        <time>2017-06-10T09:37:40Z</time>
      </trkpt>
      <trkpt lat="45.94916" lon="4.74366">
        <ele>191</ele>
        <time>2017-06-10T09:37:41Z</time>
      </trkpt>
      <trkpt lat="45.94912" lon="4.74359">
        <ele>191</ele>
        <time>2017-06-10T09:37:42Z</time>
      </trkpt>
      <trkpt lat="45.94909" lon="4.74352">
        <ele>191</ele>
        <time>2017-06-10T09:37:43Z</time>
      </trkpt>
      <trkpt lat="45.94904" lon="4.74344">
        <ele>191</ele>
        <time>2017-06-10T09:37:44Z</time>
      </trkpt>
      <trkpt lat="45.949" lon="4.74336">
        <ele>191</ele>
        <time>2017-06-10T09:37:45Z</time>
      </trkpt>
      <trkpt lat="45.94895" lon="4.74328">
        <ele>191</ele>
        <time>2017-06-10T09:37:46Z</time>
      </trkpt>
      <trkpt lat="45.94891" lon="4.7432">
        <ele>191</ele>
        <time>2017-06-10T09:37:47Z</time>
      </trkpt>
      <trkpt lat="45.94886" lon="4.74311">
        <ele>191</ele>
        <time>2017-06-10T09:37:48Z</time>
      </trkpt>
      <trkpt lat="45.94882" lon="4.74302">
        <ele>191</ele>
        <time>2017-06-10T09:37:49Z</time>
      </trkpt>
      <trkpt lat="45.94878" lon="4.74294">
        <ele>191</ele>
        <time>2017-06-10T09:37:50Z</time>
      </trkpt>
      <trkpt lat="45.94874" lon="4.74285">
        <ele>191</ele>
        <time>2017-06-10T09:37:51Z</time>
      </trkpt>
      <trkpt lat="45.94869" lon="4.74277">
        <ele>191</ele>
        <time>2017-06-10T09:37:52Z</time>
      </trkpt>
      <trkpt lat="45.94865" lon="4.74268">
        <ele>190</ele>
        <time>2017-06-10T09:37:53Z</time>
      </trkpt>
      <trkpt lat="45.94861" lon="4.7426">
        <ele>190</ele>
        <time>2017-06-10T09:37:54Z</time>
      </trkpt>
      <trkpt lat="45.94858" lon="4.74251">
        <ele>190</ele>
        <time>2017-06-10T09:37:55Z</time>
      </trkpt>
      <trkpt lat="45.94854" lon="4.74242">
        <ele>190</ele>
        <time>2017-06-10T09:37:56Z</time>
      </trkpt>
      <trkpt lat="45.94849" lon="4.74233">
        <ele>190</ele>
        <time>2017-06-10T09:37:57Z</time>
      </trkpt>
      <trkpt lat="45.94845" lon="4.74224">
        <ele>190</ele>
        <time>2017-06-10T09:37:58Z</time>
      </trkpt>
      <trkpt lat="45.9484" lon="4.74216">
        <ele>190</ele>
        <time>2017-06-10T09:37:59Z</time>
      </trkpt>
      <trkpt lat="45.94835" lon="4.74207">
        <ele>190</ele>
        <time>2017-06-10T09:38:00Z</time>
      </trkpt>
      <trkpt lat="45.94831" lon="4.74199">
        <ele>189</ele>
        <time>2017-06-10T09:38:01Z</time>
      </trkpt>
      <trkpt lat="45.94826" lon="4.74191">
        <ele>189</ele>
        <time>2017-06-10T09:38:02Z</time>
      </trkpt>
      <trkpt lat="45.94822" lon="4.74183">
        <ele>189</ele>
        <time>2017-06-10T09:38:03Z</time>
      </trkpt>
      <trkpt lat="45.94817" lon="4.74175">
        <ele>189</ele>
        <time>2017-06-10T09:38:04Z</time>
      </trkpt>
      <trkpt lat="45.94812" lon="4.74167">
        <ele>189</ele>
        <time>2017-06-10T09:38:05Z</time>
      </trkpt>
      <trkpt lat="45.94808" lon="4.7416">
        <ele>189</ele>
        <time>2017-06-10T09:38:06Z</time>
      </trkpt>
      <trkpt lat="45.94803" lon="4.74153">
        <ele>189</ele>
        <time>2017-06-10T09:38:07Z</time>
      </trkpt>
      <trkpt lat="45.94799" lon="4.74146">
        <ele>189</ele>
        <time>2017-06-10T09:38:08Z</time>
      </trkpt>
      <trkpt lat="45.94794" lon="4.74139">
        <ele>189</ele>
        <time>2017-06-10T09:38:09Z</time>
      </trkpt>
      <trkpt lat="45.9479" lon="4.74132">
        <ele>189</ele>
        <time>2017-06-10T09:38:10Z</time>
      </trkpt>
      <trkpt lat="45.94785" lon="4.74125">
        <ele>189</ele>
        <time>2017-06-10T09:38:11Z</time>
      </trkpt>
      <trkpt lat="45.94781" lon="4.74118">
        <ele>189</ele>
        <time>2017-06-10T09:38:12Z</time>
      </trkpt>
      <trkpt lat="45.94776" lon="4.74112">
        <ele>189</ele>
        <time>2017-06-10T09:38:13Z</time>
      </trkpt>
      <trkpt lat="45.94772" lon="4.74105">
        <ele>189</ele>
        <time>2017-06-10T09:38:14Z</time>
      </trkpt>
      <trkpt lat="45.94768" lon="4.74099">
        <ele>189</ele>
        <time>2017-06-10T09:38:15Z</time>
      </trkpt>
      <trkpt lat="45.94763" lon="4.74092">
        <ele>189</ele>
        <time>2017-06-10T09:38:16Z</time>
      </trkpt>
      <trkpt lat="45.94759" lon="4.74086">
        <ele>189</ele>
        <time>2017-06-10T09:38:17Z</time>
      </trkpt>
      <trkpt lat="45.94754" lon="4.74079">
        <ele>189</ele>
        <time>2017-06-10T09:38:18Z</time>
      </trkpt>
      <trkpt lat="45.94748" lon="4.74072">
        <ele>188</ele>
        <time>2017-06-10T09:38:19Z</time>
      </trkpt>
      <trkpt lat="45.94744" lon="4.74065">
        <ele>188</ele>
        <time>2017-06-10T09:38:20Z</time>
      </trkpt>
      <trkpt lat="45.94739" lon="4.74058">
        <ele>188</ele>
        <time>2017-06-10T09:38:21Z</time>
      </trkpt>
      <trkpt lat="45.94734" lon="4.74051">
        <ele>188</ele>
        <time>2017-06-10T09:38:22Z</time>
      </trkpt>
      <trkpt lat="45.94729" lon="4.74045">
        <ele>188</ele>
        <time>2017-06-10T09:38:23Z</time>
      </trkpt>
      <trkpt lat="45.94725" lon="4.74039">
        <ele>187</ele>
        <time>2017-06-10T09:38:24Z</time>
      </trkpt>
      <trkpt lat="45.9472" lon="4.74032">
        <ele>187</ele>
        <time>2017-06-10T09:38:25Z</time>
      </trkpt>
      <trkpt lat="45.94716" lon="4.74026">
        <ele>187</ele>
        <time>2017-06-10T09:38:26Z</time>
      </trkpt>
      <trkpt lat="45.94712" lon="4.7402">
        <ele>187</ele>
        <time>2017-06-10T09:38:27Z</time>
      </trkpt>
      <trkpt lat="45.94707" lon="4.74014">
        <ele>187</ele>
        <time>2017-06-10T09:38:28Z</time>
      </trkpt>
      <trkpt lat="45.94702" lon="4.74008">
        <ele>187</ele>
        <time>2017-06-10T09:38:29Z</time>
      </trkpt>
      <trkpt lat="45.94698" lon="4.74002">
        <ele>187</ele>
        <time>2017-06-10T09:38:30Z</time>
      </trkpt>
      <trkpt lat="45.94693" lon="4.73996">
        <ele>187</ele>
        <time>2017-06-10T09:38:31Z</time>
      </trkpt>
      <trkpt lat="45.94689" lon="4.7399">
        <ele>187</ele>
        <time>2017-06-10T09:38:32Z</time>
      </trkpt>
      <trkpt lat="45.94684" lon="4.73984">
        <ele>187</ele>
        <time>2017-06-10T09:38:33Z</time>
      </trkpt>
      <trkpt lat="45.9468" lon="4.73978">
        <ele>187</ele>
        <time>2017-06-10T09:38:34Z</time>
      </trkpt>
      <trkpt lat="45.94676" lon="4.73973">
        <ele>187</ele>
        <time>2017-06-10T09:38:35Z</time>
      </trkpt>
      <trkpt lat="45.94671" lon="4.73967">
        <ele>187</ele>
        <time>2017-06-10T09:38:36Z</time>
      </trkpt>
      <trkpt lat="45.94667" lon="4.73961">
        <ele>187</ele>
        <time>2017-06-10T09:38:37Z</time>
      </trkpt>
      <trkpt lat="45.94663" lon="4.73955">
        <ele>187</ele>
        <time>2017-06-10T09:38:38Z</time>
      </trkpt>
      <trkpt lat="45.94658" lon="4.73949">
        <ele>187</ele>
        <time>2017-06-10T09:38:39Z</time>
      </trkpt>
      <trkpt lat="45.94653" lon="4.73942">
        <ele>187</ele>
        <time>2017-06-10T09:38:40Z</time>
      </trkpt>
      <trkpt lat="45.94648" lon="4.73935">
        <ele>187</ele>
        <time>2017-06-10T09:38:41Z</time>
      </trkpt>
      <trkpt lat="45.94642" lon="4.73928">
        <ele>187</ele>
        <time>2017-06-10T09:38:42Z</time>
      </trkpt>
      <trkpt lat="45.94636" lon="4.73921">
        <ele>187</ele>
        <time>2017-06-10T09:38:43Z</time>
      </trkpt>
      <trkpt lat="45.9463" lon="4.73913">
        <ele>187</ele>
        <time>2017-06-10T09:38:44Z</time>
      </trkpt>
      <trkpt lat="45.94624" lon="4.73906">
        <ele>187</ele>
        <time>2017-06-10T09:38:45Z</time>
      </trkpt>
      <trkpt lat="45.94618" lon="4.73898">
        <ele>187</ele>
        <time>2017-06-10T09:38:46Z</time>
      </trkpt>
      <trkpt lat="45.94612" lon="4.73891">
        <ele>187</ele>
        <time>2017-06-10T09:38:47Z</time>
      </trkpt>
      <trkpt lat="45.94606" lon="4.73883">
        <ele>187</ele>
        <time>2017-06-10T09:38:48Z</time>
      </trkpt>
      <trkpt lat="45.94599" lon="4.73876">
        <ele>187</ele>
        <time>2017-06-10T09:38:49Z</time>
      </trkpt>
      <trkpt lat="45.94593" lon="4.73869">
        <ele>187</ele>
        <time>2017-06-10T09:38:50Z</time>
      </trkpt>
      <trkpt lat="45.94586" lon="4.73863">
        <ele>187</ele>
        <time>2017-06-10T09:38:51Z</time>
      </trkpt>
      <trkpt lat="45.94579" lon="4.73856">
        <ele>186</ele>
        <time>2017-06-10T09:38:52Z</time>
      </trkpt>
      <trkpt lat="45.94572" lon="4.73849">
        <ele>186</ele>
        <time>2017-06-10T09:38:53Z</time>
      </trkpt>
      <trkpt lat="45.94566" lon="4.73842">
        <ele>186</ele>
        <time>2017-06-10T09:38:54Z</time>
      </trkpt>
      <trkpt lat="45.9456" lon="4.73835">
        <ele>186</ele>
        <time>2017-06-10T09:38:55Z</time>
      </trkpt>
      <trkpt lat="45.94553" lon="4.73829">
        <ele>186</ele>
        <time>2017-06-10T09:38:56Z</time>
      </trkpt>
      <trkpt lat="45.94547" lon="4.73822">
        <ele>186</ele>
        <time>2017-06-10T09:38:57Z</time>
      </trkpt>
      <trkpt lat="45.94541" lon="4.73816">
        <ele>186</ele>
        <time>2017-06-10T09:38:58Z</time>
      </trkpt>
      <trkpt lat="45.94534" lon="4.7381">
        <ele>186</ele>
        <time>2017-06-10T09:38:59Z</time>
      </trkpt>
      <trkpt lat="45.94528" lon="4.73804">
        <ele>186</ele>
        <time>2017-06-10T09:39:00Z</time>
      </trkpt>
      <trkpt lat="45.94523" lon="4.73798">
        <ele>186</ele>
        <time>2017-06-10T09:39:01Z</time>
      </trkpt>
      <trkpt lat="45.94517" lon="4.73792">
        <ele>186</ele>
        <time>2017-06-10T09:39:02Z</time>
      </trkpt>
      <trkpt lat="45.94512" lon="4.73786">
        <ele>186</ele>
        <time>2017-06-10T09:39:03Z</time>
      </trkpt>
      <trkpt lat="45.94507" lon="4.73779">
        <ele>186</ele>
        <time>2017-06-10T09:39:04Z</time>
      </trkpt>
      <trkpt lat="45.94503" lon="4.73773">
        <ele>186</ele>
        <time>2017-06-10T09:39:05Z</time>
      </trkpt>
      <trkpt lat="45.94499" lon="4.73767">
        <ele>186</ele>
        <time>2017-06-10T09:39:06Z</time>
      </trkpt>
      <trkpt lat="45.94495" lon="4.73762">
        <ele>186</ele>
        <time>2017-06-10T09:39:07Z</time>
      </trkpt>
      <trkpt lat="45.94492" lon="4.73756">
        <ele>186</ele>
        <time>2017-06-10T09:39:08Z</time>
      </trkpt>
      <trkpt lat="45.9449" lon="4.73749">
        <ele>186</ele>
        <time>2017-06-10T09:39:09Z</time>
      </trkpt>
      <trkpt lat="45.9449" lon="4.73741">
        <ele>186</ele>
        <time>2017-06-10T09:39:10Z</time>
      </trkpt>
      <trkpt lat="45.94491" lon="4.73733">
        <ele>186</ele>
        <time>2017-06-10T09:39:11Z</time>
      </trkpt>
      <trkpt lat="45.94491" lon="4.73724">
        <ele>186</ele>
        <time>2017-06-10T09:39:12Z</time>
      </trkpt>
      <trkpt lat="45.94492" lon="4.73714">
        <ele>186</ele>
        <time>2017-06-10T09:39:13Z</time>
      </trkpt>
      <trkpt lat="45.94493" lon="4.73704">
        <ele>186</ele>
        <time>2017-06-10T09:39:14Z</time>
      </trkpt>
      <trkpt lat="45.94494" lon="4.73695">
        <ele>186</ele>
        <time>2017-06-10T09:39:15Z</time>
      </trkpt>
      <trkpt lat="45.94496" lon="4.73686">
        <ele>186</ele>
        <time>2017-06-10T09:39:16Z</time>
      </trkpt>
      <trkpt lat="45.94498" lon="4.73677">
        <ele>185</ele>
        <time>2017-06-10T09:39:17Z</time>
      </trkpt>
      <trkpt lat="45.94499" lon="4.73667">
        <ele>185</ele>
        <time>2017-06-10T09:39:18Z</time>
      </trkpt>
      <trkpt lat="45.945" lon="4.73658">
        <ele>185</ele>
        <time>2017-06-10T09:39:19Z</time>
      </trkpt>
      <trkpt lat="45.94501" lon="4.7365">
        <ele>184</ele>
        <time>2017-06-10T09:39:20Z</time>
      </trkpt>
      <trkpt lat="45.94502" lon="4.73641">
        <ele>184</ele>
        <time>2017-06-10T09:39:21Z</time>
      </trkpt>
      <trkpt lat="45.94503" lon="4.73632">
        <ele>184</ele>
        <time>2017-06-10T09:39:22Z</time>
      </trkpt>
      <trkpt lat="45.94503" lon="4.73624">
        <ele>184</ele>
        <time>2017-06-10T09:39:23Z</time>
      </trkpt>
      <trkpt lat="45.94503" lon="4.73615">
        <ele>184</ele>
        <time>2017-06-10T09:39:24Z</time>
      </trkpt>
      <trkpt lat="45.94504" lon="4.73605">
        <ele>184</ele>
        <time>2017-06-10T09:39:25Z</time>
      </trkpt>
      <trkpt lat="45.94504" lon="4.73596">
        <ele>184</ele>
        <time>2017-06-10T09:39:26Z</time>
      </trkpt>
      <trkpt lat="45.94505" lon="4.73587">
        <ele>185</ele>
        <time>2017-06-10T09:39:27Z</time>
      </trkpt>
      <trkpt lat="45.94505" lon="4.73579">
        <ele>184</ele>
        <time>2017-06-10T09:39:28Z</time>
      </trkpt>
      <trkpt lat="45.94505" lon="4.7357">
        <ele>184</ele>
        <time>2017-06-10T09:39:29Z</time>
      </trkpt>
      <trkpt lat="45.94505" lon="4.73561">
        <ele>184</ele>
        <time>2017-06-10T09:39:30Z</time>
      </trkpt>
      <trkpt lat="45.94506" lon="4.73552">
        <ele>183</ele>
        <time>2017-06-10T09:39:31Z</time>
      </trkpt>
      <trkpt lat="45.94506" lon="4.73543">
        <ele>183</ele>
        <time>2017-06-10T09:39:32Z</time>
      </trkpt>
      <trkpt lat="45.94506" lon="4.73534">
        <ele>183</ele>
        <time>2017-06-10T09:39:33Z</time>
      </trkpt>
      <trkpt lat="45.94506" lon="4.73524">
        <ele>183</ele>
        <time>2017-06-10T09:39:34Z</time>
      </trkpt>
      <trkpt lat="45.94506" lon="4.73514">
        <ele>183</ele>
        <time>2017-06-10T09:39:35Z</time>
      </trkpt>
      <trkpt lat="45.94506" lon="4.73504">
        <ele>183</ele>
        <time>2017-06-10T09:39:36Z</time>
      </trkpt>
      <trkpt lat="45.94507" lon="4.73494">
        <ele>182</ele>
        <time>2017-06-10T09:39:37Z</time>
      </trkpt>
      <trkpt lat="45.94508" lon="4.73484">
        <ele>182</ele>
        <time>2017-06-10T09:39:38Z</time>
      </trkpt>
      <trkpt lat="45.94508" lon="4.73474">
        <ele>182</ele>
        <time>2017-06-10T09:39:39Z</time>
      </trkpt>
      <trkpt lat="45.94509" lon="4.73464">
        <ele>181</ele>
        <time>2017-06-10T09:39:40Z</time>
      </trkpt>
      <trkpt lat="45.94509" lon="4.73454">
        <ele>181</ele>
        <time>2017-06-10T09:39:41Z</time>
      </trkpt>
      <trkpt lat="45.94508" lon="4.73443">
        <ele>181</ele>
        <time>2017-06-10T09:39:42Z</time>
      </trkpt>
      <trkpt lat="45.94507" lon="4.73432">
        <ele>181</ele>
        <time>2017-06-10T09:39:43Z</time>
      </trkpt>
      <trkpt lat="45.94507" lon="4.73421">
        <ele>180</ele>
        <time>2017-06-10T09:39:44Z</time>
      </trkpt>
      <trkpt lat="45.94507" lon="4.7341">
        <ele>179</ele>
        <time>2017-06-10T09:39:45Z</time>
      </trkpt>
      <trkpt lat="45.94506" lon="4.73399">
        <ele>179</ele>
        <time>2017-06-10T09:39:46Z</time>
      </trkpt>
      <trkpt lat="45.94505" lon="4.73387">
        <ele>179</ele>
        <time>2017-06-10T09:39:47Z</time>
      </trkpt>
      <trkpt lat="45.94503" lon="4.73377">
        <ele>178</ele>
        <time>2017-06-10T09:39:48Z</time>
      </trkpt>
      <trkpt lat="45.94502" lon="4.73366">
        <ele>178</ele>
        <time>2017-06-10T09:39:49Z</time>
      </trkpt>
      <trkpt lat="45.94501" lon="4.73355">
        <ele>178</ele>
        <time>2017-06-10T09:39:50Z</time>
      </trkpt>
      <trkpt lat="45.94499" lon="4.73344">
        <ele>178</ele>
        <time>2017-06-10T09:39:51Z</time>
      </trkpt>
      <trkpt lat="45.94498" lon="4.73332">
        <ele>177</ele>
        <time>2017-06-10T09:39:52Z</time>
      </trkpt>
      <trkpt lat="45.94497" lon="4.73321">
        <ele>177</ele>
        <time>2017-06-10T09:39:53Z</time>
      </trkpt>
      <trkpt lat="45.94496" lon="4.73309">
        <ele>177</ele>
        <time>2017-06-10T09:39:54Z</time>
      </trkpt>
      <trkpt lat="45.94494" lon="4.73297">
        <ele>177</ele>
        <time>2017-06-10T09:39:55Z</time>
      </trkpt>
      <trkpt lat="45.94492" lon="4.73286">
        <ele>177</ele>
        <time>2017-06-10T09:39:56Z</time>
      </trkpt>
      <trkpt lat="45.9449" lon="4.73274">
        <ele>177</ele>
        <time>2017-06-10T09:39:57Z</time>
      </trkpt>
      <trkpt lat="45.94488" lon="4.73263">
        <ele>176</ele>
        <time>2017-06-10T09:39:58Z</time>
      </trkpt>
      <trkpt lat="45.94487" lon="4.73251">
        <ele>176</ele>
        <time>2017-06-10T09:39:59Z</time>
      </trkpt>
      <trkpt lat="45.94486" lon="4.7324">
        <ele>175</ele>
        <time>2017-06-10T09:40:00Z</time>
      </trkpt>
      <trkpt lat="45.94485" lon="4.73228">
        <ele>175</ele>
        <time>2017-06-10T09:40:01Z</time>
      </trkpt>
      <trkpt lat="45.94484" lon="4.73217">
        <ele>175</ele>
        <time>2017-06-10T09:40:02Z</time>
      </trkpt>
      <trkpt lat="45.94482" lon="4.73205">
        <ele>175</ele>
        <time>2017-06-10T09:40:03Z</time>
      </trkpt>
      <trkpt lat="45.9448" lon="4.73194">
        <ele>174</ele>
        <time>2017-06-10T09:40:04Z</time>
      </trkpt>
      <trkpt lat="45.94479" lon="4.73183">
        <ele>174</ele>
        <time>2017-06-10T09:40:05Z</time>
      </trkpt>
      <trkpt lat="45.94477" lon="4.73171">
        <ele>174</ele>
        <time>2017-06-10T09:40:06Z</time>
      </trkpt>
      <trkpt lat="45.94475" lon="4.7316">
        <ele>173</ele>
        <time>2017-06-10T09:40:07Z</time>
      </trkpt>
      <trkpt lat="45.94474" lon="4.73149">
        <ele>172</ele>
        <time>2017-06-10T09:40:08Z</time>
      </trkpt>
      <trkpt lat="45.94472" lon="4.73138">
        <ele>172</ele>
        <time>2017-06-10T09:40:09Z</time>
      </trkpt>
      <trkpt lat="45.94471" lon="4.73127">
        <ele>172</ele>
        <time>2017-06-10T09:40:10Z</time>
      </trkpt>
      <trkpt lat="45.9447" lon="4.73116">
        <ele>172</ele>
        <time>2017-06-10T09:40:11Z</time>
      </trkpt>
      <trkpt lat="45.94468" lon="4.73106">
        <ele>172</ele>
        <time>2017-06-10T09:40:12Z</time>
      </trkpt>
      <trkpt lat="45.94466" lon="4.73096">
        <ele>172</ele>
        <time>2017-06-10T09:40:13Z</time>
      </trkpt>
      <trkpt lat="45.94465" lon="4.73087">
        <ele>171</ele>
        <time>2017-06-10T09:40:14Z</time>
      </trkpt>
      <trkpt lat="45.94465" lon="4.73079">
        <ele>170</ele>
        <time>2017-06-10T09:40:15Z</time>
      </trkpt>
      <trkpt lat="45.94464" lon="4.7307">
        <ele>170</ele>
        <time>2017-06-10T09:40:16Z</time>
      </trkpt>
      <trkpt lat="45.94463" lon="4.73062">
        <ele>170</ele>
        <time>2017-06-10T09:40:17Z</time>
      </trkpt>
      <trkpt lat="45.94462" lon="4.73053">
        <ele>170</ele>
        <time>2017-06-10T09:40:18Z</time>
      </trkpt>
      <trkpt lat="45.9446" lon="4.73044">
        <ele>170</ele>
        <time>2017-06-10T09:40:19Z</time>
      </trkpt>
      <trkpt lat="45.94459" lon="4.73036">
        <ele>169</ele>
        <time>2017-06-10T09:40:20Z</time>
      </trkpt>
      <trkpt lat="45.94458" lon="4.73027">
        <ele>169</ele>
        <time>2017-06-10T09:40:21Z</time>
      </trkpt>
      <trkpt lat="45.94457" lon="4.73019">
        <ele>169</ele>
        <time>2017-06-10T09:40:22Z</time>
      </trkpt>
      <trkpt lat="45.94456" lon="4.7301">
        <ele>169</ele>
        <time>2017-06-10T09:40:23Z</time>
      </trkpt>
      <trkpt lat="45.94455" lon="4.73001">
        <ele>169</ele>
        <time>2017-06-10T09:40:24Z</time>
      </trkpt>
      <trkpt lat="45.94454" lon="4.72992">
        <ele>168</ele>
        <time>2017-06-10T09:40:25Z</time>
      </trkpt>
      <trkpt lat="45.94453" lon="4.72983">
        <ele>167</ele>
        <time>2017-06-10T09:40:26Z</time>
      </trkpt>
      <trkpt lat="45.94452" lon="4.72975">
        <ele>167</ele>
        <time>2017-06-10T09:40:27Z</time>
      </trkpt>
      <trkpt lat="45.9445" lon="4.72966">
        <ele>167</ele>
        <time>2017-06-10T09:40:28Z</time>
      </trkpt>
      <trkpt lat="45.94449" lon="4.72957">
        <ele>167</ele>
        <time>2017-06-10T09:40:29Z</time>
      </trkpt>
      <trkpt lat="45.94448" lon="4.72948">
        <ele>167</ele>
        <time>2017-06-10T09:40:30Z</time>
      </trkpt>
      <trkpt lat="45.94447" lon="4.72939">
        <ele>167</ele>
        <time>2017-06-10T09:40:31Z</time>
      </trkpt>
      <trkpt lat="45.94445" lon="4.72931">
        <ele>167</ele>
        <time>2017-06-10T09:40:32Z</time>
      </trkpt>
      <trkpt lat="45.94444" lon="4.72922">
        <ele>167</ele>
        <time>2017-06-10T09:40:33Z</time>
      </trkpt>
      <trkpt lat="45.94443" lon="4.72914">
        <ele>166</ele>
        <time>2017-06-10T09:40:34Z</time>
      </trkpt>
      <trkpt lat="45.94442" lon="4.72906">
        <ele>166</ele>
        <time>2017-06-10T09:40:35Z</time>
      </trkpt>
      <trkpt lat="45.94441" lon="4.72899">
        <ele>166</ele>
        <time>2017-06-10T09:40:36Z</time>
      </trkpt>
      <trkpt lat="45.9444" lon="4.72892">
        <ele>166</ele>
        <time>2017-06-10T09:40:37Z</time>
      </trkpt>
      <trkpt lat="45.94439" lon="4.72885">
        <ele>166</ele>
        <time>2017-06-10T09:40:38Z</time>
      </trkpt>
      <trkpt lat="45.94438" lon="4.72877">
        <ele>166</ele>
        <time>2017-06-10T09:40:39Z</time>
      </trkpt>
      <trkpt lat="45.94437" lon="4.7287">
        <ele>166</ele>
        <time>2017-06-10T09:40:40Z</time>
      </trkpt>
      <trkpt lat="45.94435" lon="4.72862">
        <ele>166</ele>
        <time>2017-06-10T09:40:41Z</time>
      </trkpt>
      <trkpt lat="45.94434" lon="4.72854">
        <ele>166</ele>
        <time>2017-06-10T09:40:42Z</time>
      </trkpt>
      <trkpt lat="45.94434" lon="4.72845">
        <ele>166</ele>
        <time>2017-06-10T09:40:43Z</time>
      </trkpt>
      <trkpt lat="45.94433" lon="4.72837">
        <ele>166</ele>
        <time>2017-06-10T09:40:44Z</time>
      </trkpt>
      <trkpt lat="45.94432" lon="4.72828">
        <ele>167</ele>
        <time>2017-06-10T09:40:45Z</time>
      </trkpt>
      <trkpt lat="45.94431" lon="4.72818">
        <ele>167</ele>
        <time>2017-06-10T09:40:46Z</time>
      </trkpt>
      <trkpt lat="45.94429" lon="4.72809">
        <ele>167</ele>
        <time>2017-06-10T09:40:47Z</time>
      </trkpt>
      <trkpt lat="45.94428" lon="4.72799">
        <ele>167</ele>
        <time>2017-06-10T09:40:48Z</time>
      </trkpt>
      <trkpt lat="45.94426" lon="4.72789">
        <ele>168</ele>
        <time>2017-06-10T09:40:49Z</time>
      </trkpt>
      <trkpt lat="45.94425" lon="4.72778">
        <ele>168</ele>
        <time>2017-06-10T09:40:50Z</time>
      </trkpt>
      <trkpt lat="45.94424" lon="4.72768">
        <ele>169</ele>
        <time>2017-06-10T09:40:51Z</time>
      </trkpt>
      <trkpt lat="45.94422" lon="4.72757">
        <ele>170</ele>
        <time>2017-06-10T09:40:52Z</time>
      </trkpt>
      <trkpt lat="45.94421" lon="4.72747">
        <ele>171</ele>
        <time>2017-06-10T09:40:53Z</time>
      </trkpt>
      <trkpt lat="45.94419" lon="4.72736">
        <ele>171</ele>
        <time>2017-06-10T09:40:54Z</time>
      </trkpt>
      <trkpt lat="45.94418" lon="4.72725">
        <ele>171</ele>
        <time>2017-06-10T09:40:55Z</time>
      </trkpt>
      <trkpt lat="45.94417" lon="4.72714">
        <ele>172</ele>
        <time>2017-06-10T09:40:56Z</time>
      </trkpt>
      <trkpt lat="45.94415" lon="4.72703">
        <ele>172</ele>
        <time>2017-06-10T09:40:57Z</time>
      </trkpt>
      <trkpt lat="45.94414" lon="4.72692">
        <ele>173</ele>
        <time>2017-06-10T09:40:58Z</time>
      </trkpt>
      <trkpt lat="45.94413" lon="4.72681">
        <ele>173</ele>
        <time>2017-06-10T09:40:59Z</time>
      </trkpt>
      <trkpt lat="45.94412" lon="4.72671">
        <ele>174</ele>
        <time>2017-06-10T09:41:00Z</time>
      </trkpt>
      <trkpt lat="45.94411" lon="4.7266">
        <ele>174</ele>
        <time>2017-06-10T09:41:01Z</time>
      </trkpt>
      <trkpt lat="45.9441" lon="4.72649">
        <ele>174</ele>
        <time>2017-06-10T09:41:02Z</time>
      </trkpt>
      <trkpt lat="45.94409" lon="4.72639">
        <ele>174</ele>
        <time>2017-06-10T09:41:03Z</time>
      </trkpt>
      <trkpt lat="45.94407" lon="4.72629">
        <ele>174</ele>
        <time>2017-06-10T09:41:04Z</time>
      </trkpt>
      <trkpt lat="45.94406" lon="4.72618">
        <ele>173</ele>
        <time>2017-06-10T09:41:05Z</time>
      </trkpt>
      <trkpt lat="45.94406" lon="4.72608">
        <ele>173</ele>
        <time>2017-06-10T09:41:06Z</time>
      </trkpt>
      <trkpt lat="45.94404" lon="4.72599">
        <ele>173</ele>
        <time>2017-06-10T09:41:07Z</time>
      </trkpt>
      <trkpt lat="45.94403" lon="4.72589">
        <ele>173</ele>
        <time>2017-06-10T09:41:08Z</time>
      </trkpt>
      <trkpt lat="45.94401" lon="4.72579">
        <ele>173</ele>
        <time>2017-06-10T09:41:09Z</time>
      </trkpt>
      <trkpt lat="45.94399" lon="4.7257">
        <ele>173</ele>
        <time>2017-06-10T09:41:10Z</time>
      </trkpt>
      <trkpt lat="45.94398" lon="4.7256">
        <ele>173</ele>
        <time>2017-06-10T09:41:11Z</time>
      </trkpt>
      <trkpt lat="45.94397" lon="4.72551">
        <ele>173</ele>
        <time>2017-06-10T09:41:12Z</time>
      </trkpt>
      <trkpt lat="45.94394" lon="4.72542">
        <ele>173</ele>
        <time>2017-06-10T09:41:13Z</time>
      </trkpt>
      <trkpt lat="45.94392" lon="4.72534">
        <ele>174</ele>
        <time>2017-06-10T09:41:14Z</time>
      </trkpt>
      <trkpt lat="45.9439" lon="4.72526">
        <ele>174</ele>
        <time>2017-06-10T09:41:15Z</time>
      </trkpt>
      <trkpt lat="45.94388" lon="4.72517">
        <ele>174</ele>
        <time>2017-06-10T09:41:16Z</time>
      </trkpt>
      <trkpt lat="45.94385" lon="4.72509">
        <ele>174</ele>
        <time>2017-06-10T09:41:17Z</time>
      </trkpt>
      <trkpt lat="45.94382" lon="4.72499">
        <ele>173</ele>
        <time>2017-06-10T09:41:18Z</time>
      </trkpt>
      <trkpt lat="45.94379" lon="4.7249">
        <ele>173</ele>
        <time>2017-06-10T09:41:19Z</time>
      </trkpt>
      <trkpt lat="45.94376" lon="4.7248">
        <ele>173</ele>
        <time>2017-06-10T09:41:20Z</time>
      </trkpt>
      <trkpt lat="45.94374" lon="4.72471">
        <ele>173</ele>
        <time>2017-06-10T09:41:21Z</time>
      </trkpt>
      <trkpt lat="45.94371" lon="4.72462">
        <ele>173</ele>
        <time>2017-06-10T09:41:22Z</time>
      </trkpt>
      <trkpt lat="45.94368" lon="4.72453">
        <ele>173</ele>
        <time>2017-06-10T09:41:23Z</time>
      </trkpt>
      <trkpt lat="45.94364" lon="4.72445">
        <ele>173</ele>
        <time>2017-06-10T09:41:24Z</time>
      </trkpt>
      <trkpt lat="45.94361" lon="4.72437">
        <ele>173</ele>
        <time>2017-06-10T09:41:25Z</time>
      </trkpt>
      <trkpt lat="45.94358" lon="4.72429">
        <ele>173</ele>
        <time>2017-06-10T09:41:26Z</time>
      </trkpt>
      <trkpt lat="45.94356" lon="4.72421">
        <ele>173</ele>
        <time>2017-06-10T09:41:27Z</time>
      </trkpt>
      <trkpt lat="45.94353" lon="4.72413">
        <ele>172</ele>
        <time>2017-06-10T09:41:28Z</time>
      </trkpt>
      <trkpt lat="45.94351" lon="4.72406">
        <ele>172</ele>
        <time>2017-06-10T09:41:29Z</time>
      </trkpt>
      <trkpt lat="45.94348" lon="4.72398">
        <ele>172</ele>
        <time>2017-06-10T09:41:30Z</time>
      </trkpt>
      <trkpt lat="45.94345" lon="4.72391">
        <ele>172</ele>
        <time>2017-06-10T09:41:31Z</time>
      </trkpt>
      <trkpt lat="45.94341" lon="4.72383">
        <ele>172</ele>
        <time>2017-06-10T09:41:32Z</time>
      </trkpt>
      <trkpt lat="45.94337" lon="4.72375">
        <ele>172</ele>
        <time>2017-06-10T09:41:33Z</time>
      </trkpt>
      <trkpt lat="45.94333" lon="4.72367">
        <ele>172</ele>
        <time>2017-06-10T09:41:34Z</time>
      </trkpt>
      <trkpt lat="45.94328" lon="4.72359">
        <ele>172</ele>
        <time>2017-06-10T09:41:35Z</time>
      </trkpt>
      <trkpt lat="45.94324" lon="4.72351">
        <ele>172</ele>
        <time>2017-06-10T09:41:36Z</time>
      </trkpt>
      <trkpt lat="45.94319" lon="4.72342">
        <ele>172</ele>
        <time>2017-06-10T09:41:37Z</time>
      </trkpt>
      <trkpt lat="45.94315" lon="4.72334">
        <ele>172</ele>
        <time>2017-06-10T09:41:38Z</time>
      </trkpt>
      <trkpt lat="45.94311" lon="4.72326">
        <ele>172</ele>
        <time>2017-06-10T09:41:39Z</time>
      </trkpt>
      <trkpt lat="45.94307" lon="4.72319">
        <ele>171</ele>
        <time>2017-06-10T09:41:40Z</time>
      </trkpt>
      <trkpt lat="45.94304" lon="4.72311">
        <ele>171</ele>
        <time>2017-06-10T09:41:41Z</time>
      </trkpt>
      <trkpt lat="45.94299" lon="4.72303">
        <ele>171</ele>
        <time>2017-06-10T09:41:42Z</time>
      </trkpt>
      <trkpt lat="45.94295" lon="4.72295">
        <ele>171</ele>
        <time>2017-06-10T09:41:43Z</time>
      </trkpt>
      <trkpt lat="45.94291" lon="4.72287">
        <ele>171</ele>
        <time>2017-06-10T09:41:44Z</time>
      </trkpt>
      <trkpt lat="45.94288" lon="4.7228">
        <ele>171</ele>
        <time>2017-06-10T09:41:45Z</time>
      </trkpt>
      <trkpt lat="45.94284" lon="4.72273">
        <ele>171</ele>
        <time>2017-06-10T09:41:46Z</time>
      </trkpt>
      <trkpt lat="45.94281" lon="4.72269">
        <ele>171</ele>
        <time>2017-06-10T09:41:47Z</time>
      </trkpt>
      <trkpt lat="45.94276" lon="4.72268">
        <ele>171</ele>
        <time>2017-06-10T09:41:48Z</time>
      </trkpt>
      <trkpt lat="45.9427" lon="4.72269">
        <ele>171</ele>
        <time>2017-06-10T09:41:49Z</time>
      </trkpt>
      <trkpt lat="45.94264" lon="4.72271">
        <ele>171</ele>
        <time>2017-06-10T09:41:50Z</time>
      </trkpt>
      <trkpt lat="45.94258" lon="4.72274">
        <ele>171</ele>
        <time>2017-06-10T09:41:51Z</time>
      </trkpt>
      <trkpt lat="45.94253" lon="4.72276">
        <ele>171</ele>
        <time>2017-06-10T09:41:52Z</time>
      </trkpt>
      <trkpt lat="45.94247" lon="4.72278">
        <ele>171</ele>
        <time>2017-06-10T09:41:53Z</time>
      </trkpt>
      <trkpt lat="45.94241" lon="4.72279">
        <ele>171</ele>
        <time>2017-06-10T09:41:54Z</time>
      </trkpt>
      <trkpt lat="45.94236" lon="4.72281">
        <ele>171</ele>
        <time>2017-06-10T09:41:55Z</time>
      </trkpt>
      <trkpt lat="45.94229" lon="4.72283">
        <ele>171</ele>
        <time>2017-06-10T09:41:56Z</time>
      </trkpt>
      <trkpt lat="45.94223" lon="4.72284">
        <ele>171</ele>
        <time>2017-06-10T09:41:57Z</time>
      </trkpt>
      <trkpt lat="45.94217" lon="4.72285">
        <ele>171</ele>
        <time>2017-06-10T09:41:58Z</time>
      </trkpt>
      <trkpt lat="45.9421" lon="4.72286">
        <ele>171</ele>
        <time>2017-06-10T09:41:59Z</time>
      </trkpt>
      <trkpt lat="45.94203" lon="4.72286">
        <ele>171</ele>
        <time>2017-06-10T09:42:00Z</time>
      </trkpt>
      <trkpt lat="45.94196" lon="4.72286">
        <ele>171</ele>
        <time>2017-06-10T09:42:01Z</time>
      </trkpt>
      <trkpt lat="45.94189" lon="4.72285">
        <ele>171</ele>
        <time>2017-06-10T09:42:02Z</time>
      </trkpt>
      <trkpt lat="45.94183" lon="4.72284">
        <ele>171</ele>
        <time>2017-06-10T09:42:03Z</time>
      </trkpt>
      <trkpt lat="45.94177" lon="4.72284">
        <ele>171</ele>
        <time>2017-06-10T09:42:04Z</time>
      </trkpt>
      <trkpt lat="45.9417" lon="4.72283">
        <ele>171</ele>
        <time>2017-06-10T09:42:05Z</time>
      </trkpt>
      <trkpt lat="45.94164" lon="4.72283">
        <ele>171</ele>
        <time>2017-06-10T09:42:06Z</time>
      </trkpt>
      <trkpt lat="45.94159" lon="4.72282">
        <ele>171</ele>
        <time>2017-06-10T09:42:07Z</time>
      </trkpt>
      <trkpt lat="45.94153" lon="4.72281">
        <ele>171</ele>
        <time>2017-06-10T09:42:08Z</time>
      </trkpt>
      <trkpt lat="45.94148" lon="4.72279">
        <ele>171</ele>
        <time>2017-06-10T09:42:09Z</time>
      </trkpt>
      <trkpt lat="45.94143" lon="4.72276">
        <ele>171</ele>
        <time>2017-06-10T09:42:10Z</time>
      </trkpt>
      <trkpt lat="45.94139" lon="4.72274">
        <ele>171</ele>
        <time>2017-06-10T09:42:11Z</time>
      </trkpt>
      <trkpt lat="45.9413" lon="4.72269">
        <ele>171</ele>
        <time>2017-06-10T09:42:13Z</time>
      </trkpt>
      <trkpt lat="45.94126" lon="4.72266">
        <ele>171</ele>
        <time>2017-06-10T09:42:14Z</time>
      </trkpt>
      <trkpt lat="45.9412" lon="4.72264">
        <ele>171</ele>
        <time>2017-06-10T09:42:15Z</time>
      </trkpt>
      <trkpt lat="45.94115" lon="4.72263">
        <ele>171</ele>
        <time>2017-06-10T09:42:16Z</time>
      </trkpt>
      <trkpt lat="45.94108" lon="4.72263">
        <ele>171</ele>
        <time>2017-06-10T09:42:17Z</time>
      </trkpt>
      <trkpt lat="45.94101" lon="4.72263">
        <ele>171</ele>
        <time>2017-06-10T09:42:18Z</time>
      </trkpt>
      <trkpt lat="45.94094" lon="4.72265">
        <ele>171</ele>
        <time>2017-06-10T09:42:19Z</time>
      </trkpt>
      <trkpt lat="45.94087" lon="4.72267">
        <ele>171</ele>
        <time>2017-06-10T09:42:20Z</time>
      </trkpt>
      <trkpt lat="45.94081" lon="4.72269">
        <ele>171</ele>
        <time>2017-06-10T09:42:21Z</time>
      </trkpt>
      <trkpt lat="45.94074" lon="4.72274">
        <ele>171</ele>
        <time>2017-06-10T09:42:22Z</time>
      </trkpt>
      <trkpt lat="45.94069" lon="4.72278">
        <ele>171</ele>
        <time>2017-06-10T09:42:23Z</time>
      </trkpt>
      <trkpt lat="45.94064" lon="4.72284">
        <ele>171</ele>
        <time>2017-06-10T09:42:24Z</time>
      </trkpt>
      <trkpt lat="45.94058" lon="4.72289">
        <ele>171</ele>
        <time>2017-06-10T09:42:25Z</time>
      </trkpt>
      <trkpt lat="45.94054" lon="4.72295">
        <ele>171</ele>
        <time>2017-06-10T09:42:26Z</time>
      </trkpt>
      <trkpt lat="45.94049" lon="4.72301">
        <ele>171</ele>
        <time>2017-06-10T09:42:27Z</time>
      </trkpt>
      <trkpt lat="45.94044" lon="4.72307">
        <ele>171</ele>
        <time>2017-06-10T09:42:28Z</time>
      </trkpt>
      <trkpt lat="45.9404" lon="4.72313">
        <ele>171</ele>
        <time>2017-06-10T09:42:29Z</time>
      </trkpt>
      <trkpt lat="45.94035" lon="4.72319">
        <ele>171</ele>
        <time>2017-06-10T09:42:30Z</time>
      </trkpt>
      <trkpt lat="45.9403" lon="4.72324">
        <ele>171</ele>
        <time>2017-06-10T09:42:31Z</time>
      </trkpt>
      <trkpt lat="45.94026" lon="4.7233">
        <ele>171</ele>
        <time>2017-06-10T09:42:32Z</time>
      </trkpt>
      <trkpt lat="45.94022" lon="4.72335">
        <ele>171</ele>
        <time>2017-06-10T09:42:33Z</time>
      </trkpt>
      <trkpt lat="45.94017" lon="4.72341">
        <ele>171</ele>
        <time>2017-06-10T09:42:34Z</time>
      </trkpt>
      <trkpt lat="45.94013" lon="4.72346">
        <ele>171</ele>
        <time>2017-06-10T09:42:35Z</time>
      </trkpt>
      <trkpt lat="45.94009" lon="4.72351">
        <ele>171</ele>
        <time>2017-06-10T09:42:36Z</time>
      </trkpt>
      <trkpt lat="45.94005" lon="4.72357">
        <ele>171</ele>
        <time>2017-06-10T09:42:37Z</time>
      </trkpt>
      <trkpt lat="45.94" lon="4.72363">
        <ele>171</ele>
        <time>2017-06-10T09:42:38Z</time>
      </trkpt>
      <trkpt lat="45.93996" lon="4.72368">
        <ele>171</ele>
        <time>2017-06-10T09:42:39Z</time>
      </trkpt>
      <trkpt lat="45.93992" lon="4.72373">
        <ele>171</ele>
        <time>2017-06-10T09:42:40Z</time>
      </trkpt>
      <trkpt lat="45.93987" lon="4.72378">
        <ele>171</ele>
        <time>2017-06-10T09:42:41Z</time>
      </trkpt>
      <trkpt lat="45.93983" lon="4.72384">
        <ele>171</ele>
        <time>2017-06-10T09:42:42Z</time>
      </trkpt>
      <trkpt lat="45.93978" lon="4.72391">
        <ele>171</ele>
        <time>2017-06-10T09:42:43Z</time>
      </trkpt>
      <trkpt lat="45.93972" lon="4.72397">
        <ele>171</ele>
        <time>2017-06-10T09:42:44Z</time>
      </trkpt>
      <trkpt lat="45.93966" lon="4.72404">
        <ele>171</ele>
        <time>2017-06-10T09:42:45Z</time>
      </trkpt>
      <trkpt lat="45.93961" lon="4.72411">
        <ele>171</ele>
        <time>2017-06-10T09:42:46Z</time>
      </trkpt>
      <trkpt lat="45.93955" lon="4.72418">
        <ele>171</ele>
        <time>2017-06-10T09:42:47Z</time>
      </trkpt>
      <trkpt lat="45.9395" lon="4.72425">
        <ele>171</ele>
        <time>2017-06-10T09:42:48Z</time>
      </trkpt>
      <trkpt lat="45.93945" lon="4.72431">
        <ele>171</ele>
        <time>2017-06-10T09:42:49Z</time>
      </trkpt>
      <trkpt lat="45.93941" lon="4.72437">
        <ele>171</ele>
        <time>2017-06-10T09:42:50Z</time>
      </trkpt>
      <trkpt lat="45.93936" lon="4.72443">
        <ele>171</ele>
        <time>2017-06-10T09:42:51Z</time>
      </trkpt>
      <trkpt lat="45.93932" lon="4.72449">
        <ele>171</ele>
        <time>2017-06-10T09:42:52Z</time>
      </trkpt>
      <trkpt lat="45.93928" lon="4.72454">
        <ele>171</ele>
        <time>2017-06-10T09:42:53Z</time>
      </trkpt>
      <trkpt lat="45.93923" lon="4.7246">
        <ele>171</ele>
        <time>2017-06-10T09:42:54Z</time>
      </trkpt>
      <trkpt lat="45.93919" lon="4.72465">
        <ele>171</ele>
        <time>2017-06-10T09:42:55Z</time>
      </trkpt>
      <trkpt lat="45.93914" lon="4.72471">
        <ele>172</ele>
        <time>2017-06-10T09:42:56Z</time>
      </trkpt>
      <trkpt lat="45.9391" lon="4.72476">
        <ele>172</ele>
        <time>2017-06-10T09:42:57Z</time>
      </trkpt>
      <trkpt lat="45.93905" lon="4.72482">
        <ele>172</ele>
        <time>2017-06-10T09:42:58Z</time>
      </trkpt>
      <trkpt lat="45.93901" lon="4.72487">
        <ele>172</ele>
        <time>2017-06-10T09:42:59Z</time>
      </trkpt>
      <trkpt lat="45.93896" lon="4.72493">
        <ele>172</ele>
        <time>2017-06-10T09:43:00Z</time>
      </trkpt>
      <trkpt lat="45.93892" lon="4.72499">
        <ele>172</ele>
        <time>2017-06-10T09:43:01Z</time>
      </trkpt>
      <trkpt lat="45.93887" lon="4.72505">
        <ele>173</ele>
        <time>2017-06-10T09:43:02Z</time>
      </trkpt>
      <trkpt lat="45.93883" lon="4.7251">
        <ele>173</ele>
        <time>2017-06-10T09:43:03Z</time>
      </trkpt>
      <trkpt lat="45.93878" lon="4.72515">
        <ele>173</ele>
        <time>2017-06-10T09:43:04Z</time>
      </trkpt>
      <trkpt lat="45.93873" lon="4.72517">
        <ele>173</ele>
        <time>2017-06-10T09:43:05Z</time>
      </trkpt>
      <trkpt lat="45.93867" lon="4.72518">
        <ele>173</ele>
        <time>2017-06-10T09:43:06Z</time>
      </trkpt>
      <trkpt lat="45.93862" lon="4.72516">
        <ele>173</ele>
        <time>2017-06-10T09:43:07Z</time>
      </trkpt>
      <trkpt lat="45.93856" lon="4.72513">
        <ele>173</ele>
        <time>2017-06-10T09:43:08Z</time>
      </trkpt>
      <trkpt lat="45.93851" lon="4.72509">
        <ele>173</ele>
        <time>2017-06-10T09:43:09Z</time>
      </trkpt>
      <trkpt lat="45.93846" lon="4.72505">
        <ele>174</ele>
        <time>2017-06-10T09:43:10Z</time>
      </trkpt>
      <trkpt lat="45.93841" lon="4.725">
        <ele>174</ele>
        <time>2017-06-10T09:43:11Z</time>
      </trkpt>
      <trkpt lat="45.93836" lon="4.72494">
        <ele>174</ele>
        <time>2017-06-10T09:43:12Z</time>
      </trkpt>
      <trkpt lat="45.93831" lon="4.72488">
        <ele>173</ele>
        <time>2017-06-10T09:43:13Z</time>
      </trkpt>
      <trkpt lat="45.93827" lon="4.72482">
        <ele>173</ele>
        <time>2017-06-10T09:43:14Z</time>
      </trkpt>
      <trkpt lat="45.93824" lon="4.72477">
        <ele>173</ele>
        <time>2017-06-10T09:43:15Z</time>
      </trkpt>
      <trkpt lat="45.93819" lon="4.72471">
        <ele>172</ele>
        <time>2017-06-10T09:43:16Z</time>
      </trkpt>
      <trkpt lat="45.93815" lon="4.72466">
        <ele>172</ele>
        <time>2017-06-10T09:43:17Z</time>
      </trkpt>
      <trkpt lat="45.9381" lon="4.72463">
        <ele>172</ele>
        <time>2017-06-10T09:43:18Z</time>
      </trkpt>
      <trkpt lat="45.93805" lon="4.72457">
        <ele>172</ele>
        <time>2017-06-10T09:43:20Z</time>
      </trkpt>
      <trkpt lat="45.93804" lon="4.72454">
        <ele>172</ele>
        <time>2017-06-10T09:43:21Z</time>
      </trkpt>
      <trkpt lat="45.93798" lon="4.72446">
        <ele>172</ele>
        <time>2017-06-10T09:43:23Z</time>
      </trkpt>
      <trkpt lat="45.93794" lon="4.72443">
        <ele>172</ele>
        <time>2017-06-10T09:43:24Z</time>
      </trkpt>
      <trkpt lat="45.93788" lon="4.72434">
        <ele>172</ele>
        <time>2017-06-10T09:43:26Z</time>
      </trkpt>
      <trkpt lat="45.93784" lon="4.7243">
        <ele>172</ele>
        <time>2017-06-10T09:43:27Z</time>
      </trkpt>
      <trkpt lat="45.93781" lon="4.72426">
        <ele>172</ele>
        <time>2017-06-10T09:43:28Z</time>
      </trkpt>
      <trkpt lat="45.93777" lon="4.72422">
        <ele>171</ele>
        <time>2017-06-10T09:43:29Z</time>
      </trkpt>
      <trkpt lat="45.93773" lon="4.72417">
        <ele>171</ele>
        <time>2017-06-10T09:43:30Z</time>
      </trkpt>
      <trkpt lat="45.93769" lon="4.72413">
        <ele>171</ele>
        <time>2017-06-10T09:43:31Z</time>
      </trkpt>
      <trkpt lat="45.93765" lon="4.72408">
        <ele>171</ele>
        <time>2017-06-10T09:43:32Z</time>
      </trkpt>
      <trkpt lat="45.9376" lon="4.72404">
        <ele>171</ele>
        <time>2017-06-10T09:43:33Z</time>
      </trkpt>
      <trkpt lat="45.93756" lon="4.724">
        <ele>171</ele>
        <time>2017-06-10T09:43:34Z</time>
      </trkpt>
      <trkpt lat="45.93753" lon="4.72396">
        <ele>171</ele>
        <time>2017-06-10T09:43:35Z</time>
      </trkpt>
      <trkpt lat="45.93748" lon="4.72392">
        <ele>171</ele>
        <time>2017-06-10T09:43:36Z</time>
      </trkpt>
      <trkpt lat="45.93744" lon="4.72388">
        <ele>171</ele>
        <time>2017-06-10T09:43:37Z</time>
      </trkpt>
      <trkpt lat="45.9374" lon="4.72384">
        <ele>171</ele>
        <time>2017-06-10T09:43:38Z</time>
      </trkpt>
      <trkpt lat="45.93734" lon="4.72381">
        <ele>171</ele>
        <time>2017-06-10T09:43:39Z</time>
      </trkpt>
      <trkpt lat="45.93729" lon="4.72378">
        <ele>171</ele>
        <time>2017-06-10T09:43:40Z</time>
      </trkpt>
      <trkpt lat="45.93725" lon="4.72374">
        <ele>172</ele>
        <time>2017-06-10T09:43:41Z</time>
      </trkpt>
      <trkpt lat="45.93721" lon="4.7237">
        <ele>172</ele>
        <time>2017-06-10T09:43:42Z</time>
      </trkpt>
      <trkpt lat="45.93717" lon="4.72366">
        <ele>172</ele>
        <time>2017-06-10T09:43:43Z</time>
      </trkpt>
      <trkpt lat="45.93713" lon="4.72362">
        <ele>172</ele>
        <time>2017-06-10T09:43:44Z</time>
      </trkpt>
      <trkpt lat="45.9371" lon="4.72358">
        <ele>172</ele>
        <time>2017-06-10T09:43:45Z</time>
      </trkpt>
      <trkpt lat="45.93703" lon="4.7235">
        <ele>171</ele>
        <time>2017-06-10T09:43:47Z</time>
      </trkpt>
      <trkpt lat="45.937" lon="4.72346">
        <ele>171</ele>
        <time>2017-06-10T09:43:48Z</time>
      </trkpt>
      <trkpt lat="45.93696" lon="4.72341">
        <ele>171</ele>
        <time>2017-06-10T09:43:49Z</time>
      </trkpt>
      <trkpt lat="45.93693" lon="4.72337">
        <ele>171</ele>
        <time>2017-06-10T09:43:50Z</time>
      </trkpt>
      <trkpt lat="45.93689" lon="4.72333">
        <ele>172</ele>
        <time>2017-06-10T09:43:51Z</time>
      </trkpt>
      <trkpt lat="45.93685" lon="4.72329">
        <ele>172</ele>
        <time>2017-06-10T09:43:52Z</time>
      </trkpt>
      <trkpt lat="45.93678" lon="4.72326">
        <ele>171</ele>
        <time>2017-06-10T09:43:53Z</time>
      </trkpt>
      <trkpt lat="45.93675" lon="4.72322">
        <ele>171</ele>
        <time>2017-06-10T09:43:54Z</time>
      </trkpt>
      <trkpt lat="45.93671" lon="4.72318">
        <ele>171</ele>
        <time>2017-06-10T09:43:55Z</time>
      </trkpt>
      <trkpt lat="45.93667" lon="4.72314">
        <ele>172</ele>
        <time>2017-06-10T09:43:56Z</time>
      </trkpt>
      <trkpt lat="45.93663" lon="4.72309">
        <ele>172</ele>
        <time>2017-06-10T09:43:57Z</time>
      </trkpt>
      <trkpt lat="45.93659" lon="4.72306">
        <ele>172</ele>
        <time>2017-06-10T09:43:58Z</time>
      </trkpt>
      <trkpt lat="45.93654" lon="4.72301">
        <ele>172</ele>
        <time>2017-06-10T09:43:59Z</time>
      </trkpt>
      <trkpt lat="45.93649" lon="4.72297">
        <ele>172</ele>
        <time>2017-06-10T09:44:00Z</time>
      </trkpt>
      <trkpt lat="45.93645" lon="4.72293">
        <ele>172</ele>
        <time>2017-06-10T09:44:01Z</time>
      </trkpt>
      <trkpt lat="45.93641" lon="4.72289">
        <ele>172</ele>
        <time>2017-06-10T09:44:02Z</time>
      </trkpt>
      <trkpt lat="45.93637" lon="4.72286">
        <ele>172</ele>
        <time>2017-06-10T09:44:03Z</time>
      </trkpt>
      <trkpt lat="45.93633" lon="4.72282">
        <ele>172</ele>
        <time>2017-06-10T09:44:04Z</time>
      </trkpt>
      <trkpt lat="45.93629" lon="4.72276">
        <ele>172</ele>
        <time>2017-06-10T09:44:06Z</time>
      </trkpt>
      <trkpt lat="45.93625" lon="4.72273">
        <ele>172</ele>
        <time>2017-06-10T09:44:07Z</time>
      </trkpt>
      <trkpt lat="45.93619" lon="4.72266">
        <ele>172</ele>
        <time>2017-06-10T09:44:09Z</time>
      </trkpt>
      <trkpt lat="45.93615" lon="4.72263">
        <ele>172</ele>
        <time>2017-06-10T09:44:10Z</time>
      </trkpt>
      <trkpt lat="45.93608" lon="4.72256">
        <ele>173</ele>
        <time>2017-06-10T09:44:12Z</time>
      </trkpt>
      <trkpt lat="45.93605" lon="4.72254">
        <ele>173</ele>
        <time>2017-06-10T09:44:13Z</time>
      </trkpt>
      <trkpt lat="45.93598" lon="4.72247">
        <ele>173</ele>
        <time>2017-06-10T09:44:15Z</time>
      </trkpt>
      <trkpt lat="45.93593" lon="4.72244">
        <ele>173</ele>
        <time>2017-06-10T09:44:16Z</time>
      </trkpt>
      <trkpt lat="45.93588" lon="4.72236">
        <ele>173</ele>
        <time>2017-06-10T09:44:18Z</time>
      </trkpt>
      <trkpt lat="45.93585" lon="4.72233">
        <ele>173</ele>
        <time>2017-06-10T09:44:19Z</time>
      </trkpt>
      <trkpt lat="45.93578" lon="4.72225">
        <ele>173</ele>
        <time>2017-06-10T09:44:22Z</time>
      </trkpt>
      <trkpt lat="45.93576" lon="4.72224">
        <ele>173</ele>
        <time>2017-06-10T09:44:23Z</time>
      </trkpt>
      <trkpt lat="45.93569" lon="4.72218">
        <ele>173</ele>
        <time>2017-06-10T09:44:27Z</time>
      </trkpt>
      <trkpt lat="45.93563" lon="4.72219">
        <ele>173</ele>
        <time>2017-06-10T09:44:28Z</time>
      </trkpt>
      <trkpt lat="45.93557" lon="4.72221">
        <ele>173</ele>
        <time>2017-06-10T09:44:29Z</time>
      </trkpt>
      <trkpt lat="45.93553" lon="4.72226">
        <ele>173</ele>
        <time>2017-06-10T09:44:30Z</time>
      </trkpt>
      <trkpt lat="45.93549" lon="4.7223">
        <ele>172</ele>
        <time>2017-06-10T09:44:31Z</time>
      </trkpt>
      <trkpt lat="45.93545" lon="4.72235">
        <ele>172</ele>
        <time>2017-06-10T09:44:32Z</time>
      </trkpt>
      <trkpt lat="45.93541" lon="4.7224">
        <ele>172</ele>
        <time>2017-06-10T09:44:33Z</time>
      </trkpt>
      <trkpt lat="45.93538" lon="4.72246">
        <ele>172</ele>
        <time>2017-06-10T09:44:34Z</time>
      </trkpt>
      <trkpt lat="45.93535" lon="4.72251">
        <ele>172</ele>
        <time>2017-06-10T09:44:35Z</time>
      </trkpt>
      <trkpt lat="45.93532" lon="4.72256">
        <ele>172</ele>
        <time>2017-06-10T09:44:36Z</time>
      </trkpt>
      <trkpt lat="45.93529" lon="4.72262">
        <ele>172</ele>
        <time>2017-06-10T09:44:37Z</time>
      </trkpt>
      <trkpt lat="45.93526" lon="4.72268">
        <ele>172</ele>
        <time>2017-06-10T09:44:38Z</time>
      </trkpt>
      <trkpt lat="45.93524" lon="4.72275">
        <ele>172</ele>
        <time>2017-06-10T09:44:39Z</time>
      </trkpt>
      <trkpt lat="45.93521" lon="4.72281">
        <ele>172</ele>
        <time>2017-06-10T09:44:40Z</time>
      </trkpt>
      <trkpt lat="45.93519" lon="4.72287">
        <ele>172</ele>
        <time>2017-06-10T09:44:41Z</time>
      </trkpt>
      <trkpt lat="45.93516" lon="4.72293">
        <ele>172</ele>
        <time>2017-06-10T09:44:42Z</time>
      </trkpt>
      <trkpt lat="45.93513" lon="4.72298">
        <ele>172</ele>
        <time>2017-06-10T09:44:43Z</time>
      </trkpt>
      <trkpt lat="45.93509" lon="4.72303">
        <ele>172</ele>
        <time>2017-06-10T09:44:44Z</time>
      </trkpt>
      <trkpt lat="45.93505" lon="4.72309">
        <ele>173</ele>
        <time>2017-06-10T09:44:45Z</time>
      </trkpt>
      <trkpt lat="45.93501" lon="4.72314">
        <ele>173</ele>
        <time>2017-06-10T09:44:46Z</time>
      </trkpt>
      <trkpt lat="45.93497" lon="4.7232">
        <ele>173</ele>
        <time>2017-06-10T09:44:47Z</time>
      </trkpt>
      <trkpt lat="45.93493" lon="4.72325">
        <ele>173</ele>
        <time>2017-06-10T09:44:48Z</time>
      </trkpt>
      <trkpt lat="45.9349" lon="4.72331">
        <ele>173</ele>
        <time>2017-06-10T09:44:49Z</time>
      </trkpt>
      <trkpt lat="45.93486" lon="4.72337">
        <ele>173</ele>
        <time>2017-06-10T09:44:50Z</time>
      </trkpt>
      <trkpt lat="45.93481" lon="4.72342">
        <ele>173</ele>
        <time>2017-06-10T09:44:51Z</time>
      </trkpt>
      <trkpt lat="45.93477" lon="4.72347">
        <ele>173</ele>
        <time>2017-06-10T09:44:52Z</time>
      </trkpt>
      <trkpt lat="45.93472" lon="4.72353">
        <ele>173</ele>
        <time>2017-06-10T09:44:53Z</time>
      </trkpt>
      <trkpt lat="45.93469" lon="4.72358">
        <ele>173</ele>
        <time>2017-06-10T09:44:54Z</time>
      </trkpt>
      <trkpt lat="45.93466" lon="4.72366">
        <ele>173</ele>
        <time>2017-06-10T09:44:55Z</time>
      </trkpt>
      <trkpt lat="45.93462" lon="4.72371">
        <ele>173</ele>
        <time>2017-06-10T09:44:56Z</time>
      </trkpt>
      <trkpt lat="45.93458" lon="4.72376">
        <ele>173</ele>
        <time>2017-06-10T09:44:57Z</time>
      </trkpt>
      <trkpt lat="45.93454" lon="4.72381">
        <ele>173</ele>
        <time>2017-06-10T09:44:58Z</time>
      </trkpt>
      <trkpt lat="45.9345" lon="4.72386">
        <ele>173</ele>
        <time>2017-06-10T09:44:59Z</time>
      </trkpt>
      <trkpt lat="45.93446" lon="4.7239">
        <ele>173</ele>
        <time>2017-06-10T09:45:00Z</time>
      </trkpt>
      <trkpt lat="45.93443" lon="4.72394">
        <ele>173</ele>
        <time>2017-06-10T09:45:01Z</time>
      </trkpt>
      <trkpt lat="45.93439" lon="4.72398">
        <ele>173</ele>
        <time>2017-06-10T09:45:02Z</time>
      </trkpt>
      <trkpt lat="45.93434" lon="4.724">
        <ele>174</ele>
        <time>2017-06-10T09:45:03Z</time>
      </trkpt>
      <trkpt lat="45.93429" lon="4.72402">
        <ele>174</ele>
        <time>2017-06-10T09:45:04Z</time>
      </trkpt>
      <trkpt lat="45.93423" lon="4.72403">
        <ele>174</ele>
        <time>2017-06-10T09:45:05Z</time>
      </trkpt>
      <trkpt lat="45.93417" lon="4.72406">
        <ele>174</ele>
        <time>2017-06-10T09:45:06Z</time>
      </trkpt>
      <trkpt lat="45.93412" lon="4.72408">
        <ele>174</ele>
        <time>2017-06-10T09:45:07Z</time>
      </trkpt>
      <trkpt lat="45.93406" lon="4.72408">
        <ele>174</ele>
        <time>2017-06-10T09:45:08Z</time>
      </trkpt>
      <trkpt lat="45.93401" lon="4.72407">
        <ele>174</ele>
        <time>2017-06-10T09:45:09Z</time>
      </trkpt>
      <trkpt lat="45.93396" lon="4.72406">
        <ele>174</ele>
        <time>2017-06-10T09:45:10Z</time>
      </trkpt>
      <trkpt lat="45.9339" lon="4.72408">
        <ele>174</ele>
        <time>2017-06-10T09:45:11Z</time>
      </trkpt>
      <trkpt lat="45.93385" lon="4.72412">
        <ele>174</ele>
        <time>2017-06-10T09:45:12Z</time>
      </trkpt>
      <trkpt lat="45.93382" lon="4.72419">
        <ele>173</ele>
        <time>2017-06-10T09:45:13Z</time>
      </trkpt>
      <trkpt lat="45.93382" lon="4.72426">
        <ele>173</ele>
        <time>2017-06-10T09:45:14Z</time>
      </trkpt>
      <trkpt lat="45.93384" lon="4.72432">
        <ele>173</ele>
        <time>2017-06-10T09:45:15Z</time>
      </trkpt>
      <trkpt lat="45.93386" lon="4.72439">
        <ele>173</ele>
        <time>2017-06-10T09:45:16Z</time>
      </trkpt>
      <trkpt lat="45.93387" lon="4.72446">
        <ele>173</ele>
        <time>2017-06-10T09:45:17Z</time>
      </trkpt>
      <trkpt lat="45.93388" lon="4.72453">
        <ele>173</ele>
        <time>2017-06-10T09:45:18Z</time>
      </trkpt>
      <trkpt lat="45.93386" lon="4.7246">
        <ele>173</ele>
        <time>2017-06-10T09:45:19Z</time>
      </trkpt>
      <trkpt lat="45.93383" lon="4.72467">
        <ele>173</ele>
        <time>2017-06-10T09:45:20Z</time>
      </trkpt>
      <trkpt lat="45.93379" lon="4.72473">
        <ele>173</ele>
        <time>2017-06-10T09:45:21Z</time>
      </trkpt>
      <trkpt lat="45.93374" lon="4.72478">
        <ele>173</ele>
        <time>2017-06-10T09:45:22Z</time>
      </trkpt>
      <trkpt lat="45.9337" lon="4.72484">
        <ele>173</ele>
        <time>2017-06-10T09:45:23Z</time>
      </trkpt>
      <trkpt lat="45.93365" lon="4.7249">
        <ele>173</ele>
        <time>2017-06-10T09:45:24Z</time>
      </trkpt>
      <trkpt lat="45.93361" lon="4.72496">
        <ele>173</ele>
        <time>2017-06-10T09:45:25Z</time>
      </trkpt>
      <trkpt lat="45.93357" lon="4.72503">
        <ele>172</ele>
        <time>2017-06-10T09:45:26Z</time>
      </trkpt>
      <trkpt lat="45.9335" lon="4.72508">
        <ele>172</ele>
        <time>2017-06-10T09:45:27Z</time>
      </trkpt>
      <trkpt lat="45.93346" lon="4.72514">
        <ele>172</ele>
        <time>2017-06-10T09:45:28Z</time>
      </trkpt>
      <trkpt lat="45.93341" lon="4.7252">
        <ele>172</ele>
        <time>2017-06-10T09:45:29Z</time>
      </trkpt>
      <trkpt lat="45.93337" lon="4.72526">
        <ele>172</ele>
        <time>2017-06-10T09:45:30Z</time>
      </trkpt>
      <trkpt lat="45.93333" lon="4.72532">
        <ele>172</ele>
        <time>2017-06-10T09:45:31Z</time>
      </trkpt>
      <trkpt lat="45.9333" lon="4.72538">
        <ele>172</ele>
        <time>2017-06-10T09:45:32Z</time>
      </trkpt>
      <trkpt lat="45.93327" lon="4.72543">
        <ele>172</ele>
        <time>2017-06-10T09:45:33Z</time>
      </trkpt>
      <trkpt lat="45.93323" lon="4.72548">
        <ele>172</ele>
        <time>2017-06-10T09:45:34Z</time>
      </trkpt>
      <trkpt lat="45.93318" lon="4.72553">
        <ele>172</ele>
        <time>2017-06-10T09:45:35Z</time>
      </trkpt>
      <trkpt lat="45.93315" lon="4.72558">
        <ele>171</ele>
        <time>2017-06-10T09:45:36Z</time>
      </trkpt>
      <trkpt lat="45.93311" lon="4.72563">
        <ele>171</ele>
        <time>2017-06-10T09:45:37Z</time>
      </trkpt>
      <trkpt lat="45.93307" lon="4.72568">
        <ele>171</ele>
        <time>2017-06-10T09:45:38Z</time>
      </trkpt>
      <trkpt lat="45.93302" lon="4.72573">
        <ele>171</ele>
        <time>2017-06-10T09:45:39Z</time>
      </trkpt>
      <trkpt lat="45.93298" lon="4.72579">
        <ele>171</ele>
        <time>2017-06-10T09:45:40Z</time>
      </trkpt>
      <trkpt lat="45.93293" lon="4.72584">
        <ele>170</ele>
        <time>2017-06-10T09:45:41Z</time>
      </trkpt>
      <trkpt lat="45.93288" lon="4.72589">
        <ele>170</ele>
        <time>2017-06-10T09:45:42Z</time>
      </trkpt>
      <trkpt lat="45.93284" lon="4.72595">
        <ele>170</ele>
        <time>2017-06-10T09:45:43Z</time>
      </trkpt>
      <trkpt lat="45.93279" lon="4.726">
        <ele>170</ele>
        <time>2017-06-10T09:45:44Z</time>
      </trkpt>
      <trkpt lat="45.93275" lon="4.72604">
        <ele>170</ele>
        <time>2017-06-10T09:45:45Z</time>
      </trkpt>
      <trkpt lat="45.9327" lon="4.72609">
        <ele>170</ele>
        <time>2017-06-10T09:45:46Z</time>
      </trkpt>
      <trkpt lat="45.93266" lon="4.72615">
        <ele>170</ele>
        <time>2017-06-10T09:45:47Z</time>
      </trkpt>
      <trkpt lat="45.93263" lon="4.72619">
        <ele>170</ele>
        <time>2017-06-10T09:45:48Z</time>
      </trkpt>
      <trkpt lat="45.93257" lon="4.72624">
        <ele>170</ele>
        <time>2017-06-10T09:45:49Z</time>
      </trkpt>
      <trkpt lat="45.93253" lon="4.72628">
        <ele>170</ele>
        <time>2017-06-10T09:45:50Z</time>
      </trkpt>
      <trkpt lat="45.93248" lon="4.72633">
        <ele>170</ele>
        <time>2017-06-10T09:45:51Z</time>
      </trkpt>
      <trkpt lat="45.93244" lon="4.72637">
        <ele>170</ele>
        <time>2017-06-10T09:45:52Z</time>
      </trkpt>
      <trkpt lat="45.93239" lon="4.72641">
        <ele>170</ele>
        <time>2017-06-10T09:45:53Z</time>
      </trkpt>
      <trkpt lat="45.93235" lon="4.72646">
        <ele>170</ele>
        <time>2017-06-10T09:45:54Z</time>
      </trkpt>
      <trkpt lat="45.93231" lon="4.72651">
        <ele>170</ele>
        <time>2017-06-10T09:45:55Z</time>
      </trkpt>
      <trkpt lat="45.93227" lon="4.72656">
        <ele>170</ele>
        <time>2017-06-10T09:45:56Z</time>
      </trkpt>
      <trkpt lat="45.93222" lon="4.72661">
        <ele>170</ele>
        <time>2017-06-10T09:45:57Z</time>
      </trkpt>
      <trkpt lat="45.93218" lon="4.72667">
        <ele>170</ele>
        <time>2017-06-10T09:45:58Z</time>
      </trkpt>
      <trkpt lat="45.9321" lon="4.72672">
        <ele>169</ele>
        <time>2017-06-10T09:45:59Z</time>
      </trkpt>
      <trkpt lat="45.93206" lon="4.72678">
        <ele>169</ele>
        <time>2017-06-10T09:46:00Z</time>
      </trkpt>
      <trkpt lat="45.93201" lon="4.72683">
        <ele>169</ele>
        <time>2017-06-10T09:46:01Z</time>
      </trkpt>
      <trkpt lat="45.93196" lon="4.72689">
        <ele>169</ele>
        <time>2017-06-10T09:46:02Z</time>
      </trkpt>
      <trkpt lat="45.9319" lon="4.72694">
        <ele>169</ele>
        <time>2017-06-10T09:46:03Z</time>
      </trkpt>
      <trkpt lat="45.93185" lon="4.72699">
        <ele>169</ele>
        <time>2017-06-10T09:46:04Z</time>
      </trkpt>
      <trkpt lat="45.93179" lon="4.72705">
        <ele>169</ele>
        <time>2017-06-10T09:46:05Z</time>
      </trkpt>
      <trkpt lat="45.93174" lon="4.72711">
        <ele>170</ele>
        <time>2017-06-10T09:46:06Z</time>
      </trkpt>
      <trkpt lat="45.93168" lon="4.72718">
        <ele>170</ele>
        <time>2017-06-10T09:46:07Z</time>
      </trkpt>
      <trkpt lat="45.93163" lon="4.72724">
        <ele>170</ele>
        <time>2017-06-10T09:46:08Z</time>
      </trkpt>
      <trkpt lat="45.93157" lon="4.72731">
        <ele>170</ele>
        <time>2017-06-10T09:46:09Z</time>
      </trkpt>
      <trkpt lat="45.93151" lon="4.72737">
        <ele>170</ele>
        <time>2017-06-10T09:46:10Z</time>
      </trkpt>
      <trkpt lat="45.93145" lon="4.72743">
        <ele>170</ele>
        <time>2017-06-10T09:46:11Z</time>
      </trkpt>
      <trkpt lat="45.9314" lon="4.7275">
        <ele>170</ele>
        <time>2017-06-10T09:46:12Z</time>
      </trkpt>
      <trkpt lat="45.93135" lon="4.72756">
        <ele>171</ele>
        <time>2017-06-10T09:46:13Z</time>
      </trkpt>
      <trkpt lat="45.93129" lon="4.72761">
        <ele>171</ele>
        <time>2017-06-10T09:46:14Z</time>
      </trkpt>
      <trkpt lat="45.93124" lon="4.72767">
        <ele>171</ele>
        <time>2017-06-10T09:46:15Z</time>
      </trkpt>
      <trkpt lat="45.93119" lon="4.72773">
        <ele>171</ele>
        <time>2017-06-10T09:46:16Z</time>
      </trkpt>
      <trkpt lat="45.93115" lon="4.7278">
        <ele>171</ele>
        <time>2017-06-10T09:46:17Z</time>
      </trkpt>
      <trkpt lat="45.9311" lon="4.72786">
        <ele>171</ele>
        <time>2017-06-10T09:46:18Z</time>
      </trkpt>
      <trkpt lat="45.93106" lon="4.72792">
        <ele>171</ele>
        <time>2017-06-10T09:46:19Z</time>
      </trkpt>
      <trkpt lat="45.93101" lon="4.72797">
        <ele>171</ele>
        <time>2017-06-10T09:46:20Z</time>
      </trkpt>
      <trkpt lat="45.93096" lon="4.72802">
        <ele>171</ele>
        <time>2017-06-10T09:46:21Z</time>
      </trkpt>
      <trkpt lat="45.93091" lon="4.72807">
        <ele>172</ele>
        <time>2017-06-10T09:46:22Z</time>
      </trkpt>
      <trkpt lat="45.93086" lon="4.72813">
        <ele>172</ele>
        <time>2017-06-10T09:46:23Z</time>
      </trkpt>
      <trkpt lat="45.93081" lon="4.72818">
        <ele>172</ele>
        <time>2017-06-10T09:46:24Z</time>
      </trkpt>
      <trkpt lat="45.93076" lon="4.72822">
        <ele>173</ele>
        <time>2017-06-10T09:46:25Z</time>
      </trkpt>
      <trkpt lat="45.93071" lon="4.72826">
        <ele>173</ele>
        <time>2017-06-10T09:46:26Z</time>
      </trkpt>
      <trkpt lat="45.93067" lon="4.7283">
        <ele>173</ele>
        <time>2017-06-10T09:46:27Z</time>
      </trkpt>
      <trkpt lat="45.93063" lon="4.72833">
        <ele>173</ele>
        <time>2017-06-10T09:46:28Z</time>
      </trkpt>
      <trkpt lat="45.93059" lon="4.72837">
        <ele>173</ele>
        <time>2017-06-10T09:46:29Z</time>
      </trkpt>
      <trkpt lat="45.93057" lon="4.72845">
        <ele>172</ele>
        <time>2017-06-10T09:46:30Z</time>
      </trkpt>
      <trkpt lat="45.93051" lon="4.72852">
        <ele>172</ele>
        <time>2017-06-10T09:46:31Z</time>
      </trkpt>
      <trkpt lat="45.93045" lon="4.72856">
        <ele>172</ele>
        <time>2017-06-10T09:46:32Z</time>
      </trkpt>
      <trkpt lat="45.9304" lon="4.72858">
        <ele>172</ele>
        <time>2017-06-10T09:46:33Z</time>
      </trkpt>
      <trkpt lat="45.93036" lon="4.72863">
        <ele>172</ele>
        <time>2017-06-10T09:46:34Z</time>
      </trkpt>
      <trkpt lat="45.93031" lon="4.7287">
        <ele>172</ele>
        <time>2017-06-10T09:46:35Z</time>
      </trkpt>
      <trkpt lat="45.93025" lon="4.72877">
        <ele>172</ele>
        <time>2017-06-10T09:46:36Z</time>
      </trkpt>
      <trkpt lat="45.93019" lon="4.72884">
        <ele>172</ele>
        <time>2017-06-10T09:46:37Z</time>
      </trkpt>
      <trkpt lat="45.93014" lon="4.72891">
        <ele>172</ele>
        <time>2017-06-10T09:46:38Z</time>
      </trkpt>
      <trkpt lat="45.93008" lon="4.72899">
        <ele>172</ele>
        <time>2017-06-10T09:46:39Z</time>
      </trkpt>
      <trkpt lat="45.93003" lon="4.72906">
        <ele>171</ele>
        <time>2017-06-10T09:46:40Z</time>
      </trkpt>
      <trkpt lat="45.92998" lon="4.72912">
        <ele>171</ele>
        <time>2017-06-10T09:46:41Z</time>
      </trkpt>
      <trkpt lat="45.92993" lon="4.72919">
        <ele>171</ele>
        <time>2017-06-10T09:46:42Z</time>
      </trkpt>
      <trkpt lat="45.92988" lon="4.72924">
        <ele>171</ele>
        <time>2017-06-10T09:46:43Z</time>
      </trkpt>
      <trkpt lat="45.92984" lon="4.7293">
        <ele>171</ele>
        <time>2017-06-10T09:46:44Z</time>
      </trkpt>
      <trkpt lat="45.92979" lon="4.72936">
        <ele>171</ele>
        <time>2017-06-10T09:46:45Z</time>
      </trkpt>
      <trkpt lat="45.92975" lon="4.72942">
        <ele>171</ele>
        <time>2017-06-10T09:46:46Z</time>
      </trkpt>
      <trkpt lat="45.92971" lon="4.72948">
        <ele>171</ele>
        <time>2017-06-10T09:46:47Z</time>
      </trkpt>
      <trkpt lat="45.92967" lon="4.72954">
        <ele>171</ele>
        <time>2017-06-10T09:46:48Z</time>
      </trkpt>
      <trkpt lat="45.92963" lon="4.72959">
        <ele>171</ele>
        <time>2017-06-10T09:46:49Z</time>
      </trkpt>
      <trkpt lat="45.92959" lon="4.72964">
        <ele>171</ele>
        <time>2017-06-10T09:46:50Z</time>
      </trkpt>
      <trkpt lat="45.92955" lon="4.7297">
        <ele>171</ele>
        <time>2017-06-10T09:46:51Z</time>
      </trkpt>
      <trkpt lat="45.92951" lon="4.72975">
        <ele>171</ele>
        <time>2017-06-10T09:46:52Z</time>
      </trkpt>
      <trkpt lat="45.92947" lon="4.7298">
        <ele>171</ele>
        <time>2017-06-10T09:46:53Z</time>
      </trkpt>
      <trkpt lat="45.92942" lon="4.72985">
        <ele>171</ele>
        <time>2017-06-10T09:46:54Z</time>
      </trkpt>
      <trkpt lat="45.92938" lon="4.7299">
        <ele>171</ele>
        <time>2017-06-10T09:46:55Z</time>
      </trkpt>
      <trkpt lat="45.92933" lon="4.72996">
        <ele>172</ele>
        <time>2017-06-10T09:46:56Z</time>
      </trkpt>
      <trkpt lat="45.92928" lon="4.73002">
        <ele>172</ele>
        <time>2017-06-10T09:46:57Z</time>
      </trkpt>
      <trkpt lat="45.92923" lon="4.73008">
        <ele>172</ele>
        <time>2017-06-10T09:46:58Z</time>
      </trkpt>
      <trkpt lat="45.92918" lon="4.73015">
        <ele>172</ele>
        <time>2017-06-10T09:46:59Z</time>
      </trkpt>
      <trkpt lat="45.92913" lon="4.73021">
        <ele>172</ele>
        <time>2017-06-10T09:47:00Z</time>
      </trkpt>
      <trkpt lat="45.92908" lon="4.73028">
        <ele>172</ele>
        <time>2017-06-10T09:47:01Z</time>
      </trkpt>
      <trkpt lat="45.92904" lon="4.73035">
        <ele>172</ele>
        <time>2017-06-10T09:47:02Z</time>
      </trkpt>
      <trkpt lat="45.92899" lon="4.73042">
        <ele>172</ele>
        <time>2017-06-10T09:47:03Z</time>
      </trkpt>
      <trkpt lat="45.92895" lon="4.73048">
        <ele>172</ele>
        <time>2017-06-10T09:47:04Z</time>
      </trkpt>
      <trkpt lat="45.92891" lon="4.73055">
        <ele>172</ele>
        <time>2017-06-10T09:47:05Z</time>
      </trkpt>
      <trkpt lat="45.92887" lon="4.73061">
        <ele>172</ele>
        <time>2017-06-10T09:47:06Z</time>
      </trkpt>
      <trkpt lat="45.92883" lon="4.73068">
        <ele>172</ele>
        <time>2017-06-10T09:47:07Z</time>
      </trkpt>
      <trkpt lat="45.92879" lon="4.73074">
        <ele>172</ele>
        <time>2017-06-10T09:47:08Z</time>
      </trkpt>
      <trkpt lat="45.92875" lon="4.73079">
        <ele>172</ele>
        <time>2017-06-10T09:47:09Z</time>
      </trkpt>
      <trkpt lat="45.92871" lon="4.73085">
        <ele>172</ele>
        <time>2017-06-10T09:47:10Z</time>
      </trkpt>
      <trkpt lat="45.92867" lon="4.7309">
        <ele>172</ele>
        <time>2017-06-10T09:47:11Z</time>
      </trkpt>
      <trkpt lat="45.92863" lon="4.73096">
        <ele>171</ele>
        <time>2017-06-10T09:47:12Z</time>
      </trkpt>
      <trkpt lat="45.92858" lon="4.731">
        <ele>171</ele>
        <time>2017-06-10T09:47:13Z</time>
      </trkpt>
      <trkpt lat="45.92854" lon="4.73102">
        <ele>171</ele>
        <time>2017-06-10T09:47:14Z</time>
      </trkpt>
      <trkpt lat="45.92848" lon="4.731">
        <ele>171</ele>
        <time>2017-06-10T09:47:16Z</time>
      </trkpt>
      <trkpt lat="45.92846" lon="4.73096">
        <ele>171</ele>
        <time>2017-06-10T09:47:17Z</time>
      </trkpt>
      <trkpt lat="45.92845" lon="4.7309">
        <ele>171</ele>
        <time>2017-06-10T09:47:18Z</time>
      </trkpt>
      <trkpt lat="45.92844" lon="4.73083">
        <ele>171</ele>
        <time>2017-06-10T09:47:19Z</time>
      </trkpt>
      <trkpt lat="45.92843" lon="4.73076">
        <ele>171</ele>
        <time>2017-06-10T09:47:20Z</time>
      </trkpt>
      <trkpt lat="45.92842" lon="4.73068">
        <ele>171</ele>
        <time>2017-06-10T09:47:21Z</time>
      </trkpt>
      <trkpt lat="45.92841" lon="4.7306">
        <ele>171</ele>
        <time>2017-06-10T09:47:22Z</time>
      </trkpt>
      <trkpt lat="45.92839" lon="4.73052">
        <ele>171</ele>
        <time>2017-06-10T09:47:23Z</time>
      </trkpt>
      <trkpt lat="45.92838" lon="4.73044">
        <ele>171</ele>
        <time>2017-06-10T09:47:24Z</time>
      </trkpt>
      <trkpt lat="45.92837" lon="4.73037">
        <ele>171</ele>
        <time>2017-06-10T09:47:25Z</time>
      </trkpt>
      <trkpt lat="45.92837" lon="4.73029">
        <ele>171</ele>
        <time>2017-06-10T09:47:26Z</time>
      </trkpt>
      <trkpt lat="45.92835" lon="4.73021">
        <ele>171</ele>
        <time>2017-06-10T09:47:27Z</time>
      </trkpt>
      <trkpt lat="45.92834" lon="4.73014">
        <ele>171</ele>
        <time>2017-06-10T09:47:28Z</time>
      </trkpt>
      <trkpt lat="45.92833" lon="4.73007">
        <ele>170</ele>
        <time>2017-06-10T09:47:29Z</time>
      </trkpt>
      <trkpt lat="45.92832" lon="4.72999">
        <ele>170</ele>
        <time>2017-06-10T09:47:30Z</time>
      </trkpt>
      <trkpt lat="45.92832" lon="4.72991">
        <ele>170</ele>
        <time>2017-06-10T09:47:31Z</time>
      </trkpt>
      <trkpt lat="45.92831" lon="4.72983">
        <ele>170</ele>
        <time>2017-06-10T09:47:32Z</time>
      </trkpt>
      <trkpt lat="45.92831" lon="4.72974">
        <ele>170</ele>
        <time>2017-06-10T09:47:33Z</time>
      </trkpt>
      <trkpt lat="45.9283" lon="4.72966">
        <ele>170</ele>
        <time>2017-06-10T09:47:34Z</time>
      </trkpt>
      <trkpt lat="45.9283" lon="4.72957">
        <ele>170</ele>
        <time>2017-06-10T09:47:35Z</time>
      </trkpt>
      <trkpt lat="45.92829" lon="4.72949">
        <ele>170</ele>
        <time>2017-06-10T09:47:36Z</time>
      </trkpt>
      <trkpt lat="45.92828" lon="4.72941">
        <ele>170</ele>
        <time>2017-06-10T09:47:37Z</time>
      </trkpt>
      <trkpt lat="45.92828" lon="4.72933">
        <ele>170</ele>
        <time>2017-06-10T09:47:38Z</time>
      </trkpt>
      <trkpt lat="45.92827" lon="4.72926">
        <ele>170</ele>
        <time>2017-06-10T09:47:39Z</time>
      </trkpt>
      <trkpt lat="45.92826" lon="4.72919">
        <ele>170</ele>
        <time>2017-06-10T09:47:40Z</time>
      </trkpt>
      <trkpt lat="45.92825" lon="4.72911">
        <ele>170</ele>
        <time>2017-06-10T09:47:41Z</time>
      </trkpt>
      <trkpt lat="45.92824" lon="4.72904">
        <ele>170</ele>
        <time>2017-06-10T09:47:42Z</time>
      </trkpt>
      <trkpt lat="45.92823" lon="4.72897">
        <ele>170</ele>
        <time>2017-06-10T09:47:43Z</time>
      </trkpt>
      <trkpt lat="45.92822" lon="4.72891">
        <ele>170</ele>
        <time>2017-06-10T09:47:44Z</time>
      </trkpt>
      <trkpt lat="45.92821" lon="4.72884">
        <ele>170</ele>
        <time>2017-06-10T09:47:45Z</time>
      </trkpt>
      <trkpt lat="45.92819" lon="4.72877">
        <ele>170</ele>
        <time>2017-06-10T09:47:46Z</time>
      </trkpt>
      <trkpt lat="45.92817" lon="4.72869">
        <ele>170</ele>
        <time>2017-06-10T09:47:47Z</time>
      </trkpt>
      <trkpt lat="45.92816" lon="4.72862">
        <ele>170</ele>
        <time>2017-06-10T09:47:48Z</time>
      </trkpt>
      <trkpt lat="45.92815" lon="4.72854">
        <ele>170</ele>
        <time>2017-06-10T09:47:49Z</time>
      </trkpt>
      <trkpt lat="45.92814" lon="4.72847">
        <ele>170</ele>
        <time>2017-06-10T09:47:50Z</time>
      </trkpt>
      <trkpt lat="45.92813" lon="4.72839">
        <ele>170</ele>
        <time>2017-06-10T09:47:51Z</time>
      </trkpt>
      <trkpt lat="45.92811" lon="4.72832">
        <ele>171</ele>
        <time>2017-06-10T09:47:52Z</time>
      </trkpt>
      <trkpt lat="45.92811" lon="4.72825">
        <ele>171</ele>
        <time>2017-06-10T09:47:53Z</time>
      </trkpt>
      <trkpt lat="45.9281" lon="4.72818">
        <ele>171</ele>
        <time>2017-06-10T09:47:54Z</time>
      </trkpt>
      <trkpt lat="45.92808" lon="4.72812">
        <ele>171</ele>
        <time>2017-06-10T09:47:55Z</time>
      </trkpt>
      <trkpt lat="45.92807" lon="4.72805">
        <ele>171</ele>
        <time>2017-06-10T09:47:56Z</time>
      </trkpt>
      <trkpt lat="45.92806" lon="4.72798">
        <ele>171</ele>
        <time>2017-06-10T09:47:57Z</time>
      </trkpt>
      <trkpt lat="45.92801" lon="4.72788">
        <ele>171</ele>
        <time>2017-06-10T09:47:59Z</time>
      </trkpt>
      <trkpt lat="45.92796" lon="4.72787">
        <ele>171</ele>
        <time>2017-06-10T09:48:00Z</time>
      </trkpt>
      <trkpt lat="45.92789" lon="4.72789">
        <ele>171</ele>
        <time>2017-06-10T09:48:01Z</time>
      </trkpt>
      <trkpt lat="45.92784" lon="4.72792">
        <ele>170</ele>
        <time>2017-06-10T09:48:02Z</time>
      </trkpt>
      <trkpt lat="45.92779" lon="4.72795">
        <ele>170</ele>
        <time>2017-06-10T09:48:03Z</time>
      </trkpt>
      <trkpt lat="45.92774" lon="4.72799">
        <ele>170</ele>
        <time>2017-06-10T09:48:04Z</time>
      </trkpt>
      <trkpt lat="45.92769" lon="4.72803">
        <ele>170</ele>
        <time>2017-06-10T09:48:05Z</time>
      </trkpt>
      <trkpt lat="45.92763" lon="4.72807">
        <ele>170</ele>
        <time>2017-06-10T09:48:06Z</time>
      </trkpt>
      <trkpt lat="45.92758" lon="4.72811">
        <ele>170</ele>
        <time>2017-06-10T09:48:07Z</time>
      </trkpt>
      <trkpt lat="45.92753" lon="4.72815">
        <ele>170</ele>
        <time>2017-06-10T09:48:08Z</time>
      </trkpt>
      <trkpt lat="45.92747" lon="4.72819">
        <ele>169</ele>
        <time>2017-06-10T09:48:09Z</time>
      </trkpt>
      <trkpt lat="45.92742" lon="4.72823">
        <ele>169</ele>
        <time>2017-06-10T09:48:10Z</time>
      </trkpt>
      <trkpt lat="45.92737" lon="4.72827">
        <ele>169</ele>
        <time>2017-06-10T09:48:11Z</time>
      </trkpt>
      <trkpt lat="45.92733" lon="4.72831">
        <ele>169</ele>
        <time>2017-06-10T09:48:12Z</time>
      </trkpt>
      <trkpt lat="45.92729" lon="4.72834">
        <ele>169</ele>
        <time>2017-06-10T09:48:13Z</time>
      </trkpt>
      <trkpt lat="45.92724" lon="4.72838">
        <ele>169</ele>
        <time>2017-06-10T09:48:14Z</time>
      </trkpt>
      <trkpt lat="45.92719" lon="4.72841">
        <ele>169</ele>
        <time>2017-06-10T09:48:15Z</time>
      </trkpt>
      <trkpt lat="45.92715" lon="4.72845">
        <ele>169</ele>
        <time>2017-06-10T09:48:16Z</time>
      </trkpt>
      <trkpt lat="45.9271" lon="4.72849">
        <ele>169</ele>
        <time>2017-06-10T09:48:17Z</time>
      </trkpt>
      <trkpt lat="45.92704" lon="4.72853">
        <ele>169</ele>
        <time>2017-06-10T09:48:18Z</time>
      </trkpt>
      <trkpt lat="45.92699" lon="4.72857">
        <ele>169</ele>
        <time>2017-06-10T09:48:19Z</time>
      </trkpt>
      <trkpt lat="45.92694" lon="4.72862">
        <ele>169</ele>
        <time>2017-06-10T09:48:20Z</time>
      </trkpt>
      <trkpt lat="45.92689" lon="4.72866">
        <ele>169</ele>
        <time>2017-06-10T09:48:21Z</time>
      </trkpt>
      <trkpt lat="45.92684" lon="4.7287">
        <ele>169</ele>
        <time>2017-06-10T09:48:22Z</time>
      </trkpt>
      <trkpt lat="45.92679" lon="4.72874">
        <ele>169</ele>
        <time>2017-06-10T09:48:23Z</time>
      </trkpt>
      <trkpt lat="45.92674" lon="4.72878">
        <ele>170</ele>
        <time>2017-06-10T09:48:24Z</time>
      </trkpt>
      <trkpt lat="45.92669" lon="4.72882">
        <ele>170</ele>
        <time>2017-06-10T09:48:25Z</time>
      </trkpt>
      <trkpt lat="45.92665" lon="4.72886">
        <ele>169</ele>
        <time>2017-06-10T09:48:26Z</time>
      </trkpt>
      <trkpt lat="45.9266" lon="4.7289">
        <ele>169</ele>
        <time>2017-06-10T09:48:27Z</time>
      </trkpt>
      <trkpt lat="45.92656" lon="4.72893">
        <ele>169</ele>
        <time>2017-06-10T09:48:28Z</time>
      </trkpt>
      <trkpt lat="45.92651" lon="4.72896">
        <ele>169</ele>
        <time>2017-06-10T09:48:29Z</time>
      </trkpt>
      <trkpt lat="45.92646" lon="4.729">
        <ele>169</ele>
        <time>2017-06-10T09:48:30Z</time>
      </trkpt>
      <trkpt lat="45.92641" lon="4.72904">
        <ele>169</ele>
        <time>2017-06-10T09:48:31Z</time>
      </trkpt>
      <trkpt lat="45.92635" lon="4.72909">
        <ele>169</ele>
        <time>2017-06-10T09:48:32Z</time>
      </trkpt>
      <trkpt lat="45.92629" lon="4.72914">
        <ele>169</ele>
        <time>2017-06-10T09:48:33Z</time>
      </trkpt>
      <trkpt lat="45.92623" lon="4.7292">
        <ele>169</ele>
        <time>2017-06-10T09:48:34Z</time>
      </trkpt>
      <trkpt lat="45.92617" lon="4.72925">
        <ele>169</ele>
        <time>2017-06-10T09:48:35Z</time>
      </trkpt>
      <trkpt lat="45.92611" lon="4.7293">
        <ele>169</ele>
        <time>2017-06-10T09:48:36Z</time>
      </trkpt>
      <trkpt lat="45.92605" lon="4.72936">
        <ele>169</ele>
        <time>2017-06-10T09:48:37Z</time>
      </trkpt>
      <trkpt lat="45.92599" lon="4.72942">
        <ele>169</ele>
        <time>2017-06-10T09:48:38Z</time>
      </trkpt>
      <trkpt lat="45.92594" lon="4.72948">
        <ele>169</ele>
        <time>2017-06-10T09:48:39Z</time>
      </trkpt>
      <trkpt lat="45.92589" lon="4.72954">
        <ele>169</ele>
        <time>2017-06-10T09:48:40Z</time>
      </trkpt>
      <trkpt lat="45.92584" lon="4.7296">
        <ele>169</ele>
        <time>2017-06-10T09:48:41Z</time>
      </trkpt>
      <trkpt lat="45.92579" lon="4.72966">
        <ele>169</ele>
        <time>2017-06-10T09:48:42Z</time>
      </trkpt>
      <trkpt lat="45.92574" lon="4.72971">
        <ele>169</ele>
        <time>2017-06-10T09:48:43Z</time>
      </trkpt>
      <trkpt lat="45.92569" lon="4.72976">
        <ele>169</ele>
        <time>2017-06-10T09:48:44Z</time>
      </trkpt>
      <trkpt lat="45.92564" lon="4.72982">
        <ele>169</ele>
        <time>2017-06-10T09:48:45Z</time>
      </trkpt>
      <trkpt lat="45.92559" lon="4.72987">
        <ele>169</ele>
        <time>2017-06-10T09:48:46Z</time>
      </trkpt>
      <trkpt lat="45.92554" lon="4.72993">
        <ele>169</ele>
        <time>2017-06-10T09:48:47Z</time>
      </trkpt>
      <trkpt lat="45.92548" lon="4.72998">
        <ele>169</ele>
        <time>2017-06-10T09:48:48Z</time>
      </trkpt>
      <trkpt lat="45.92542" lon="4.73003">
        <ele>169</ele>
        <time>2017-06-10T09:48:49Z</time>
      </trkpt>
      <trkpt lat="45.92536" lon="4.73009">
        <ele>169</ele>
        <time>2017-06-10T09:48:50Z</time>
      </trkpt>
      <trkpt lat="45.9253" lon="4.73014">
        <ele>169</ele>
        <time>2017-06-10T09:48:51Z</time>
      </trkpt>
      <trkpt lat="45.92524" lon="4.7302">
        <ele>169</ele>
        <time>2017-06-10T09:48:52Z</time>
      </trkpt>
      <trkpt lat="45.92519" lon="4.73026">
        <ele>169</ele>
        <time>2017-06-10T09:48:53Z</time>
      </trkpt>
      <trkpt lat="45.92513" lon="4.73031">
        <ele>169</ele>
        <time>2017-06-10T09:48:54Z</time>
      </trkpt>
      <trkpt lat="45.92508" lon="4.73035">
        <ele>169</ele>
        <time>2017-06-10T09:48:55Z</time>
      </trkpt>
      <trkpt lat="45.92502" lon="4.7304">
        <ele>169</ele>
        <time>2017-06-10T09:48:56Z</time>
      </trkpt>
      <trkpt lat="45.92497" lon="4.73045">
        <ele>170</ele>
        <time>2017-06-10T09:48:57Z</time>
      </trkpt>
      <trkpt lat="45.92492" lon="4.73049">
        <ele>170</ele>
        <time>2017-06-10T09:48:58Z</time>
      </trkpt>
      <trkpt lat="45.92487" lon="4.73054">
        <ele>170</ele>
        <time>2017-06-10T09:48:59Z</time>
      </trkpt>
      <trkpt lat="45.92482" lon="4.73058">
        <ele>170</ele>
        <time>2017-06-10T09:49:00Z</time>
      </trkpt>
      <trkpt lat="45.92477" lon="4.73063">
        <ele>170</ele>
        <time>2017-06-10T09:49:01Z</time>
      </trkpt>
      <trkpt lat="45.92472" lon="4.73067">
        <ele>170</ele>
        <time>2017-06-10T09:49:02Z</time>
      </trkpt>
      <trkpt lat="45.92467" lon="4.73072">
        <ele>170</ele>
        <time>2017-06-10T09:49:03Z</time>
      </trkpt>
      <trkpt lat="45.92462" lon="4.73076">
        <ele>170</ele>
        <time>2017-06-10T09:49:04Z</time>
      </trkpt>
      <trkpt lat="45.92457" lon="4.73079">
        <ele>170</ele>
        <time>2017-06-10T09:49:05Z</time>
      </trkpt>
      <trkpt lat="45.92452" lon="4.73084">
        <ele>170</ele>
        <time>2017-06-10T09:49:06Z</time>
      </trkpt>
      <trkpt lat="45.92447" lon="4.73088">
        <ele>170</ele>
        <time>2017-06-10T09:49:07Z</time>
      </trkpt>
      <trkpt lat="45.92442" lon="4.73092">
        <ele>170</ele>
        <time>2017-06-10T09:49:08Z</time>
      </trkpt>
      <trkpt lat="45.92438" lon="4.73096">
        <ele>171</ele>
        <time>2017-06-10T09:49:09Z</time>
      </trkpt>
      <trkpt lat="45.92433" lon="4.73099">
        <ele>171</ele>
        <time>2017-06-10T09:49:10Z</time>
      </trkpt>
      <trkpt lat="45.92429" lon="4.73103">
        <ele>171</ele>
        <time>2017-06-10T09:49:11Z</time>
      </trkpt>
      <trkpt lat="45.92424" lon="4.73107">
        <ele>171</ele>
        <time>2017-06-10T09:49:12Z</time>
      </trkpt>
      <trkpt lat="45.9242" lon="4.7311">
        <ele>170</ele>
        <time>2017-06-10T09:49:13Z</time>
      </trkpt>
      <trkpt lat="45.92416" lon="4.73114">
        <ele>171</ele>
        <time>2017-06-10T09:49:14Z</time>
      </trkpt>
      <trkpt lat="45.92412" lon="4.73118">
        <ele>171</ele>
        <time>2017-06-10T09:49:15Z</time>
      </trkpt>
      <trkpt lat="45.92409" lon="4.73123">
        <ele>171</ele>
        <time>2017-06-10T09:49:16Z</time>
      </trkpt>
      <trkpt lat="45.92407" lon="4.73129">
        <ele>171</ele>
        <time>2017-06-10T09:49:17Z</time>
      </trkpt>
      <trkpt lat="45.92406" lon="4.73135">
        <ele>171</ele>
        <time>2017-06-10T09:49:18Z</time>
      </trkpt>
      <trkpt lat="45.92406" lon="4.73142">
        <ele>171</ele>
        <time>2017-06-10T09:49:19Z</time>
      </trkpt>
      <trkpt lat="45.92405" lon="4.7315">
        <ele>171</ele>
        <time>2017-06-10T09:49:20Z</time>
      </trkpt>
      <trkpt lat="45.92405" lon="4.73158">
        <ele>170</ele>
        <time>2017-06-10T09:49:21Z</time>
      </trkpt>
      <trkpt lat="45.92405" lon="4.73166">
        <ele>170</ele>
        <time>2017-06-10T09:49:22Z</time>
      </trkpt>
      <trkpt lat="45.92406" lon="4.73174">
        <ele>171</ele>
        <time>2017-06-10T09:49:23Z</time>
      </trkpt>
      <trkpt lat="45.92406" lon="4.73183">
        <ele>171</ele>
        <time>2017-06-10T09:49:24Z</time>
      </trkpt>
      <trkpt lat="45.92406" lon="4.73192">
        <ele>171</ele>
        <time>2017-06-10T09:49:25Z</time>
      </trkpt>
      <trkpt lat="45.92406" lon="4.73202">
        <ele>171</ele>
        <time>2017-06-10T09:49:26Z</time>
      </trkpt>
      <trkpt lat="45.92407" lon="4.73211">
        <ele>171</ele>
        <time>2017-06-10T09:49:27Z</time>
      </trkpt>
      <trkpt lat="45.92408" lon="4.7322">
        <ele>171</ele>
        <time>2017-06-10T09:49:28Z</time>
      </trkpt>
      <trkpt lat="45.92408" lon="4.73229">
        <ele>171</ele>
        <time>2017-06-10T09:49:29Z</time>
      </trkpt>
      <trkpt lat="45.92408" lon="4.73237">
        <ele>171</ele>
        <time>2017-06-10T09:49:30Z</time>
      </trkpt>
      <trkpt lat="45.92408" lon="4.73245">
        <ele>171</ele>
        <time>2017-06-10T09:49:31Z</time>
      </trkpt>
      <trkpt lat="45.92409" lon="4.73253">
        <ele>171</ele>
        <time>2017-06-10T09:49:32Z</time>
      </trkpt>
      <trkpt lat="45.92409" lon="4.7326">
        <ele>171</ele>
        <time>2017-06-10T09:49:33Z</time>
      </trkpt>
      <trkpt lat="45.92409" lon="4.73268">
        <ele>171</ele>
        <time>2017-06-10T09:49:34Z</time>
      </trkpt>
      <trkpt lat="45.9241" lon="4.73276">
        <ele>171</ele>
        <time>2017-06-10T09:49:35Z</time>
      </trkpt>
      <trkpt lat="45.9241" lon="4.73283">
        <ele>171</ele>
        <time>2017-06-10T09:49:36Z</time>
      </trkpt>
      <trkpt lat="45.92411" lon="4.73291">
        <ele>171</ele>
        <time>2017-06-10T09:49:37Z</time>
      </trkpt>
      <trkpt lat="45.92412" lon="4.73299">
        <ele>171</ele>
        <time>2017-06-10T09:49:38Z</time>
      </trkpt>
      <trkpt lat="45.92412" lon="4.73307">
        <ele>171</ele>
        <time>2017-06-10T09:49:39Z</time>
      </trkpt>
      <trkpt lat="45.92413" lon="4.73315">
        <ele>171</ele>
        <time>2017-06-10T09:49:40Z</time>
      </trkpt>
      <trkpt lat="45.92414" lon="4.73323">
        <ele>171</ele>
        <time>2017-06-10T09:49:41Z</time>
      </trkpt>
      <trkpt lat="45.92414" lon="4.73332">
        <ele>171</ele>
        <time>2017-06-10T09:49:42Z</time>
      </trkpt>
      <trkpt lat="45.92415" lon="4.7334">
        <ele>171</ele>
        <time>2017-06-10T09:49:43Z</time>
      </trkpt>
      <trkpt lat="45.92416" lon="4.73349">
        <ele>171</ele>
        <time>2017-06-10T09:49:44Z</time>
      </trkpt>
      <trkpt lat="45.92417" lon="4.73357">
        <ele>171</ele>
        <time>2017-06-10T09:49:45Z</time>
      </trkpt>
      <trkpt lat="45.92418" lon="4.73365">
        <ele>172</ele>
        <time>2017-06-10T09:49:46Z</time>
      </trkpt>
      <trkpt lat="45.92419" lon="4.73373">
        <ele>172</ele>
        <time>2017-06-10T09:49:47Z</time>
      </trkpt>
      <trkpt lat="45.92421" lon="4.7338">
        <ele>172</ele>
        <time>2017-06-10T09:49:48Z</time>
      </trkpt>
      <trkpt lat="45.92423" lon="4.73387">
        <ele>172</ele>
        <time>2017-06-10T09:49:49Z</time>
      </trkpt>
      <trkpt lat="45.92425" lon="4.73395">
        <ele>172</ele>
        <time>2017-06-10T09:49:50Z</time>
      </trkpt>
      <trkpt lat="45.92427" lon="4.73402">
        <ele>172</ele>
        <time>2017-06-10T09:49:51Z</time>
      </trkpt>
      <trkpt lat="45.92431" lon="4.73409">
        <ele>172</ele>
        <time>2017-06-10T09:49:52Z</time>
      </trkpt>
      <trkpt lat="45.92435" lon="4.73415">
        <ele>172</ele>
        <time>2017-06-10T09:49:53Z</time>
      </trkpt>
      <trkpt lat="45.9244" lon="4.73419">
        <ele>173</ele>
        <time>2017-06-10T09:49:54Z</time>
      </trkpt>
      <trkpt lat="45.92445" lon="4.73423">
        <ele>173</ele>
        <time>2017-06-10T09:49:55Z</time>
      </trkpt>
      <trkpt lat="45.9245" lon="4.73426">
        <ele>173</ele>
        <time>2017-06-10T09:49:56Z</time>
      </trkpt>
      <trkpt lat="45.92454" lon="4.73429">
        <ele>173</ele>
        <time>2017-06-10T09:49:57Z</time>
      </trkpt>
      <trkpt lat="45.92457" lon="4.73434">
        <ele>173</ele>
        <time>2017-06-10T09:49:58Z</time>
      </trkpt>
      <trkpt lat="45.92462" lon="4.73444">
        <ele>173</ele>
        <time>2017-06-10T09:50:00Z</time>
      </trkpt>
      <trkpt lat="45.92464" lon="4.73451">
        <ele>173</ele>
        <time>2017-06-10T09:50:01Z</time>
      </trkpt>
      <trkpt lat="45.92465" lon="4.73458">
        <ele>173</ele>
        <time>2017-06-10T09:50:02Z</time>
      </trkpt>
      <trkpt lat="45.92466" lon="4.73465">
        <ele>173</ele>
        <time>2017-06-10T09:50:03Z</time>
      </trkpt>
      <trkpt lat="45.92466" lon="4.73473">
        <ele>173</ele>
        <time>2017-06-10T09:50:04Z</time>
      </trkpt>
      <trkpt lat="45.92466" lon="4.73481">
        <ele>173</ele>
        <time>2017-06-10T09:50:05Z</time>
      </trkpt>
      <trkpt lat="45.92466" lon="4.73489">
        <ele>173</ele>
        <time>2017-06-10T09:50:06Z</time>
      </trkpt>
      <trkpt lat="45.92466" lon="4.73498">
        <ele>173</ele>
        <time>2017-06-10T09:50:07Z</time>
      </trkpt>
      <trkpt lat="45.92466" lon="4.73506">
        <ele>174</ele>
        <time>2017-06-10T09:50:08Z</time>
      </trkpt>
      <trkpt lat="45.92466" lon="4.73514">
        <ele>174</ele>
        <time>2017-06-10T09:50:09Z</time>
      </trkpt>
      <trkpt lat="45.92466" lon="4.73522">
        <ele>174</ele>
        <time>2017-06-10T09:50:10Z</time>
      </trkpt>
      <trkpt lat="45.92465" lon="4.73529">
        <ele>174</ele>
        <time>2017-06-10T09:50:11Z</time>
      </trkpt>
      <trkpt lat="45.92465" lon="4.73536">
        <ele>174</ele>
        <time>2017-06-10T09:50:12Z</time>
      </trkpt>
      <trkpt lat="45.92465" lon="4.73542">
        <ele>173</ele>
        <time>2017-06-10T09:50:13Z</time>
      </trkpt>
      <trkpt lat="45.92464" lon="4.73554">
        <ele>173</ele>
        <time>2017-06-10T09:50:15Z</time>
      </trkpt>
      <trkpt lat="45.92464" lon="4.73561">
        <ele>173</ele>
        <time>2017-06-10T09:50:16Z</time>
      </trkpt>
      <trkpt lat="45.92464" lon="4.73568">
        <ele>173</ele>
        <time>2017-06-10T09:50:17Z</time>
      </trkpt>
      <trkpt lat="45.92465" lon="4.73575">
        <ele>173</ele>
        <time>2017-06-10T09:50:18Z</time>
      </trkpt>
      <trkpt lat="45.92466" lon="4.73582">
        <ele>173</ele>
        <time>2017-06-10T09:50:19Z</time>
      </trkpt>
      <trkpt lat="45.92467" lon="4.7359">
        <ele>174</ele>
        <time>2017-06-10T09:50:20Z</time>
      </trkpt>
      <trkpt lat="45.92467" lon="4.73598">
        <ele>174</ele>
        <time>2017-06-10T09:50:21Z</time>
      </trkpt>
      <trkpt lat="45.92467" lon="4.73606">
        <ele>174</ele>
        <time>2017-06-10T09:50:22Z</time>
      </trkpt>
      <trkpt lat="45.92467" lon="4.73614">
        <ele>174</ele>
        <time>2017-06-10T09:50:23Z</time>
      </trkpt>
      <trkpt lat="45.92467" lon="4.73622">
        <ele>174</ele>
        <time>2017-06-10T09:50:24Z</time>
      </trkpt>
      <trkpt lat="45.92468" lon="4.73629">
        <ele>174</ele>
        <time>2017-06-10T09:50:25Z</time>
      </trkpt>
      <trkpt lat="45.92468" lon="4.73637">
        <ele>174</ele>
        <time>2017-06-10T09:50:26Z</time>
      </trkpt>
      <trkpt lat="45.92468" lon="4.73643">
        <ele>174</ele>
        <time>2017-06-10T09:50:27Z</time>
      </trkpt>
      <trkpt lat="45.92468" lon="4.7365">
        <ele>174</ele>
        <time>2017-06-10T09:50:28Z</time>
      </trkpt>
      <trkpt lat="45.92468" lon="4.73657">
        <ele>174</ele>
        <time>2017-06-10T09:50:29Z</time>
      </trkpt>
      <trkpt lat="45.92467" lon="4.73663">
        <ele>174</ele>
        <time>2017-06-10T09:50:30Z</time>
      </trkpt>
      <trkpt lat="45.92467" lon="4.7367">
        <ele>174</ele>
        <time>2017-06-10T09:50:31Z</time>
      </trkpt>
      <trkpt lat="45.92467" lon="4.73676">
        <ele>174</ele>
        <time>2017-06-10T09:50:32Z</time>
      </trkpt>
      <trkpt lat="45.92465" lon="4.73688">
        <ele>174</ele>
        <time>2017-06-10T09:50:34Z</time>
      </trkpt>
      <trkpt lat="45.92464" lon="4.73694">
        <ele>174</ele>
        <time>2017-06-10T09:50:35Z</time>
      </trkpt>
      <trkpt lat="45.92463" lon="4.73706">
        <ele>174</ele>
        <time>2017-06-10T09:50:37Z</time>
      </trkpt>
      <trkpt lat="45.92463" lon="4.73709">
        <ele>174</ele>
        <time>2017-06-10T09:50:38Z</time>
      </trkpt>
      <trkpt lat="45.92462" lon="4.73711">
        <ele>174</ele>
        <time>2017-06-10T09:50:39Z</time>
      </trkpt>
      <trkpt lat="45.92462" lon="4.73712">
        <ele>174</ele>
        <time>2017-06-10T09:50:49Z</time>
      </trkpt>
      <trkpt lat="45.92461" lon="4.73712">
        <ele>174</ele>
        <time>2017-06-10T09:50:50Z</time>
      </trkpt>
      <trkpt lat="45.9246" lon="4.73712">
        <ele>174</ele>
        <time>2017-06-10T09:51:06.725Z</time>
      </trkpt>
    </trkseg>
  </trk>
</gpx>